# Wetter Temperatur Luftdruck Luftfeuchtigkeit Sichtweite Windgeschwindigkeit Windrichtung Zeit
1 Clouds 28 1012 66 10000 5.1 180 21:42 28.01.2020
2 Clouds 28 1012 66 10000 5.1 180 21:22 28.01.2020
3 Clouds 28 1013 62 10000 6.2 180 20:57 28.01.2020
4 Clouds 28 1013 62 10000 6.2 180 20:39 28.01.2020
5 Clouds 29 1013 62 10000 6.2 180 20:21 28.01.2020
6 Clouds 29 1013 58 10000 5.1 180 19:39 28.01.2020
7 Clouds 29 1013 58 10000 5.1 180 19:20 28.01.2020
8 Clouds 29 1013 58 10000 5.1 180 19:20 28.01.2020
9 Clouds 29 1014 62 10000 5.1 180 18:58 28.01.2020
10 Clouds 29 1014 62 10000 5.1 180 18:39 28.01.2020
11 Clouds 29 1014 62 10000 5.1 180 18:21 28.01.2020
12 Clouds 28 1015 66 10000 4.1 200 17:56 28.01.2020
13 Clouds 28 1015 66 10000 4.1 200 17:37 28.01.2020
14 Clouds 28 1015 66 10000 4.1 200 17:19 28.01.2020
15 Clouds 28 1015 74 10000 3.1 330 16:46 28.01.2020
16 Clouds 28 1015 74 10000 3.1 330 16:27 28.01.2020
17 Clouds 26 1014 94 10000 0.51 87 15:59 28.01.2020
18 Clouds 26 1014 94 10000 0.51 87 15:40 28.01.2020
19 Clouds 26 1014 94 10000 0.51 87 15:18 28.01.2020
20 Clouds 24 1014 88 10000 0.51 87 14:45 28.01.2020
21 Clouds 23 1014 88 10000 1.05 305 14:20 28.01.2020
22 Clouds 21 1013 100 10000 1.05 305 13:46 28.01.2020
23 Clouds 21 1013 100 10000 1.04 304 13:25 28.01.2020
24 Mist 22 1013 94 5000 1.04 304 12:59 28.01.2020
25 Mist 22 1013 94 5000 1.04 304 12:41 28.01.2020
26 Mist 20 1013 94 5000 1.04 304 12:22 28.01.2020
27 Clouds 21 1013 94 10000 1.04 304 11:43 28.01.2020
28 Clouds 21 1013 94 10000 1.04 304 11:22 28.01.2020
29 Clouds 21 1012 94 10000 2.1 20 10:56 28.01.2020
30 Clouds 21 1012 94 10000 2.1 20 10:38 28.01.2020
31 Clouds 21 1012 94 10000 2.1 20 10:18 28.01.2020
32 Clouds 22 1012 100 10000 2.1 30 09:42 28.01.2020
33 Clouds 22 1012 100 10000 2.1 30 09:20 28.01.2020
34 Clouds 22 1013 94 10000 2.1 350 08:47 28.01.2020
35 Clouds 23 1013 94 10000 2.1 350 08:26 28.01.2020
36 Clouds 23 1014 94 10000 3.1 230 07:57 28.01.2020
37 Clouds 23 1014 94 10000 3.1 230 07:36 28.01.2020
38 Clouds 23 1014 88 10000 3.1 240 06:49 28.01.2020
39 Clouds 23 1014 88 10000 3.1 240 06:25 28.01.2020
40 Clouds 23 1015 88 10000 3.1 220 05:42 28.01.2020
41 Clouds 24 1015 88 10000 3.1 220 05:24 28.01.2020
42 Clouds 24 1015 88 10000 2.1 230 03:51 28.01.2020
43 Clouds 25 1015 83 10000 3.1 230 02:55 28.01.2020
44 Clouds 25 1015 83 10000 3.1 230 02:25 28.01.2020
45 Clouds 26 1014 83 10000 3.1 220 01:56 28.01.2020
46 Clouds 26 1014 83 10000 3.1 220 01:22 28.01.2020
47 Clouds 26 1014 78 10000 2.79 197 00:45 28.01.2020
48 Clouds 26 1014 78 10000 2.79 197 00:23 28.01.2020
49 Clouds 27 1013 65 10000 3.1 150 23:44 27.01.2020
50 Clouds 27 1013 65 10000 3.1 150 23:20 27.01.2020
51 Clouds 28 1013 69 10000 3.1 160 22:45 27.01.2020
52 Clouds 28 1013 69 10000 3.1 160 22:21 27.01.2020
53 Clouds 28 1013 66 10000 6.2 180 21:58 27.01.2020
54 Clouds 28 1013 66 10000 6.2 180 21:39 27.01.2020
55 Clouds 28 1013 66 10000 6.2 180 21:19 27.01.2020
56 Clear 28 1014 66 0 5.1 160 20:57 27.01.2020
57 Clear 29 1014 66 0 5.1 160 20:38 27.01.2020
58 Clear 29 1014 66 0 5.1 160 20:20 27.01.2020
59 Clouds 28 1014 66 10000 5.1 180 19:57 27.01.2020
60 Clouds 28 1014 66 10000 5.1 180 19:38 27.01.2020
61 Clouds 28 1014 66 10000 5.1 180 19:20 27.01.2020
62 Rain 28 1015 69 0 5.1 180 18:40 27.01.2020
63 Rain 28 1015 69 0 5.1 180 18:21 27.01.2020
64 Clouds 28 1016 62 10000 4.1 140 17:58 27.01.2020
65 Clear 28 1015 74 0 1.34 163 17:38 27.01.2020
66 Clouds 28 1016 74 10000 2.1 140 17:19 27.01.2020
67 -273 0 0 0 0 0 17:19 27.01.2020
68 Clouds 27 1016 74 10000 2.1 140 16:56 27.01.2020
69 Clouds 27 1016 74 10000 2.1 140 16:37 27.01.2020
70 Clouds 27 1016 74 10000 2.1 140 16:19 27.01.2020
71 Clouds 27 1016 78 10000 0.93 90 15:41 27.01.2020
72 Clouds 26 1016 78 10000 0.93 90 15:20 27.01.2020
73 Clouds 25 1015 83 10000 0.93 90 14:57 27.01.2020
74 Clouds 25 1015 83 10000 0.93 90 14:39 27.01.2020
75 Clouds 24 1015 83 10000 1.68 324 14:20 27.01.2020
76 Clouds 23 1014 94 10000 1.68 324 13:42 27.01.2020
77 Clouds 22 1014 94 10000 1.68 324 13:22 27.01.2020
78 Clouds 23 1014 94 10000 1.75 323 12:57 27.01.2020
79 Clouds 23 1014 94 10000 1.75 323 12:57 27.01.2020
80 Clouds 22 1014 94 10000 1.75 323 12:39 27.01.2020
81 Clouds 22 1014 94 10000 1.75 323 12:20 27.01.2020
82 Clouds 22 1013 94 10000 1.75 323 11:43 27.01.2020
83 Clouds 22 1013 94 10000 1.75 323 11:22 27.01.2020
84 Clouds 22 1013 94 10000 1.39 329 10:56 27.01.2020
85 Clouds 22 1013 94 10000 1.39 329 10:37 27.01.2020
86 Clouds 22 1013 94 10000 1.39 329 10:18 27.01.2020
87 Clouds 23 1013 94 10000 1.39 329 09:39 27.01.2020
88 Clouds 23 1013 94 10000 1.39 329 09:19 27.01.2020
89 Clouds 23 1014 94 10000 1.39 329 08:48 27.01.2020
90 Clouds 23 1014 94 10000 1.74 333 08:23 27.01.2020
91 Clouds 23 1014 94 10000 1.22 356 07:56 27.01.2020
92 Clouds 23 1014 94 10000 1.22 356 07:37 27.01.2020
93 Clouds 23 1014 94 10000 1.22 356 07:19 27.01.2020
94 Clouds 23 1015 80 0 1.34 345 06:33 27.01.2020
95 Clouds 23 1015 82 0 1.34 1 05:37 27.01.2020
96 Clouds 24 1015 88 10000 1.57 360 04:21 27.01.2020
97 Clouds 24 1015 88 10000 2.1 50 03:27 27.01.2020
98 Clouds 24 1015 83 10000 4.6 70 01:42 27.01.2020
99 Clouds 25 1015 83 10000 4.6 70 01:22 27.01.2020
100 Rain 24 1014 94 8000 1.49 22 00:40 27.01.2020
101 Rain 25 1014 94 8000 1.49 22 00:19 27.01.2020
102 Clouds 26 1014 83 10000 2.6 130 23:42 26.01.2020
103 Clouds 26 1014 83 10000 2.6 130 23:20 26.01.2020
104 Rain 26 1013 78 8000 2.6 150 22:57 26.01.2020
105 Rain 26 1013 78 8000 2.6 150 22:37 26.01.2020
106 Rain 26 1013 78 8000 2.6 150 22:19 26.01.2020
107 Rain 26 1013 78 8000 2.6 150 22:19 26.01.2020
108 Clouds 27 1013 69 10000 2.6 150 21:57 26.01.2020
109 Clouds 27 1013 69 10000 2.6 150 21:38 26.01.2020
110 Clouds 27 1013 69 10000 2.6 150 21:20 26.01.2020
111 Clouds 28 1014 66 10000 1.9 163 20:56 26.01.2020
112 Clouds 28 1014 66 10000 1.9 163 20:38 26.01.2020
113 Clouds 28 1014 66 10000 1.96 106 20:18 26.01.2020
114 Clouds 28 1015 66 10000 2.6 60 19:56 26.01.2020
115 Clouds 29 1015 66 10000 2.6 60 19:37 26.01.2020
116 Clouds 29 1015 66 10000 2.6 60 19:18 26.01.2020
117 Clear 28 1014 72 0 1.34 168 18:41 26.01.2020
118 Clouds 29 1015 62 10000 2.6 90 18:22 26.01.2020
119 Clouds 29 1015 62 10000 2.6 90 17:58 26.01.2020
120 Clouds 28 1015 62 10000 2.6 90 17:39 26.01.2020
121 Clouds 28 1015 62 10000 2.6 90 17:20 26.01.2020
122 Clouds 28 1017 74 10000 2.6 90 16:58 26.01.2020
123 Clouds 28 1017 74 10000 2.6 90 16:58 26.01.2020
124 Clouds 27 1017 74 10000 2.6 90 16:39 26.01.2020
125 Clouds 27 1017 74 10000 2.6 90 16:21 26.01.2020
126 Clear 26 1019 91 0 2.25 29 15:58 26.01.2020
127 Clear 26 1017 73 0 1.34 17 15:39 26.01.2020
128 Clear 26 1017 71 0 1.34 61 15:18 26.01.2020
129 Clear 25 1017 77 0 0.45 342 14:40 26.01.2020
130 Clouds 25 1016 76 0 1.34 11 14:21 26.01.2020
131 Clouds 24 1016 80 0 1.34 49 13:55 26.01.2020
132 Clouds 24 1016 78 0 1.34 3 13:37 26.01.2020
133 Clouds 24 1016 78 0 1.34 3 13:37 26.01.2020
134 Clouds 23 1015 79 0 1.34 354 13:18 26.01.2020
135 Clouds 23 1015 79 0 1.34 354 13:18 26.01.2020
136 Clouds 23 1015 79 0 1.34 345 12:41 26.01.2020
137 Clouds 23 1015 79 0 0.89 354 12:23 26.01.2020
138 Clouds 23 1014 80 0 0.89 310 11:57 26.01.2020
139 Clouds 23 1014 81 0 0.45 330 11:39 26.01.2020
140 Clouds 23 1013 88 10000 1.5 0 11:19 26.01.2020
141 Clouds 23 1013 88 10000 1.5 0 10:58 26.01.2020
142 Clouds 23 1013 88 10000 1.5 0 10:38 26.01.2020
143 Clouds 23 1013 88 10000 1.5 0 10:20 26.01.2020
144 Clouds 23 1014 88 10000 1 0 09:57 26.01.2020
145 Clouds 23 1014 88 10000 1 0 09:39 26.01.2020
146 Clouds 23 1014 88 10000 1 0 09:39 26.01.2020
147 Clouds 23 1014 88 10000 1 0 09:20 26.01.2020
148 Clouds 23 1014 88 10000 1.5 0 08:43 26.01.2020
149 Clouds 24 1014 88 10000 1.5 0 08:22 26.01.2020
150 Clouds 23 1015 100 10000 1.5 0 07:57 26.01.2020
151 Clouds 23 1015 100 10000 1.5 0 07:39 26.01.2020
152 Clouds 23 1015 100 10000 1.5 0 07:20 26.01.2020
153 Clouds 23 1015 94 10000 2.6 80 06:30 26.01.2020
154 Clouds 24 1015 94 10000 2.1 40 05:31 26.01.2020
155 Clouds 24 1015 94 10000 2.1 80 04:45 26.01.2020
156 Clouds 25 1015 88 10000 2.1 40 02:41 26.01.2020
157 Clouds 25 1014 88 10000 3.1 80 01:47 26.01.2020
158 Clouds 25 1014 88 10000 3.1 80 01:24 26.01.2020
159 Clouds 25 1013 83 10000 0.21 174 00:44 26.01.2020
160 Clouds 25 1013 83 10000 0.21 174 00:26 26.01.2020
161 Clear 26 1016 88 0 0.21 174 23:40 25.01.2020
162 Clear 27 1014 71 0 0.45 146 23:21 25.01.2020
163 Clear 27 1015 89 0 3.27 164 22:58 25.01.2020
164 Clear 27 1013 71 0 0.89 170 22:39 25.01.2020
165 Clear 28 1013 70 0 1.79 157 22:18 25.01.2020
166 Clear 28 1013 70 0 0.89 181 21:56 25.01.2020
167 Clear 28 1013 68 0 1.34 187 21:38 25.01.2020
168 Clear 26 1013 68 0 3.27 164 21:19 25.01.2020
169 Clear 28 1013 69 0 1.79 166 20:43 25.01.2020
170 Clear 26 1013 68 0 3.27 164 20:25 25.01.2020
171 Clouds 28 1013 69 0 1.79 164 19:54 25.01.2020
172 Clouds 28 1013 69 0 2.24 160 19:36 25.01.2020
173 Clouds 28 1015 71 0 1.34 159 19:18 25.01.2020
174 Clouds 28 1015 71 0 1.34 159 18:41 25.01.2020
175 Clouds 28 1015 71 0 1.34 159 18:21 25.01.2020
176 Clouds 28 1015 69 0 1.34 155 17:57 25.01.2020
177 Clouds 28 1015 66 0 1.34 118 17:37 25.01.2020
178 Clouds 28 1016 62 0 0.89 79 17:18 25.01.2020
179 Clouds 27 1016 64 0 1.34 60 16:42 25.01.2020
180 Clouds 27 1016 63 0 0.89 96 16:23 25.01.2020
181 Clouds 27 1016 66 0 1.34 16 15:56 25.01.2020
182 Clouds 27 1017 68 0 1.79 61 15:37 25.01.2020
183 Clouds 26 1017 69 0 1.34 340 15:19 25.01.2020
184 Clouds 25 1017 71 0 1.79 358 14:41 25.01.2020
185 Clear 24 1016 78 0 1.34 8 14:19 25.01.2020
186 Clear 24 1016 77 0 1.79 347 13:44 25.01.2020
187 Clear 22 1015 83 0 1.34 29 13:25 25.01.2020
188 Clear 23 1015 81 0 1.34 345 12:50 25.01.2020
189 Clouds 22 1014 94 10000 2.05 344 12:30 25.01.2020
190 Clouds 22 1014 94 10000 2.05 344 11:57 25.01.2020
191 Clouds 22 1014 94 10000 2.05 344 11:38 25.01.2020
192 Clouds 23 1014 94 10000 1.99 340 11:19 25.01.2020
193 Clouds 23 1013 94 10000 1.99 340 10:42 25.01.2020
194 Clouds 23 1013 94 10000 1.99 340 10:21 25.01.2020
195 Clouds 23 1014 94 10000 1.99 340 09:59 25.01.2020
196 Clouds 22 1014 94 10000 1.99 340 09:38 25.01.2020
197 Clouds 22 1014 94 10000 1.99 340 09:19 25.01.2020
198 Clouds 22 1014 94 10000 1.99 340 08:42 25.01.2020
199 Clouds 22 1014 94 10000 1.99 340 08:42 25.01.2020
200 Clouds 23 1014 81 0 0.89 33 07:54 25.01.2020
201 Clouds 23 1015 94 10000 2.1 350 07:21 25.01.2020
202 Clouds 23 1015 94 10000 2.1 350 06:31 25.01.2020
203 Clouds 23 1015 94 10000 2.1 30 05:52 25.01.2020
204 Clouds 23 1015 94 10000 2.1 30 05:32 25.01.2020
205 Clouds 24 1015 88 10000 2.1 40 03:56 25.01.2020
206 Clouds 24 1015 88 10000 2.1 40 03:37 25.01.2020
207 Rain 24 1015 88 10000 2.6 50 02:35 25.01.2020
208 Clouds 25 1014 88 10000 2.6 60 01:54 25.01.2020
209 Clouds 25 1014 83 10000 3.1 30 00:59 25.01.2020
210 Clouds 25 1014 83 10000 3.1 30 00:37 25.01.2020
211 Clouds 25 1014 83 10000 3.1 30 00:18 25.01.2020
212 Clouds 25 1014 83 10000 3.1 30 00:18 25.01.2020
213 Clouds 26 1013 78 10000 3.1 160 23:41 24.01.2020
214 Clouds 26 1013 78 10000 3.1 160 23:23 24.01.2020
215 Clouds 26 1013 78 10000 3.1 160 23:23 24.01.2020
216 Clouds 27 1012 74 10000 3.1 360 22:46 24.01.2020
217 Clouds 27 1012 74 10000 3.1 360 22:26 24.01.2020
218 Clouds 28 1012 74 10000 5.1 30 21:57 24.01.2020
219 Clouds 28 1012 74 10000 5.1 30 21:39 24.01.2020
220 Clouds 28 1012 74 10000 5.1 30 21:18 24.01.2020
221 Clouds 28 1012 74 10000 3.1 30 20:43 24.01.2020
222 Clouds 28 1012 74 10000 3.1 30 20:21 24.01.2020
223 Clouds 28 1012 70 10000 5.1 30 19:58 24.01.2020
224 Clouds 28 1012 70 10000 5.1 30 19:39 24.01.2020
225 Clouds 28 1012 70 10000 5.1 30 19:21 24.01.2020
226 Clouds 27 1013 74 10000 5.1 360 18:43 24.01.2020
227 Clouds 27 1013 74 10000 5.1 360 18:25 24.01.2020
228 Clouds 26 1014 83 10000 4.1 360 17:56 24.01.2020
229 Clouds 26 1014 83 10000 4.1 360 17:56 24.01.2020
230 Clouds 26 1014 83 10000 4.1 360 17:38 24.01.2020
231 Clouds 26 1014 83 10000 4.1 360 17:20 24.01.2020
232 Clouds 25 1013 83 10000 3.1 360 16:39 24.01.2020
233 Clouds 25 1013 83 10000 3.1 360 16:21 24.01.2020
234 Clouds 24 1013 88 10000 2.1 360 15:55 24.01.2020
235 Clouds 24 1013 88 10000 2.1 360 15:37 24.01.2020
236 Clouds 24 1013 88 10000 2.1 360 15:18 24.01.2020
237 Clouds 23 1012 94 10000 2.57 24 14:41 24.01.2020
238 Clouds 23 1012 94 10000 2.57 24 14:22 24.01.2020
239 Clouds 22 1012 94 10000 2.22 343 13:44 24.01.2020
240 Clouds 22 1012 94 10000 2.31 348 13:23 24.01.2020
241 Clouds 22 1012 83 10000 2.6 360 12:45 24.01.2020
242 Clouds 22 1012 83 10000 2.6 360 12:23 24.01.2020
243 Clouds 22 1012 83 10000 2.6 360 11:58 24.01.2020
244 Clouds 22 1012 83 10000 2.6 360 11:39 24.01.2020
245 Clouds 22 1012 83 10000 2.6 360 11:18 24.01.2020
246 Clouds 22 1011 83 10000 2.1 360 10:42 24.01.2020
247 Clouds 22 1011 83 10000 2.1 360 10:42 24.01.2020
248 Clouds 22 1011 83 10000 2.1 360 10:21 24.01.2020
249 Clouds 22 1012 88 10000 2.1 360 09:55 24.01.2020
250 Clouds 22 1012 88 10000 2.1 360 09:37 24.01.2020
251 Clouds 23 1012 88 10000 2.1 360 09:18 24.01.2020
252 Clouds 23 1012 88 10000 2.1 20 08:39 24.01.2020
253 Clouds 23 1012 88 10000 2.1 20 08:19 24.01.2020
254 Clouds 23 1012 88 10000 2.03 12 07:48 24.01.2020
255 Clouds 23 1012 88 10000 2.03 12 07:22 24.01.2020
256 Clouds 23 1013 78 10000 2.03 12 06:45 24.01.2020
257 Clouds 23 1013 78 10000 2.03 12 06:24 24.01.2020
258 Clouds 24 1013 78 10000 2.03 12 05:33 24.01.2020
259 Clouds 24 1013 78 10000 2.1 10 03:36 24.01.2020
260 Clouds 24 1012 78 10000 2.1 20 02:40 24.01.2020
261 Clouds 24 1012 78 10000 2.1 20 02:21 24.01.2020
262 Clouds 25 1012 73 10000 2.6 30 01:39 24.01.2020
263 Clouds 25 1011 83 10000 3.4 29 00:49 24.01.2020
264 Clouds 25 1011 83 10000 3.4 29 00:19 24.01.2020
265 Clouds 26 1010 78 10000 3.1 360 23:42 23.01.2020
266 Clouds 27 1010 78 10000 3.1 360 23:22 23.01.2020
267 Clouds 27 1009 74 10000 3.1 360 22:58 23.01.2020
268 Clouds 28 1009 74 10000 3.1 360 22:37 23.01.2020
269 Clouds 28 1009 74 10000 3.1 360 22:18 23.01.2020
270 Clouds 28 1010 65 10000 2.6 330 21:55 23.01.2020
271 Clouds 28 1010 65 10000 2.6 330 21:37 23.01.2020
272 Clouds 28 1010 65 10000 2.6 330 21:19 23.01.2020
273 Clouds 28 1010 69 10000 3.1 360 20:54 23.01.2020
274 Clouds 28 1010 69 10000 3.1 360 20:36 23.01.2020
275 Clouds 28 1010 69 10000 3.1 360 20:18 23.01.2020
276 Clouds 28 1011 66 10000 2.1 50 19:42 23.01.2020
277 Clouds 28 1011 66 10000 2.1 50 19:23 23.01.2020
278 Clouds 28 1011 69 10000 4.1 360 18:57 23.01.2020
279 Clouds 28 1011 69 10000 4.1 360 18:38 23.01.2020
280 Clouds 28 1011 69 10000 4.1 360 18:19 23.01.2020
281 Clouds 27 1012 74 10000 4.1 360 17:45 23.01.2020
282 Clouds 27 1012 74 10000 4.1 360 17:21 23.01.2020
283 Clouds 26 1012 78 10000 5.1 360 16:59 23.01.2020
284 Clouds 26 1012 78 10000 5.1 360 16:39 23.01.2020
285 Clouds 26 1012 78 10000 5.1 360 16:20 23.01.2020
286 Clouds 25 1012 83 10000 4.1 360 15:58 23.01.2020
287 Clouds 25 1012 83 10000 4.1 360 15:39 23.01.2020
288 Clouds 25 1012 83 10000 4.1 360 15:19 23.01.2020
289 Clouds 24 1011 94 10000 3.1 360 14:58 23.01.2020
290 Clouds 24 1011 94 10000 3.1 360 14:40 23.01.2020
291 Clouds 24 1011 94 10000 3.1 360 14:22 23.01.2020
292 Clouds 22 1011 100 10000 2.11 353 13:54 23.01.2020
293 Clouds 22 1011 100 10000 2.11 353 13:36 23.01.2020
294 Clouds 22 1011 100 10000 2.03 354 13:18 23.01.2020
295 Clouds 21 1010 100 10000 3.1 20 12:40 23.01.2020
296 Clouds 21 1010 100 10000 3.1 20 12:22 23.01.2020
297 Clouds 22 1010 100 10000 3.1 20 11:55 23.01.2020
298 Clouds 22 1010 100 10000 3.1 20 11:36 23.01.2020
299 Rain 22 1010 100 10000 3.1 20 11:18 23.01.2020
300 Rain 23 1009 94 10000 2.1 360 10:41 23.01.2020
301 Clouds 21 1009 94 10000 2.1 360 10:19 23.01.2020
302 Clouds 22 1009 100 10000 3.1 350 09:41 23.01.2020
303 Clouds 22 1009 100 10000 3.1 350 09:22 23.01.2020
304 Rain 23 1010 100 8000 4.1 340 08:57 23.01.2020
305 Rain 22 1010 100 8000 4.1 340 08:38 23.01.2020
306 Rain 22 1010 100 8000 4.1 340 08:19 23.01.2020
307 Clouds 23 1011 94 10000 5.1 240 07:42 23.01.2020
308 Clouds 23 1011 94 10000 5.1 240 07:21 23.01.2020
309 Clouds 23 1011 94 10000 5.1 240 07:21 23.01.2020
310 Clouds 22 1011 94 10000 4.1 240 06:44 23.01.2020
311 Clouds 22 1011 94 10000 4.1 240 06:19 23.01.2020
312 Clouds 24 1012 88 10000 4.1 230 04:25 23.01.2020
313 Clouds 25 1011 83 10000 4.1 210 03:47 23.01.2020
314 Clouds 26 1010 78 10000 4.1 220 01:55 23.01.2020
315 Clouds 26 1011 78 10000 3.1 130 00:46 23.01.2020
316 Clouds 26 1011 78 10000 3.1 130 00:24 23.01.2020
317 Clouds 27 1010 69 10000 4.1 160 23:46 22.01.2020
318 Clouds 27 1010 69 10000 4.1 160 23:28 22.01.2020
319 Clouds 28 1009 65 10000 6.2 170 22:55 22.01.2020
320 Clouds 28 1009 65 10000 6.2 170 22:36 22.01.2020
321 Clouds 28 1009 65 10000 6.2 170 22:18 22.01.2020
322 Clouds 28 1010 66 10000 7.2 180 21:38 22.01.2020
323 Clouds 28 1010 66 10000 7.2 180 21:20 22.01.2020
324 Clouds 28 1011 66 10000 5.1 180 20:55 22.01.2020
325 Clouds 29 1011 66 10000 5.1 180 20:36 22.01.2020
326 Clouds 29 1011 66 10000 5.1 180 20:18 22.01.2020
327 Clouds 29 1011 66 10000 5.1 180 19:55 22.01.2020
328 Clouds 29 1011 66 10000 5.1 180 19:36 22.01.2020
329 Clouds 29 1011 66 10000 5.1 180 19:18 22.01.2020
330 Clouds 28 1012 66 10000 6.2 180 18:54 22.01.2020
331 Clouds 29 1012 66 10000 6.2 180 18:36 22.01.2020
332 Clouds 29 1012 66 10000 6.2 180 18:18 22.01.2020
333 Clouds 28 1012 70 10000 5.1 180 17:39 22.01.2020
334 Clouds 28 1012 70 10000 5.1 180 17:20 22.01.2020
335 Clouds 28 1013 74 10000 5.1 150 16:56 22.01.2020
336 Clouds 28 1013 74 10000 5.1 150 16:37 22.01.2020
337 Clouds 28 1013 74 10000 5.1 150 16:37 22.01.2020
338 Clouds 28 1013 74 10000 5.1 150 16:18 22.01.2020
339 Clouds 26 1013 73 10000 2.6 90 15:42 22.01.2020
340 Clouds 26 1013 73 10000 2.6 90 15:24 22.01.2020
341 Clouds 25 1013 77 10000 4.53 199 14:59 22.01.2020
342 Clouds 24 1013 77 10000 4.53 199 14:38 22.01.2020
343 Clouds 22 1013 77 10000 1.99 248 14:20 22.01.2020
344 Clouds 20 1011 88 10000 1.99 248 13:56 22.01.2020
345 Clouds 20 1011 88 10000 1.99 248 13:37 22.01.2020
346 Clouds 20 1011 88 10000 1.86 264 13:19 22.01.2020
347 Clouds 21 1011 94 10000 2.1 70 12:56 22.01.2020
348 Clouds 21 1011 94 10000 2.1 70 12:56 22.01.2020
349 Clouds 20 1011 94 10000 2.1 70 12:38 22.01.2020
350 Clouds 20 1011 94 10000 2.1 70 12:19 22.01.2020
351 Clouds 20 1011 94 10000 2.1 40 11:56 22.01.2020
352 Clouds 20 1011 94 10000 2.1 40 11:38 22.01.2020
353 Clouds 20 1011 94 10000 2.1 40 11:19 22.01.2020
354 Clouds 20 1010 94 10000 2.1 40 10:45 22.01.2020
355 Clouds 20 1010 94 10000 2.1 40 10:21 22.01.2020
356 Clouds 21 1011 94 10000 2.1 50 09:57 22.01.2020
357 Clouds 21 1011 94 10000 2.1 50 09:39 22.01.2020
358 Clouds 21 1011 94 10000 2.1 50 09:20 22.01.2020
359 Clouds 22 1011 94 10000 2.1 60 08:54 22.01.2020
360 Clouds 22 1011 94 10000 2.1 60 08:36 22.01.2020
361 Clouds 22 1011 94 10000 2.1 60 08:18 22.01.2020
362 Clouds 23 1012 88 10000 1.5 180 07:40 22.01.2020
363 Clouds 23 1012 88 10000 1.5 180 07:21 22.01.2020
364 Clouds 23 1012 88 10000 1.5 180 07:21 22.01.2020
365 Clouds 23 1013 88 10000 2.1 190 06:33 22.01.2020
366 Clouds 23 1013 88 10000 1.5 150 05:42 22.01.2020
367 Clouds 23 1013 88 10000 1.5 150 05:42 22.01.2020
368 Clouds 23 1013 88 10000 1.5 160 04:24 22.01.2020
369 Clouds 23 1013 88 10000 1.5 160 03:26 22.01.2020
370 Clouds 23 1013 94 10000 2.1 140 02:38 22.01.2020
371 Clouds 25 1013 88 10000 2.6 193 00:46 22.01.2020
372 Clouds 25 1013 88 10000 2.6 193 00:27 22.01.2020
373 Clouds 26 1013 78 10000 4.1 180 23:55 21.01.2020
374 Clouds 27 1013 78 10000 4.1 180 23:36 21.01.2020
375 Clouds 27 1013 78 10000 4.1 180 23:18 21.01.2020
376 Clouds 27 1013 78 10000 4.1 180 23:18 21.01.2020
377 Clouds 27 1012 78 10000 4.1 180 22:40 21.01.2020
378 Clouds 27 1012 78 10000 4.1 180 22:20 21.01.2020
379 Clouds 27 1012 74 10000 5.1 180 21:57 21.01.2020
380 Clouds 27 1012 74 10000 5.1 180 21:38 21.01.2020
381 Clouds 27 1012 74 10000 5.1 180 21:20 21.01.2020
382 Clouds 28 1013 69 10000 5.1 150 20:56 21.01.2020
383 Clouds 27 1013 69 10000 5.1 150 20:37 21.01.2020
384 Clouds 28 1013 69 10000 5.1 150 20:18 21.01.2020
385 Clouds 27 1013 65 10000 2.1 160 19:56 21.01.2020
386 Clouds 27 1013 65 10000 2.1 160 19:37 21.01.2020
387 Clouds 27 1013 65 10000 2.1 160 19:19 21.01.2020
388 Clouds 28 1015 74 10000 5.1 180 18:55 21.01.2020
389 Clouds 28 1015 74 10000 5.1 180 18:37 21.01.2020
390 Clouds 28 1015 74 10000 5.1 180 18:18 21.01.2020
391 Clouds 27 1016 83 10000 3.1 180 17:44 21.01.2020
392 Clouds 27 1016 83 10000 3.1 180 17:20 21.01.2020
393 Clouds 27 1016 83 10000 1.74 168 16:58 21.01.2020
394 Clouds 27 1016 83 10000 1.74 168 16:37 21.01.2020
395 Clouds 27 1016 83 10000 1.74 168 16:18 21.01.2020
396 Clouds 26 1016 83 10000 1.74 168 15:42 21.01.2020
397 Clouds 26 1016 83 10000 1.74 168 15:21 21.01.2020
398 Clouds 24 1015 94 10000 1.74 168 14:59 21.01.2020
399 Clouds 24 1015 94 10000 1.74 168 14:37 21.01.2020
400 Clouds 23 1015 94 10000 0.9 298 14:19 21.01.2020
401 Clouds 21 1015 100 10000 0.9 298 13:40 21.01.2020
402 Clouds 21 1015 100 10000 0.9 298 13:19 21.01.2020
403 Clouds 21 1014 100 10000 1.5 30 12:43 21.01.2020
404 Clouds 21 1014 100 10000 1.5 30 12:43 21.01.2020
405 Clouds 21 1014 100 10000 1.5 30 12:25 21.01.2020
406 Clouds 21 1013 100 10000 0.95 313 11:57 21.01.2020
407 Clouds 21 1013 100 10000 0.95 313 11:38 21.01.2020
408 Clouds 21 1013 100 10000 1.6 329 11:20 21.01.2020
409 Clouds 22 1013 94 10000 1.5 20 10:44 21.01.2020
410 Clouds 22 1013 94 10000 1.5 20 10:23 21.01.2020
411 Clouds 22 1013 94 10000 1.5 20 10:23 21.01.2020
412 Clouds 22 1013 100 10000 1.6 329 09:59 21.01.2020
413 Clouds 22 1013 100 10000 1.6 329 09:40 21.01.2020
414 Clouds 22 1014 92 0 1.6 329 09:22 21.01.2020
415 Clouds 22 1014 92 0 1.6 329 08:48 21.01.2020
416 Clouds 22 1015 100 10000 1.6 329 08:27 21.01.2020
417 Clouds 22 1015 100 10000 1.78 336 07:57 21.01.2020
418 Clouds 22 1015 100 10000 1.78 336 07:38 21.01.2020
419 Clouds 22 1015 100 10000 1.78 336 07:19 21.01.2020
420 Clouds 22 1015 100 10000 1.78 336 06:45 21.01.2020
421 Clouds 22 1015 100 10000 1.78 336 06:23 21.01.2020
422 Clouds 23 1015 94 10000 1.78 336 05:41 21.01.2020
423 Clouds 23 1014 100 10000 1.9 357 04:39 21.01.2020
424 Clouds 24 1015 94 10000 1 0 02:54 21.01.2020
425 Clouds 25 1015 88 10000 2.1 60 01:47 21.01.2020
426 Clouds 26 1014 88 10000 1.79 28 00:52 21.01.2020
427 Clouds 26 1014 88 10000 1.79 28 00:29 21.01.2020
428 Clouds 27 1014 83 10000 1.79 28 23:57 20.01.2020
429 Clouds 27 1014 83 10000 1.79 28 23:36 20.01.2020
430 Clouds 27 1014 83 10000 2.03 84 23:18 20.01.2020
431 Clouds 28 1014 78 10000 2.03 84 22:55 20.01.2020
432 Clouds 28 1014 78 10000 2.03 84 22:36 20.01.2020
433 Clouds 28 1014 78 10000 2.03 84 22:18 20.01.2020
434 Rain 27 1014 83 8000 2.03 84 21:55 20.01.2020
435 Rain 27 1014 83 8000 2.03 84 21:36 20.01.2020
436 Rain 27 1014 83 8000 2.03 84 21:18 20.01.2020
437 Clouds 28 1015 70 10000 2.03 84 20:43 20.01.2020
438 Clouds 28 1015 70 10000 2.79 81 20:20 20.01.2020
439 Rain 29 1015 66 8000 2.79 81 19:59 20.01.2020
440 Rain 29 1015 66 8000 2.79 81 19:59 20.01.2020
441 Rain 29 1015 66 8000 2.79 81 19:41 20.01.2020
442 Rain 28 1015 66 8000 2.79 81 19:19 20.01.2020
443 Clouds 28 1016 70 10000 2.79 81 18:56 20.01.2020
444 Clouds 28 1016 70 10000 2.79 81 18:38 20.01.2020
445 Clouds 28 1016 70 10000 2.79 81 18:19 20.01.2020
446 Clouds 28 1018 70 10000 4.1 30 17:39 20.01.2020
447 Clouds 28 1018 70 10000 4.1 30 17:19 20.01.2020
448 Clouds 27 1018 74 10000 4.1 30 16:47 20.01.2020
449 Clouds 27 1018 74 10000 4.1 30 16:47 20.01.2020
450 Clouds 27 1018 74 10000 4.1 30 16:26 20.01.2020
451 Clouds 26 1019 78 10000 4.1 340 15:59 20.01.2020
452 Clouds 26 1019 78 10000 4.1 340 15:40 20.01.2020
453 Clouds 26 1019 78 10000 4.1 340 15:22 20.01.2020
454 Rain 25 1018 88 8000 2.72 28 14:58 20.01.2020
455 Rain 25 1018 88 8000 2.72 28 14:39 20.01.2020
456 Rain 24 1018 88 8000 2.85 341 14:20 20.01.2020
457 Clouds 23 1017 88 10000 2.6 30 13:44 20.01.2020
458 Clouds 23 1017 88 10000 2.6 30 13:24 20.01.2020
459 Clouds 22 1016 94 10000 2.6 360 12:58 20.01.2020
460 Clouds 22 1016 94 10000 2.6 360 12:40 20.01.2020
461 Clouds 22 1016 94 10000 2.6 360 12:21 20.01.2020
462 Clouds 22 1016 94 10000 2.1 350 11:43 20.01.2020
463 Clouds 22 1016 94 10000 2.1 350 11:24 20.01.2020
464 Clouds 22 1015 94 10000 2.1 360 10:58 20.01.2020
465 Clouds 22 1015 94 10000 2.1 360 10:40 20.01.2020
466 Clouds 22 1015 94 10000 2.1 360 10:20 20.01.2020
467 Clouds 22 1016 94 10000 1.5 0 09:41 20.01.2020
468 Clouds 22 1016 94 10000 1.5 0 09:22 20.01.2020
469 Clouds 22 1016 94 10000 2.1 20 08:51 20.01.2020
470 Clouds 22 1016 94 10000 2.1 20 08:31 20.01.2020
471 Clouds 22 1017 94 10000 2.1 10 07:55 20.01.2020
472 Clouds 22 1017 94 10000 2.1 10 07:31 20.01.2020
473 Clouds 23 1017 88 10000 2.1 10 06:59 20.01.2020
474 Clouds 23 1017 88 10000 2.1 10 06:35 20.01.2020
475 Clouds 23 1018 88 10000 2.1 10 05:56 20.01.2020
476 Clouds 23 1018 88 10000 2.1 10 05:37 20.01.2020
477 Clouds 23 1018 88 10000 2.1 10 05:18 20.01.2020
478 Clouds 23 1018 88 10000 2.1 30 03:46 20.01.2020
479 Clouds 24 1017 88 10000 5.1 60 01:58 20.01.2020
480 Clouds 24 1017 88 10000 5.1 60 01:38 20.01.2020
481 Clouds 25 1017 83 10000 2.99 54 00:46 20.01.2020
482 Clouds 25 1017 83 10000 2.99 54 00:26 20.01.2020
483 Clouds 27 1016 74 10000 7.7 70 23:55 19.01.2020
484 Clouds 27 1016 74 10000 7.7 70 23:36 19.01.2020
485 Clouds 27 1016 74 10000 7.7 70 23:18 19.01.2020
486 Clouds 27 1016 74 10000 7.7 70 23:18 19.01.2020
487 Clouds 27 1016 74 10000 3.07 94 22:54 19.01.2020
488 Clouds 27 1016 74 10000 3.07 94 22:36 19.01.2020
489 Clouds 27 1016 74 10000 3.07 94 22:18 19.01.2020
490 Clouds 28 1016 70 10000 5.1 90 21:54 19.01.2020
491 Clouds 28 1016 70 10000 5.1 90 21:36 19.01.2020
492 Clouds 28 1016 70 10000 5.1 90 21:36 19.01.2020
493 Clouds 28 1016 70 10000 5.1 90 21:18 19.01.2020
494 Clouds 28 1016 74 10000 4.1 90 20:54 19.01.2020
495 Clouds 28 1016 74 10000 4.1 90 20:36 19.01.2020
496 Clouds 28 1016 74 10000 4.1 90 20:18 19.01.2020
497 Clouds 29 1017 66 10000 5.1 90 19:54 19.01.2020
498 Clouds 28 1017 66 10000 5.1 90 19:36 19.01.2020
499 Clouds 28 1017 66 10000 5.1 90 19:18 19.01.2020
500 Clouds 28 1018 74 10000 5.1 90 18:54 19.01.2020
501 Clouds 28 1018 74 10000 5.1 90 18:36 19.01.2020
502 Clouds 28 1018 74 10000 5.1 90 18:36 19.01.2020
503 Clouds 28 1018 74 10000 5.1 90 18:18 19.01.2020
504 Clouds 27 1019 78 10000 5.1 360 17:55 19.01.2020
505 Clouds 27 1019 78 10000 5.1 360 17:37 19.01.2020
506 Clouds 27 1019 78 10000 5.1 360 17:18 19.01.2020
507 Clouds 27 1019 78 10000 5.1 30 16:41 19.01.2020
508 Clouds 27 1019 78 10000 5.1 30 16:22 19.01.2020
509 Clouds 26 1019 83 10000 5.1 360 16:00 19.01.2020
510 Clouds 26 1019 83 10000 5.1 360 15:40 19.01.2020
511 Clouds 26 1019 83 10000 5.1 360 15:22 19.01.2020
512 Clouds 25 1018 83 10000 4.1 360 14:59 19.01.2020
513 Clouds 25 1018 83 10000 4.1 360 14:59 19.01.2020
514 Clouds 25 1018 83 10000 4.1 360 14:40 19.01.2020
515 Clouds 24 1018 83 10000 4.1 360 14:19 19.01.2020
516 Clouds 22 1018 88 10000 2.1 360 13:58 19.01.2020
517 Clouds 22 1018 88 10000 2.1 360 13:38 19.01.2020
518 Clouds 22 1018 88 10000 2.1 360 13:20 19.01.2020
519 Clouds 21 1018 94 10000 2.1 30 12:56 19.01.2020
520 Clouds 20 1018 94 10000 2.1 30 12:37 19.01.2020
521 Clouds 20 1018 94 10000 2.1 30 12:37 19.01.2020
522 Clouds 20 1018 94 10000 2.1 30 12:19 19.01.2020
523 Clouds 21 1017 94 10000 2.1 20 11:43 19.01.2020
524 Clouds 21 1017 94 10000 2.1 20 11:21 19.01.2020
525 Clouds 20 1017 100 10000 2.1 10 10:57 19.01.2020
526 Clouds 20 1017 100 10000 2.1 10 10:39 19.01.2020
527 Clouds 20 1017 100 10000 2.1 10 10:39 19.01.2020
528 Clouds 20 1017 100 10000 2.1 10 10:19 19.01.2020
529 Clouds 21 1017 94 10000 2.6 30 09:56 19.01.2020
530 Clouds 21 1017 94 10000 2.6 30 09:56 19.01.2020
531 Clouds 21 1017 94 10000 2.6 30 09:56 19.01.2020
532 Clouds 21 1017 94 10000 2.6 30 09:56 19.01.2020
533 Clouds 21 1017 94 10000 2.6 30 09:56 19.01.2020
534 Clouds 21 1017 94 10000 2.6 30 09:37 19.01.2020
535 Clouds 21 1017 94 10000 2.6 30 09:19 19.01.2020
536 Clouds 22 1018 94 10000 3.1 30 08:52 19.01.2020
537 Clouds 22 1018 94 10000 3.1 30 08:30 19.01.2020
538 Clouds 22 1018 94 10000 2.1 20 07:46 19.01.2020
539 Clouds 22 1018 94 10000 2.1 20 07:26 19.01.2020
540 Clouds 22 1019 94 10000 2.1 40 06:54 19.01.2020
541 Clouds 22 1019 94 10000 2.1 40 06:21 19.01.2020
542 Clouds 22 1019 88 10000 2.1 50 03:28 19.01.2020
543 Clouds 23 1019 83 10000 2.1 30 02:26 19.01.2020
544 Clouds 24 1018 88 10000 4.1 50 01:29 19.01.2020
545 Clouds 25 1018 83 10000 3.1 360 00:54 19.01.2020
546 Clouds 26 1018 78 10000 4.1 360 00:31 19.01.2020
547 Clouds 26 1018 78 10000 4.1 360 23:59 18.01.2020
548 Clouds 26 1018 78 10000 4.1 360 23:41 18.01.2020
549 Clouds 26 1018 78 10000 4.1 360 23:23 18.01.2020
550 Clouds 27 1017 69 10000 5.1 70 22:55 18.01.2020
551 Clouds 27 1017 69 10000 5.1 70 22:37 18.01.2020
552 Clouds 27 1017 69 10000 5.1 70 22:19 18.01.2020
553 Clouds 27 1017 69 10000 4.1 360 21:57 18.01.2020
554 Clouds 27 1017 69 10000 4.1 360 21:37 18.01.2020
555 Clouds 28 1017 69 10000 4.1 360 21:19 18.01.2020
556 Clouds 28 1018 66 10000 5.1 70 20:43 18.01.2020
557 Clouds 28 1018 66 10000 5.1 70 20:21 18.01.2020
558 Clouds 28 1018 62 10000 7.2 360 19:58 18.01.2020
559 Clouds 28 1018 62 10000 7.2 360 19:40 18.01.2020
560 Clouds 28 1018 62 10000 7.2 360 19:22 18.01.2020
561 Clouds 27 1019 69 10000 6.2 360 18:42 18.01.2020
562 Clouds 26 1020 74 10000 7.2 360 18:22 18.01.2020
563 Clouds 26 1020 74 10000 7.2 360 17:55 18.01.2020
564 Rain 25 1016 80 0 0.89 56 17:37 18.01.2020
565 Rain 25 1016 80 0 0.89 56 17:18 18.01.2020
566 Rain 26 1016 80 0 0.89 56 16:42 18.01.2020
567 Rain 26 1016 80 0 0.89 56 16:24 18.01.2020
568 Rain 26 1016 80 0 0.89 56 15:59 18.01.2020
569 Rain 25 1016 80 0 0.89 56 15:41 18.01.2020
570 Rain 27 1016 80 0 0.89 56 15:22 18.01.2020
571 Rain 24 1016 80 0 0.89 56 14:54 18.01.2020
572 Rain 24 1016 80 0 0.89 56 14:36 18.01.2020
573 Clouds 21 1019 100 10000 2.1 20 14:18 18.01.2020
574 Clouds 21 1019 100 10000 2.1 20 13:43 18.01.2020
575 Clouds 21 1019 100 10000 2.1 20 13:24 18.01.2020
576 Clouds 20 1018 100 10000 3.1 360 12:55 18.01.2020
577 Clouds 20 1018 100 10000 3.1 360 12:55 18.01.2020
578 Clouds 20 1018 100 10000 3.1 360 12:37 18.01.2020
579 Clouds 20 1018 100 10000 3.1 360 12:19 18.01.2020
580 Clouds 21 1018 94 10000 3.1 360 11:44 18.01.2020
581 Clouds 21 1018 94 10000 3.1 360 11:21 18.01.2020
582 Clouds 21 1018 94 10000 4.1 360 10:54 18.01.2020
583 Clouds 21 1018 94 10000 4.1 360 10:36 18.01.2020
584 Clouds 21 1018 94 10000 4.1 360 10:18 18.01.2020
585 Clouds 20 1017 94 10000 4.1 350 09:42 18.01.2020
586 Clouds 20 1017 94 10000 4.1 350 09:20 18.01.2020
587 Clouds 20 1018 94 10000 4.1 350 08:42 18.01.2020
588 Clouds 21 1018 94 10000 4.1 350 08:20 18.01.2020
589 Clouds 20 1019 100 10000 2.1 350 07:59 18.01.2020
590 Clouds 21 1019 100 10000 2.1 350 07:40 18.01.2020
591 Clouds 21 1019 100 10000 2.1 350 07:18 18.01.2020
592 Clouds 21 1019 100 10000 4.1 20 06:44 18.01.2020
593 Clouds 22 1019 94 10000 4.1 360 05:52 18.01.2020
594 Clouds 23 1020 88 10000 2.1 50 04:25 18.01.2020
595 Clouds 24 1019 83 10000 2.1 50 02:38 18.01.2020
596 Clouds 25 1019 78 10000 2.1 60 01:40 18.01.2020
597 Clouds 26 1018 78 10000 3.1 40 00:39 18.01.2020
598 Clouds 26 1018 78 10000 3.1 40 00:19 18.01.2020
599 Clouds 26 1017 65 10000 4.1 360 23:58 17.01.2020
600 Clouds 26 1017 65 10000 4.1 360 23:38 17.01.2020
601 Clouds 26 1017 65 10000 4.1 360 23:18 17.01.2020
602 Clouds 27 1017 61 10000 5.1 360 22:41 17.01.2020
603 Clouds 27 1017 61 10000 5.1 360 22:19 17.01.2020
604 Clouds 27 1015 61 10000 5.1 360 21:54 17.01.2020
605 Clouds 27 1015 61 10000 5.1 360 21:36 17.01.2020
606 Clouds 28 1015 61 10000 5.1 360 21:18 17.01.2020
607 Clouds 27 1018 61 10000 6.2 360 20:41 17.01.2020
608 Clouds 28 1018 61 10000 6.2 360 20:21 17.01.2020
609 Clouds 28 1018 61 10000 6.2 360 20:21 17.01.2020
610 Clouds 28 1018 58 10000 7.2 360 19:57 17.01.2020
611 Clouds 28 1018 58 10000 7.2 360 19:38 17.01.2020
612 Clouds 28 1018 58 10000 7.2 360 19:20 17.01.2020
613 Clouds 28 1018 66 10000 7.2 360 18:57 17.01.2020
614 Clouds 28 1018 66 10000 7.2 360 18:38 17.01.2020
615 Clouds 28 1018 66 10000 7.2 360 18:19 17.01.2020
616 Clouds 28 1020 74 10000 6.2 360 17:40 17.01.2020
617 Clouds 28 1020 74 10000 6.2 360 17:40 17.01.2020
618 Clouds 28 1020 74 10000 6.2 360 17:21 17.01.2020
619 Clouds 27 1020 69 10000 6.2 360 16:55 17.01.2020
620 Clouds 27 1020 69 10000 6.2 360 16:36 17.01.2020
621 Clouds 27 1020 69 10000 6.2 360 16:18 17.01.2020
622 Clouds 26 1020 74 10000 5.1 360 15:43 17.01.2020
623 Clouds 25 1020 74 10000 5.1 360 15:25 17.01.2020
624 Clouds 24 1011 88 10000 4.1 360 14:44 17.01.2020
625 Clouds 24 1011 88 10000 4.1 360 14:25 17.01.2020
626 Clouds 22 1018 88 10000 4.7 342 13:47 17.01.2020
627 Clouds 22 1018 88 10000 4.7 342 13:47 17.01.2020
628 Clouds 22 1018 88 10000 4.01 342 13:25 17.01.2020
629 Clouds 21 1018 94 10000 3.1 360 12:56 17.01.2020
630 Clouds 20 1018 94 10000 3.1 360 12:37 17.01.2020
631 Clouds 20 1018 94 10000 3.1 360 12:18 17.01.2020
632 Clouds 19 1018 100 10000 2.1 10 11:38 17.01.2020
633 Clouds 19 1018 100 10000 2.1 10 11:18 17.01.2020
634 Clouds 20 1017 94 10000 2.1 10 10:42 17.01.2020
635 Clouds 20 1017 94 10000 2.1 10 10:22 17.01.2020
636 Rain 22 1018 85 0 0.89 42 09:57 17.01.2020
637 Rain 22 1018 85 0 0.89 42 09:37 17.01.2020
638 Clouds 21 1018 94 10000 3.1 360 09:18 17.01.2020
639 Clouds 21 1018 94 10000 3.1 360 08:43 17.01.2020
640 Clouds 21 1018 94 10000 3.1 360 08:24 17.01.2020
641 Clouds 22 1019 88 10000 2.1 360 07:53 17.01.2020
642 Clouds 22 1019 88 10000 2.1 360 07:31 17.01.2020
643 Clouds 22 1019 88 10000 2.1 30 06:57 17.01.2020
644 Clouds 22 1019 88 10000 2.1 30 06:38 17.01.2020
645 Clouds 22 1019 94 10000 2.1 360 05:28 17.01.2020
646 Clear 23 1020 83 0 0.89 57 03:39 17.01.2020
647 Clear 23 1020 81 0 0.89 13 02:45 17.01.2020
648 Clouds 24 1019 75 0 1.34 70 01:46 17.01.2020
649 Clouds 24 1019 74 0 1.34 59 01:27 17.01.2020
650 Clear 22 1018 76 0 3.97 11 00:44 17.01.2020
651 Clouds 27 1017 78 10000 3.1 30 00:20 17.01.2020
652 Clouds 27 1017 78 10000 3.1 30 23:42 16.01.2020
653 Clouds 27 1017 78 10000 3.1 30 23:24 16.01.2020
654 Clouds 28 1017 70 10000 5.1 30 22:43 16.01.2020
655 Clouds 28 1017 70 10000 5.1 30 22:22 16.01.2020
656 Clouds 29 1017 70 10000 5.1 360 21:57 16.01.2020
657 Clouds 29 1017 70 10000 5.1 360 21:39 16.01.2020
658 Clouds 29 1017 70 10000 5.1 360 21:19 16.01.2020
659 Clouds 29 1017 66 10000 4.1 30 20:59 16.01.2020
660 Clouds 29 1017 66 10000 4.1 30 20:39 16.01.2020
661 Clouds 29 1017 66 10000 4.1 30 20:20 16.01.2020
662 Clouds 29 1018 66 10000 4.1 30 19:57 16.01.2020
663 Clouds 29 1018 66 10000 4.1 30 19:39 16.01.2020
664 Clouds 29 1018 66 10000 4.1 30 19:20 16.01.2020
665 Clouds 29 1019 74 10000 5.1 360 18:55 16.01.2020
666 Clouds 29 1019 74 10000 5.1 360 18:37 16.01.2020
667 Clouds 29 1019 74 10000 5.1 360 18:18 16.01.2020
668 Clouds 28 1020 74 10000 5.1 30 17:44 16.01.2020
669 Clouds 28 1020 74 10000 5.1 30 17:23 16.01.2020
670 Clouds 28 1020 74 10000 5.1 30 16:57 16.01.2020
671 Clouds 27 1020 74 10000 5.1 30 16:39 16.01.2020
672 Clouds 28 1020 74 10000 5.1 30 16:21 16.01.2020
673 Clouds 26 1019 83 10000 4.1 360 15:44 16.01.2020
674 Clouds 26 1019 83 10000 4.1 360 15:44 16.01.2020
675 Clouds 26 1019 83 10000 4.1 360 15:24 16.01.2020
676 Clouds 26 1019 83 10000 4.1 360 15:24 16.01.2020
677 Clouds 25 1019 83 10000 3.1 360 14:59 16.01.2020
678 Clouds 25 1019 83 10000 3.1 360 14:41 16.01.2020
679 Clouds 24 1019 83 10000 3.1 360 14:22 16.01.2020
680 Clouds 22 1018 94 10000 2.1 30 13:45 16.01.2020
681 Clouds 22 1018 94 10000 2.1 30 13:26 16.01.2020
682 Clouds 21 1018 94 10000 1.5 20 12:57 16.01.2020
683 Clouds 21 1018 94 10000 1.5 20 12:38 16.01.2020
684 Clouds 21 1018 94 10000 1.5 20 12:20 16.01.2020
685 Clouds 21 1018 100 10000 2.1 20 11:41 16.01.2020
686 Clouds 21 1018 100 10000 2.1 20 11:41 16.01.2020
687 Clouds 21 1018 100 10000 2.1 20 11:23 16.01.2020
688 Clouds 22 1017 94 10000 1.5 10 10:55 16.01.2020
689 Clouds 22 1017 94 10000 1.5 10 10:55 16.01.2020
690 Clouds 22 1017 94 10000 1.5 10 10:37 16.01.2020
691 Clouds 22 1017 94 10000 1.5 10 10:19 16.01.2020
692 Clouds 22 1017 100 10000 2.1 10 09:42 16.01.2020
693 Clouds 22 1017 100 10000 2.1 10 09:24 16.01.2020
694 Clouds 22 1017 100 10000 2.1 20 08:58 16.01.2020
695 Clouds 22 1017 100 10000 2.1 20 08:39 16.01.2020
696 Clouds 22 1017 100 10000 2.1 20 08:18 16.01.2020
697 Clouds 23 1018 88 10000 1.5 40 07:42 16.01.2020
698 Clouds 23 1018 88 10000 1.5 40 07:23 16.01.2020
699 Clouds 23 1018 94 10000 2.6 20 06:50 16.01.2020
700 Clouds 23 1018 94 10000 2.6 20 06:32 16.01.2020
701 Clouds 23 1018 94 10000 1 30 05:47 16.01.2020
702 Clouds 23 1019 94 10000 2.1 50 04:46 16.01.2020
703 Clouds 23 1019 94 10000 2.1 50 04:46 16.01.2020
704 Clouds 23 1018 88 10000 1.5 30 03:29 16.01.2020
705 Clouds 24 1018 88 10000 2.1 20 02:46 16.01.2020
706 Clouds 24 1017 83 10000 3.1 30 01:32 16.01.2020
707 Rain 24 1017 94 8000 3.33 7 00:42 16.01.2020
708 Rain 24 1017 94 8000 3.33 7 00:22 16.01.2020
709 Clouds 26 1016 88 10000 3.33 7 23:40 15.01.2020
710 Clouds 26 1016 88 10000 3.6 36 23:22 15.01.2020
711 Clouds 26 1016 88 10000 3.6 36 23:22 15.01.2020
712 Clouds 26 1016 88 10000 3.6 36 23:21 15.01.2020
713 Clouds 26 1016 94 10000 3.1 300 22:56 15.01.2020
714 Clouds 26 1016 94 10000 3.1 300 22:37 15.01.2020
715 Clouds 26 1016 94 10000 3.1 300 22:18 15.01.2020
716 Clouds 26 1016 94 10000 3.1 300 22:18 15.01.2020
717 Rain 27 1016 83 8000 3.1 130 21:55 15.01.2020
718 Rain 27 1016 83 8000 3.1 130 21:36 15.01.2020
719 Rain 27 1016 83 8000 3.1 130 21:18 15.01.2020
720 Clouds 27 1017 66 10000 3.6 20 20:55 15.01.2020
721 Clouds 27 1017 66 10000 3.6 20 20:37 15.01.2020
722 Rain 27 1017 66 10000 3.6 20 20:18 15.01.2020
723 Rain 26 1017 69 10000 4.1 10 19:54 15.01.2020
724 Rain 26 1017 69 10000 4.1 10 19:36 15.01.2020
725 Rain 27 1017 69 10000 4.1 10 19:18 15.01.2020
726 Rain 28 1018 66 10000 4.1 100 18:55 15.01.2020
727 Rain 28 1018 66 10000 4.1 100 18:55 15.01.2020
728 Rain 28 1018 66 10000 4.1 100 18:55 15.01.2020
729 Rain 28 1018 66 10000 4.1 100 18:36 15.01.2020
730 Clouds 28 1018 66 10000 4.1 100 18:18 15.01.2020
731 Clouds 28 1019 66 10000 4.6 30 17:40 15.01.2020
732 Clouds 28 1019 66 10000 4.6 30 17:40 15.01.2020
733 Clouds 28 1019 66 10000 4.6 30 17:21 15.01.2020
734 Clouds 27 1020 69 10000 4.1 20 16:56 15.01.2020
735 Clouds 28 1020 69 10000 4.1 20 16:38 15.01.2020
736 Clouds 28 1020 69 10000 4.1 20 16:20 15.01.2020
737 Clouds 28 1020 69 10000 4.1 20 16:20 15.01.2020
738 Clouds 26 1019 74 10000 5.1 10 15:43 15.01.2020
739 Clouds 26 1019 74 10000 5.1 10 15:21 15.01.2020
740 Clouds 25 1019 78 10000 5.1 10 14:56 15.01.2020
741 Clouds 25 1019 78 10000 5.1 10 14:37 15.01.2020
742 Clouds 24 1019 78 10000 5.1 10 14:18 15.01.2020
743 Clouds 23 1018 88 10000 2.1 30 13:44 15.01.2020
744 Clouds 23 1018 88 10000 2.1 30 13:23 15.01.2020
745 Clouds 22 1017 94 10000 2.1 360 12:55 15.01.2020
746 Clouds 22 1017 94 10000 2.1 360 12:37 15.01.2020
747 Clouds 22 1017 94 10000 2.1 360 12:18 15.01.2020
748 Clouds 22 1017 94 10000 2.1 360 12:18 15.01.2020
749 Clouds 22 1016 94 10000 2.1 360 11:39 15.01.2020
750 Clouds 22 1016 94 10000 2.1 360 11:20 15.01.2020
751 Clouds 22 1016 100 10000 2.1 360 10:58 15.01.2020
752 Clouds 22 1016 100 10000 2.1 360 10:40 15.01.2020
753 Clouds 22 1016 100 10000 2.1 360 10:21 15.01.2020
754 Clouds 22 1016 100 10000 3.1 10 09:41 15.01.2020
755 Clouds 22 1016 100 10000 3.1 10 09:21 15.01.2020
756 Clouds 22 1016 100 10000 2.1 20 08:45 15.01.2020
757 Clouds 22 1016 100 10000 2.1 20 08:26 15.01.2020
758 Clouds 22 1017 94 10000 2.1 10 07:56 15.01.2020
759 Clouds 22 1017 94 10000 2.1 10 07:33 15.01.2020
760 Clouds 22 1017 94 10000 2.1 20 06:54 15.01.2020
761 Clouds 22 1017 94 10000 2.1 20 06:32 15.01.2020
762 Clouds 22 1018 94 10000 2.1 20 05:32 15.01.2020
763 Clouds 23 1018 94 10000 2.1 20 03:20 15.01.2020
764 Clouds 23 1017 88 10000 2.1 20 01:48 15.01.2020
765 Clouds 23 1017 88 10000 2.1 20 01:22 15.01.2020
766 Clouds 24 1018 88 10000 4.06 353 00:37 15.01.2020
767 Clouds 24 1018 88 10000 4.06 353 00:19 15.01.2020
768 Clouds 24 1018 78 10000 2.6 360 23:46 14.01.2020
769 Clouds 24 1018 78 10000 2.6 360 23:27 14.01.2020
770 Rain 25 1017 78 8000 3.96 24 22:57 14.01.2020
771 Rain 25 1017 78 8000 3.96 24 22:57 14.01.2020
772 Rain 25 1017 78 8000 3.96 24 22:39 14.01.2020
773 Rain 25 1017 78 8000 3.96 24 22:18 14.01.2020
774 Rain 25 1017 62 8000 7.7 30 21:56 14.01.2020
775 Rain 25 1017 62 8000 7.7 30 21:37 14.01.2020
776 Rain 25 1017 62 8000 7.7 30 21:19 14.01.2020
777 Clouds 26 1017 69 10000 6.2 10 20:42 14.01.2020
778 Rain 27 1019 69 8000 6.7 30 20:22 14.01.2020
779 Rain 27 1019 69 8000 6.7 30 19:57 14.01.2020
780 Rain 27 1019 69 8000 6.7 30 19:57 14.01.2020
781 Rain 27 1019 69 8000 6.7 30 19:38 14.01.2020
782 Rain 27 1019 69 8000 6.7 30 19:20 14.01.2020
783 Clouds 27 1020 66 10000 6.7 60 18:59 14.01.2020
784 Clouds 27 1020 66 10000 6.7 60 18:40 14.01.2020
785 Clouds 26 1021 74 10000 7.2 360 18:19 14.01.2020
786 Clouds 26 1021 74 10000 7.2 360 18:19 14.01.2020
787 Clouds 26 1021 74 10000 7.2 360 17:39 14.01.2020
788 Rain 26 1021 74 10000 7.2 360 17:19 14.01.2020
789 Rain 27 1021 66 10000 6.2 360 16:59 14.01.2020
790 Rain 27 1021 66 10000 6.2 360 16:41 14.01.2020
791 Clouds 27 1021 66 10000 6.2 360 16:21 14.01.2020
792 Clouds 27 1021 78 10000 6.2 360 15:55 14.01.2020
793 Clouds 26 1021 78 10000 6.2 360 15:37 14.01.2020
794 Clouds 26 1021 78 10000 6.2 360 15:18 14.01.2020
795 Clouds 25 1021 74 10000 5.1 20 14:43 14.01.2020
796 Clouds 25 1021 74 10000 5.1 20 14:20 14.01.2020
797 Clouds 23 1020 94 10000 2.1 40 13:43 14.01.2020
798 Clouds 23 1020 94 10000 2.1 40 13:20 14.01.2020
799 Clouds 23 1019 94 10000 2.1 10 12:59 14.01.2020
800 Clouds 23 1019 94 10000 2.1 10 12:40 14.01.2020
801 Clouds 23 1019 94 10000 2.1 10 12:20 14.01.2020
802 Clouds 23 1018 100 10000 2.1 20 11:42 14.01.2020
803 Clouds 23 1018 100 10000 2.1 20 11:23 14.01.2020
804 Clouds 23 1019 100 10000 2.6 20 10:58 14.01.2020
805 Clouds 23 1019 100 10000 2.6 20 10:39 14.01.2020
806 Clouds 22 1019 100 10000 2.6 20 10:19 14.01.2020
807 Clouds 22 1019 100 10000 2.6 20 09:56 14.01.2020
808 Clouds 22 1019 100 10000 2.6 20 09:38 14.01.2020
809 Clouds 22 1019 100 10000 2.6 20 09:20 14.01.2020
810 Clouds 22 1019 100 10000 2.1 30 08:42 14.01.2020
811 Clouds 22 1019 100 10000 2.1 30 08:23 14.01.2020
812 Clouds 23 1020 94 10000 2.1 10 07:53 14.01.2020
813 Clouds 23 1020 94 10000 2.1 10 07:26 14.01.2020
814 Clouds 23 1021 94 10000 2.1 20 06:50 14.01.2020
815 Clouds 23 1021 94 10000 2.1 20 06:23 14.01.2020
816 Clouds 24 1021 88 10000 2.1 30 04:58 14.01.2020
817 Clouds 24 1021 83 10000 2.1 30 03:48 14.01.2020
818 Clouds 24 1021 83 10000 2.6 50 02:41 14.01.2020
819 Clouds 24 1020 78 10000 2.1 30 01:34 14.01.2020
820 Clouds 25 1020 83 10000 4.06 357 00:49 14.01.2020
821 Clouds 25 1020 83 10000 4.06 357 00:27 14.01.2020
822 Clouds 26 1019 83 10000 2.6 360 23:47 13.01.2020
823 Clouds 27 1019 83 10000 2.6 360 23:19 13.01.2020
824 Clouds 28 1019 78 10000 4.1 70 22:59 13.01.2020
825 Clouds 28 1019 78 10000 4.1 70 22:40 13.01.2020
826 Clouds 28 1019 78 10000 4.1 70 22:20 13.01.2020
827 Clouds 28 1019 74 10000 4.1 360 21:56 13.01.2020
828 Clouds 28 1019 74 10000 4.1 360 21:56 13.01.2020
829 Clouds 28 1019 74 10000 4.1 360 21:37 13.01.2020
830 Clouds 28 1019 74 10000 4.1 360 21:18 13.01.2020
831 Clouds 28 1019 74 10000 4.1 360 21:18 13.01.2020
832 Clouds 28 1020 74 10000 3.1 70 20:56 13.01.2020
833 Clouds 29 1020 74 10000 3.1 70 20:38 13.01.2020
834 Clouds 29 1020 74 10000 3.1 70 20:19 13.01.2020
835 Rain 28 1020 78 10000 2.6 90 19:42 13.01.2020
836 Rain 28 1020 78 10000 2.6 90 19:42 13.01.2020
837 Rain 28 1020 78 10000 2.6 90 19:22 13.01.2020
838 Clouds 29 1021 62 10000 5.1 360 18:59 13.01.2020
839 Rain 29 1021 62 10000 5.1 360 18:40 13.01.2020
840 Rain 29 1021 62 10000 5.1 360 18:20 13.01.2020
841 Rain 28 1022 62 10000 4.1 70 17:59 13.01.2020
842 Clouds 29 1022 62 10000 4.1 70 17:40 13.01.2020
843 Clouds 29 1022 62 10000 4.1 70 17:21 13.01.2020
844 Clouds 29 1022 62 10000 4.1 70 17:21 13.01.2020
845 Clouds 28 1022 66 10000 4.1 70 16:55 13.01.2020
846 Rain 28 1022 65 0 3.58 69 16:36 13.01.2020
847 Rain 28 1022 67 0 3.58 61 16:18 13.01.2020
848 Rain 27 1023 71 0 4.47 66 15:41 13.01.2020
849 Rain 27 1023 70 0 3.13 73 15:21 13.01.2020
850 Rain 26 1023 72 0 2.68 54 14:54 13.01.2020
851 Rain 26 1023 73 0 2.68 39 14:36 13.01.2020
852 Rain 25 1023 76 0 2.68 17 14:18 13.01.2020
853 Rain 24 1022 79 0 2.24 10 13:40 13.01.2020
854 Rain 24 1024 99 0 4.38 357 13:22 13.01.2020
855 Rain 24 1021 81 0 2.24 8 12:58 13.01.2020
856 Rain 24 1021 83 0 1.79 4 12:40 13.01.2020
857 Clouds 23 1020 100 10000 4.1 40 12:21 13.01.2020
858 Clouds 23 1020 100 10000 4.1 40 11:40 13.01.2020
859 Clouds 23 1020 100 10000 4.1 40 11:20 13.01.2020
860 Clouds 23 1019 100 10000 2.1 20 10:58 13.01.2020
861 Clouds 23 1019 100 10000 2.1 20 10:39 13.01.2020
862 Clouds 23 1019 100 10000 2.1 20 10:39 13.01.2020
863 Clouds 23 1019 100 10000 2.1 20 10:39 13.01.2020
864 Clouds 23 1019 100 10000 2.1 20 10:21 13.01.2020
865 Clouds 23 1019 100 10000 4.1 20 09:59 13.01.2020
866 Clouds 23 1019 100 10000 4.1 20 09:40 13.01.2020
867 Clouds 23 1019 100 10000 4.1 20 09:22 13.01.2020
868 Clouds 23 1020 94 10000 2.1 20 08:41 13.01.2020
869 Clouds 23 1020 94 10000 2.1 20 08:21 13.01.2020
870 Clouds 23 1012 94 10000 2.1 20 07:52 13.01.2020
871 Clouds 23 1012 94 10000 2.1 20 07:33 13.01.2020
872 Clouds 23 1021 94 10000 2.1 40 06:43 13.01.2020
873 Clouds 23 1021 94 10000 2.1 40 06:21 13.01.2020
874 Clouds 23 1021 94 10000 2.1 30 05:27 13.01.2020
875 Clouds 24 1021 94 10000 2.1 30 03:55 13.01.2020
876 Clouds 24 1021 94 10000 2.1 30 03:24 13.01.2020
877 Clouds 24 1021 88 10000 2.1 40 02:45 13.01.2020
878 Clouds 25 1021 89 10000 2.1 40 02:26 13.01.2020
879 Clouds 25 1012 88 10000 2.1 40 01:20 13.01.2020
880 Clouds 26 1020 83 10000 4.03 27 00:41 13.01.2020
881 Clouds 26 1020 83 10000 4.03 27 00:22 13.01.2020
882 Clouds 26 1019 78 10000 4.1 360 23:42 12.01.2020
883 Clouds 27 1019 78 10000 4.1 360 23:24 12.01.2020
884 Rain 27 1019 83 6000 4.1 80 22:58 12.01.2020
885 Rain 27 1019 83 6000 4.1 80 22:58 12.01.2020
886 Clouds 27 1018 74 10000 5.1 60 22:39 12.01.2020
887 Clouds 27 1018 74 10000 5.1 60 22:21 12.01.2020
888 Rain 27 1019 83 8000 5.1 60 21:56 12.01.2020
889 Rain 27 1019 83 8000 5.1 60 21:38 12.01.2020
890 Rain 26 1019 83 8000 5.1 60 21:19 12.01.2020
891 Rain 27 1019 70 10000 3.1 90 20:56 12.01.2020
892 Rain 28 1019 70 10000 3.1 90 20:37 12.01.2020
893 Rain 28 1019 70 10000 3.1 90 20:19 12.01.2020
894 Rain 27 1020 69 10000 5.1 360 19:55 12.01.2020
895 Rain 26 1020 69 10000 5.1 360 19:37 12.01.2020
896 Rain 27 1020 69 10000 5.1 360 19:18 12.01.2020
897 Rain 27 1020 69 10000 5.1 360 19:18 12.01.2020
898 Clouds 29 1021 58 10000 5.1 60 18:56 12.01.2020
899 Rain 29 1021 58 10000 5.1 60 18:38 12.01.2020
900 Rain 29 1021 58 10000 5.1 60 18:19 12.01.2020
901 Clouds 29 1023 66 10000 6.2 360 17:42 12.01.2020
902 Clouds 29 1023 66 10000 6.2 360 17:22 12.01.2020
903 Clouds 29 1022 66 10000 5.1 60 16:58 12.01.2020
904 Clouds 29 1022 66 10000 5.1 60 16:39 12.01.2020
905 Clouds 28 1022 66 10000 5.1 60 16:20 12.01.2020
906 Clouds 27 1022 74 10000 4.1 360 15:56 12.01.2020
907 Clouds 27 1022 74 10000 4.1 360 15:38 12.01.2020
908 Clouds 27 1022 74 10000 4.1 360 15:20 12.01.2020
909 Clouds 26 1022 78 10000 3.1 360 14:42 12.01.2020
910 Clouds 25 1022 78 10000 3.1 360 14:23 12.01.2020
911 Clouds 24 1022 83 10000 3.65 353 13:57 12.01.2020
912 Clouds 24 1022 83 10000 3.65 353 13:39 12.01.2020
913 Clouds 23 1022 83 10000 3.53 349 13:20 12.01.2020
914 Clouds 23 1020 94 10000 2.1 360 12:55 12.01.2020
915 Clouds 23 1020 94 10000 2.1 360 12:37 12.01.2020
916 Clouds 23 1020 94 10000 2.1 360 12:18 12.01.2020
917 Clouds 23 1020 94 10000 2.1 360 11:40 12.01.2020
918 Clouds 23 1020 94 10000 2.1 360 11:22 12.01.2020
919 Clouds 23 1020 94 10000 3.49 1 10:56 12.01.2020
920 Clouds 23 1020 94 10000 3.49 1 10:37 12.01.2020
921 Clouds 23 1020 94 10000 3.49 1 10:18 12.01.2020
922 Clouds 23 1020 94 10000 2.1 20 09:41 12.01.2020
923 Clouds 23 1020 94 10000 2.1 20 09:41 12.01.2020
924 Clouds 23 1020 94 10000 2.1 20 09:21 12.01.2020
925 Clouds 23 1020 94 10000 2.1 20 08:47 12.01.2020
926 Clouds 23 1020 94 10000 2.1 20 08:22 12.01.2020
927 Clouds 23 1020 94 10000 2.1 40 07:46 12.01.2020
928 Clouds 23 1020 94 10000 2.1 40 07:25 12.01.2020
929 Clouds 23 1021 94 10000 2.1 40 06:54 12.01.2020
930 Clouds 23 1021 94 10000 2.1 40 06:35 12.01.2020
931 Clouds 24 1021 94 10000 2.1 40 05:50 12.01.2020
932 Clouds 24 1020 100 10000 2.6 70 04:53 12.01.2020
933 Clouds 24 1021 88 10000 2.1 20 03:35 12.01.2020
934 Clouds 25 1021 83 10000 2.1 30 02:43 12.01.2020
935 Clouds 25 1021 83 10000 2.1 30 02:24 12.01.2020
936 Clouds 26 1020 83 10000 3.1 60 01:31 12.01.2020
937 Clouds 27 1020 74 10000 2.6 30 00:46 12.01.2020
938 Clouds 27 1020 74 10000 2.6 30 00:22 12.01.2020
939 Clouds 28 1020 54 10000 3.57 20 23:56 11.01.2020
940 Clouds 28 1020 54 10000 3.57 20 23:37 11.01.2020
941 Clouds 28 1020 54 10000 5.35 52 23:18 11.01.2020
942 Clouds 29 1019 55 10000 4.1 60 22:56 11.01.2020
943 Clouds 29 1019 55 10000 4.1 60 22:37 11.01.2020
944 Clouds 29 1019 55 10000 4.1 60 22:18 11.01.2020
945 Clouds 31 1019 46 10000 6.2 60 21:43 11.01.2020
946 Clouds 31 1019 46 10000 6.2 60 21:19 11.01.2020
947 Clouds 30 1020 52 10000 6.7 60 20:55 11.01.2020
948 Clouds 30 1020 52 10000 6.7 60 20:37 11.01.2020
949 Clouds 30 1020 52 10000 6.7 60 20:18 11.01.2020
950 Clouds 30 1019 62 10000 5.1 70 19:55 11.01.2020
951 Clouds 30 1019 62 10000 5.1 70 19:36 11.01.2020
952 Clouds 30 1019 62 10000 5.1 70 19:18 11.01.2020
953 Clouds 29 1021 66 10000 5.1 60 18:54 11.01.2020
954 Clouds 29 1021 66 10000 5.1 60 18:36 11.01.2020
955 Clouds 29 1021 66 10000 5.1 60 18:18 11.01.2020
956 Rain 28 1022 69 10000 5.1 30 17:54 11.01.2020
957 Rain 28 1022 69 10000 5.1 30 17:36 11.01.2020
958 Rain 28 1022 69 10000 5.1 30 17:18 11.01.2020
959 Clouds 28 1023 65 10000 6.2 30 16:41 11.01.2020
960 Clouds 28 1023 65 10000 6.2 30 16:22 11.01.2020
961 Clouds 27 1022 74 10000 5.1 360 15:42 11.01.2020
962 Clouds 27 1022 74 10000 5.1 360 15:23 11.01.2020
963 Clouds 25 1022 83 10000 4.1 360 14:58 11.01.2020
964 Clouds 25 1022 83 10000 4.1 360 14:40 11.01.2020
965 Clouds 25 1022 83 10000 4.1 360 14:21 11.01.2020
966 Clouds 23 1021 94 10000 2.1 360 13:55 11.01.2020
967 Clouds 22 1021 94 10000 2.1 360 13:36 11.01.2020
968 Clouds 22 1021 94 10000 2.1 360 13:18 11.01.2020
969 Clouds 21 1020 94 10000 2.1 10 12:41 11.01.2020
970 Clouds 21 1020 94 10000 2.1 10 12:23 11.01.2020
971 Clouds 21 1019 94 10000 2.6 20 11:48 11.01.2020
972 Clouds 21 1019 94 10000 2.6 20 11:27 11.01.2020
973 Clouds 21 1019 100 10000 4.6 50 10:59 11.01.2020
974 Clouds 21 1019 100 10000 4.6 50 10:40 11.01.2020
975 Clouds 21 1019 100 10000 4.6 50 10:40 11.01.2020
976 Rain 21 1019 100 10000 4.6 50 10:22 11.01.2020
977 Rain 21 1020 100 10000 4.6 50 09:39 11.01.2020
978 Rain 21 1020 100 10000 4.6 50 09:21 11.01.2020
979 Clouds 22 1020 100 10000 1 40 08:42 11.01.2020
980 Clouds 22 1020 100 10000 1 40 08:22 11.01.2020
981 Clouds 23 1020 89 10000 2.1 40 07:44 11.01.2020
982 Clouds 23 1020 89 10000 2.1 40 07:26 11.01.2020
983 Clouds 23 1020 100 10000 1 20 06:52 11.01.2020
984 Clouds 23 1021 100 10000 2.1 50 05:50 11.01.2020
985 Clouds 23 1020 100 10000 2.1 50 04:47 11.01.2020
986 Clouds 23 1020 100 10000 2.1 50 04:29 11.01.2020
987 Clouds 23 1020 94 10000 2.1 30 02:58 11.01.2020
988 Clouds 23 1020 94 10000 2.1 30 02:38 11.01.2020
989 Clouds 23 1019 94 10000 2.6 60 01:43 11.01.2020
990 Clouds 23 1019 94 10000 2.6 60 01:20 11.01.2020
991 Rain 24 1018 83 10000 4.1 360 00:40 11.01.2020
992 Clouds 27 1018 83 10000 4.1 360 23:59 10.01.2020
993 Clouds 27 1018 83 10000 4.1 360 23:40 10.01.2020
994 Clouds 27 1018 83 10000 4.1 360 23:22 10.01.2020
995 Clouds 28 1018 78 10000 5.1 360 22:58 10.01.2020
996 Clouds 28 1018 78 10000 5.1 360 22:40 10.01.2020
997 Clouds 28 1018 78 10000 5.1 360 22:20 10.01.2020
998 Clouds 28 1018 78 10000 5.1 360 21:57 10.01.2020
999 Clouds 29 1018 78 10000 5.1 360 21:37 10.01.2020
1000 Clouds 29 1018 78 10000 5.1 360 21:19 10.01.2020
1001 Clouds 28 1019 74 10000 5.1 360 20:43 10.01.2020
1002 Clouds 28 1019 74 10000 5.1 360 20:24 10.01.2020
1003 Clouds 28 1020 88 10000 5.1 20 19:58 10.01.2020
1004 Clouds 28 1020 88 10000 5.1 20 19:38 10.01.2020
1005 Clouds 28 1020 88 10000 5.1 20 19:19 10.01.2020
1006 Rain 27 1021 88 7000 5.1 70 18:43 10.01.2020
1007 Rain 27 1021 88 7000 5.1 70 18:19 10.01.2020
1008 Clouds 28 1022 74 10000 5.1 30 17:57 10.01.2020
1009 Rain 28 1021 65 0 2.68 70 17:39 10.01.2020
1010 Rain 29 1021 63 0 3.13 86 17:20 10.01.2020
1011 Rain 28 1021 65 0 3.58 64 16:58 10.01.2020
1012 Rain 28 1021 65 0 4.02 60 16:39 10.01.2020
1013 Clouds 27 1022 78 10000 5.1 10 16:19 10.01.2020
1014 Clouds 27 1022 78 10000 5.1 10 15:56 10.01.2020
1015 Clouds 27 1022 78 10000 5.1 10 15:56 10.01.2020
1016 Clouds 26 1022 78 10000 5.1 10 15:37 10.01.2020
1017 Clouds 26 1022 78 10000 5.1 10 15:18 10.01.2020
1018 Clouds 26 1021 78 10000 4.1 10 14:55 10.01.2020
1019 Clouds 26 1021 78 10000 4.1 10 14:37 10.01.2020
1020 Clouds 26 1021 78 10000 4.1 10 14:18 10.01.2020
1021 Rain 24 1020 94 8000 3.1 30 13:43 10.01.2020
1022 Rain 23 1020 94 8000 3.1 30 13:25 10.01.2020
1023 Clouds 23 1019 94 10000 4.1 70 12:58 10.01.2020
1024 Clouds 23 1019 94 10000 4.1 70 12:39 10.01.2020
1025 Clouds 23 1019 94 10000 4.1 70 12:19 10.01.2020
1026 Clouds 23 1019 94 10000 4.1 70 12:19 10.01.2020
1027 Rain 23 1019 100 8000 3.6 70 11:56 10.01.2020
1028 Rain 23 1019 100 8000 3.6 70 11:38 10.01.2020
1029 Rain 23 1019 100 8000 3.6 70 11:18 10.01.2020
1030 Clouds 23 1018 100 10000 3.73 12 10:57 10.01.2020
1031 Clouds 23 1018 100 10000 3.73 12 10:36 10.01.2020
1032 Clouds 23 1018 100 10000 3.73 12 10:18 10.01.2020
1033 Clouds 23 1019 100 10000 3.1 30 09:42 10.01.2020
1034 Clouds 23 1019 100 10000 3.1 30 09:23 10.01.2020
1035 Clouds 24 1019 88 10000 2.1 30 08:43 10.01.2020
1036 Clouds 24 1019 88 10000 2.1 30 08:24 10.01.2020
1037 Clouds 24 1020 91 10000 2.1 40 07:48 10.01.2020
1038 Clouds 24 1020 91 10000 2.1 40 07:30 10.01.2020
1039 Clouds 24 1020 88 10000 2.1 20 06:56 10.01.2020
1040 Clouds 24 1020 88 10000 2.1 20 06:27 10.01.2020
1041 Clouds 24 1021 88 10000 2.1 40 05:52 10.01.2020
1042 Clouds 25 1021 88 10000 2.1 40 03:50 10.01.2020
1043 Clouds 25 1021 88 10000 2.1 40 03:31 10.01.2020
1044 Clouds 25 1021 88 10000 3.1 30 02:51 10.01.2020
1045 Clouds 25 1020 83 10000 3.1 30 01:52 10.01.2020
1046 Clouds 26 1020 83 10000 3.1 30 01:29 10.01.2020
1047 Clouds 26 1018 83 10000 2.1 360 00:48 10.01.2020
1048 Clouds 26 1018 83 10000 2.1 360 00:30 10.01.2020
1049 Clouds 28 1017 78 10000 5.1 360 23:39 09.01.2020
1050 Clouds 28 1017 78 10000 5.1 360 23:39 09.01.2020
1051 Clouds 28 1017 78 10000 5.1 360 23:39 09.01.2020
1052 Clouds 28 1017 78 10000 5.1 360 23:39 09.01.2020
1053 Clouds 28 1017 78 10000 5.1 360 23:39 09.01.2020
1054 Clouds 28 1017 78 10000 5.1 360 23:21 09.01.2020
1055 Clouds 29 1017 70 10000 4.1 360 22:58 09.01.2020
1056 Clouds 29 1017 70 10000 4.1 360 22:58 09.01.2020
1057 Clouds 29 1017 70 10000 4.1 360 22:39 09.01.2020
1058 Clouds 29 1017 70 10000 4.1 360 22:19 09.01.2020
1059 Clouds 29 1017 70 10000 4.1 360 22:19 09.01.2020
1060 Clouds 30 1017 66 10000 5.1 30 21:57 09.01.2020
1061 Clouds 30 1017 66 10000 5.1 30 21:57 09.01.2020
1062 Clouds 30 1017 66 10000 5.1 30 21:38 09.01.2020
1063 Clouds 30 1017 66 10000 5.1 30 21:20 09.01.2020
1064 Clouds 29 1019 78 10000 6.2 110 20:58 09.01.2020
1065 Clouds 29 1019 78 10000 6.2 110 20:39 09.01.2020
1066 Clouds 29 1019 78 10000 6.2 110 20:20 09.01.2020
1067 Clouds 29 1019 78 10000 6.2 110 19:58 09.01.2020
1068 Clouds 30 1018 66 10000 5.1 360 19:39 09.01.2020
1069 Clouds 30 1018 66 10000 5.1 360 19:20 09.01.2020
1070 Clouds 30 1019 74 10000 5.1 360 18:56 09.01.2020
1071 Clouds 30 1019 74 10000 5.1 360 18:56 09.01.2020
1072 Clouds 30 1019 74 10000 5.1 360 18:37 09.01.2020
1073 Clouds 30 1019 74 10000 5.1 360 18:19 09.01.2020
1074 Clouds 29 1020 74 10000 5.1 360 17:41 09.01.2020
1075 Clouds 29 1020 74 10000 5.1 360 17:19 09.01.2020
1076 Clouds 29 1021 74 10000 5.1 360 16:56 09.01.2020
1077 Clouds 29 1021 74 10000 5.1 360 16:36 09.01.2020
1078 Clouds 29 1021 74 10000 5.1 360 16:18 09.01.2020
1079 Clouds 28 1021 78 10000 5.1 270 15:41 09.01.2020
1080 Clouds 28 1021 78 10000 5.1 270 15:41 09.01.2020
1081 Clouds 28 1021 78 10000 5.1 270 15:20 09.01.2020
1082 Clouds 26 1020 94 10000 4.1 270 14:55 09.01.2020
1083 Clouds 26 1020 94 10000 4.1 270 14:37 09.01.2020
1084 Clouds 26 1020 94 10000 4.1 270 14:18 09.01.2020
1085 Clouds 25 1020 100 10000 2.1 30 13:54 09.01.2020
1086 Clouds 24 1020 100 10000 2.1 30 13:36 09.01.2020
1087 Clouds 24 1020 100 10000 2.1 30 13:18 09.01.2020
1088 Clouds 24 1019 100 10000 2.1 30 12:42 09.01.2020
1089 Clouds 24 1019 100 10000 2.1 30 12:23 09.01.2020
1090 Clouds 24 1019 100 10000 2.1 30 11:59 09.01.2020
1091 Clouds 24 1019 94 10000 2.1 30 11:41 09.01.2020
1092 Clouds 24 1019 94 10000 2.1 30 11:22 09.01.2020
1093 Clouds 24 1018 94 10000 2.1 20 10:45 09.01.2020
1094 Clouds 24 1018 94 10000 2.1 20 10:23 09.01.2020
1095 Clouds 24 1018 94 10000 2.1 20 09:59 09.01.2020
1096 Clouds 24 1018 94 10000 2.1 20 09:40 09.01.2020
1097 Clouds 24 1018 94 10000 2.1 20 09:21 09.01.2020
1098 Clouds 24 1018 94 10000 2.1 20 09:21 09.01.2020
1099 Clouds 24 1019 100 10000 2.1 20 08:55 09.01.2020
1100 Clouds 24 1019 100 10000 2.1 20 08:37 09.01.2020
1101 Clouds 24 1019 100 10000 2.1 20 08:19 09.01.2020
1102 Clouds 23 1019 94 10000 3.46 357 07:42 09.01.2020
1103 Clouds 23 1019 94 10000 3.46 357 07:42 09.01.2020
1104 Clouds 23 1019 94 10000 3.46 357 07:23 09.01.2020
1105 Clouds 24 1020 88 10000 3.46 357 06:39 09.01.2020
1106 Clouds 24 1020 88 10000 3.46 357 06:20 09.01.2020
1107 Clouds 24 1020 94 10000 2.1 20 05:49 09.01.2020
1108 Clouds 25 1020 94 10000 2.1 20 04:44 09.01.2020
1109 Clouds 25 1020 88 10000 2.1 50 03:38 09.01.2020
1110 Clouds 25 1019 88 10000 2.1 50 02:54 09.01.2020
1111 Clouds 26 1019 88 10000 2.1 50 02:24 09.01.2020
1112 Clouds 26 1018 78 10000 3.1 50 01:39 09.01.2020
1113 Clouds 26 1018 78 10000 3.82 12 00:43 09.01.2020
1114 Rain 27 1018 78 10000 3.82 12 00:21 09.01.2020
1115 Rain 27 1018 78 10000 3.82 12 00:21 09.01.2020
1116 Rain 27 1018 78 10000 3.82 12 00:21 09.01.2020
1117 Clouds 28 1017 69 0 2.6 40 23:44 08.01.2020
1118 Clouds 28 1017 69 0 2.6 40 23:25 08.01.2020
1119 Clouds 29 1017 70 10000 5.1 10 22:59 08.01.2020
1120 Clouds 29 1017 70 10000 5.1 10 22:39 08.01.2020
1121 Clouds 29 1017 70 10000 5.1 10 22:39 08.01.2020
1122 Clouds 29 1017 70 10000 5.1 10 22:20 08.01.2020
1123 Clouds 29 1017 66 10000 3.1 360 21:57 08.01.2020
1124 Rain 29 1017 66 10000 3.1 360 21:38 08.01.2020
1125 Rain 29 1017 66 10000 3.1 360 21:20 08.01.2020
1126 Rain 30 1017 59 10000 4.6 60 20:58 08.01.2020
1127 Clouds 30 1017 59 10000 4.6 60 20:38 08.01.2020
1128 Clouds 31 1017 59 10000 4.6 60 20:20 08.01.2020
1129 Clouds 30 1018 62 10000 4.1 40 19:56 08.01.2020
1130 Clouds 30 1018 62 10000 4.1 40 19:56 08.01.2020
1131 Clouds 31 1018 62 10000 4.1 40 19:37 08.01.2020
1132 Clouds 31 1018 62 10000 4.1 40 19:18 08.01.2020
1133 Clouds 30 1018 62 10000 3.1 360 18:55 08.01.2020
1134 Clouds 30 1018 62 10000 3.1 360 18:37 08.01.2020
1135 Clouds 30 1018 62 10000 3.1 360 18:18 08.01.2020
1136 Clouds 30 1019 62 10000 4.1 360 17:45 08.01.2020
1137 Clouds 29 1019 62 10000 4.1 360 17:24 08.01.2020
1138 Clouds 29 1020 66 10000 4.1 360 16:57 08.01.2020
1139 Clouds 29 1020 66 10000 4.1 360 16:39 08.01.2020
1140 Clouds 28 1020 66 10000 4.1 360 16:19 08.01.2020
1141 Clouds 28 1020 66 10000 4.1 360 16:19 08.01.2020
1142 Clouds 27 1020 74 10000 2.6 360 15:57 08.01.2020
1143 Clouds 27 1020 74 10000 2.6 360 15:39 08.01.2020
1144 Clouds 27 1020 74 10000 2.6 360 15:18 08.01.2020
1145 Clouds 25 1020 88 10000 3.56 17 14:55 08.01.2020
1146 Clouds 25 1020 88 10000 3.56 17 14:36 08.01.2020
1147 Clouds 24 1020 88 10000 3.01 336 14:18 08.01.2020
1148 Clouds 22 1018 94 10000 3.01 336 13:38 08.01.2020
1149 Clouds 22 1018 94 10000 3.01 336 13:18 08.01.2020
1150 Clouds 22 1018 100 10000 2.1 20 12:41 08.01.2020
1151 Clouds 20 1018 100 10000 2.1 20 12:18 08.01.2020
1152 Clouds 21 1017 94 10000 2.1 20 11:55 08.01.2020
1153 Clouds 21 1017 94 10000 2.1 20 11:36 08.01.2020
1154 Clouds 21 1017 94 10000 2.1 20 11:18 08.01.2020
1155 Clouds 21 1017 100 10000 2.1 20 10:41 08.01.2020
1156 Clouds 21 1017 100 10000 2.1 20 10:22 08.01.2020
1157 Clouds 21 1017 100 10000 2.1 20 09:58 08.01.2020
1158 Clouds 23 1017 94 10000 2.1 50 09:38 08.01.2020
1159 Clouds 23 1017 94 10000 2.1 50 09:18 08.01.2020
1160 Clouds 23 1017 94 10000 2.1 30 08:42 08.01.2020
1161 Clouds 23 1017 94 10000 2.1 30 08:24 08.01.2020
1162 Clouds 23 1017 94 10000 2.1 30 07:59 08.01.2020
1163 Clouds 23 1018 94 10000 2.1 40 07:41 08.01.2020
1164 Clouds 23 1018 94 10000 2.1 40 07:23 08.01.2020
1165 Clouds 23 1018 94 10000 2.1 40 06:44 08.01.2020
1166 Clouds 23 1018 94 10000 2.1 30 05:57 08.01.2020
1167 Clouds 24 1018 94 10000 2.1 30 05:27 08.01.2020
1168 Clouds 24 1018 88 10000 2.1 60 04:46 08.01.2020
1169 Clouds 25 1018 83 10000 2.1 60 03:32 08.01.2020
1170 Clouds 25 1018 83 10000 2.1 50 02:44 08.01.2020
1171 Clouds 25 1018 83 10000 2.1 50 02:18 08.01.2020
1172 Clouds 25 1018 83 10000 2.1 50 02:18 08.01.2020
1173 Clouds 26 1017 83 10000 2.18 41 01:39 08.01.2020
1174 Clouds 26 1015 83 10000 1.84 15 00:52 08.01.2020
1175 Clouds 26 1015 83 10000 1.84 15 00:24 08.01.2020
1176 Clouds 27 1014 83 10000 1.84 15 23:46 07.01.2020
1177 Clouds 27 1014 83 10000 1.95 87 23:21 07.01.2020
1178 Clouds 27 1014 78 10000 3.1 70 22:57 07.01.2020
1179 Clouds 27 1014 78 10000 3.1 70 22:38 07.01.2020
1180 Clouds 27 1014 78 10000 3.1 70 22:19 07.01.2020
1181 Clouds 28 1014 74 10000 3.1 80 21:42 07.01.2020
1182 Clouds 28 1014 74 10000 3.1 80 21:22 07.01.2020
1183 Clouds 28 1015 74 10000 2.6 80 20:58 07.01.2020
1184 Clouds 28 1015 74 10000 2.6 80 20:40 07.01.2020
1185 Clouds 28 1015 74 10000 2.6 80 20:21 07.01.2020
1186 Clouds 28 1016 70 10000 4.1 60 19:57 07.01.2020
1187 Clouds 29 1016 70 10000 4.1 60 19:37 07.01.2020
1188 Clouds 29 1016 70 10000 4.1 60 19:19 07.01.2020
1189 Clouds 29 1016 70 10000 4.1 360 18:56 07.01.2020
1190 Clouds 29 1016 70 10000 4.1 360 18:38 07.01.2020
1191 Clouds 29 1016 70 10000 4.1 360 18:18 07.01.2020
1192 Clouds 27 1017 74 10000 4.1 360 17:54 07.01.2020
1193 Clouds 27 1017 74 10000 4.1 360 17:36 07.01.2020
1194 Clouds 27 1017 74 10000 4.1 360 17:18 07.01.2020
1195 Clouds 27 1017 78 10000 5.1 360 16:54 07.01.2020
1196 Clouds 27 1017 78 10000 5.1 360 16:36 07.01.2020
1197 Clouds 27 1017 78 10000 5.1 360 16:18 07.01.2020
1198 Clouds 27 1017 78 10000 3.1 360 15:42 07.01.2020
1199 Clouds 26 1017 78 10000 3.1 360 15:23 07.01.2020
1200 Clouds 25 1016 83 10000 4.14 16 14:58 07.01.2020
1201 Clouds 25 1016 83 10000 4.14 16 14:38 07.01.2020
1202 Clouds 25 1016 83 10000 3.35 349 14:19 07.01.2020
1203 Clouds 25 1016 83 10000 3.35 349 14:19 07.01.2020
1204 Clouds 23 1015 94 10000 3.35 349 13:40 07.01.2020
1205 Clouds 23 1016 88 10000 2.1 360 13:20 07.01.2020
1206 Clouds 22 1016 88 10000 2.1 360 12:54 07.01.2020
1207 Clouds 22 1016 88 10000 2.1 360 12:36 07.01.2020
1208 Clouds 22 1016 88 10000 2.1 360 12:18 07.01.2020
1209 Clouds 22 1015 88 10000 2.1 10 11:41 07.01.2020
1210 Clouds 22 1015 88 10000 2.1 10 11:41 07.01.2020
1211 Clouds 22 1015 88 10000 2.1 10 11:21 07.01.2020
1212 Clouds 22 1015 88 10000 2.6 10 10:43 07.01.2020
1213 Clouds 22 1015 88 10000 2.6 10 10:43 07.01.2020
1214 Clouds 22 1015 88 10000 2.6 10 10:24 07.01.2020
1215 Clouds 22 1015 88 10000 2.6 10 09:59 07.01.2020
1216 Clouds 23 1015 88 10000 3.1 360 09:38 07.01.2020
1217 Clouds 23 1015 88 10000 3.1 360 09:20 07.01.2020
1218 Clouds 23 1015 88 10000 2.6 260 08:47 07.01.2020
1219 Clouds 23 1015 88 10000 2.6 260 08:27 07.01.2020
1220 Clouds 23 1015 88 10000 2.1 360 07:55 07.01.2020
1221 Clouds 23 1015 88 10000 2.1 360 07:34 07.01.2020
1222 Clouds 23 1016 94 10000 2.1 10 06:54 07.01.2020
1223 Clouds 23 1016 94 10000 2.1 10 06:54 07.01.2020
1224 Clouds 23 1016 94 10000 2.1 10 06:35 07.01.2020
1225 Clouds 23 1016 83 10000 2.1 20 05:57 07.01.2020
1226 Clouds 23 1016 83 10000 2.1 20 05:35 07.01.2020
1227 Clouds 23 1016 88 10000 2.1 20 03:29 07.01.2020
1228 Clouds 25 1016 78 10000 3.1 40 02:24 07.01.2020
1229 Clouds 25 1016 73 10000 3.6 30 01:57 07.01.2020
1230 Clouds 26 1016 73 10000 3.6 30 01:32 07.01.2020
1231 Clouds 27 1014 74 10000 3.1 360 00:37 07.01.2020
1232 Clouds 27 1014 74 10000 3.1 360 00:19 07.01.2020
1233 Clouds 28 1014 65 10000 5.7 360 23:55 06.01.2020
1234 Clouds 28 1014 65 10000 5.7 360 23:36 06.01.2020
1235 Clouds 28 1014 65 10000 5.7 360 23:36 06.01.2020
1236 Clouds 28 1014 65 10000 5.7 360 23:18 06.01.2020
1237 Clouds 29 1014 58 10000 7.2 360 22:42 06.01.2020
1238 Clouds 29 1014 58 10000 7.2 360 22:22 06.01.2020
1239 Clouds 29 1014 55 10000 6.2 360 21:56 06.01.2020
1240 Clouds 30 1014 55 10000 6.2 360 21:38 06.01.2020
1241 Clouds 30 1014 55 10000 6.2 360 21:20 06.01.2020
1242 Clouds 30 1015 52 10000 6.7 360 20:56 06.01.2020
1243 Clouds 30 1015 52 10000 6.7 360 20:37 06.01.2020
1244 Clouds 30 1015 52 10000 6.7 360 20:19 06.01.2020
1245 Clouds 31 1016 55 10000 5.7 360 19:55 06.01.2020
1246 Clouds 30 1016 55 10000 5.7 360 19:37 06.01.2020
1247 Clouds 30 1016 55 10000 5.7 360 19:19 06.01.2020
1248 Clouds 29 1017 58 10000 6.2 360 18:45 06.01.2020
1249 Clouds 29 1017 58 10000 6.2 360 18:21 06.01.2020
1250 Clouds 29 1017 66 10000 6.2 360 17:56 06.01.2020
1251 Clouds 28 1017 66 10000 6.2 360 17:37 06.01.2020
1252 Clouds 28 1017 66 10000 6.2 360 17:18 06.01.2020
1253 Clouds 28 1018 69 10000 6.2 360 16:42 06.01.2020
1254 Clouds 28 1018 69 10000 6.2 360 16:42 06.01.2020
1255 Clouds 27 1018 69 10000 6.2 360 16:23 06.01.2020
1256 Clouds 27 1018 69 10000 6.2 360 15:59 06.01.2020
1257 Clouds 26 1017 78 10000 5.1 360 15:38 06.01.2020
1258 Clouds 25 1017 78 10000 5.1 360 15:18 06.01.2020
1259 Clouds 23 1017 83 10000 3.1 350 14:42 06.01.2020
1260 Clouds 23 1017 83 10000 3.1 350 14:23 06.01.2020
1261 Clouds 23 1017 83 10000 3.1 350 14:23 06.01.2020
1262 Clouds 23 1017 83 10000 3.1 350 13:59 06.01.2020
1263 Clouds 22 1016 94 10000 4.2 339 13:40 06.01.2020
1264 Clouds 21 1016 94 10000 4.04 340 13:21 06.01.2020
1265 Clouds 21 1015 94 10000 2.6 350 12:58 06.01.2020
1266 Clouds 21 1015 94 10000 2.6 350 12:39 06.01.2020
1267 Clouds 21 1015 94 10000 2.6 350 12:39 06.01.2020
1268 Clouds 21 1015 94 10000 2.6 350 12:19 06.01.2020
1269 Clouds 21 1015 100 10000 2.1 360 11:43 06.01.2020
1270 Clouds 21 1015 100 10000 2.1 360 11:24 06.01.2020
1271 Clouds 21 1015 100 10000 2.1 360 10:59 06.01.2020
1272 Clouds 22 1015 94 10000 2.1 30 10:41 06.01.2020
1273 Clouds 22 1015 94 10000 2.1 30 10:21 06.01.2020
1274 Clouds 23 1015 94 10000 1.5 360 09:42 06.01.2020
1275 Clouds 23 1015 94 10000 1.5 360 09:23 06.01.2020
1276 Clouds 22 1015 94 10000 1.5 340 08:55 06.01.2020
1277 Clouds 22 1015 94 10000 1.5 340 08:37 06.01.2020
1278 Clouds 23 1015 94 10000 1.5 340 07:58 06.01.2020
1279 Clouds 23 1016 88 10000 2.1 360 07:39 06.01.2020
1280 Clouds 23 1016 94 10000 1.5 20 06:51 06.01.2020
1281 Clouds 23 1016 94 10000 1.5 20 06:32 06.01.2020
1282 Clouds 24 1017 88 10000 2.1 30 05:48 06.01.2020
1283 Clouds 24 1017 88 10000 2.1 30 04:58 06.01.2020
1284 Clouds 24 1017 88 10000 2.1 30 04:22 06.01.2020
1285 Clouds 24 1016 94 10000 2.1 30 03:26 06.01.2020
1286 Clouds 25 1016 83 10000 2.1 20 02:26 06.01.2020
1287 Clouds 25 1015 78 10000 3.6 40 01:49 06.01.2020
1288 Clouds 26 1015 78 10000 3.6 40 01:29 06.01.2020
1289 Clouds 26 1014 74 10000 3.1 20 00:44 06.01.2020
1290 Clouds 27 1014 74 10000 3.1 20 00:24 06.01.2020
1291 Clouds 29 1014 66 10000 5.1 60 23:57 05.01.2020
1292 Clouds 30 1014 66 10000 5.1 60 23:37 05.01.2020
1293 Clouds 29 1014 66 10000 5.1 60 23:19 05.01.2020
1294 Clouds 30 1014 62 10000 5.1 30 22:40 05.01.2020
1295 Clouds 30 1014 62 10000 5.1 30 22:20 05.01.2020
1296 Clouds 30 1014 62 10000 5.1 360 21:56 05.01.2020
1297 Clouds 30 1014 62 10000 5.1 360 21:38 05.01.2020
1298 Clouds 30 1014 62 10000 5.1 360 21:20 05.01.2020
1299 Clouds 31 1014 55 10000 6.2 30 20:56 05.01.2020
1300 Clouds 31 1014 55 10000 6.2 30 20:37 05.01.2020
1301 Clouds 30 1014 55 10000 6.2 30 20:19 05.01.2020
1302 Clouds 31 1016 55 10000 5.1 360 19:56 05.01.2020
1303 Clouds 30 1016 55 10000 5.1 360 19:37 05.01.2020
1304 Clouds 30 1016 55 10000 5.1 360 19:19 05.01.2020
1305 Clouds 30 1017 70 10000 3.1 360 18:54 05.01.2020
1306 Clouds 30 1017 70 10000 3.1 360 18:36 05.01.2020
1307 Clouds 30 1017 70 10000 3.1 360 18:18 05.01.2020
1308 Clouds 30 1019 62 10000 6.7 360 17:55 05.01.2020
1309 Clouds 30 1019 62 10000 6.7 360 17:55 05.01.2020
1310 Clouds 30 1019 62 10000 6.7 360 17:37 05.01.2020
1311 Clouds 29 1019 62 10000 6.7 360 17:18 05.01.2020
1312 Clouds 28 1020 66 10000 5.1 10 16:54 05.01.2020
1313 Clouds 28 1020 66 10000 5.1 10 16:36 05.01.2020
1314 Clouds 28 1020 66 10000 5.1 10 16:18 05.01.2020
1315 Clouds 27 1020 78 10000 5.1 360 15:36 05.01.2020
1316 Clouds 27 1020 78 10000 5.1 360 15:18 05.01.2020
1317 Clouds 24 1020 83 10000 2.1 360 14:54 05.01.2020
1318 Clouds 24 1020 83 10000 2.1 360 14:36 05.01.2020
1319 Clouds 24 1020 83 10000 2.1 360 14:18 05.01.2020
1320 Clouds 22 1019 94 10000 3.45 342 13:39 05.01.2020
1321 Clouds 22 1019 94 10000 3.6 342 13:21 05.01.2020
1322 Clouds 22 1017 94 10000 2.6 360 12:57 05.01.2020
1323 Clouds 22 1017 94 10000 2.6 360 12:57 05.01.2020
1324 Clouds 22 1017 94 10000 2.6 360 12:57 05.01.2020
1325 Clouds 22 1017 94 10000 2.6 360 12:39 05.01.2020
1326 Clouds 22 1017 94 10000 2.6 360 12:39 05.01.2020
1327 Clouds 22 1017 94 10000 2.6 360 12:39 05.01.2020
1328 Clouds 22 1017 94 10000 2.6 360 12:21 05.01.2020
1329 Clouds 22 1017 94 10000 2.6 360 12:21 05.01.2020
1330 Clouds 22 1017 94 10000 2.6 360 11:55 05.01.2020
1331 Clouds 22 1017 94 10000 2.6 360 11:37 05.01.2020
1332 Clouds 22 1017 94 10000 2.6 360 11:19 05.01.2020
1333 Clouds 22 1017 94 10000 2.6 360 11:19 05.01.2020
1334 Clouds 22 1017 94 10000 2.6 360 11:19 05.01.2020
1335 Clouds 22 1017 94 10000 2.1 360 10:42 05.01.2020
1336 Clouds 22 1017 94 10000 2.1 360 10:20 05.01.2020
1337 Clouds 23 1017 94 10000 2.1 360 09:59 05.01.2020
1338 Clouds 23 1017 94 10000 2.1 360 09:41 05.01.2020
1339 Clouds 23 1017 94 10000 2.1 360 09:41 05.01.2020
1340 Clouds 23 1017 94 10000 2.1 360 09:41 05.01.2020
1341 Clouds 23 1017 94 10000 2.1 360 09:21 05.01.2020
1342 Clouds 23 1017 94 10000 2.1 360 08:45 05.01.2020
1343 Clouds 23 1017 94 10000 2.1 360 08:26 05.01.2020
1344 Clouds 23 1017 94 10000 2.1 40 07:55 05.01.2020
1345 Clouds 23 1017 94 10000 2.1 40 07:32 05.01.2020
1346 Clouds 23 1018 94 10000 2.1 10 06:57 05.01.2020
1347 Clouds 24 1018 94 10000 2.1 10 05:53 05.01.2020
1348 Clouds 24 1018 94 10000 2.1 10 05:28 05.01.2020
1349 Clouds 24 1019 94 10000 2.1 30 04:24 05.01.2020
1350 Clouds 24 1019 94 10000 2.6 30 03:47 05.01.2020
1351 Clouds 24 1018 94 10000 4.1 50 02:43 05.01.2020
1352 Clouds 25 1018 94 10000 4.1 50 02:20 05.01.2020
1353 Clouds 25 1018 88 10000 4.1 50 01:39 05.01.2020
1354 Clouds 25 1018 88 10000 4.1 50 01:18 05.01.2020
1355 Clouds 26 1017 83 10000 3.61 39 00:40 05.01.2020
1356 Clouds 26 1017 83 10000 3.61 39 00:21 05.01.2020
1357 Clouds 26 1017 83 10000 3.61 39 23:59 04.01.2020
1358 Clouds 27 1017 78 10000 4.1 90 23:39 04.01.2020
1359 Clouds 27 1017 78 10000 4.1 90 23:18 04.01.2020
1360 Clouds 28 1016 74 10000 5.1 160 22:39 04.01.2020
1361 Clouds 28 1016 74 10000 5.1 160 22:39 04.01.2020
1362 Clouds 29 1016 74 10000 5.1 160 22:21 04.01.2020
1363 Clouds 29 1016 74 10000 5.1 90 21:57 04.01.2020
1364 Clouds 29 1016 74 10000 5.1 90 21:38 04.01.2020
1365 Clouds 29 1016 74 10000 5.1 90 21:19 04.01.2020
1366 Clouds 30 1016 66 10000 5.1 90 20:56 04.01.2020
1367 Clouds 30 1016 66 10000 5.1 90 20:37 04.01.2020
1368 Clouds 30 1016 66 10000 5.1 90 20:19 04.01.2020
1369 Clouds 30 1017 70 10000 5.1 60 19:42 04.01.2020
1370 Clouds 30 1017 70 10000 5.1 60 19:42 04.01.2020
1371 Clouds 30 1017 70 10000 5.1 60 19:23 04.01.2020
1372 Clouds 30 1018 70 10000 4.1 360 18:58 04.01.2020
1373 Clouds 31 1018 70 10000 4.1 360 18:39 04.01.2020
1374 Clouds 30 1018 70 10000 4.1 360 18:20 04.01.2020
1375 Clouds 30 1019 74 10000 5.1 360 17:58 04.01.2020
1376 Clouds 30 1019 74 10000 5.1 360 17:40 04.01.2020
1377 Clouds 30 1019 74 10000 5.1 360 17:21 04.01.2020
1378 Clouds 29 1020 66 10000 3.1 60 16:42 04.01.2020
1379 Clouds 28 1020 66 10000 3.1 60 16:24 04.01.2020
1380 Clouds 28 1020 66 10000 3.1 60 16:24 04.01.2020
1381 Clouds 28 1020 78 10000 5.1 360 15:57 04.01.2020
1382 Clouds 28 1020 78 10000 5.1 360 15:57 04.01.2020
1383 Clouds 27 1020 78 10000 5.1 360 15:39 04.01.2020
1384 Clouds 27 1020 78 10000 5.1 360 15:39 04.01.2020
1385 Clouds 27 1020 78 10000 5.1 360 15:19 04.01.2020
1386 Clouds 26 1019 88 10000 4.1 360 14:57 04.01.2020
1387 Clouds 25 1019 88 10000 4.1 360 14:39 04.01.2020
1388 Clouds 25 1019 88 10000 4.1 360 14:19 04.01.2020
1389 Clouds 25 1019 88 10000 4.1 360 14:19 04.01.2020
1390 Clouds 24 1019 88 10000 3.03 345 13:55 04.01.2020
1391 Clouds 24 1019 88 10000 3.03 345 13:36 04.01.2020
1392 -273 0 0 0 0 0 13:18 04.01.2020
1393 Clouds 23 1019 87 10000 2.1 30 12:41 04.01.2020
1394 Clear 22 1020 87 0 3.08 348 12:20 04.01.2020
1395 Clear 22 1020 87 0 3.08 348 11:58 04.01.2020
1396 Clouds 22 1018 94 10000 2.1 30 11:39 04.01.2020
1397 Clouds 22 1018 94 10000 2.1 30 11:39 04.01.2020
1398 Clouds 22 1018 94 10000 2.1 30 11:19 04.01.2020
1399 Clouds 23 1016 94 10000 2.1 30 10:42 04.01.2020
1400 Clouds 23 1016 94 10000 2.1 30 10:23 04.01.2020
1401 Clouds 23 1016 94 10000 2.1 30 10:23 04.01.2020
1402 Clouds 23 1016 94 10000 2.1 30 09:59 04.01.2020
1403 Clouds 24 1018 100 10000 2.1 360 09:41 04.01.2020
1404 Clouds 24 1018 100 10000 2.1 360 09:21 04.01.2020
1405 Clouds 24 1018 88 10000 2.1 20 08:41 04.01.2020
1406 Clouds 24 1018 88 10000 2.1 20 08:21 04.01.2020
1407 Clouds 24 1019 88 10000 2.1 40 07:44 04.01.2020
1408 Clouds 25 1019 88 10000 2.1 40 07:20 04.01.2020
1409 Clouds 25 1019 88 10000 2.1 30 06:33 04.01.2020
1410 Clouds 25 1020 88 10000 2.1 40 05:22 04.01.2020
1411 Clouds 25 1020 78 10000 2.1 40 04:42 04.01.2020
1412 Clouds 25 1020 78 10000 2.1 40 04:24 04.01.2020
1413 Clouds 25 1020 78 10000 2.1 40 03:18 04.01.2020
1414 Clouds 26 1019 74 10000 2.1 40 02:22 04.01.2020
1415 Clouds 26 1019 74 10000 2.1 50 01:55 04.01.2020
1416 Clouds 26 1019 74 10000 2.1 50 01:32 04.01.2020
1417 Clouds 27 1016 83 10000 3.73 15 00:46 04.01.2020
1418 Clouds 27 1016 83 10000 3.73 15 00:26 04.01.2020
1419 Clouds 28 1015 74 10000 4.1 60 23:48 03.01.2020
1420 Clouds 28 1015 74 10000 4.1 60 23:25 03.01.2020
1421 Clouds 29 1015 70 10000 5.1 360 22:54 03.01.2020
1422 Clouds 29 1015 70 10000 5.1 360 22:36 03.01.2020
1423 Clouds 29 1015 70 10000 5.1 360 22:18 03.01.2020
1424 Clouds 29 1015 70 10000 5.1 60 21:54 03.01.2020
1425 Clouds 29 1015 70 10000 5.1 60 21:36 03.01.2020
1426 Clouds 29 1015 70 10000 5.1 60 21:18 03.01.2020
1427 Clouds 30 1015 66 10000 6.2 40 20:42 03.01.2020
1428 Clouds 30 1015 66 10000 6.2 40 20:19 03.01.2020
1429 Clouds 31 1015 58 10000 7.2 360 19:57 03.01.2020
1430 Clouds 30 1015 58 10000 7.2 360 19:39 03.01.2020
1431 Clouds 31 1015 58 10000 7.2 360 19:21 03.01.2020
1432 Clouds 30 1016 62 10000 6.2 360 18:44 03.01.2020
1433 Clouds 30 1016 62 10000 6.2 360 18:44 03.01.2020
1434 Clouds 30 1016 62 10000 6.2 360 18:26 03.01.2020
1435 Clouds 30 1017 66 10000 7.2 360 17:56 03.01.2020
1436 Clouds 29 1017 66 10000 7.2 360 17:38 03.01.2020
1437 Clouds 29 1017 66 10000 7.2 360 17:19 03.01.2020
1438 Clouds 29 1018 74 10000 7.2 360 16:42 03.01.2020
1439 Clouds 28 1018 74 10000 7.2 360 16:24 03.01.2020
1440 Clouds 27 1017 83 10000 5.1 360 15:58 03.01.2020
1441 Clouds 27 1017 83 10000 5.1 360 15:39 03.01.2020
1442 Clouds 27 1017 83 10000 5.1 360 15:18 03.01.2020
1443 Clouds 25 1016 88 10000 2.6 360 14:39 03.01.2020
1444 Clouds 25 1016 88 10000 2.6 360 14:19 03.01.2020
1445 Clouds 22 1016 94 10000 4.05 343 13:44 03.01.2020
1446 Clouds 22 1016 94 10000 4.17 344 13:24 03.01.2020
1447 Clouds 22 1016 94 10000 4.17 344 13:00 03.01.2020
1448 Clouds 21 1017 100 10000 2.1 20 12:39 03.01.2020
1449 Clouds 21 1017 100 10000 2.1 20 12:21 03.01.2020
1450 Clouds 22 1017 94 10000 2.1 360 11:47 03.01.2020
1451 Clouds 22 1017 94 10000 2.1 360 11:23 03.01.2020
1452 Clouds 22 1017 100 10000 2.1 20 10:47 03.01.2020
1453 Clouds 22 1017 100 10000 2.1 20 10:27 03.01.2020
1454 Clouds 22 1016 100 10000 2.1 360 09:58 03.01.2020
1455 Clouds 22 1016 100 10000 2.1 360 09:40 03.01.2020
1456 Clouds 23 1016 100 10000 2.1 360 09:22 03.01.2020
1457 Clouds 23 1016 94 10000 2.1 360 08:57 03.01.2020
1458 Clouds 23 1016 94 10000 2.1 360 08:38 03.01.2020
1459 Clouds 23 1016 94 10000 2.1 360 08:19 03.01.2020
1460 Clouds 23 1017 94 10000 3.49 351 07:40 03.01.2020
1461 Clouds 23 1017 94 10000 3.49 351 07:19 03.01.2020
1462 Clouds 23 1018 94 10000 3.49 351 06:50 03.01.2020
1463 Clouds 23 1018 94 10000 3.49 351 06:32 03.01.2020
1464 Clouds 23 1018 100 10000 2.1 20 05:46 03.01.2020
1465 Clouds 24 1018 94 10000 2.1 30 04:24 03.01.2020
1466 Clouds 24 1018 94 10000 2.1 40 02:57 03.01.2020
1467 Clouds 24 1018 94 10000 2.1 40 02:33 03.01.2020
1468 Clouds 25 1017 88 10000 2.1 40 01:44 03.01.2020
1469 Clouds 27 1015 74 10000 3.74 23 00:50 03.01.2020
1470 Clouds 27 1015 74 10000 3.74 23 00:31 03.01.2020
1471 Clouds 28 1015 70 10000 2.6 360 23:56 02.01.2020
1472 Clouds 28 1015 70 10000 2.6 360 23:38 02.01.2020
1473 Clouds 28 1015 70 10000 2.6 360 23:19 02.01.2020
1474 Clouds 29 1014 66 10000 4.1 360 22:57 02.01.2020
1475 Clouds 29 1014 66 10000 4.1 360 22:38 02.01.2020
1476 Clouds 29 1014 66 10000 4.1 360 22:18 02.01.2020
1477 Clouds 30 1013 66 10000 5.1 360 21:41 02.01.2020
1478 Clouds 30 1013 66 10000 5.1 360 21:23 02.01.2020
1479 Clouds 30 1013 66 10000 5.1 360 20:59 02.01.2020
1480 Clouds 30 1014 66 10000 6.2 40 20:39 02.01.2020
1481 Clouds 30 1014 66 10000 6.2 40 20:21 02.01.2020
1482 Rain 30 1015 66 8000 5.1 40 19:55 02.01.2020
1483 Rain 30 1015 66 8000 5.1 40 19:55 02.01.2020
1484 Rain 30 1015 66 8000 5.1 40 19:37 02.01.2020
1485 Rain 30 1015 66 8000 5.1 40 19:19 02.01.2020
1486 Clouds 30 1017 66 10000 5.1 360 18:57 02.01.2020
1487 Clouds 30 1017 66 10000 5.1 360 18:38 02.01.2020
1488 Clouds 30 1017 66 10000 5.1 360 18:20 02.01.2020
1489 Clouds 29 1018 66 10000 5.1 360 17:56 02.01.2020
1490 Clouds 29 1018 66 10000 5.1 360 17:37 02.01.2020
1491 Clouds 29 1018 66 10000 5.1 360 17:18 02.01.2020
1492 Clouds 29 1019 74 10000 5.1 40 16:56 02.01.2020
1493 Clouds 29 1019 74 10000 5.1 40 16:38 02.01.2020
1494 Clouds 29 1019 74 10000 5.1 40 16:19 02.01.2020
1495 Clouds 27 1018 78 10000 4.1 10 15:44 02.01.2020
1496 Clouds 27 1018 78 10000 4.1 10 15:24 02.01.2020
1497 Clouds 26 1016 83 10000 3.71 33 14:58 02.01.2020
1498 Clouds 25 1016 83 10000 3.71 33 14:38 02.01.2020
1499 Clouds 25 1016 83 10000 3.03 350 14:20 02.01.2020
1500 Clouds 23 1015 94 10000 3.03 350 13:58 02.01.2020
1501 Clouds 23 1015 94 10000 3.17 351 13:39 02.01.2020
1502 Clouds 23 1015 94 10000 3.17 351 13:18 02.01.2020
1503 Clouds 22 1015 100 10000 2.1 10 12:42 02.01.2020
1504 Clouds 22 1014 100 10000 2.1 30 12:21 02.01.2020
1505 Clouds 22 1014 100 10000 2.1 30 11:42 02.01.2020
1506 Clouds 22 1014 100 10000 2.1 30 11:22 02.01.2020
1507 Clear 22 1015 93 0 3.13 352 10:46 02.01.2020
1508 Clouds 23 1014 94 10000 3.13 352 10:28 02.01.2020
1509 Clouds 24 1014 94 10000 3.13 352 09:58 02.01.2020
1510 Clouds 24 1014 94 10000 3.13 352 09:35 02.01.2020
1511 Clouds 23 1014 94 10000 2.1 30 08:59 02.01.2020
1512 Clouds 23 1014 94 10000 2.1 30 08:39 02.01.2020
1513 Clouds 24 1014 94 10000 2.1 30 08:19 02.01.2020
1514 Clouds 23 1015 94 10000 3.28 351 07:47 02.01.2020
1515 Clouds 23 1015 94 10000 3.28 351 07:26 02.01.2020
1516 Clouds 23 1016 100 10000 3.28 351 06:41 02.01.2020
1517 Clouds 23 1016 100 10000 3.28 351 06:41 02.01.2020
1518 Clouds 24 1016 100 10000 3.28 351 05:40 02.01.2020
1519 Clouds 25 1016 100 10000 2.1 40 04:34 02.01.2020
1520 Clouds 25 1016 100 10000 2.1 40 03:29 02.01.2020
1521 Clouds 25 1016 100 10000 2.1 40 03:29 02.01.2020
1522 Clouds 26 1015 94 10000 2.1 50 02:21 02.01.2020
1523 Clouds 26 1014 94 10000 2.1 50 01:49 02.01.2020
1524 Clouds 26 1014 94 10000 2.1 50 01:25 02.01.2020
1525 Clouds 25 1014 88 10000 2.7 23 00:38 02.01.2020
1526 Clouds 26 1014 88 10000 2.7 23 00:20 02.01.2020
1527 Clouds 27 1014 88 10000 2.7 23 23:42 01.01.2020
1528 Clouds 27 1014 88 10000 3.09 81 23:21 01.01.2020
1529 Clouds 27 1013 88 10000 2.1 120 22:39 01.01.2020
1530 Clouds 26 1013 88 10000 2.1 120 22:20 01.01.2020
1531 Clouds 29 1013 74 0 6.2 60 21:58 01.01.2020
1532 Clouds 29 1013 74 0 6.2 60 21:39 01.01.2020
1533 Clouds 29 1013 74 0 6.2 60 21:20 01.01.2020
1534 Clouds 30 1013 62 10000 2.6 350 20:56 01.01.2020
1535 Clouds 30 1013 62 10000 2.6 350 20:38 01.01.2020
1536 Clouds 31 1013 62 10000 2.6 350 20:19 01.01.2020
1537 Clouds 31 1013 62 10000 2.6 350 20:19 01.01.2020
1538 Clouds 31 1013 70 10000 2.5 58 19:55 01.01.2020
1539 Clouds 31 1013 70 10000 2.5 58 19:37 01.01.2020
1540 Clouds 31 1013 70 10000 2.5 58 19:19 01.01.2020
1541 Clouds 31 1015 66 10000 2.6 360 18:56 01.01.2020
1542 Clouds 30 1015 66 10000 2.6 360 18:36 01.01.2020
1543 Clouds 30 1015 66 10000 2.6 360 18:18 01.01.2020
1544 Clouds 30 1016 70 10000 3.1 80 17:56 01.01.2020
1545 Clouds 30 1016 70 10000 3.1 80 17:56 01.01.2020
1546 Clouds 30 1016 70 10000 3.1 80 17:38 01.01.2020
1547 Clouds 30 1016 70 10000 3.1 80 17:19 01.01.2020
1548 Clouds 29 1017 70 10000 3.6 20 16:42 01.01.2020
1549 Clouds 29 1017 70 10000 3.6 20 16:23 01.01.2020
1550 Clouds 28 1016 83 10000 2.1 60 15:58 01.01.2020
1551 Clouds 27 1016 83 10000 2.1 60 15:40 01.01.2020
1552 Clouds 26 1016 83 10000 2.1 60 15:21 01.01.2020
1553 Clouds 25 1016 83 10000 3.51 26 14:59 01.01.2020
1554 Clouds 25 1016 83 10000 3.51 26 14:40 01.01.2020
1555 Clouds 25 1016 83 10000 2.8 349 14:21 01.01.2020
1556 Clouds 23 1015 94 10000 2.8 349 13:56 01.01.2020
1557 Clouds 23 1015 94 10000 2.8 349 13:37 01.01.2020
1558 Clouds 23 1015 94 10000 2.8 349 13:37 01.01.2020
1559 Clouds 23 1015 94 10000 2.8 349 13:18 01.01.2020
1560 Clouds 23 1014 100 10000 2.1 360 12:56 01.01.2020
1561 Clouds 23 1014 100 10000 2.1 360 12:56 01.01.2020
1562 Clouds 22 1014 100 10000 2.1 360 12:38 01.01.2020
1563 Clouds 22 1014 100 10000 2.1 360 12:19 01.01.2020
1564 Clouds 22 1014 100 10000 2.1 20 11:43 01.01.2020
1565 Clouds 22 1014 100 10000 2.1 20 11:23 01.01.2020
1566 Clouds 22 1014 100 10000 2.1 20 10:59 01.01.2020
1567 Clouds 22 1014 100 10000 2.1 20 10:41 01.01.2020
1568 Clouds 22 1014 100 10000 2.1 20 10:21 01.01.2020
1569 Clouds 23 1014 94 10000 2.96 345 09:57 01.01.2020
1570 Clouds 23 1014 94 10000 2.96 345 09:37 01.01.2020
1571 Clouds 23 1014 94 10000 2.96 345 09:18 01.01.2020
1572 Clouds 23 1014 94 10000 2.96 345 08:55 01.01.2020
1573 Clouds 23 1014 94 10000 2.96 345 08:36 01.01.2020
1574 Clouds 23 1014 94 10000 2.96 345 08:36 01.01.2020
1575 Clouds 23 1015 94 10000 3.26 341 08:18 01.01.2020
1576 Clouds 23 1015 94 10000 3.26 341 07:51 01.01.2020
1577 Clouds 23 1015 94 10000 3.26 341 07:32 01.01.2020
1578 Clouds 23 1015 100 10000 1.5 350 06:44 01.01.2020
1579 Clouds 23 1015 100 10000 1.5 350 06:20 01.01.2020
1580 Clouds 24 1015 94 10000 1.5 40 05:21 01.01.2020
1581 Clouds 25 1015 94 10000 2.1 50 03:43 01.01.2020
1582 Clouds 25 1015 94 10000 2.1 50 03:22 01.01.2020
1583 Clouds 25 1015 94 10000 2.6 50 02:55 01.01.2020
1584 Clouds 25 1015 94 10000 2.6 50 02:32 01.01.2020
1585 Clouds 26 1014 88 10000 1.5 20 01:45 01.01.2020
1586 Clouds 26 1014 88 10000 1.5 20 01:24 01.01.2020
1587 Clouds 26 1014 83 0 3.05 18 00:57 01.01.2020
1588 Clouds 26 1014 83 0 3.05 18 00:37 01.01.2020
1589 Clouds 26 1014 83 0 3.05 18 00:19 01.01.2020
1590 Clouds 27 1014 78 10000 3.05 18 23:40 31.12.2019
1591 Clouds 27 1014 78 10000 2.02 66 23:21 31.12.2019
1592 Clouds 27 1013 66 10000 2.02 66 22:57 31.12.2019
1593 Clouds 27 1013 66 10000 2.02 66 22:38 31.12.2019
1594 Clouds 27 1013 66 10000 2.02 66 22:18 31.12.2019
1595 Clouds 28 1014 66 10000 2.1 350 21:54 31.12.2019
1596 Clouds 28 1014 66 10000 2.1 350 21:36 31.12.2019
1597 Clouds 29 1014 66 10000 2.1 350 21:18 31.12.2019
1598 Clouds 31 1014 62 10000 2.1 110 20:40 31.12.2019
1599 Clouds 31 1014 62 10000 2.1 110 20:21 31.12.2019
1600 Clouds 31 1014 62 10000 2.1 110 19:59 31.12.2019
1601 Clouds 31 1015 62 10000 2.1 70 19:40 31.12.2019
1602 Clouds 31 1015 62 10000 2.1 70 19:22 31.12.2019
1603 Clouds 31 1016 62 10000 2.1 90 18:57 31.12.2019
1604 Clouds 31 1016 62 10000 2.1 90 18:39 31.12.2019
1605 Clouds 31 1016 62 10000 2.1 90 18:19 31.12.2019
1606 Clouds 30 1017 66 10000 2.1 30 17:56 31.12.2019
1607 Clouds 30 1017 66 10000 2.1 30 17:37 31.12.2019
1608 Clouds 30 1017 66 10000 2.1 30 17:19 31.12.2019
1609 Clouds 29 1017 66 10000 3.1 340 16:56 31.12.2019
1610 Clouds 29 1017 66 10000 3.1 340 16:37 31.12.2019
1611 Clouds 29 1017 66 10000 3.1 340 16:19 31.12.2019
1612 Clouds 28 1016 74 10000 4.1 360 15:56 31.12.2019
1613 Clouds 28 1016 74 10000 4.1 360 15:38 31.12.2019
1614 Clouds 28 1016 74 10000 4.1 360 15:38 31.12.2019
1615 Clouds 27 1016 74 10000 4.1 360 15:20 31.12.2019
1616 Clouds 26 1016 83 10000 3.1 360 14:56 31.12.2019
1617 Clouds 26 1016 83 10000 3.1 360 14:37 31.12.2019
1618 Clouds 25 1016 83 10000 3.1 360 14:19 31.12.2019
1619 Clouds 24 1015 94 10000 2.3 346 13:56 31.12.2019
1620 Clouds 24 1015 94 10000 2.3 346 13:38 31.12.2019
1621 Clouds 24 1015 94 10000 2.3 346 13:38 31.12.2019
1622 Clouds 23 1015 94 10000 2.32 347 13:20 31.12.2019
1623 Clouds 22 1014 100 10000 1.5 350 12:55 31.12.2019
1624 Clouds 22 1014 100 10000 1.5 350 12:37 31.12.2019
1625 Clouds 22 1014 100 10000 1.5 350 12:19 31.12.2019
1626 Clouds 22 1013 100 10000 2.1 40 11:55 31.12.2019
1627 Clouds 22 1013 100 10000 2.1 40 11:37 31.12.2019
1628 Clouds 22 1013 100 10000 2.1 10 11:19 31.12.2019
1629 Clouds 22 1013 100 10000 2.1 10 10:55 31.12.2019
1630 Clouds 22 1013 100 10000 2.1 10 10:37 31.12.2019
1631 Clouds 22 1013 100 10000 2.1 10 10:19 31.12.2019
1632 Clouds 23 1013 94 10000 2.6 360 09:56 31.12.2019
1633 Clouds 23 1013 94 10000 2.6 360 09:38 31.12.2019
1634 Clouds 23 1013 94 10000 2.6 360 09:18 31.12.2019
1635 Clouds 23 1013 94 10000 2.6 360 09:18 31.12.2019
1636 Clouds 23 1014 94 10000 2.1 10 08:42 31.12.2019
1637 Clouds 23 1014 94 10000 2.1 10 08:42 31.12.2019
1638 Clouds 23 1014 94 10000 2.1 10 08:22 31.12.2019
1639 Clouds 23 1014 94 10000 2.1 20 07:56 31.12.2019
1640 Clouds 23 1014 94 10000 2.1 20 07:37 31.12.2019
1641 Clouds 23 1014 94 10000 2.1 20 07:18 31.12.2019
1642 Clouds 23 1015 100 10000 1 360 06:29 31.12.2019
1643 Clouds 24 1015 94 10000 1 30 04:58 31.12.2019
1644 Clouds 24 1015 94 10000 1 30 04:25 31.12.2019
1645 Clouds 24 1014 100 10000 2.6 40 02:58 31.12.2019
1646 Clouds 24 1014 100 10000 2.6 40 02:21 31.12.2019
1647 Clouds 25 1013 94 10000 3.1 30 01:51 31.12.2019
1648 Clouds 25 1013 94 10000 3.1 30 01:32 31.12.2019
1649 Rain 25 1013 94 8000 2.57 28 00:49 31.12.2019
1650 Rain 24 1013 94 8000 2.57 28 00:26 31.12.2019
1651 Rain 25 1013 94 8000 2.57 28 23:59 30.12.2019
1652 Rain 26 1013 94 8000 4.1 30 23:41 30.12.2019
1653 Rain 26 1013 94 8000 4.1 30 23:23 30.12.2019
1654 Rain 27 1012 83 8000 4.1 30 22:59 30.12.2019
1655 Rain 27 1012 83 8000 4.1 30 22:41 30.12.2019
1656 Rain 27 1012 83 8000 4.1 30 22:22 30.12.2019
1657 Rain 27 1012 88 7000 5.1 30 21:57 30.12.2019
1658 Rain 27 1012 88 7000 5.1 30 21:39 30.12.2019
1659 Rain 27 1012 88 7000 5.1 30 21:39 30.12.2019
1660 Rain 27 1012 88 7000 5.1 30 21:20 30.12.2019
1661 Rain 27 1012 88 7000 5.1 30 20:59 30.12.2019
1662 Rain 28 1012 79 8000 5.1 60 20:41 30.12.2019
1663 Rain 28 1012 79 8000 5.1 60 20:20 30.12.2019
1664 Rain 28 1012 79 8000 5.1 60 19:59 30.12.2019
1665 Clouds 30 1013 66 10000 2.45 64 19:40 30.12.2019
1666 Clouds 30 1013 66 10000 2.45 64 19:20 30.12.2019
1667 Clouds 30 1013 66 10000 2.45 64 18:59 30.12.2019
1668 Clouds 30 1015 74 10000 2.45 64 18:41 30.12.2019
1669 Clouds 30 1015 74 10000 2.45 64 18:20 30.12.2019
1670 Clouds 30 1015 74 10000 4.1 360 17:58 30.12.2019
1671 Clouds 30 1015 74 10000 4.1 360 17:39 30.12.2019
1672 Clouds 30 1015 74 10000 4.1 360 17:19 30.12.2019
1673 Clouds 29 1016 74 10000 5.1 360 16:58 30.12.2019
1674 Clouds 29 1016 74 10000 5.1 360 16:37 30.12.2019
1675 Clouds 28 1016 74 10000 5.1 360 16:19 30.12.2019
1676 Clouds 27 1015 83 10000 2.35 16 15:56 30.12.2019
1677 Clouds 27 1015 83 10000 2.35 16 15:37 30.12.2019
1678 Clouds 27 1015 83 10000 2.35 16 15:18 30.12.2019
1679 Clouds 26 1015 83 10000 2.35 16 14:43 30.12.2019
1680 Clouds 26 1015 83 10000 2.86 343 14:20 30.12.2019
1681 Clouds 25 1015 83 10000 2.86 343 13:58 30.12.2019
1682 Clouds 24 1014 94 10000 2.86 343 13:40 30.12.2019
1683 Clouds 24 1014 94 10000 2.5 345 13:21 30.12.2019
1684 Clouds 24 1014 94 10000 2.5 345 13:21 30.12.2019
1685 Clouds 23 1014 100 10000 2.1 40 12:56 30.12.2019
1686 Clouds 22 1014 100 10000 2.1 40 12:37 30.12.2019
1687 Clouds 22 1014 100 10000 2.1 40 12:18 30.12.2019
1688 Clouds 23 1013 94 10000 2.1 40 11:42 30.12.2019
1689 Clouds 23 1013 94 10000 2.1 40 11:20 30.12.2019
1690 Clouds 22 1013 100 10000 2.1 30 10:58 30.12.2019
1691 Clouds 22 1013 100 10000 2.1 30 10:40 30.12.2019
1692 Clouds 22 1013 100 10000 2.1 30 10:40 30.12.2019
1693 Clouds 22 1013 100 10000 2.1 30 10:18 30.12.2019
1694 Clouds 23 1013 100 10000 2.1 30 09:42 30.12.2019
1695 Clouds 23 1013 100 10000 2.1 30 09:20 30.12.2019
1696 Clouds 23 1014 94 10000 2.1 20 08:56 30.12.2019
1697 Clouds 23 1014 94 10000 2.1 20 08:37 30.12.2019
1698 Clouds 23 1014 94 10000 2.1 20 08:18 30.12.2019
1699 Clouds 23 1014 94 10000 2.1 10 07:41 30.12.2019
1700 Clouds 23 1014 94 10000 2.1 10 06:59 30.12.2019
1701 Clouds 23 1014 94 10000 2.1 10 06:24 30.12.2019
1702 Clouds 24 1015 94 10000 2.1 30 04:23 30.12.2019
1703 Clouds 24 1015 94 10000 2.1 30 03:39 30.12.2019
1704 Clouds 24 1015 94 10000 2.1 40 02:41 30.12.2019
1705 Clouds 24 1015 94 10000 2.1 40 02:20 30.12.2019
1706 Clouds 26 1013 94 10000 2.1 40 01:25 30.12.2019
1707 Clouds 25 1013 83 10000 3.16 6 00:46 30.12.2019
1708 Clouds 25 1013 83 10000 3.16 6 00:23 30.12.2019
1709 Clouds 26 1012 78 10000 3.16 6 23:40 29.12.2019
1710 Clouds 26 1012 78 10000 2.47 43 23:22 29.12.2019
1711 Clouds 27 1012 78 10000 3.1 110 22:56 29.12.2019
1712 Clouds 27 1012 78 10000 3.1 110 22:38 29.12.2019
1713 Clouds 27 1012 78 10000 3.1 110 22:19 29.12.2019
1714 Clouds 27 1012 66 10000 3.1 360 21:45 29.12.2019
1715 Clouds 28 1012 66 10000 3.1 360 21:21 29.12.2019
1716 Clouds 28 1012 66 10000 3.1 360 20:59 29.12.2019
1717 Clouds 28 1013 66 10000 4.1 60 20:39 29.12.2019
1718 Clouds 28 1013 66 10000 4.1 60 20:39 29.12.2019
1719 Clouds 30 1013 66 10000 4.1 60 20:21 29.12.2019
1720 Clouds 30 1013 66 10000 4.1 60 19:59 29.12.2019
1721 Clouds 30 1013 62 10000 3.1 30 19:40 29.12.2019
1722 Clouds 30 1013 62 10000 3.1 30 19:21 29.12.2019
1723 Clouds 30 1013 62 10000 3.1 30 19:21 29.12.2019
1724 Clouds 30 1013 62 10000 3.1 30 18:58 29.12.2019
1725 Clouds 30 1014 62 10000 7.2 360 18:39 29.12.2019
1726 Clouds 30 1014 62 10000 7.2 360 18:20 29.12.2019
1727 Clouds 30 1015 66 10000 5.1 360 17:58 29.12.2019
1728 Clouds 30 1015 66 10000 5.1 360 17:39 29.12.2019
1729 Clouds 30 1015 66 10000 5.1 360 17:20 29.12.2019
1730 Clouds 29 1015 74 10000 4.1 360 16:57 29.12.2019
1731 Clouds 29 1015 74 10000 4.1 360 16:39 29.12.2019
1732 Clouds 29 1015 74 10000 4.1 360 16:21 29.12.2019
1733 Clouds 28 1015 74 10000 4.1 360 15:58 29.12.2019
1734 Clouds 26 1014 78 10000 3.1 360 15:39 29.12.2019
1735 Clouds 26 1014 78 10000 3.1 360 15:20 29.12.2019
1736 Clouds 25 1014 78 10000 3.1 360 14:58 29.12.2019
1737 Clouds 24 1014 94 10000 4.1 18 14:39 29.12.2019
1738 Clouds 24 1014 94 10000 3.11 345 14:18 29.12.2019
1739 Clouds 22 1014 94 10000 3.11 345 13:58 29.12.2019
1740 Clouds 22 1014 94 10000 3.11 345 13:39 29.12.2019
1741 Clouds 22 1014 94 10000 3.11 345 13:21 29.12.2019
1742 Clear 22 1013 100 10000 2.1 30 12:46 29.12.2019
1743 Clear 21 1013 100 10000 2.1 30 12:28 29.12.2019
1744 Clear 21 1013 100 10000 2.1 30 11:59 29.12.2019
1745 Clouds 22 1013 94 10000 1 30 11:40 29.12.2019
1746 Clouds 22 1013 94 10000 1 30 11:20 29.12.2019
1747 Clouds 22 1013 100 10000 2.1 360 10:55 29.12.2019
1748 Clouds 22 1013 100 10000 2.1 360 10:37 29.12.2019
1749 Clouds 22 1013 100 10000 2.1 360 10:18 29.12.2019
1750 Clouds 22 1013 100 10000 2.1 360 10:18 29.12.2019
1751 Clouds 23 1013 100 10000 2.1 40 09:43 29.12.2019
1752 Clouds 23 1013 100 10000 2.1 40 09:25 29.12.2019
1753 Clouds 23 1013 94 0 2.83 359 08:50 29.12.2019
1754 Clouds 23 1013 94 0 2.83 359 08:29 29.12.2019
1755 Clouds 23 1013 94 0 2.12 354 07:58 29.12.2019
1756 Clouds 23 1014 94 10000 2.1 20 07:31 29.12.2019
1757 Clouds 23 1014 94 10000 2.1 20 07:31 29.12.2019
1758 Clouds 23 1014 94 10000 2.1 20 06:57 29.12.2019
1759 Clouds 23 1014 94 10000 2.1 20 06:27 29.12.2019
1760 Clouds 24 1014 88 10000 2.1 20 05:54 29.12.2019
1761 Clouds 24 1014 88 10000 1 40 04:42 29.12.2019
1762 Clouds 24 1014 88 10000 1 40 04:21 29.12.2019
1763 Clouds 25 1014 88 10000 2.1 40 03:21 29.12.2019
1764 Clouds 25 1014 88 10000 2.1 30 02:21 29.12.2019
1765 Clouds 26 1013 83 10000 3.09 13 01:40 29.12.2019
1766 Clouds 26 1013 83 10000 3.2 8 01:21 29.12.2019
1767 Clouds 27 1013 69 10000 3.2 8 00:42 29.12.2019
1768 Clouds 27 1013 69 10000 3.2 8 00:23 29.12.2019
1769 Clouds 27 1013 69 10000 3.2 8 00:23 29.12.2019
1770 Clouds 28 1013 66 10000 3.2 8 23:44 28.12.2019
1771 Clouds 28 1013 66 10000 3.28 24 23:18 28.12.2019
1772 Clouds 28 1013 66 10000 3.28 24 23:18 28.12.2019
1773 Clouds 28 1013 62 10000 3.28 24 22:39 28.12.2019
1774 Clouds 29 1013 62 10000 3.28 24 22:21 28.12.2019
1775 Clouds 29 1013 62 10000 3.28 24 21:58 28.12.2019
1776 Clouds 30 1012 55 10000 2.6 60 21:40 28.12.2019
1777 Clouds 30 1012 55 10000 2.6 60 21:21 28.12.2019
1778 Clouds 30 1013 55 10000 2.1 90 20:58 28.12.2019
1779 Clouds 30 1013 55 10000 2.1 90 20:38 28.12.2019
1780 Clouds 30 1013 55 10000 2.1 90 20:20 28.12.2019
1781 Clouds 31 1013 58 10000 4.1 360 19:58 28.12.2019
1782 Clouds 31 1013 58 10000 4.1 360 19:39 28.12.2019
1783 Clouds 30 1013 58 10000 4.1 360 19:20 28.12.2019
1784 Clouds 30 1015 66 10000 5.1 110 18:57 28.12.2019
1785 Clouds 29 1015 66 10000 5.1 110 18:39 28.12.2019
1786 Clouds 29 1015 66 10000 5.1 110 18:19 28.12.2019
1787 Clouds 29 1016 74 10000 3.1 90 17:54 28.12.2019
1788 Clouds 29 1016 74 10000 3.1 90 17:36 28.12.2019
1789 Clouds 29 1016 74 10000 3.1 90 17:18 28.12.2019
1790 Clouds 29 1016 74 10000 3.1 90 17:18 28.12.2019
1791 Clouds 28 1016 69 10000 3.1 40 16:46 28.12.2019
1792 Clouds 28 1016 69 10000 3.1 40 16:25 28.12.2019
1793 Clouds 26 1016 83 10000 3.84 17 15:46 28.12.2019
1794 Clouds 26 1016 83 10000 3.84 17 15:24 28.12.2019
1795 Clouds 26 1016 83 10000 3.84 17 14:59 28.12.2019
1796 Clouds 24 1015 83 10000 3.84 17 14:39 28.12.2019
1797 Clouds 24 1015 83 10000 3.05 348 14:20 28.12.2019
1798 Clouds 21 1015 94 10000 2.6 10 13:43 28.12.2019
1799 Clouds 21 1014 88 10000 3.33 344 13:24 28.12.2019
1800 Clouds 21 1014 88 10000 3.33 344 12:59 28.12.2019
1801 Clouds 22 1014 94 10000 2.1 10 12:41 28.12.2019
1802 Clouds 22 1014 94 10000 2.1 10 12:23 28.12.2019
1803 Clouds 22 1014 94 10000 2.1 360 11:56 28.12.2019
1804 Clouds 22 1014 94 10000 2.1 360 11:37 28.12.2019
1805 Clouds 22 1014 94 10000 2.1 360 11:18 28.12.2019
1806 Clouds 22 1013 88 10000 2.6 10 10:43 28.12.2019
1807 Clouds 22 1013 88 10000 2.6 10 10:21 28.12.2019
1808 Clouds 22 1013 100 10000 2.1 10 09:57 28.12.2019
1809 Clouds 23 1013 100 10000 2.1 10 09:39 28.12.2019
1810 Clouds 23 1013 100 10000 2.1 10 09:19 28.12.2019
1811 Clouds 22 1014 88 10000 2.1 10 08:43 28.12.2019
1812 Clouds 22 1014 88 10000 2.1 10 08:25 28.12.2019
1813 Clouds 22 1014 94 10000 2.1 20 07:49 28.12.2019
1814 Clouds 22 1014 94 10000 2.1 20 07:27 28.12.2019
1815 Clouds 22 1015 94 10000 2.1 20 06:21 28.12.2019
1816 Clouds 23 1015 94 10000 2.1 30 03:59 28.12.2019
1817 Clouds 24 1015 88 10000 2.1 30 03:38 28.12.2019
1818 Clouds 24 1015 88 10000 2.1 30 02:48 28.12.2019
1819 Clouds 25 1015 88 10000 2.1 30 01:59 28.12.2019
1820 Clouds 26 1014 83 10000 2.6 40 01:29 28.12.2019
1821 Clouds 26 1014 78 10000 3.79 9 00:54 28.12.2019
1822 Clouds 26 1014 78 10000 3.79 9 00:36 28.12.2019
1823 Clouds 26 1014 78 10000 3.79 9 00:18 28.12.2019
1824 Clouds 27 1013 78 10000 3.6 30 23:42 27.12.2019
1825 Clouds 27 1013 78 10000 3.6 30 23:19 27.12.2019
1826 Clouds 28 1013 62 10000 3.6 20 22:57 27.12.2019
1827 Clouds 29 1013 62 10000 3.6 20 22:38 27.12.2019
1828 Clouds 29 1013 62 10000 3.6 20 22:20 27.12.2019
1829 Clouds 30 1013 55 10000 5.1 360 21:54 27.12.2019
1830 Clouds 30 1013 55 10000 5.1 360 21:36 27.12.2019
1831 Clouds 30 1013 55 10000 5.1 360 21:18 27.12.2019
1832 Clouds 30 1013 55 10000 4.1 360 20:40 27.12.2019
1833 Clouds 30 1013 55 10000 4.1 360 20:21 27.12.2019
1834 Clouds 29 1013 62 10000 4.1 360 19:42 27.12.2019
1835 Clouds 29 1013 62 10000 4.1 360 19:20 27.12.2019
1836 Clouds 29 1013 62 10000 4.1 360 18:59 27.12.2019
1837 Clouds 29 1015 62 10000 5.1 360 18:38 27.12.2019
1838 Clouds 29 1015 62 10000 5.1 360 18:20 27.12.2019
1839 Clouds 28 1015 66 10000 5.1 30 17:57 27.12.2019
1840 Clouds 28 1015 66 10000 5.1 30 17:39 27.12.2019
1841 Clouds 28 1015 66 10000 5.1 30 17:19 27.12.2019
1842 Clouds 28 1016 69 10000 3.1 30 16:56 27.12.2019
1843 Clouds 27 1016 69 10000 3.1 30 16:37 27.12.2019
1844 Clouds 27 1016 69 10000 3.1 30 16:19 27.12.2019
1845 Clouds 27 1016 83 10000 5.1 360 15:43 27.12.2019
1846 Clouds 27 1016 83 10000 5.1 360 15:20 27.12.2019
1847 Clouds 25 1016 78 10000 5.1 360 14:57 27.12.2019
1848 Clouds 24 1016 78 10000 5.1 360 14:38 27.12.2019
1849 Clouds 24 1016 78 10000 5.1 360 14:20 27.12.2019
1850 Clouds 23 1014 88 10000 3.36 352 13:48 27.12.2019
1851 Clouds 23 1014 88 10000 3.39 355 13:25 27.12.2019
1852 Clouds 23 1013 100 10000 2.1 350 12:58 27.12.2019
1853 Clouds 22 1013 100 10000 2.1 350 12:39 27.12.2019
1854 Clouds 22 1013 100 10000 2.1 350 12:21 27.12.2019
1855 Clouds 22 1013 94 10000 2.1 350 11:43 27.12.2019
1856 Clouds 22 1013 94 10000 2.1 350 11:23 27.12.2019
1857 Clouds 23 1012 94 10000 2.1 350 10:55 27.12.2019
1858 Clouds 23 1012 94 10000 2.1 350 10:37 27.12.2019
1859 Clouds 23 1012 94 10000 2.1 350 10:19 27.12.2019
1860 Clouds 24 1012 94 10000 1.5 0 09:42 27.12.2019
1861 Clouds 24 1012 94 10000 1.5 0 09:21 27.12.2019
1862 Clouds 24 1012 88 10000 2.1 360 08:56 27.12.2019
1863 Clouds 24 1012 88 10000 2.1 360 08:36 27.12.2019
1864 Clouds 24 1013 88 10000 2.1 10 07:51 27.12.2019
1865 Clouds 24 1013 88 10000 2.1 10 07:31 27.12.2019
1866 Clouds 24 1013 94 10000 2.1 20 06:37 27.12.2019
1867 Clouds 25 1014 88 10000 2.1 20 05:28 27.12.2019
1868 Clouds 25 1014 88 10000 2.1 30 03:26 27.12.2019
1869 Clouds 25 1013 88 10000 2.1 30 01:59 27.12.2019
1870 Clouds 26 1012 83 10000 2.6 40 01:24 27.12.2019
1871 Clouds 26 1010 83 10000 3.66 13 00:58 27.12.2019
1872 Clouds 26 1010 83 10000 3.66 13 00:40 27.12.2019
1873 Clouds 26 1010 83 10000 3.66 13 00:21 27.12.2019
1874 Clouds 27 1010 78 10000 3.1 360 23:41 26.12.2019
1875 Clouds 28 1010 78 10000 3.1 360 23:22 26.12.2019
1876 Clouds 28 1010 78 10000 5.1 330 22:45 26.12.2019
1877 Clouds 28 1010 78 10000 5.1 330 22:23 26.12.2019
1878 Clouds 28 1010 78 10000 5.1 330 21:59 26.12.2019
1879 Rain 29 1010 74 8000 6.2 360 21:38 26.12.2019
1880 Rain 29 1010 74 8000 6.2 360 21:20 26.12.2019
1881 Clouds 30 1010 70 10000 5.1 360 20:46 26.12.2019
1882 Clouds 29 1010 70 10000 5.1 360 20:23 26.12.2019
1883 Clouds 29 1010 70 10000 5.1 360 20:23 26.12.2019
1884 Clouds 29 1010 70 10000 5.1 360 19:59 26.12.2019
1885 Clouds 30 1011 66 10000 6.2 360 19:40 26.12.2019
1886 Clouds 30 1011 66 10000 6.2 360 19:21 26.12.2019
1887 Clouds 29 1011 70 10000 6.2 360 18:58 26.12.2019
1888 Clouds 29 1011 70 10000 6.2 360 18:39 26.12.2019
1889 Clouds 29 1011 70 10000 6.2 360 18:19 26.12.2019
1890 Clouds 28 1012 66 10000 5.1 360 17:43 26.12.2019
1891 Clouds 28 1012 66 10000 5.1 360 17:22 26.12.2019
1892 Clouds 28 1012 66 10000 5.1 360 16:59 26.12.2019
1893 Clouds 27 1013 69 10000 5.1 360 16:41 26.12.2019
1894 Clouds 27 1013 69 10000 5.1 360 16:21 26.12.2019
1895 Clouds 27 1012 69 10000 5.1 360 15:55 26.12.2019
1896 Clouds 27 1012 69 10000 5.1 360 15:37 26.12.2019
1897 Clouds 26 1012 69 10000 5.1 360 15:18 26.12.2019
1898 Clouds 25 1012 83 10000 3.1 360 14:39 26.12.2019
1899 Clouds 25 1012 83 10000 3.1 360 14:21 26.12.2019
1900 Clouds 24 1011 94 10000 2.47 2 13:43 26.12.2019
1901 Clouds 24 1011 94 10000 2.47 2 13:21 26.12.2019
1902 Clouds 24 1010 94 10000 3.6 40 12:58 26.12.2019
1903 Clouds 24 1010 94 10000 3.6 40 12:38 26.12.2019
1904 Clouds 24 1010 94 10000 3.6 40 12:19 26.12.2019
1905 Clouds 24 1009 100 10000 2.6 20 11:57 26.12.2019
1906 Clouds 24 1009 100 10000 2.6 20 11:38 26.12.2019
1907 Clouds 24 1009 100 10000 2.6 20 11:19 26.12.2019
1908 Clouds 25 1009 94 10000 2.6 10 10:42 26.12.2019
1909 Clouds 25 1009 94 10000 2.6 10 10:18 26.12.2019
1910 Clouds 25 1009 94 10000 1.5 360 09:49 26.12.2019
1911 Clouds 25 1009 94 10000 1.5 360 09:31 26.12.2019
1912 Clouds 25 1009 94 10000 2.1 360 08:43 26.12.2019
1913 Clouds 25 1009 94 10000 2.1 360 08:24 26.12.2019
1914 Clouds 25 1009 94 10000 2.1 350 07:53 26.12.2019
1915 Clouds 25 1009 94 10000 2.1 350 07:27 26.12.2019
1916 Clouds 25 1009 100 10000 2.1 340 06:53 26.12.2019
1917 Clouds 25 1009 100 10000 2.1 340 06:32 26.12.2019
1918 Clouds 26 1009 100 10000 2.1 250 05:45 26.12.2019
1919 Clouds 26 1009 94 10000 2.1 240 04:57 26.12.2019
1920 Clouds 26 1009 94 10000 2.1 240 04:30 26.12.2019
1921 Clouds 26 1009 94 10000 2.6 220 02:56 26.12.2019
1922 Clouds 26 1009 94 10000 2.6 220 02:34 26.12.2019
1923 Clouds 27 1009 100 10000 3.1 210 01:48 26.12.2019
1924 Clouds 26 1009 100 10000 3.1 210 01:28 26.12.2019
1925 Clouds 26 1009 94 10000 4.1 160 00:49 26.12.2019
1926 Clouds 26 1009 94 10000 4.1 160 00:27 26.12.2019
1927 Clouds 27 1008 88 10000 5.1 160 23:58 25.12.2019
1928 Clouds 27 1008 88 10000 5.1 160 23:39 25.12.2019
1929 Clouds 27 1008 88 10000 5.1 160 23:21 25.12.2019
1930 Clouds 27 1008 83 10000 5.1 180 22:58 25.12.2019
1931 Clouds 27 1008 83 10000 5.1 180 22:39 25.12.2019
1932 Clouds 27 1008 83 10000 5.1 180 22:20 25.12.2019
1933 Clouds 28 1008 78 10000 6.2 180 21:57 25.12.2019
1934 Clouds 28 1008 78 10000 6.2 180 21:39 25.12.2019
1935 Clouds 28 1008 78 10000 6.2 180 21:19 25.12.2019
1936 Clouds 29 1008 74 10000 5.1 180 20:41 25.12.2019
1937 Clouds 28 1008 74 10000 5.1 180 20:23 25.12.2019
1938 Clouds 28 1008 74 10000 5.1 180 20:23 25.12.2019
1939 Clouds 29 1008 74 10000 5.1 180 19:59 25.12.2019
1940 Clouds 29 1009 70 10000 6.2 180 19:41 25.12.2019
1941 Clouds 29 1009 70 10000 6.2 180 19:22 25.12.2019
1942 Rain 28 1009 94 8000 3.1 230 18:54 25.12.2019
1943 Rain 28 1009 94 8000 3.1 230 18:36 25.12.2019
1944 Rain 29 1009 94 8000 3.1 230 18:18 25.12.2019
1945 Clouds 29 1011 74 10000 5.1 120 17:40 25.12.2019
1946 Clouds 29 1011 74 10000 5.1 120 17:18 25.12.2019
1947 Clouds 28 1011 74 10000 2.21 170 16:55 25.12.2019
1948 Clouds 28 1011 74 10000 2.21 170 16:36 25.12.2019
1949 Clouds 28 1011 74 10000 2.21 170 16:18 25.12.2019
1950 Clouds 27 1010 83 10000 2.21 170 15:56 25.12.2019
1951 Clouds 27 1010 83 10000 2.21 170 15:37 25.12.2019
1952 Clouds 27 1010 83 10000 2.21 170 15:18 25.12.2019
1953 Clouds 26 1010 94 10000 2.21 170 14:54 25.12.2019
1954 Clouds 25 1010 94 10000 2.21 170 14:36 25.12.2019
1955 Clouds 25 1010 94 10000 1.78 341 14:18 25.12.2019
1956 Clouds 25 1009 94 10000 1.78 341 13:41 25.12.2019
1957 Clouds 25 1009 94 10000 1.78 341 13:20 25.12.2019
1958 Clouds 24 1009 100 10000 1.82 332 12:44 25.12.2019
1959 Clouds 24 1009 100 10000 1.82 332 12:22 25.12.2019
1960 Clouds 24 1009 100 10000 1.82 332 11:58 25.12.2019
1961 Clouds 24 1009 100 10000 1.82 332 11:58 25.12.2019
1962 Clouds 24 1009 100 10000 1.82 332 11:40 25.12.2019
1963 Clouds 24 1009 100 10000 2.61 220 11:20 25.12.2019
1964 Clouds 24 1009 100 10000 3.1 220 10:39 25.12.2019
1965 Clouds 24 1009 100 10000 3.1 220 10:21 25.12.2019
1966 Rain 23 1009 87 0 2.61 220 09:52 25.12.2019
1967 Clouds 26 1009 87 10000 2.1 280 09:34 25.12.2019
1968 Clouds 25 1009 94 10000 2.1 270 08:56 25.12.2019
1969 Clouds 25 1009 94 10000 2.1 270 08:38 25.12.2019
1970 Clouds 25 1009 94 10000 2.1 270 08:19 25.12.2019
1971 Clouds 25 1009 94 10000 2.1 190 07:40 25.12.2019
1972 Clouds 25 1009 94 10000 2.1 190 07:40 25.12.2019
1973 Clouds 25 1009 94 10000 2.1 190 07:21 25.12.2019
1974 Clouds 26 1010 94 10000 2.1 200 06:24 25.12.2019
1975 Rain 26 1010 94 8000 2.1 140 05:44 25.12.2019
1976 Clouds 26 1010 88 10000 2.1 180 04:40 25.12.2019
1977 Clouds 26 1010 88 10000 2.1 180 04:20 25.12.2019
1978 Clouds 26 1011 88 10000 2.6 200 03:43 25.12.2019
1979 Clouds 26 1010 88 10000 2.6 180 02:57 25.12.2019
1980 Clouds 26 1010 88 10000 2.6 180 02:28 25.12.2019
1981 Clouds 26 1010 88 10000 2.1 170 01:36 25.12.2019
1982 Clouds 27 1011 88 10000 2.83 196 01:18 25.12.2019
1983 Clouds 27 1011 88 10000 2.83 196 00:40 25.12.2019
1984 Clouds 27 1011 88 10000 2.83 196 00:22 25.12.2019
1985 Clouds 27 1011 88 10000 2.83 196 00:22 25.12.2019
1986 Clouds 27 1010 83 10000 3.1 180 23:39 24.12.2019
1987 Rain 27 1010 83 10000 3.1 180 23:20 24.12.2019
1988 Rain 28 1010 78 10000 5.1 180 22:42 24.12.2019
1989 Rain 28 1010 78 10000 5.1 180 22:23 24.12.2019
1990 Rain 29 1010 78 10000 6.2 180 21:57 24.12.2019
1991 Clouds 28 1010 78 10000 6.2 180 21:37 24.12.2019
1992 Clouds 28 1010 78 10000 6.2 180 21:19 24.12.2019
1993 Clouds 29 1011 74 10000 6.2 180 20:41 24.12.2019
1994 Clouds 29 1011 74 10000 6.2 180 20:20 24.12.2019
1995 Clouds 29 1012 66 10000 7.2 180 19:47 24.12.2019
1996 Clouds 29 1012 66 10000 7.2 180 19:22 24.12.2019
1997 Clouds 29 1012 66 10000 7.2 180 18:59 24.12.2019
1998 Clouds 29 1012 74 10000 7.2 180 18:40 24.12.2019
1999 Clouds 29 1012 74 10000 7.2 180 18:18 24.12.2019
2000 Clouds 29 1013 78 10000 4.1 180 17:43 24.12.2019
2001 Clouds 28 1013 78 10000 4.1 180 17:22 24.12.2019
2002 Rain 28 1014 83 8000 3.84 187 16:58 24.12.2019
2003 Rain 28 1014 83 8000 3.84 187 16:39 24.12.2019
2004 Rain 28 1014 83 8000 3.84 187 16:20 24.12.2019
2005 Clouds 27 1013 88 10000 3.84 187 15:57 24.12.2019
2006 Clouds 27 1013 88 10000 3.84 187 15:37 24.12.2019
2007 Clouds 27 1013 88 10000 3.84 187 15:19 24.12.2019
2008 Clouds 27 1013 88 10000 3.84 187 15:19 24.12.2019
2009 Clouds 26 1013 94 10000 3.84 187 14:58 24.12.2019
2010 Clouds 26 1013 94 10000 3.84 187 14:39 24.12.2019
2011 Clouds 25 1013 94 10000 2.34 211 14:21 24.12.2019
2012 Clouds 25 1013 94 10000 2.34 211 14:21 24.12.2019
2013 Clouds 24 1012 100 10000 2.34 211 13:56 24.12.2019
2014 Clouds 24 1012 100 10000 2.34 211 13:37 24.12.2019
2015 Clouds 23 1012 100 10000 2.34 211 13:19 24.12.2019
2016 Clouds 23 1012 100 10000 2.27 217 12:55 24.12.2019
2017 Clouds 21 1012 100 10000 2.27 217 12:36 24.12.2019
2018 Clouds 21 1012 100 10000 2.27 217 12:18 24.12.2019
2019 Clouds 21 1012 94 10000 2.27 217 11:55 24.12.2019
2020 Clouds 21 1012 94 10000 2.27 217 11:37 24.12.2019
2021 Clouds 21 1012 94 10000 1.87 190 11:18 24.12.2019
2022 Clouds 22 1012 94 10000 1.87 190 10:56 24.12.2019
2023 Clouds 22 1012 94 10000 1.87 190 10:37 24.12.2019
2024 Clouds 22 1012 94 10000 1.87 190 10:19 24.12.2019
2025 Clouds 23 1012 94 10000 2.1 60 09:55 24.12.2019
2026 Clouds 23 1012 94 10000 2.1 60 09:36 24.12.2019
2027 Clouds 23 1012 94 10000 2.1 60 09:18 24.12.2019
2028 Clouds 22 1012 94 10000 2.1 40 08:44 24.12.2019
2029 Clouds 23 1012 94 10000 2.1 40 08:20 24.12.2019
2030 Clouds 23 1014 100 10000 2.1 60 07:46 24.12.2019
2031 Clouds 23 1014 100 10000 2.1 60 07:25 24.12.2019
2032 Clouds 23 1014 100 10000 2.1 60 07:25 24.12.2019
2033 Clouds 23 1014 100 10000 2.1 60 06:58 24.12.2019
2034 Clouds 23 1014 100 10000 2.1 60 06:38 24.12.2019
2035 Clouds 23 1014 100 10000 2.1 60 06:18 24.12.2019
2036 Clouds 24 1014 94 10000 2.1 60 05:20 24.12.2019
2037 Clouds 25 1015 88 10000 2.1 140 04:44 24.12.2019
2038 Clouds 24 1015 88 10000 2.1 140 03:50 24.12.2019
2039 Clouds 24 1015 88 10000 2.1 140 03:18 24.12.2019
2040 Clouds 26 1014 83 10000 2.1 140 02:21 24.12.2019
2041 Clouds 26 1014 83 10000 2.1 140 01:50 24.12.2019
2042 Clouds 26 1014 83 10000 0.31 197 01:21 24.12.2019
2043 Clouds 26 1014 83 10000 0.31 197 00:45 24.12.2019
2044 Clouds 26 1014 83 10000 0.31 197 00:23 24.12.2019
2045 Clouds 27 1013 78 10000 2.6 130 23:56 23.12.2019
2046 Clouds 27 1013 78 10000 2.6 130 23:37 23.12.2019
2047 Clouds 27 1013 78 10000 2.6 130 23:19 23.12.2019
2048 Clouds 27 1012 74 10000 3.1 150 22:56 23.12.2019
2049 Clouds 27 1012 74 10000 3.1 150 22:56 23.12.2019
2050 Clouds 28 1012 74 10000 3.1 150 22:36 23.12.2019
2051 Clouds 28 1012 74 10000 3.1 150 22:36 23.12.2019
2052 Clouds 28 1012 74 10000 3.1 150 22:18 23.12.2019
2053 Clouds 28 1013 70 10000 5.1 180 21:55 23.12.2019
2054 Clouds 29 1013 70 10000 5.1 180 21:36 23.12.2019
2055 Clouds 29 1013 70 10000 5.1 180 21:18 23.12.2019
2056 Clouds 29 1014 70 10000 5.1 180 20:56 23.12.2019
2057 Clouds 29 1014 70 10000 5.1 180 20:38 23.12.2019
2058 Clouds 29 1014 70 10000 5.1 180 20:18 23.12.2019
2059 Clouds 29 1014 66 10000 5.1 180 19:55 23.12.2019
2060 Clouds 29 1014 66 10000 5.1 180 19:55 23.12.2019
2061 Clouds 29 1014 66 10000 5.1 180 19:55 23.12.2019
2062 Clouds 29 1014 66 10000 5.1 180 19:37 23.12.2019
2063 Clouds 29 1014 66 10000 5.1 180 19:18 23.12.2019
2064 Clouds 29 1015 66 10000 5.1 140 18:55 23.12.2019
2065 Clouds 29 1015 66 10000 5.1 140 18:37 23.12.2019
2066 Clouds 29 1015 66 10000 5.1 140 18:18 23.12.2019
2067 Clouds 29 1015 66 10000 3.18 155 17:55 23.12.2019
2068 Clouds 29 1015 66 10000 3.18 155 17:55 23.12.2019
2069 Clouds 29 1015 66 10000 3.18 155 17:37 23.12.2019
2070 Clouds 29 1015 66 10000 0.98 92 17:18 23.12.2019
2071 Clouds 28 1017 74 10000 0.98 92 16:42 23.12.2019
2072 Clouds 28 1017 74 10000 0.98 92 16:19 23.12.2019
2073 Clouds 28 1017 78 10000 4.1 30 15:58 23.12.2019
2074 Clouds 27 1017 78 10000 4.1 30 15:38 23.12.2019
2075 Clouds 27 1017 78 10000 4.1 30 15:20 23.12.2019
2076 Clouds 25 1016 88 10000 0.98 92 14:58 23.12.2019
2077 Clouds 25 1016 88 10000 0.98 92 14:39 23.12.2019
2078 Clouds 25 1016 88 10000 2.08 318 14:21 23.12.2019
2079 Clouds 25 1016 88 10000 2.08 318 13:58 23.12.2019
2080 Clouds 24 1016 94 10000 2.08 318 13:40 23.12.2019
2081 Clouds 23 1016 94 10000 2.08 318 13:22 23.12.2019
2082 Clouds 23 1015 94 10000 2.1 10 12:56 23.12.2019
2083 Clouds 22 1015 94 10000 2.1 10 12:37 23.12.2019
2084 Clouds 22 1015 94 10000 2.1 10 12:19 23.12.2019
2085 Clouds 22 1015 100 10000 2.1 30 11:44 23.12.2019
2086 Clouds 22 1015 100 10000 2.1 30 11:25 23.12.2019
2087 Clouds 22 1014 100 10000 2.1 40 10:57 23.12.2019
2088 Clouds 22 1014 100 10000 2.1 40 10:39 23.12.2019
2089 Clouds 22 1014 100 10000 2.1 40 10:20 23.12.2019
2090 Clouds 23 1014 100 10000 2.1 40 09:59 23.12.2019
2091 Clouds 23 1014 100 10000 2.1 30 09:39 23.12.2019
2092 Clouds 23 1014 100 10000 2.1 30 09:20 23.12.2019
2093 Clouds 23 1015 94 10000 2.1 20 08:55 23.12.2019
2094 Clouds 23 1015 94 10000 2.1 20 08:37 23.12.2019
2095 Clouds 23 1015 94 10000 2.1 20 08:19 23.12.2019
2096 Clouds 23 1015 94 10000 2.1 40 07:43 23.12.2019
2097 Clouds 23 1015 94 10000 2.1 40 07:20 23.12.2019
2098 Clouds 23 1015 94 10000 2.1 40 06:52 23.12.2019
2099 Clouds 23 1015 94 10000 2.1 40 06:25 23.12.2019
2100 Clouds 23 1016 94 10000 2.1 40 05:50 23.12.2019
2101 Clouds 23 1016 94 10000 2.1 40 05:26 23.12.2019
2102 Clouds 24 1016 88 10000 2.1 50 04:27 23.12.2019
2103 Clouds 25 1015 88 10000 2.1 60 02:56 23.12.2019
2104 Clouds 25 1015 88 10000 2.1 60 02:28 23.12.2019
2105 Clouds 25 1015 88 10000 2.1 60 01:56 23.12.2019
2106 Clouds 25 1015 88 10000 2.1 60 01:38 23.12.2019
2107 Clouds 26 1014 88 10000 1.12 47 01:19 23.12.2019
2108 Clouds 26 1014 88 10000 1.97 35 00:36 23.12.2019
2109 Clouds 27 1014 83 10000 1.97 35 23:58 22.12.2019
2110 Clouds 27 1014 83 10000 1.97 35 23:39 22.12.2019
2111 Clouds 27 1014 83 10000 2.33 112 23:20 22.12.2019
2112 Clouds 28 1013 70 10000 3.6 90 22:58 22.12.2019
2113 Clouds 28 1013 70 10000 3.6 90 22:38 22.12.2019
2114 Clouds 28 1013 70 10000 3.6 90 22:19 22.12.2019
2115 Clouds 29 1013 62 10000 6.2 160 21:56 22.12.2019
2116 Clouds 29 1013 62 10000 6.2 160 21:56 22.12.2019
2117 Clouds 29 1013 62 10000 6.2 160 21:38 22.12.2019
2118 Clouds 29 1013 62 10000 6.2 160 21:20 22.12.2019
2119 Clouds 29 1014 70 10000 3.1 150 20:55 22.12.2019
2120 Clouds 29 1014 70 10000 3.1 150 20:37 22.12.2019
2121 Clouds 29 1014 70 10000 3.1 150 20:37 22.12.2019
2122 Clouds 29 1014 70 10000 3.1 150 20:18 22.12.2019
2123 Rain 29 1015 74 8000 3.25 73 19:40 22.12.2019
2124 Rain 29 1015 74 8000 3.25 73 19:21 22.12.2019
2125 Clouds 29 1016 62 10000 3.1 90 18:58 22.12.2019
2126 Clouds 29 1016 62 10000 3.1 90 18:38 22.12.2019
2127 Clouds 29 1016 62 10000 3.1 90 18:19 22.12.2019
2128 Clouds 29 1017 70 10000 2.6 70 17:55 22.12.2019
2129 Clouds 29 1017 70 10000 2.6 70 17:37 22.12.2019
2130 Clouds 29 1017 70 10000 2.6 70 17:18 22.12.2019
2131 Clouds 28 1018 74 10000 3.1 30 16:43 22.12.2019
2132 Clouds 28 1018 74 10000 3.1 30 16:43 22.12.2019
2133 Clouds 28 1018 74 10000 3.1 30 16:23 22.12.2019
2134 Clouds 28 1018 74 10000 3.1 30 15:59 22.12.2019
2135 Clouds 27 1018 74 10000 3.09 33 15:39 22.12.2019
2136 Clouds 27 1018 74 10000 3.09 33 15:21 22.12.2019
2137 Clouds 27 1018 74 10000 3.09 33 15:21 22.12.2019
2138 Clouds 27 1018 74 10000 3.09 33 14:59 22.12.2019
2139 Clouds 26 1017 83 10000 5.1 360 14:39 22.12.2019
2140 Clouds 25 1017 83 10000 5.1 360 14:19 22.12.2019
2141 Clouds 23 1016 94 10000 3.24 350 13:56 22.12.2019
2142 Clouds 23 1016 94 10000 3.24 350 13:38 22.12.2019
2143 Clouds 23 1016 94 10000 3.15 351 13:19 22.12.2019
2144 Clouds 22 1015 94 10000 2.1 20 12:57 22.12.2019
2145 Clouds 21 1015 94 10000 2.1 20 12:39 22.12.2019
2146 Clouds 21 1015 94 10000 2.1 20 12:19 22.12.2019
2147 Clouds 21 1015 94 10000 2.1 20 11:59 22.12.2019
2148 Clouds 22 1015 94 10000 2.1 10 11:39 22.12.2019
2149 Clouds 22 1015 94 10000 2.1 10 11:20 22.12.2019
2150 Clouds 22 1014 94 10000 2.1 360 10:57 22.12.2019
2151 Clouds 22 1014 94 10000 2.1 360 10:39 22.12.2019
2152 Clouds 22 1014 94 10000 2.1 360 10:19 22.12.2019
2153 Clouds 22 1014 94 10000 1.5 360 09:58 22.12.2019
2154 Clouds 22 1014 94 10000 1.5 360 09:39 22.12.2019
2155 Clouds 24 1014 94 10000 1.5 360 09:21 22.12.2019
2156 Clouds 24 1015 88 10000 2.1 20 08:45 22.12.2019
2157 Clouds 24 1015 88 10000 2.1 20 08:23 22.12.2019
2158 Clouds 23 1016 88 10000 2.1 30 07:50 22.12.2019
2159 Clouds 23 1016 88 10000 2.1 30 07:21 22.12.2019
2160 Clouds 23 1016 88 10000 2.1 30 07:21 22.12.2019
2161 Clouds 23 1016 88 10000 2.1 30 06:56 22.12.2019
2162 Clouds 23 1016 88 10000 2.1 30 06:27 22.12.2019
2163 Clouds 23 1016 88 10000 2.1 30 05:41 22.12.2019
2164 Clouds 23 1016 88 10000 2.1 30 05:20 22.12.2019
2165 Clouds 23 1016 88 10000 2.1 20 04:26 22.12.2019
2166 Clouds 24 1016 83 10000 3.1 30 02:47 22.12.2019
2167 Clouds 24 1016 83 10000 3.1 30 02:23 22.12.2019
2168 Clouds 26 1015 78 10000 2.6 30 01:32 22.12.2019
2169 Clouds 26 1014 83 10000 4.1 0 00:56 22.12.2019
2170 Clouds 26 1014 83 10000 4.1 0 00:56 22.12.2019
2171 Clouds 26 1014 83 10000 4.1 0 00:36 22.12.2019
2172 Clouds 26 1014 83 10000 4.1 0 00:18 22.12.2019
2173 Clouds 27 1014 78 10000 4.1 360 23:41 21.12.2019
2174 Clouds 27 1014 78 10000 4.1 360 23:21 21.12.2019
2175 Clouds 28 1014 69 10000 4.1 360 22:57 21.12.2019
2176 Clouds 28 1014 69 10000 4.1 360 22:37 21.12.2019
2177 Clouds 28 1014 69 10000 4.1 360 22:18 21.12.2019
2178 Clouds 29 1014 66 10000 2.1 40 21:54 21.12.2019
2179 Clouds 29 1014 66 10000 2.1 40 21:36 21.12.2019
2180 Clouds 29 1014 66 10000 2.1 40 21:18 21.12.2019
2181 Clouds 29 1015 66 10000 4.1 360 20:55 21.12.2019
2182 Clouds 29 1015 66 10000 4.1 360 20:37 21.12.2019
2183 Clouds 28 1015 66 10000 4.1 360 20:18 21.12.2019
2184 Clouds 29 1015 66 10000 5.1 10 19:55 21.12.2019
2185 Clouds 29 1015 66 10000 5.1 10 19:36 21.12.2019
2186 Clouds 29 1015 66 10000 5.1 10 19:18 21.12.2019
2187 Clouds 29 1016 70 10000 5.1 360 18:40 21.12.2019
2188 Clouds 29 1016 70 10000 5.1 360 18:22 21.12.2019
2189 Clouds 29 1017 66 10000 5.1 20 17:55 21.12.2019
2190 Clouds 29 1017 66 10000 5.1 20 17:37 21.12.2019
2191 Clouds 29 1017 66 10000 5.1 20 17:18 21.12.2019
2192 Clouds 28 1018 66 10000 4.1 60 16:54 21.12.2019
2193 Clouds 28 1018 66 10000 4.1 60 16:54 21.12.2019
2194 Clouds 28 1018 66 10000 4.1 60 16:36 21.12.2019
2195 Clouds 28 1018 66 10000 4.1 60 16:36 21.12.2019
2196 Clouds 28 1018 66 10000 4.1 60 16:18 21.12.2019
2197 Clouds 27 1017 74 10000 5.1 360 15:54 21.12.2019
2198 Clouds 27 1017 74 10000 5.1 360 15:54 21.12.2019
2199 Clouds 27 1017 74 10000 5.1 360 15:36 21.12.2019
2200 Clouds 27 1017 74 10000 5.1 360 15:18 21.12.2019
2201 Clouds 25 1017 88 10000 3.1 350 14:40 21.12.2019
2202 Clouds 25 1017 88 10000 3.1 350 14:22 21.12.2019
2203 Clouds 24 1016 100 10000 2.65 347 13:57 21.12.2019
2204 Clouds 24 1016 100 10000 2.65 347 13:39 21.12.2019
2205 Clouds 22 1016 100 10000 3.01 347 13:19 21.12.2019
2206 Clouds 22 1015 100 10000 2.1 360 12:56 21.12.2019
2207 Clouds 22 1015 100 10000 2.1 360 12:37 21.12.2019
2208 Clouds 22 1015 100 10000 2.1 360 12:19 21.12.2019
2209 Clouds 22 1015 100 10000 2.1 360 11:45 21.12.2019
2210 Clouds 22 1015 100 10000 2.1 360 11:26 21.12.2019
2211 Clouds 22 1015 100 10000 2.1 70 10:57 21.12.2019
2212 Clouds 22 1015 100 10000 2.1 70 10:39 21.12.2019
2213 Clouds 22 1015 100 10000 2.1 70 10:21 21.12.2019
2214 Clouds 23 1015 94 10000 2.1 30 09:56 21.12.2019
2215 Clouds 23 1015 94 10000 2.1 30 09:56 21.12.2019
2216 Clouds 23 1015 94 10000 2.1 30 09:38 21.12.2019
2217 Clouds 23 1015 94 10000 2.1 30 09:19 21.12.2019
2218 Clouds 23 1015 94 10000 2.1 30 08:46 21.12.2019
2219 Clouds 23 1015 94 10000 2.1 30 08:26 21.12.2019
2220 Clouds 23 1016 94 10000 2.1 40 07:47 21.12.2019
2221 Clouds 23 1016 94 10000 2.1 40 07:23 21.12.2019
2222 Clouds 23 1016 94 10000 2.1 40 07:23 21.12.2019
2223 Clouds 24 1016 88 10000 2.1 10 06:46 21.12.2019
2224 Clouds 24 1016 88 10000 2.1 10 06:28 21.12.2019
2225 Clouds 24 1016 88 10000 2.1 40 05:55 21.12.2019
2226 Clouds 24 1017 94 10000 2.1 60 04:58 21.12.2019
2227 Clouds 24 1016 94 10000 2.1 90 03:59 21.12.2019
2228 Clouds 24 1016 94 10000 2.1 90 03:37 21.12.2019
2229 Clouds 26 1016 88 10000 2.6 60 02:19 21.12.2019
2230 Clouds 26 1015 83 10000 2.1 70 01:41 21.12.2019
2231 Clouds 26 1015 83 10000 2.1 70 01:22 21.12.2019
2232 Clouds 26 1015 94 10000 1.42 339 00:37 21.12.2019
2233 Clouds 26 1015 94 10000 1.42 339 00:18 21.12.2019
2234 Clouds 27 1014 83 10000 5.1 90 23:38 20.12.2019
2235 Clouds 27 1014 83 10000 5.1 90 23:19 20.12.2019
2236 Clouds 28 1014 74 10000 4.1 120 22:57 20.12.2019
2237 Clouds 28 1014 74 10000 4.1 120 22:36 20.12.2019
2238 Clouds 28 1014 74 10000 4.1 120 22:18 20.12.2019
2239 Clouds 29 1014 70 10000 5.1 160 21:40 20.12.2019
2240 Clouds 29 1014 70 10000 5.1 160 21:20 20.12.2019
2241 Clouds 29 1014 74 10000 5.1 90 20:56 20.12.2019
2242 Clouds 29 1014 74 10000 5.1 90 20:36 20.12.2019
2243 Clouds 29 1014 74 10000 5.1 90 20:18 20.12.2019
2244 Clouds 29 1015 74 10000 6.2 160 19:42 20.12.2019
2245 Clouds 29 1015 74 10000 6.2 160 19:20 20.12.2019
2246 Clouds 29 1016 79 10000 5.1 90 18:58 20.12.2019
2247 Clouds 29 1016 79 10000 5.1 90 18:39 20.12.2019
2248 Clouds 29 1016 79 10000 5.1 90 18:21 20.12.2019
2249 Clouds 28 1017 74 10000 4.1 30 17:54 20.12.2019
2250 Clouds 29 1017 74 10000 4.1 30 17:36 20.12.2019
2251 Clouds 28 1017 74 10000 4.1 30 17:18 20.12.2019
2252 Clouds 28 1017 74 10000 4.1 30 17:18 20.12.2019
2253 Clouds 27 1017 83 10000 4.1 30 16:40 20.12.2019
2254 Clouds 27 1017 83 10000 4.1 30 16:20 20.12.2019
2255 Clouds 26 1016 88 10000 3.1 30 15:57 20.12.2019
2256 Clouds 26 1016 88 10000 3.1 30 15:39 20.12.2019
2257 Clouds 26 1016 88 10000 3.1 30 15:20 20.12.2019
2258 Clouds 25 1016 83 10000 2.37 97 14:59 20.12.2019
2259 Clouds 25 1016 83 10000 2.37 97 14:40 20.12.2019
2260 Clouds 25 1016 83 10000 2.03 329 14:22 20.12.2019
2261 Clouds 24 1016 94 10000 2.1 40 13:55 20.12.2019
2262 Clouds 24 1016 94 10000 2.1 40 13:36 20.12.2019
2263 Clouds 23 1016 94 10000 2.1 40 13:18 20.12.2019
2264 Clouds 21 1015 100 10000 2.1 40 12:42 20.12.2019
2265 Clouds 21 1015 100 10000 2.1 40 12:20 20.12.2019
2266 Clouds 22 1015 94 10000 2.24 330 11:59 20.12.2019
2267 Clouds 22 1015 94 10000 2.24 330 11:40 20.12.2019
2268 Clouds 22 1015 94 10000 2.02 325 11:21 20.12.2019
2269 Clouds 22 1015 100 10000 3.1 100 10:59 20.12.2019
2270 Clouds 22 1015 100 10000 3.1 100 10:41 20.12.2019
2271 Clouds 22 1015 100 10000 3.1 100 10:21 20.12.2019
2272 Clouds 22 1014 100 10000 2.1 30 09:58 20.12.2019
2273 Clouds 23 1014 100 10000 2.1 30 09:40 20.12.2019
2274 Clouds 23 1014 100 10000 2.1 30 09:20 20.12.2019
2275 Clouds 23 1015 94 10000 2.1 20 08:44 20.12.2019
2276 Clouds 23 1015 94 10000 2.1 20 08:26 20.12.2019
2277 Clouds 23 1016 100 10000 2.1 30 07:59 20.12.2019
2278 Clouds 23 1016 100 10000 2.1 30 07:41 20.12.2019
2279 Clouds 23 1016 100 10000 2.1 30 07:19 20.12.2019
2280 Clouds 23 1016 100 10000 2.1 50 06:52 20.12.2019
2281 Clouds 23 1016 100 10000 2.1 50 06:33 20.12.2019
2282 Clouds 24 1016 94 10000 2.1 60 05:55 20.12.2019
2283 Clouds 24 1016 94 10000 2.1 60 05:36 20.12.2019
2284 Clouds 25 1016 94 10000 2.1 60 04:33 20.12.2019
2285 Clouds 25 1016 94 10000 2.1 60 03:30 20.12.2019
2286 Clouds 26 1015 88 10000 2.1 60 02:44 20.12.2019
2287 Clouds 27 1015 78 10000 2.1 110 01:52 20.12.2019
2288 Clouds 27 1015 78 10000 2.1 110 01:33 20.12.2019
2289 Clouds 26 1014 83 10000 0.65 28 00:44 20.12.2019
2290 Clouds 26 1014 83 10000 0.65 28 00:25 20.12.2019
2291 Clouds 27 1013 78 10000 2.6 180 23:54 19.12.2019
2292 Clouds 27 1013 78 10000 2.6 180 23:36 19.12.2019
2293 Clouds 27 1013 78 10000 2.6 180 23:18 19.12.2019
2294 Clouds 28 1013 74 10000 5.1 180 22:37 19.12.2019
2295 Clouds 28 1013 74 10000 5.1 180 22:19 19.12.2019
2296 Clouds 28 1013 74 10000 5.1 180 22:19 19.12.2019
2297 Clouds 29 1013 74 10000 5.1 180 21:55 19.12.2019
2298 Clouds 29 1013 74 10000 5.1 180 21:37 19.12.2019
2299 Clouds 29 1013 74 10000 5.1 180 21:18 19.12.2019
2300 Clouds 29 1014 70 10000 5.1 160 20:55 19.12.2019
2301 Clouds 29 1014 70 10000 5.1 160 20:36 19.12.2019
2302 Clouds 29 1014 70 10000 5.1 160 20:18 19.12.2019
2303 Clouds 30 1014 66 10000 4.1 160 19:56 19.12.2019
2304 Clouds 30 1014 66 10000 4.1 160 19:37 19.12.2019
2305 Clouds 29 1014 66 10000 4.1 160 19:19 19.12.2019
2306 Clouds 30 1015 66 10000 5.1 160 18:41 19.12.2019
2307 Clouds 30 1015 66 10000 5.1 160 18:22 19.12.2019
2308 Clouds 29 1016 74 10000 3.1 110 17:57 19.12.2019
2309 Clouds 29 1016 74 10000 3.1 110 17:39 19.12.2019
2310 Clouds 29 1016 74 10000 3.1 110 17:19 19.12.2019
2311 Clouds 29 1016 79 10000 3.1 90 16:57 19.12.2019
2312 Clouds 28 1016 79 10000 3.1 90 16:39 19.12.2019
2313 Clouds 28 1016 79 10000 3.1 90 16:21 19.12.2019
2314 Clouds 28 1015 83 10000 3.1 90 15:59 19.12.2019
2315 Clouds 28 1015 83 10000 3.1 90 15:39 19.12.2019
2316 Clouds 27 1015 83 10000 3.1 90 15:20 19.12.2019
2317 Clouds 25 1015 94 10000 2.6 40 14:59 19.12.2019
2318 Clouds 25 1015 94 10000 2.6 40 14:40 19.12.2019
2319 Clouds 25 1015 94 10000 2.6 40 14:19 19.12.2019
2320 Clouds 25 1015 100 10000 2.1 60 13:56 19.12.2019
2321 Clouds 24 1015 100 10000 2.1 60 13:37 19.12.2019
2322 Clouds 23 1015 100 10000 2.1 60 13:18 19.12.2019
2323 Clouds 22 1015 100 10000 2.1 60 12:54 19.12.2019
2324 Clouds 22 1015 100 10000 2.1 60 12:36 19.12.2019
2325 Clouds 22 1015 100 10000 2.1 60 12:18 19.12.2019
2326 Clouds 22 1014 100 10000 2.1 50 11:56 19.12.2019
2327 Clouds 22 1014 100 10000 2.1 50 11:38 19.12.2019
2328 Clouds 22 1014 100 10000 2.1 50 11:18 19.12.2019
2329 Clouds 22 1014 100 10000 2.1 60 10:39 19.12.2019
2330 Clouds 22 1014 100 10000 2.1 60 10:20 19.12.2019
2331 Clouds 23 1013 94 10000 2.1 60 09:59 19.12.2019
2332 Clouds 23 1013 94 10000 2.1 60 09:38 19.12.2019
2333 Clouds 23 1013 94 10000 2.1 60 09:20 19.12.2019
2334 Clouds 24 1014 94 10000 2.1 60 08:56 19.12.2019
2335 Clouds 24 1014 94 10000 2.1 60 08:37 19.12.2019
2336 Clouds 24 1014 94 10000 2.1 60 08:18 19.12.2019
2337 Clouds 23 1014 88 10000 2.1 50 07:55 19.12.2019
2338 Clouds 23 1014 88 10000 2.1 50 07:37 19.12.2019
2339 Clouds 23 1014 88 10000 2.1 50 07:19 19.12.2019
2340 Clouds 23 1014 94 10000 2.1 50 06:45 19.12.2019
2341 Clouds 23 1014 94 10000 2.1 50 06:26 19.12.2019
2342 Clouds 24 1015 94 10000 2.1 50 05:49 19.12.2019
2343 Clouds 24 1015 94 10000 2.1 50 05:28 19.12.2019
2344 Rain 24 1015 94 8000 2.1 50 04:41 19.12.2019
2345 Clouds 26 1015 83 10000 2.1 80 02:30 19.12.2019
2346 Clouds 26 1014 83 10000 2.1 120 01:43 19.12.2019
2347 Clouds 26 1014 83 10000 2.1 120 01:21 19.12.2019
2348 Clouds 26 1013 88 10000 0.86 299 00:39 19.12.2019
2349 Clouds 26 1013 88 10000 0.86 299 00:39 19.12.2019
2350 Clouds 27 1013 88 10000 0.86 299 00:19 19.12.2019
2351 Clouds 27 1013 83 10000 0.86 299 23:45 18.12.2019
2352 Clouds 27 1013 83 10000 1.7 147 23:19 18.12.2019
2353 Clouds 27 1013 83 10000 1.7 147 23:19 18.12.2019
2354 Clouds 27 1012 74 10000 4.1 130 22:58 18.12.2019
2355 Clouds 28 1012 74 10000 4.1 130 22:40 18.12.2019
2356 Clouds 28 1012 74 10000 4.1 130 22:22 18.12.2019
2357 Clouds 29 1013 66 10000 4.1 150 21:59 18.12.2019
2358 Clouds 29 1013 66 10000 4.1 150 21:41 18.12.2019
2359 Clouds 29 1013 66 10000 4.1 150 21:21 18.12.2019
2360 Clouds 29 1013 74 10000 6.2 160 20:57 18.12.2019
2361 Clouds 29 1013 74 10000 6.2 160 20:57 18.12.2019
2362 Clouds 29 1013 74 10000 6.2 160 20:39 18.12.2019
2363 Clouds 29 1013 74 10000 6.2 160 20:20 18.12.2019
2364 Clouds 29 1014 74 10000 5.1 120 19:57 18.12.2019
2365 Clouds 29 1014 74 10000 5.1 120 19:39 18.12.2019
2366 Clouds 29 1014 74 10000 5.1 120 19:19 18.12.2019
2367 Clouds 28 1015 78 10000 3.18 145 18:56 18.12.2019
2368 Clouds 28 1015 78 10000 3.18 145 18:37 18.12.2019
2369 Clouds 28 1015 78 10000 3.18 145 18:18 18.12.2019
2370 Clouds 28 1016 78 10000 5.1 130 17:55 18.12.2019
2371 Clouds 28 1016 78 10000 5.1 130 17:37 18.12.2019
2372 Clouds 28 1016 78 10000 5.1 130 17:37 18.12.2019
2373 Clouds 27 1016 78 10000 5.1 130 17:18 18.12.2019
2374 Rain 28 1016 83 8000 2.58 130 16:42 18.12.2019
2375 Rain 28 1016 83 8000 2.58 130 16:24 18.12.2019
2376 Rain 28 1016 83 8000 3.1 140 15:57 18.12.2019
2377 Rain 27 1016 83 8000 3.1 140 15:39 18.12.2019
2378 Rain 27 1016 83 8000 3.1 140 15:21 18.12.2019
2379 Clouds 26 1015 83 10000 2.6 360 14:56 18.12.2019
2380 Clouds 26 1015 83 10000 2.6 360 14:56 18.12.2019
2381 Clouds 26 1015 83 10000 2.6 360 14:38 18.12.2019
2382 Clouds 26 1015 83 10000 2.6 360 14:19 18.12.2019
2383 Clouds 25 1014 94 10000 0.8 342 13:55 18.12.2019
2384 Clouds 24 1014 94 10000 0.8 342 13:36 18.12.2019
2385 Clouds 24 1014 94 10000 0.84 332 13:18 18.12.2019
2386 Clouds 24 1014 94 10000 0.84 332 13:18 18.12.2019
2387 Clouds 24 1014 94 10000 0.84 332 13:18 18.12.2019
2388 Clouds 23 1013 94 10000 2.1 70 12:40 18.12.2019
2389 Clouds 23 1013 94 10000 2.1 70 12:21 18.12.2019
2390 Thunderstorm 23 1013 94 8000 2.1 90 11:57 18.12.2019
2391 Thunderstorm 23 1013 94 8000 2.1 90 11:39 18.12.2019
2392 Thunderstorm 23 1013 94 8000 2.1 90 11:20 18.12.2019
2393 Thunderstorm 23 1012 94 8000 0.91 345 10:58 18.12.2019
2394 Thunderstorm 23 1012 94 8000 0.91 345 10:39 18.12.2019
2395 Thunderstorm 23 1012 94 8000 0.91 345 10:39 18.12.2019
2396 Thunderstorm 23 1012 94 8000 0.91 345 10:20 18.12.2019
2397 Clouds 22 1012 100 8000 0.91 345 09:57 18.12.2019
2398 Clouds 22 1012 100 8000 0.91 345 09:20 18.12.2019
2399 Clouds 22 1013 100 0 2.1 60 08:43 18.12.2019
2400 Clouds 22 1013 100 0 2.1 60 08:24 18.12.2019
2401 Clouds 23 1013 94 10000 2.1 60 07:57 18.12.2019
2402 Clouds 23 1013 94 10000 2.1 60 07:39 18.12.2019
2403 Clouds 23 1013 94 10000 2.1 60 07:20 18.12.2019
2404 Clouds 23 1013 94 10000 3.1 60 06:52 18.12.2019
2405 Clouds 23 1013 94 10000 3.1 60 06:24 18.12.2019
2406 Rain 23 1014 90 0 0.89 338 05:35 18.12.2019
2407 Rain 23 1014 90 0 0.89 338 05:35 18.12.2019
2408 Clouds 24 1014 94 0 2.1 50 03:49 18.12.2019
2409 Clouds 24 1013 88 10000 2.1 60 02:46 18.12.2019
2410 Clouds 24 1013 88 10000 2.1 60 02:27 18.12.2019
2411 Clouds 25 1013 88 10000 2.1 50 01:44 18.12.2019
2412 Clouds 25 1013 88 10000 2.1 50 01:25 18.12.2019
2413 Rain 24 1013 94 8000 0.86 56 00:42 18.12.2019
2414 Rain 24 1013 94 8000 0.86 56 00:24 18.12.2019
2415 Clouds 26 1013 78 10000 5.1 150 23:59 17.12.2019
2416 Clouds 26 1013 78 10000 5.1 150 23:40 17.12.2019
2417 Clouds 27 1013 78 10000 5.1 150 23:21 17.12.2019
2418 Clouds 29 1012 70 10000 4.1 120 22:57 17.12.2019
2419 Clouds 29 1012 70 10000 4.1 120 22:57 17.12.2019
2420 Clouds 29 1012 70 10000 4.1 120 22:39 17.12.2019
2421 Clouds 29 1012 70 10000 4.1 120 22:19 17.12.2019
2422 Clouds 30 1012 66 10000 5.1 160 21:57 17.12.2019
2423 Clouds 30 1012 66 10000 5.1 160 21:38 17.12.2019
2424 Clouds 30 1012 66 10000 5.1 160 21:38 17.12.2019
2425 Clouds 30 1012 66 10000 5.1 160 21:20 17.12.2019
2426 Clouds 30 1012 70 10000 5.1 120 20:58 17.12.2019
2427 Clouds 30 1012 70 10000 5.1 120 20:39 17.12.2019
2428 Clouds 29 1012 66 10000 4.6 110 20:19 17.12.2019
2429 Clouds 29 1013 79 10000 2.6 60 19:56 17.12.2019
2430 Clouds 29 1013 79 10000 2.6 60 19:38 17.12.2019
2431 Clouds 29 1013 79 10000 2.6 60 19:19 17.12.2019
2432 Clouds 29 1014 83 10000 4.1 90 18:56 17.12.2019
2433 Clouds 29 1014 83 10000 4.1 90 18:37 17.12.2019
2434 Clouds 29 1014 83 10000 4.1 90 18:19 17.12.2019
2435 Clouds 29 1015 70 10000 4.1 60 17:42 17.12.2019
2436 Clouds 29 1015 70 10000 4.1 60 17:21 17.12.2019
2437 Clouds 29 1017 74 10000 3.6 60 16:57 17.12.2019
2438 Clouds 29 1017 74 10000 3.6 60 16:38 17.12.2019
2439 Clouds 28 1017 74 10000 3.6 60 16:19 17.12.2019
2440 Clouds 28 1016 74 10000 2.6 50 15:59 17.12.2019
2441 Clouds 28 1016 74 10000 2.6 50 15:38 17.12.2019
2442 Clouds 28 1016 74 10000 2.6 50 15:19 17.12.2019
2443 Clouds 26 1016 83 10000 4.1 360 14:56 17.12.2019
2444 Clouds 26 1016 83 10000 4.1 360 14:38 17.12.2019
2445 Clouds 26 1016 83 10000 4.1 360 14:18 17.12.2019
2446 Clouds 24 1015 94 10000 2.6 360 13:56 17.12.2019
2447 Clouds 24 1015 94 10000 2.6 360 13:38 17.12.2019
2448 Clouds 24 1015 94 10000 2.6 360 13:19 17.12.2019
2449 Clouds 23 1015 94 10000 2.1 360 12:56 17.12.2019
2450 Clouds 23 1015 94 10000 2.1 360 12:37 17.12.2019
2451 Clouds 23 1015 94 10000 2.1 360 12:18 17.12.2019
2452 Clouds 23 1014 94 10000 2.1 20 11:55 17.12.2019
2453 Clouds 23 1014 94 10000 2.1 20 11:36 17.12.2019
2454 Clouds 23 1014 94 10000 2.1 20 11:18 17.12.2019
2455 Clouds 23 1014 94 10000 2.1 20 11:18 17.12.2019
2456 Clouds 23 1014 88 10000 2.1 20 10:55 17.12.2019
2457 Clouds 23 1014 88 10000 2.1 20 10:36 17.12.2019
2458 Clouds 23 1014 88 10000 2.1 20 10:18 17.12.2019
2459 Clouds 23 1014 88 10000 2.1 360 09:42 17.12.2019
2460 Clouds 23 1014 88 10000 2.1 360 09:21 17.12.2019
2461 Clouds 23 1014 88 10000 2.1 360 08:58 17.12.2019
2462 Clouds 23 1014 88 10000 2.1 360 08:39 17.12.2019
2463 Clouds 23 1014 88 10000 2.1 360 08:21 17.12.2019
2464 Clouds 24 1016 88 10000 1.5 0 07:56 17.12.2019
2465 Clouds 24 1016 88 10000 1.5 0 07:38 17.12.2019
2466 Clouds 24 1016 88 10000 1.5 0 07:18 17.12.2019
2467 Clouds 24 1016 88 10000 1.5 0 06:35 17.12.2019
2468 Clouds 24 1016 88 10000 2.1 30 05:57 17.12.2019
2469 Clouds 24 1016 88 10000 2.1 30 05:38 17.12.2019
2470 Clouds 24 1016 88 10000 2.1 350 04:45 17.12.2019
2471 Clouds 24 1016 88 10000 2.1 20 02:47 17.12.2019
2472 Clouds 25 1015 83 10000 2.6 30 01:56 17.12.2019
2473 Clouds 25 1015 83 10000 2.6 30 01:20 17.12.2019
2474 Clouds 26 1015 83 10000 3.6 50 00:38 17.12.2019
2475 Clouds 26 1015 83 10000 3.6 50 00:20 17.12.2019
2476 Clouds 26 1016 83 10000 5.1 360 23:42 16.12.2019
2477 Clouds 26 1016 83 10000 5.1 360 23:42 16.12.2019
2478 Clouds 27 1016 83 10000 5.1 360 23:19 16.12.2019
2479 Clouds 27 1015 78 10000 5.1 360 22:58 16.12.2019
2480 Clouds 27 1015 78 10000 5.1 360 22:38 16.12.2019
2481 Clouds 28 1015 78 10000 5.1 360 22:19 16.12.2019
2482 Clouds 28 1015 70 10000 5.1 360 21:56 16.12.2019
2483 Clouds 28 1015 70 10000 5.1 360 21:38 16.12.2019
2484 Clouds 28 1015 70 10000 5.1 360 21:20 16.12.2019
2485 Clouds 28 1016 70 10000 3.1 10 20:57 16.12.2019
2486 Clouds 28 1016 70 10000 3.1 10 20:38 16.12.2019
2487 Clouds 28 1016 70 10000 3.1 10 20:38 16.12.2019
2488 Clouds 28 1016 70 10000 3.1 10 20:19 16.12.2019
2489 Clouds 29 1016 66 10000 5.1 10 19:56 16.12.2019
2490 Clouds 30 1016 66 10000 5.1 10 19:37 16.12.2019
2491 Clouds 31 1016 66 10000 5.1 10 19:19 16.12.2019
2492 Clouds 30 1017 62 10000 5.1 70 18:56 16.12.2019
2493 Clouds 30 1017 62 10000 5.1 70 18:56 16.12.2019
2494 Clouds 30 1017 62 10000 5.1 70 18:38 16.12.2019
2495 Clouds 30 1017 62 10000 5.1 70 18:19 16.12.2019
2496 Clouds 30 1018 66 10000 5.1 360 17:57 16.12.2019
2497 Clouds 29 1018 66 10000 5.1 360 17:38 16.12.2019
2498 Clouds 29 1018 66 10000 5.1 360 17:20 16.12.2019
2499 Clouds 29 1019 66 10000 4.1 70 16:56 16.12.2019
2500 Clouds 29 1019 66 10000 4.1 70 16:38 16.12.2019
2501 Clouds 27 1019 74 10000 4.1 350 16:19 16.12.2019
2502 Clouds 28 1019 74 10000 4.1 350 15:57 16.12.2019
2503 Clouds 27 1019 74 10000 4.1 350 15:38 16.12.2019
2504 Clouds 27 1019 74 10000 4.1 350 15:20 16.12.2019
2505 Clouds 25 1018 83 10000 2.1 360 14:55 16.12.2019
2506 Clouds 26 1018 83 10000 2.1 360 14:37 16.12.2019
2507 Clouds 26 1018 83 10000 2.1 360 14:37 16.12.2019
2508 Clouds 26 1018 83 10000 2.1 360 14:18 16.12.2019
2509 Clouds 24 1018 94 10000 2.99 347 13:56 16.12.2019
2510 Clouds 24 1018 94 10000 2.99 347 13:37 16.12.2019
2511 Clouds 24 1018 94 10000 2.72 345 13:19 16.12.2019
2512 Clouds 23 1016 100 10000 2.1 10 12:56 16.12.2019
2513 Clouds 23 1016 100 10000 2.1 10 12:38 16.12.2019
2514 Clouds 23 1016 100 10000 2.1 10 12:18 16.12.2019
2515 Clouds 23 1016 100 10000 2.1 350 11:57 16.12.2019
2516 Clouds 23 1016 100 10000 2.1 350 11:38 16.12.2019
2517 Clouds 23 1016 100 10000 2.1 350 11:19 16.12.2019
2518 Clouds 23 1016 100 10000 2.6 10 10:40 16.12.2019
2519 Clouds 23 1016 100 10000 2.6 10 10:22 16.12.2019
2520 Clouds 24 1016 93 10000 2.6 10 09:59 16.12.2019
2521 Clouds 24 1016 94 10000 2.6 10 09:41 16.12.2019
2522 Clouds 24 1016 93 10000 2.6 10 09:23 16.12.2019
2523 Clouds 24 1016 94 10000 2.6 20 08:40 16.12.2019
2524 Clouds 24 1016 94 10000 2.6 20 08:40 16.12.2019
2525 Clouds 24 1016 91 10000 2.6 20 08:20 16.12.2019
2526 Clouds 24 1017 100 10000 2.1 40 07:53 16.12.2019
2527 Clouds 24 1017 100 10000 2.1 40 07:31 16.12.2019
2528 Clouds 24 1017 100 10000 2.1 40 07:31 16.12.2019
2529 Clouds 24 1017 100 10000 2.1 10 06:57 16.12.2019
2530 Clouds 24 1017 100 10000 2.1 10 06:39 16.12.2019
2531 Clouds 24 1017 100 10000 2.1 10 06:18 16.12.2019
2532 Thunderstorm 23 1017 100 10000 2.1 20 05:41 16.12.2019
2533 Thunderstorm 23 1017 100 10000 2.1 20 05:22 16.12.2019
2534 Thunderstorm 24 1017 94 10000 2.1 30 03:28 16.12.2019
2535 Thunderstorm 24 1016 100 8000 3.1 40 01:46 16.12.2019
2536 Thunderstorm 24 1016 100 8000 3.1 40 01:21 16.12.2019
2537 Rain 24 1016 94 8000 2.28 339 00:39 16.12.2019
2538 Rain 24 1016 94 8000 2.28 339 00:19 16.12.2019
2539 Rain 25 1016 94 8000 2.1 60 23:44 15.12.2019
2540 Rain 25 1016 94 8000 2.1 60 23:25 15.12.2019
2541 Rain 26 1015 88 8000 2.1 270 22:57 15.12.2019
2542 Rain 26 1015 88 8000 2.1 270 22:38 15.12.2019
2543 Rain 26 1015 88 8000 2.1 270 22:38 15.12.2019
2544 Rain 26 1015 88 8000 2.1 270 22:19 15.12.2019
2545 Rain 26 1015 94 8000 1.02 14 21:58 15.12.2019
2546 Rain 26 1015 94 8000 1.02 14 21:39 15.12.2019
2547 Rain 26 1015 94 8000 1.02 14 21:20 15.12.2019
2548 Rain 26 1015 94 8000 1.02 14 20:58 15.12.2019
2549 Rain 26 1015 94 8000 1.02 14 20:40 15.12.2019
2550 Rain 26 1015 94 8000 1.3 322 20:21 15.12.2019
2551 Rain 26 1015 94 8000 2.06 293 20:21 15.12.2019
2552 Rain 26 1015 94 8000 2.06 293 20:21 15.12.2019
2553 Rain 26 1015 94 8000 2.06 293 19:58 15.12.2019
2554 Rain 25 1015 94 8000 2.06 293 19:40 15.12.2019
2555 Rain 25 1015 94 8000 2.06 293 19:20 15.12.2019
2556 Rain 25 1015 94 8000 2.06 293 19:20 15.12.2019
2557 Rain 25 1016 94 8000 3.1 90 18:58 15.12.2019
2558 Rain 25 1016 94 8000 3.1 90 18:39 15.12.2019
2559 Rain 25 1016 94 8000 3.1 90 18:19 15.12.2019
2560 Rain 24 1017 94 6000 3.1 180 17:56 15.12.2019
2561 Rain 24 1017 94 6000 3.1 180 17:38 15.12.2019
2562 Rain 24 1017 94 6000 3.1 180 17:19 15.12.2019
2563 Rain 24 1017 94 6000 3.1 160 16:57 15.12.2019
2564 Rain 24 1017 94 6000 3.1 160 16:39 15.12.2019
2565 Rain 24 1017 94 6000 3.1 160 16:20 15.12.2019
2566 Rain 24 1017 94 6000 2.01 311 15:55 15.12.2019
2567 Rain 24 1017 94 6000 2.71 297 15:37 15.12.2019
2568 Rain 24 1017 94 6000 2.01 311 15:18 15.12.2019
2569 Rain 24 1016 94 7000 2.71 297 14:55 15.12.2019
2570 Rain 24 1016 94 7000 2.71 297 14:36 15.12.2019
2571 Rain 24 1016 94 7000 0.87 339 14:18 15.12.2019
2572 Rain 24 1016 100 7000 2.1 40 13:55 15.12.2019
2573 Rain 24 1016 100 7000 2.1 40 13:37 15.12.2019
2574 Rain 24 1016 100 7000 2.1 40 13:18 15.12.2019
2575 Rain 23 1015 100 8000 1.11 328 12:56 15.12.2019
2576 Rain 23 1015 100 8000 1.11 328 12:38 15.12.2019
2577 Rain 23 1015 100 8000 1.11 328 12:20 15.12.2019
2578 Thunderstorm 23 1014 100 10000 1.11 328 11:39 15.12.2019
2579 Thunderstorm 23 1014 100 10000 2.07 335 11:20 15.12.2019
2580 Thunderstorm 23 1014 100 8000 2.07 335 10:58 15.12.2019
2581 Thunderstorm 23 1014 100 8000 2.07 335 10:40 15.12.2019
2582 Thunderstorm 23 1014 100 8000 2.07 335 10:20 15.12.2019
2583 Thunderstorm 23 1014 100 8000 2.6 60 09:59 15.12.2019
2584 Thunderstorm 23 1014 100 8000 2.6 60 09:38 15.12.2019
2585 Thunderstorm 23 1014 100 8000 2.6 60 09:20 15.12.2019
2586 Rain 24 1014 100 8000 2.07 335 08:55 15.12.2019
2587 Rain 24 1014 100 8000 2.07 335 08:37 15.12.2019
2588 Rain 24 1014 100 8000 2.07 339 08:19 15.12.2019
2589 Rain 24 1015 94 8000 2.1 330 07:53 15.12.2019
2590 Rain 24 1015 94 8000 2.1 330 07:31 15.12.2019
2591 Rain 24 1015 94 10000 2.1 40 06:30 15.12.2019
2592 Rain 24 1015 94 10000 2.1 60 05:49 15.12.2019
2593 Rain 24 1015 94 10000 2.1 60 05:22 15.12.2019
2594 Thunderstorm 24 1015 100 8000 2.1 70 04:22 15.12.2019
2595 Rain 25 1014 94 10000 2.1 40 02:55 15.12.2019
2596 Rain 25 1014 94 10000 2.1 40 02:32 15.12.2019
2597 Clouds 26 1013 88 10000 2.6 60 01:41 15.12.2019
2598 Clouds 26 1013 88 10000 2.6 60 01:19 15.12.2019
2599 Rain 26 1013 94 10000 1.39 335 00:51 15.12.2019
2600 Rain 26 1013 94 10000 1.39 335 00:32 15.12.2019
2601 Rain 26 1012 88 10000 1.39 335 23:54 14.12.2019
2602 Clouds 26 1012 88 10000 1.39 335 23:36 14.12.2019
2603 Clouds 27 1012 88 10000 1.6 122 23:18 14.12.2019
2604 Clouds 27 1012 83 10000 2.6 90 22:42 14.12.2019
2605 Clouds 27 1012 83 10000 2.6 90 22:42 14.12.2019
2606 Clouds 27 1012 83 10000 2.6 90 22:23 14.12.2019
2607 Clouds 28 1012 78 10000 3.1 110 21:58 14.12.2019
2608 Clouds 29 1012 78 10000 3.1 110 21:40 14.12.2019
2609 Clouds 29 1012 78 10000 3.1 110 21:20 14.12.2019
2610 Clouds 29 1012 79 10000 4.1 130 20:59 14.12.2019
2611 Clouds 29 1012 79 10000 4.1 130 20:41 14.12.2019
2612 Clouds 29 1012 79 10000 4.1 130 20:20 14.12.2019
2613 Clouds 29 1012 79 10000 4.1 160 19:59 14.12.2019
2614 Clouds 29 1012 79 10000 4.1 160 19:39 14.12.2019
2615 Clouds 29 1012 79 10000 4.1 160 19:39 14.12.2019
2616 Clouds 29 1012 79 10000 4.1 160 19:20 14.12.2019
2617 Rain 29 1013 83 8000 3.1 160 18:56 14.12.2019
2618 Rain 29 1013 83 8000 3.1 160 18:38 14.12.2019
2619 Rain 29 1013 83 8000 3.1 160 18:19 14.12.2019
2620 Clouds 29 1014 79 10000 3.1 90 17:44 14.12.2019
2621 Clouds 28 1014 79 10000 3.1 90 17:24 14.12.2019
2622 Clouds 29 1014 74 10000 2.6 90 16:59 14.12.2019
2623 Clouds 29 1014 74 10000 2.6 90 16:40 14.12.2019
2624 Clouds 29 1014 74 10000 2.6 90 16:19 14.12.2019
2625 Clouds 28 1014 83 10000 2.01 51 15:43 14.12.2019
2626 Clouds 27 1014 83 10000 2.01 51 15:25 14.12.2019
2627 Clouds 27 1014 83 10000 2.01 51 15:25 14.12.2019
2628 Clouds 25 1014 94 10000 2.01 51 14:59 14.12.2019
2629 Clouds 25 1014 94 10000 2.01 51 14:39 14.12.2019
2630 Clouds 24 1014 94 10000 2.19 339 14:20 14.12.2019
2631 Clouds 23 1013 100 10000 2.1 40 13:58 14.12.2019
2632 Clouds 23 1013 100 10000 2.1 40 13:39 14.12.2019
2633 Clouds 22 1013 100 10000 2.1 40 13:19 14.12.2019
2634 Clouds 22 1013 100 10000 2.1 40 13:19 14.12.2019
2635 Clouds 22 1013 100 10000 2.1 40 12:56 14.12.2019
2636 Clouds 22 1013 100 10000 2.1 40 12:37 14.12.2019
2637 Clouds 22 1013 100 10000 2.1 40 12:19 14.12.2019
2638 Clouds 22 1013 100 10000 2.1 20 11:56 14.12.2019
2639 Clouds 22 1013 100 10000 2.1 20 11:37 14.12.2019
2640 Clouds 22 1013 100 10000 2.1 20 11:18 14.12.2019
2641 Clouds 22 1012 100 10000 2.1 10 10:55 14.12.2019
2642 Clouds 22 1012 100 10000 2.1 10 10:55 14.12.2019
2643 Clouds 22 1012 100 10000 2.1 10 10:37 14.12.2019
2644 Clouds 22 1012 100 10000 2.1 10 10:19 14.12.2019
2645 Clouds 23 1012 94 10000 2.1 360 09:41 14.12.2019
2646 Clouds 23 1012 94 10000 2.1 360 09:21 14.12.2019
2647 Clouds 23 1013 100 10000 3.1 350 08:45 14.12.2019
2648 Clouds 23 1013 100 10000 3.1 350 08:21 14.12.2019
2649 Clouds 23 1013 100 10000 2.1 30 07:58 14.12.2019
2650 Clouds 23 1013 100 10000 2.1 30 07:38 14.12.2019
2651 Clouds 23 1013 100 10000 2.1 30 07:19 14.12.2019
2652 Clouds 24 1014 94 10000 2.1 20 06:41 14.12.2019
2653 Clouds 24 1014 94 10000 2.1 20 06:22 14.12.2019
2654 Clouds 24 1014 94 10000 2.1 30 05:25 14.12.2019
2655 Clouds 25 1013 83 10000 2.1 30 02:51 14.12.2019
2656 Clouds 25 1013 83 10000 2.1 30 02:23 14.12.2019
2657 Clouds 25 1013 78 10000 2.1 70 01:43 14.12.2019
2658 Clouds 25 1013 94 10000 2.52 348 00:55 14.12.2019
2659 Clouds 25 1013 94 10000 2.52 348 00:37 14.12.2019
2660 Clouds 25 1013 94 10000 2.52 348 00:18 14.12.2019
2661 Rain 26 1013 94 8000 2.52 348 23:41 13.12.2019
2662 Rain 26 1013 94 8000 2.98 38 23:19 13.12.2019
2663 Rain 24 1012 90 0 2.98 38 22:55 13.12.2019
2664 Rain 24 1012 90 0 2.98 38 22:37 13.12.2019
2665 Clouds 26 1011 78 10000 2.6 90 22:18 13.12.2019
2666 Clouds 27 1011 78 10000 2.6 90 21:42 13.12.2019
2667 Clouds 28 1011 78 10000 2.6 90 21:21 13.12.2019
2668 Rain 29 1012 70 8000 4.1 90 20:57 13.12.2019
2669 Rain 29 1012 70 8000 4.1 90 20:39 13.12.2019
2670 Rain 29 1013 66 8000 7.7 120 20:19 13.12.2019
2671 Rain 29 1013 66 8000 7.7 120 19:56 13.12.2019
2672 Rain 29 1013 66 8000 7.7 120 19:56 13.12.2019
2673 Rain 29 1013 66 8000 7.7 120 19:37 13.12.2019
2674 Rain 29 1013 66 8000 7.7 120 19:18 13.12.2019
2675 Clouds 28 1014 66 10000 6.2 360 18:42 13.12.2019
2676 Clouds 29 1014 66 10000 6.2 360 18:19 13.12.2019
2677 Clouds 30 1015 66 10000 6.7 30 17:58 13.12.2019
2678 Clouds 29 1015 66 10000 6.7 30 17:39 13.12.2019
2679 Clouds 29 1015 66 10000 6.7 30 17:18 13.12.2019
2680 Clouds 29 1015 66 10000 6.7 30 17:18 13.12.2019
2681 Clouds 29 1015 74 10000 5.1 360 16:55 13.12.2019
2682 Clouds 29 1015 74 10000 5.1 360 16:37 13.12.2019
2683 Clouds 29 1015 74 10000 5.1 360 16:18 13.12.2019
2684 Clouds 28 1017 78 10000 5.1 360 15:41 13.12.2019
2685 Clouds 27 1017 78 10000 5.1 360 15:21 13.12.2019
2686 Clouds 26 1017 83 10000 4.1 360 14:56 13.12.2019
2687 Clouds 25 1017 83 10000 4.1 360 14:36 13.12.2019
2688 Clouds 25 1017 83 10000 4.1 360 14:18 13.12.2019
2689 Clouds 23 1015 88 10000 2.6 360 13:43 13.12.2019
2690 Clouds 23 1015 88 10000 2.6 360 13:23 13.12.2019
2691 Clouds 22 1014 100 10000 2.1 30 12:54 13.12.2019
2692 Clouds 22 1014 100 10000 2.1 30 12:36 13.12.2019
2693 Clouds 22 1014 100 10000 2.1 30 12:18 13.12.2019
2694 Clouds 22 1014 100 10000 2.1 30 12:18 13.12.2019
2695 Clouds 22 1014 100 10000 2.1 10 11:42 13.12.2019
2696 Clouds 22 1014 100 10000 2.1 10 11:24 13.12.2019
2697 Clouds 22 1013 100 10000 2.1 10 10:56 13.12.2019
2698 Clouds 22 1013 100 10000 2.1 10 10:38 13.12.2019
2699 Clouds 22 1013 100 10000 2.1 10 10:19 13.12.2019
2700 Clouds 22 1013 94 10000 2.1 10 09:41 13.12.2019
2701 Clouds 22 1013 94 10000 2.1 10 09:20 13.12.2019
2702 Clouds 22 1013 94 10000 2.1 330 08:44 13.12.2019
2703 Clouds 22 1013 94 10000 2.1 330 08:26 13.12.2019
2704 Clouds 22 1014 100 10000 2.1 360 07:48 13.12.2019
2705 Clouds 22 1014 100 10000 2.1 360 07:24 13.12.2019
2706 Clouds 23 1014 100 10000 2.1 40 06:55 13.12.2019
2707 Clouds 23 1014 100 10000 2.1 40 06:29 13.12.2019
2708 Clouds 23 1014 94 10000 3.1 20 05:51 13.12.2019
2709 Clouds 23 1014 94 10000 3.1 20 05:30 13.12.2019
2710 Clouds 23 1014 94 10000 3.1 20 04:48 13.12.2019
2711 Clouds 23 1014 94 10000 3.1 20 03:49 13.12.2019
2712 Clouds 25 1014 94 10000 3.1 360 02:35 13.12.2019
2713 Clouds 25 1014 88 10000 3.1 20 01:50 13.12.2019
2714 Clouds 25 1014 88 10000 3.1 20 01:21 13.12.2019
2715 Clouds 26 1014 88 10000 4.22 349 00:46 13.12.2019
2716 Clouds 26 1014 88 10000 4.22 349 00:24 13.12.2019
2717 Clouds 27 1013 78 10000 3.1 60 23:41 12.12.2019
2718 Clouds 27 1013 78 10000 3.1 60 23:22 12.12.2019
2719 Clouds 27 1013 83 10000 4.54 5 22:56 12.12.2019
2720 Clouds 27 1013 83 10000 4.54 5 22:38 12.12.2019
2721 Clouds 27 1013 83 10000 4.54 5 22:19 12.12.2019
2722 Clouds 27 1013 94 10000 2.6 360 21:55 12.12.2019
2723 Clouds 27 1013 94 10000 2.6 360 21:55 12.12.2019
2724 Clouds 27 1013 94 10000 2.6 360 21:55 12.12.2019
2725 Clouds 27 1013 94 10000 2.6 360 21:37 12.12.2019
2726 Clouds 27 1013 94 10000 2.6 360 21:19 12.12.2019
2727 Clouds 28 1013 74 10000 4.1 30 20:56 12.12.2019
2728 Clouds 28 1013 74 10000 4.1 30 20:38 12.12.2019
2729 Clouds 28 1013 74 10000 4.1 30 20:20 12.12.2019
2730 Clouds 28 1014 78 10000 5.1 30 19:43 12.12.2019
2731 Clouds 28 1014 78 10000 5.1 30 19:43 12.12.2019
2732 Clouds 27 1014 78 10000 5.1 30 19:23 12.12.2019
2733 Clouds 27 1014 74 10000 6.2 30 18:58 12.12.2019
2734 Clouds 28 1014 74 10000 6.2 30 18:40 12.12.2019
2735 Clouds 28 1014 74 10000 6.2 30 18:21 12.12.2019
2736 Clouds 28 1014 74 10000 6.2 30 18:21 12.12.2019
2737 Clouds 28 1016 83 10000 5.1 360 17:59 12.12.2019
2738 Clouds 28 1016 83 10000 5.1 360 17:40 12.12.2019
2739 Clouds 28 1016 83 10000 5.1 360 17:21 12.12.2019
2740 Clouds 28 1017 70 10000 6.2 360 16:58 12.12.2019
2741 Clouds 28 1017 70 10000 6.2 360 16:40 12.12.2019
2742 Clouds 28 1017 70 10000 6.2 360 16:21 12.12.2019
2743 Clouds 28 1017 70 10000 6.2 360 16:21 12.12.2019
2744 Clouds 28 1017 70 10000 5.1 360 15:57 12.12.2019
2745 Clouds 28 1017 70 10000 5.1 360 15:39 12.12.2019
2746 Clouds 27 1017 70 10000 5.1 360 15:18 12.12.2019
2747 Clouds 26 1017 78 10000 3.6 360 14:38 12.12.2019
2748 Clouds 26 1017 78 10000 3.6 360 14:38 12.12.2019
2749 Clouds 26 1017 78 10000 3.6 360 14:20 12.12.2019
2750 Clouds 24 1016 88 10000 2.6 360 13:58 12.12.2019
2751 Clouds 24 1016 88 10000 2.6 360 13:40 12.12.2019
2752 Clouds 24 1016 88 10000 2.6 360 13:22 12.12.2019
2753 Clouds 24 1015 94 10000 2.6 350 12:59 12.12.2019
2754 Clouds 23 1015 94 10000 2.6 350 12:40 12.12.2019
2755 Clouds 24 1015 94 10000 2.6 350 12:22 12.12.2019
2756 Clouds 24 1015 88 10000 2.1 350 11:57 12.12.2019
2757 Clouds 24 1015 88 10000 2.1 350 11:38 12.12.2019
2758 Clouds 24 1015 88 10000 2.1 350 11:20 12.12.2019
2759 Clouds 24 1014 88 10000 2.1 350 10:56 12.12.2019
2760 Clouds 24 1014 88 10000 2.1 350 10:38 12.12.2019
2761 Clouds 24 1014 88 10000 2.1 350 10:20 12.12.2019
2762 Clouds 24 1014 94 10000 2.6 350 09:55 12.12.2019
2763 Clouds 23 1014 94 10000 2.6 350 09:37 12.12.2019
2764 Clouds 23 1014 94 10000 2.6 350 09:18 12.12.2019
2765 Clouds 23 1015 94 10000 2.1 360 08:43 12.12.2019
2766 Clouds 23 1015 94 10000 2.1 360 08:43 12.12.2019
2767 Clouds 23 1015 94 10000 2.1 360 08:25 12.12.2019
2768 Clouds 23 1015 94 10000 2.1 360 08:25 12.12.2019
2769 Clouds 24 1015 94 10000 2.6 360 07:49 12.12.2019
2770 Clouds 24 1015 94 10000 2.6 360 07:49 12.12.2019
2771 Clouds 24 1016 88 10000 2.6 350 07:27 12.12.2019
2772 Clouds 24 1016 88 10000 2.6 350 06:55 12.12.2019
2773 Clouds 24 1016 88 10000 2.6 350 06:35 12.12.2019
2774 Clouds 24 1016 88 10000 2.1 360 05:42 12.12.2019
2775 Clouds 24 1017 88 10000 2.6 10 04:54 12.12.2019
2776 Clouds 24 1017 88 10000 2.1 10 03:50 12.12.2019
2777 Clouds 25 1016 83 10000 1.5 360 02:40 12.12.2019
2778 Clouds 25 1016 83 10000 1.5 360 02:21 12.12.2019
2779 Clouds 25 1016 83 10000 3.1 30 01:46 12.12.2019
2780 Clouds 26 1016 83 10000 3.1 30 01:28 12.12.2019
2781 Clouds 26 1015 83 10000 4.23 353 00:47 12.12.2019
2782 Clouds 26 1015 83 10000 4.23 353 00:20 12.12.2019
2783 Clouds 27 1015 83 10000 4.1 360 23:45 11.12.2019
2784 Clouds 27 1015 83 10000 4.1 360 23:21 11.12.2019
2785 Clouds 28 1016 78 10000 4.1 360 22:58 11.12.2019
2786 Clouds 28 1016 78 10000 4.1 360 22:39 11.12.2019
2787 Clouds 28 1016 78 10000 4.1 360 22:20 11.12.2019
2788 Rain 28 1016 83 8000 5.1 360 21:59 11.12.2019
2789 -273 0 0 0 0 0 21:39 11.12.2019
2790 Rain 28 1016 83 8000 5.1 360 21:20 11.12.2019
2791 Rain 27 1016 83 8000 2.1 30 20:56 11.12.2019
2792 Rain 27 1016 83 8000 2.1 30 20:56 11.12.2019
2793 Rain 27 1016 83 8000 2.1 30 20:38 11.12.2019
2794 Rain 27 1016 83 8000 2.1 30 20:19 11.12.2019
2795 Clouds 29 1017 62 10000 3.1 360 19:58 11.12.2019
2796 Clouds 29 1017 62 10000 3.1 360 19:39 11.12.2019
2797 Clouds 29 1017 62 10000 3.1 360 19:19 11.12.2019
2798 Clouds 28 1018 70 10000 5.1 20 18:42 11.12.2019
2799 Clouds 28 1018 70 10000 5.1 20 18:22 11.12.2019
2800 Clouds 28 1018 66 10000 4.1 360 17:57 11.12.2019
2801 Clouds 28 1018 66 10000 4.1 360 17:39 11.12.2019
2802 Clouds 28 1018 66 10000 4.1 360 17:19 11.12.2019
2803 Clouds 28 1019 66 10000 5.1 360 16:58 11.12.2019
2804 Clouds 28 1019 66 10000 5.1 360 16:40 11.12.2019
2805 Clouds 28 1019 66 10000 5.1 360 16:22 11.12.2019
2806 Clouds 27 1019 74 10000 4.1 350 15:59 11.12.2019
2807 Clouds 27 1019 74 10000 4.1 350 15:41 11.12.2019
2808 Clouds 27 1019 74 10000 4.1 350 15:23 11.12.2019
2809 Clouds 26 1018 78 10000 4.1 360 14:56 11.12.2019
2810 Clouds 26 1018 78 10000 4.1 360 14:38 11.12.2019
2811 Clouds 25 1018 78 10000 4.1 360 14:20 11.12.2019
2812 Clouds 24 1018 88 10000 4.09 349 13:55 11.12.2019
2813 Clouds 24 1018 88 10000 4.09 349 13:37 11.12.2019
2814 Clouds 24 1018 88 10000 4.06 350 13:18 11.12.2019
2815 Clouds 24 1017 100 10000 2.6 360 12:55 11.12.2019
2816 Clouds 24 1017 100 10000 2.6 360 12:37 11.12.2019
2817 Clouds 24 1017 100 10000 2.6 360 12:18 11.12.2019
2818 Clouds 24 1017 100 10000 2.6 360 12:18 11.12.2019
2819 Clouds 24 1017 100 10000 2.1 360 11:57 11.12.2019
2820 Rain 26 1015 83 0 1.34 19 11:38 11.12.2019
2821 Clouds 24 1016 100 10000 2.1 10 11:18 11.12.2019
2822 Clouds 24 1016 100 10000 2.1 10 10:44 11.12.2019
2823 Clouds 24 1016 100 10000 2.1 10 10:44 11.12.2019
2824 Clouds 24 1016 100 10000 2.1 10 10:26 11.12.2019
2825 Clouds 24 1016 94 10000 2.1 10 09:59 11.12.2019
2826 Clouds 24 1016 94 10000 2.1 10 09:38 11.12.2019
2827 Clouds 24 1016 94 10000 2.1 10 09:20 11.12.2019
2828 Clouds 24 1016 88 10000 2.1 10 08:57 11.12.2019
2829 Clouds 24 1016 88 10000 2.1 10 08:38 11.12.2019
2830 Clouds 24 1016 88 10000 2.1 10 08:19 11.12.2019
2831 Clouds 24 1016 94 10000 2.1 20 07:45 11.12.2019
2832 Clouds 24 1016 94 10000 2.1 20 07:26 11.12.2019
2833 Clouds 24 1017 94 10000 2.1 10 06:57 11.12.2019
2834 Clouds 24 1017 94 10000 2.1 10 06:37 11.12.2019
2835 Clouds 24 1017 94 10000 2.1 10 06:18 11.12.2019
2836 Clouds 24 1017 94 10000 2.1 10 05:37 11.12.2019
2837 Clouds 24 1018 88 10000 2.1 10 04:57 11.12.2019
2838 Clouds 24 1018 88 10000 2.1 40 03:49 11.12.2019
2839 Clouds 24 1017 94 10000 2.1 40 02:40 11.12.2019
2840 Clouds 24 1017 94 10000 2.1 30 01:23 11.12.2019
2841 Clouds 24 1016 94 10000 3.48 360 00:46 11.12.2019
2842 Clouds 24 1016 94 10000 3.48 360 00:21 11.12.2019
2843 Rain 25 1015 100 8000 3.1 30 23:46 10.12.2019
2844 Rain 25 1015 100 8000 3.1 30 23:28 10.12.2019
2845 Rain 25 1015 94 6000 5.1 360 22:57 10.12.2019
2846 Rain 26 1015 94 6000 5.1 360 22:39 10.12.2019
2847 Rain 26 1015 94 6000 5.1 360 22:21 10.12.2019
2848 Rain 25 1015 94 7000 4.03 25 21:55 10.12.2019
2849 Rain 25 1015 94 7000 4.03 25 21:37 10.12.2019
2850 Rain 25 1015 94 7000 4.03 25 21:19 10.12.2019
2851 Rain 26 1016 94 6000 5.1 90 20:56 10.12.2019
2852 Rain 26 1016 94 6000 5.1 90 20:37 10.12.2019
2853 Rain 26 1016 94 6000 5.1 90 20:18 10.12.2019
2854 Clouds 26 1017 78 10000 5.1 360 19:54 10.12.2019
2855 Clouds 26 1017 78 10000 5.1 360 19:36 10.12.2019
2856 Clouds 26 1017 78 10000 5.1 360 19:36 10.12.2019
2857 Clouds 26 1017 78 10000 5.1 360 19:18 10.12.2019
2858 Rain 27 1018 83 6000 7.2 30 18:39 10.12.2019
2859 Rain 27 1018 83 6000 7.2 30 18:39 10.12.2019
2860 Rain 27 1018 83 6000 7.2 30 18:20 10.12.2019
2861 Clouds 29 1019 70 10000 3.1 360 17:57 10.12.2019
2862 Clouds 29 1019 70 10000 3.1 360 17:39 10.12.2019
2863 Clouds 29 1019 70 10000 3.1 360 17:19 10.12.2019
2864 Clouds 28 1019 74 10000 3.1 90 16:43 10.12.2019
2865 Clouds 28 1019 74 10000 3.1 90 16:20 10.12.2019
2866 Clouds 27 1017 78 10000 4.1 360 15:58 10.12.2019
2867 Clouds 27 1017 78 10000 4.1 360 15:37 10.12.2019
2868 Clouds 27 1017 78 10000 4.1 360 15:18 10.12.2019
2869 Clouds 27 1017 78 10000 4.1 360 15:18 10.12.2019
2870 Clouds 26 1017 83 10000 2.81 35 14:55 10.12.2019
2871 Clouds 26 1017 83 10000 2.81 35 14:37 10.12.2019
2872 Clouds 26 1017 83 10000 2.86 344 14:19 10.12.2019
2873 Clouds 25 1017 88 10000 2.86 344 13:56 10.12.2019
2874 Clouds 24 1017 88 10000 2.86 344 13:37 10.12.2019
2875 Clouds 25 1017 88 10000 2.86 344 13:18 10.12.2019
2876 Clouds 24 1016 94 10000 2.1 20 12:40 10.12.2019
2877 Clouds 24 1016 94 10000 2.1 20 12:22 10.12.2019
2878 Clouds 24 1016 94 10000 2.1 20 11:42 10.12.2019
2879 Clouds 24 1016 94 10000 2.1 20 11:24 10.12.2019
2880 Clouds 24 1016 94 10000 2.1 20 10:56 10.12.2019
2881 Clouds 25 1016 94 10000 2.1 20 10:37 10.12.2019
2882 Clouds 25 1016 94 10000 2.1 20 10:19 10.12.2019
2883 Clouds 24 1015 94 10000 2.1 30 09:55 10.12.2019
2884 Clouds 24 1015 94 10000 2.1 30 09:37 10.12.2019
2885 Clouds 24 1015 94 10000 2.1 30 09:19 10.12.2019
2886 Clouds 24 1016 94 10000 2.1 30 08:54 10.12.2019
2887 Clouds 24 1016 94 10000 2.1 30 08:36 10.12.2019
2888 Clouds 24 1016 94 10000 2.1 30 08:18 10.12.2019
2889 Clouds 24 1016 94 10000 2.1 30 07:43 10.12.2019
2890 Clouds 24 1016 94 10000 2.1 30 07:24 10.12.2019
2891 Clouds 23 1016 94 10000 2.1 20 06:46 10.12.2019
2892 Clouds 23 1016 94 10000 2.1 20 06:19 10.12.2019
2893 Clouds 24 1017 88 10000 2.1 20 05:54 10.12.2019
2894 Clouds 25 1017 88 10000 2.1 30 04:52 10.12.2019
2895 Clouds 25 1017 88 10000 2.1 30 03:37 10.12.2019
2896 Clouds 25 1017 94 10000 2.6 40 02:45 10.12.2019
2897 Clouds 25 1016 88 10000 2.6 50 01:44 10.12.2019
2898 Clouds 25 1016 88 10000 2.6 50 01:21 10.12.2019
2899 Clouds 26 1015 94 10000 3.13 3 00:41 10.12.2019
2900 Clouds 26 1015 94 10000 3.13 3 00:21 10.12.2019
2901 Clouds 26 1014 94 10000 3.13 3 23:41 09.12.2019
2902 Clouds 26 1014 94 10000 3.13 3 23:23 09.12.2019
2903 Rain 26 1014 94 6000 5.1 40 22:58 09.12.2019
2904 Rain 26 1014 94 6000 5.1 40 22:40 09.12.2019
2905 Rain 26 1014 94 6000 5.1 40 22:19 09.12.2019
2906 Clouds 27 1014 74 10000 5.1 360 21:57 09.12.2019
2907 Clouds 27 1014 74 10000 5.1 360 21:38 09.12.2019
2908 Clouds 27 1014 74 10000 5.1 360 21:19 09.12.2019
2909 Rain 27 1014 88 8000 2.6 90 20:56 09.12.2019
2910 Clouds 29 1014 70 10000 5.1 360 20:38 09.12.2019
2911 Clouds 28 1014 70 10000 5.1 360 20:20 09.12.2019
2912 Clouds 30 1015 62 10000 4.1 60 19:55 09.12.2019
2913 Clouds 30 1015 62 10000 4.1 60 19:55 09.12.2019
2914 Clouds 30 1015 62 10000 4.1 60 19:37 09.12.2019
2915 Clouds 30 1015 62 10000 4.1 60 19:19 09.12.2019
2916 Clouds 29 1016 62 10000 5.1 40 18:56 09.12.2019
2917 Clouds 29 1016 62 10000 5.1 40 18:37 09.12.2019
2918 Clouds 29 1016 62 10000 5.1 40 18:19 09.12.2019
2919 Clouds 29 1016 66 10000 3.1 60 17:57 09.12.2019
2920 Clouds 29 1016 66 10000 3.1 60 17:38 09.12.2019
2921 Clouds 29 1016 66 10000 3.1 60 17:20 09.12.2019
2922 Clouds 29 1017 74 10000 3.1 90 16:56 09.12.2019
2923 Clouds 29 1017 74 10000 3.1 90 16:37 09.12.2019
2924 Clouds 28 1017 74 10000 3.1 90 16:18 09.12.2019
2925 Clouds 27 1016 83 10000 5.1 60 15:55 09.12.2019
2926 Clouds 27 1016 83 10000 5.1 60 15:54 09.12.2019
2927 Clouds 27 1016 83 10000 5.1 60 15:36 09.12.2019
2928 Clouds 27 1016 83 10000 5.1 60 15:18 09.12.2019
2929 Clouds 26 1016 94 10000 2.6 360 14:41 09.12.2019
2930 Clouds 26 1016 94 10000 2.6 360 14:18 09.12.2019
2931 Clouds 25 1015 94 10000 2.92 353 13:56 09.12.2019
2932 Clouds 24 1015 94 10000 2.92 353 13:38 09.12.2019
2933 Clouds 24 1015 94 10000 3.03 346 13:19 09.12.2019
2934 Clouds 24 1015 100 10000 2.1 20 12:56 09.12.2019
2935 Clouds 24 1015 100 10000 2.1 20 12:37 09.12.2019
2936 Clouds 24 1015 100 10000 2.1 20 12:18 09.12.2019
2937 Clouds 24 1015 100 10000 2.1 20 11:55 09.12.2019
2938 Clouds 24 1015 100 10000 2.1 20 11:36 09.12.2019
2939 Clouds 22 1015 100 10000 2.1 20 11:18 09.12.2019
2940 Clouds 22 1015 100 10000 2.1 20 10:39 09.12.2019
2941 Clouds 22 1015 100 10000 2.1 20 10:20 09.12.2019
2942 Clouds 23 1015 94 10000 2.1 20 09:56 09.12.2019
2943 Clouds 24 1015 94 10000 2.1 20 09:37 09.12.2019
2944 Clouds 24 1015 94 10000 2.1 20 09:19 09.12.2019
2945 Clouds 23 1015 94 10000 2.1 30 08:40 09.12.2019
2946 Clouds 24 1015 94 10000 2.1 30 08:22 09.12.2019
2947 Clouds 24 1016 100 10000 3.42 351 07:53 09.12.2019
2948 Clouds 24 1016 100 10000 3.42 351 07:34 09.12.2019
2949 Clouds 25 1016 94 10000 2.1 20 06:59 09.12.2019
2950 Clouds 24 1016 94 10000 2.1 20 06:33 09.12.2019
2951 Clouds 24 1016 94 10000 3.42 351 05:51 09.12.2019
2952 Clouds 25 1016 94 10000 3.42 351 05:25 09.12.2019
2953 Clouds 25 1017 94 10000 2.1 20 04:28 09.12.2019
2954 Clouds 25 1016 88 10000 2.1 30 02:46 09.12.2019
2955 Clouds 26 1015 83 10000 2.1 40 01:47 09.12.2019
2956 Clouds 26 1015 83 10000 2.1 40 01:23 09.12.2019
2957 Clouds 27 1015 78 10000 3.33 8 00:34 09.12.2019
2958 Clouds 27 1014 74 10000 2.6 360 23:58 08.12.2019
2959 Clouds 27 1014 74 10000 2.6 360 23:37 08.12.2019
2960 Clouds 27 1014 74 10000 2.6 360 23:19 08.12.2019
2961 Clouds 28 1014 74 8000 54.5 110 22:56 08.12.2019
2962 Clouds 28 1013 66 10000 4.1 30 22:38 08.12.2019
2963 Clouds 29 1013 66 10000 4.1 30 22:18 08.12.2019
2964 Clouds 29 1013 66 10000 5.1 40 21:56 08.12.2019
2965 Clouds 29 1013 66 10000 5.1 40 21:37 08.12.2019
2966 Clouds 29 1013 66 10000 5.1 40 21:19 08.12.2019
2967 Clouds 30 1014 66 10000 3.1 70 20:56 08.12.2019
2968 Clouds 30 1014 66 10000 3.1 70 20:37 08.12.2019
2969 Clouds 29 1014 66 10000 3.1 70 20:19 08.12.2019
2970 Rain 29 1015 70 8000 4.1 90 19:55 08.12.2019
2971 Rain 30 1015 70 8000 4.1 90 19:37 08.12.2019
2972 Rain 30 1015 70 8000 4.1 90 19:37 08.12.2019
2973 Rain 30 1015 70 8000 4.1 90 19:18 08.12.2019
2974 Clouds 30 1015 62 10000 3.1 90 18:54 08.12.2019
2975 Clouds 30 1015 62 10000 3.1 90 18:36 08.12.2019
2976 Clouds 30 1015 62 10000 3.1 90 18:36 08.12.2019
2977 Clouds 30 1015 62 10000 3.1 90 18:18 08.12.2019
2978 Clouds 29 1016 66 10000 2.6 30 17:54 08.12.2019
2979 Clouds 29 1016 66 10000 2.6 30 17:36 08.12.2019
2980 Clouds 29 1016 66 10000 2.6 30 17:18 08.12.2019
2981 Clouds 29 1016 66 10000 2.6 30 17:18 08.12.2019
2982 Clouds 29 1018 70 10000 2.6 40 16:55 08.12.2019
2983 Clouds 29 1018 70 10000 2.6 40 16:37 08.12.2019
2984 Clouds 28 1018 70 10000 2.6 40 16:18 08.12.2019
2985 Clouds 27 1018 74 10000 3.6 26 15:37 08.12.2019
2986 Clouds 27 1018 74 10000 3.6 26 15:18 08.12.2019
2987 Clouds 27 1017 88 10000 3.6 26 14:57 08.12.2019
2988 Clouds 27 1017 88 10000 3.6 26 14:57 08.12.2019
2989 Clouds 26 1017 88 10000 3.6 26 14:37 08.12.2019
2990 Clouds 26 1017 88 10000 2.59 349 14:19 08.12.2019
2991 Clouds 26 1017 88 10000 2.59 349 14:19 08.12.2019
2992 Clouds 24 1016 88 10000 2.59 349 13:41 08.12.2019
2993 Clouds 24 1016 88 10000 2.59 349 13:41 08.12.2019
2994 Clouds 23 1016 88 10000 2.72 348 13:22 08.12.2019
2995 Clouds 23 1015 100 10000 2.1 20 12:59 08.12.2019
2996 Clouds 24 1015 100 10000 2.1 20 12:40 08.12.2019
2997 Clouds 25 1015 100 10000 2.1 20 12:20 08.12.2019
2998 Clouds 24 1014 94 10000 2.1 40 11:58 08.12.2019
2999 Clouds 24 1014 94 10000 2.1 40 11:38 08.12.2019
3000 Clouds 23 1014 94 10000 2.1 40 11:19 08.12.2019
3001 Clouds 23 1014 94 10000 2.1 20 10:57 08.12.2019
3002 Clouds 25 1014 94 10000 2.1 20 10:38 08.12.2019
3003 Clouds 25 1014 94 10000 2.1 20 10:19 08.12.2019
3004 Clouds 23 1014 94 10000 2.1 40 09:55 08.12.2019
3005 Clouds 24 1014 94 10000 2.1 40 09:36 08.12.2019
3006 Clouds 24 1014 94 10000 2.1 40 09:18 08.12.2019
3007 Clouds 24 1014 94 10000 2.1 40 09:18 08.12.2019
3008 Clouds 24 1014 94 10000 2.1 30 08:42 08.12.2019
3009 Clouds 25 1014 94 10000 2.1 30 08:23 08.12.2019
3010 Clouds 24 1015 100 10000 2.1 40 07:55 08.12.2019
3011 Clouds 25 1015 100 10000 2.1 40 07:36 08.12.2019
3012 Clouds 25 1015 100 10000 2.1 40 07:18 08.12.2019
3013 Clouds 25 1015 94 10000 2.1 60 06:40 08.12.2019
3014 Clouds 25 1015 94 10000 2.1 60 06:20 08.12.2019
3015 Clouds 25 1015 94 10000 2.1 60 05:23 08.12.2019
3016 Clouds 25 1016 94 10000 2.1 60 04:54 08.12.2019
3017 Clouds 25 1016 88 10000 2.1 30 03:40 08.12.2019
3018 Clouds 25 1015 94 10000 2.1 30 02:43 08.12.2019
3019 Clouds 26 1015 94 10000 2.1 30 02:20 08.12.2019
3020 Thunderstorm 27 1015 88 10000 2.71 353 01:40 08.12.2019
3021 Thunderstorm 27 1014 78 10000 2.69 358 00:54 08.12.2019
3022 Thunderstorm 27 1014 78 10000 2.69 358 00:24 08.12.2019
3023 Thunderstorm 27 1015 94 6000 4.1 120 23:59 07.12.2019
3024 Thunderstorm 27 1015 94 6000 4.1 120 23:38 07.12.2019
3025 Thunderstorm 27 1015 94 6000 4.1 120 23:20 07.12.2019
3026 Thunderstorm 29 1014 74 8000 2.6 360 22:55 07.12.2019
3027 Thunderstorm 29 1014 74 8000 2.6 360 22:37 07.12.2019
3028 Thunderstorm 29 1014 74 8000 2.6 360 22:37 07.12.2019
3029 Thunderstorm 29 1014 74 8000 2.6 360 22:37 07.12.2019
3030 Thunderstorm 29 1014 74 8000 2.6 360 22:37 07.12.2019
3031 Thunderstorm 29 1014 74 8000 2.6 360 22:19 07.12.2019
3032 Clouds 30 1013 66 10000 3.6 180 21:55 07.12.2019
3033 Clouds 30 1013 66 10000 3.6 180 21:55 07.12.2019
3034 Clouds 30 1013 66 10000 3.6 180 21:37 07.12.2019
3035 Clouds 30 1013 66 10000 3.6 180 21:18 07.12.2019
3036 Clouds 31 1014 66 10000 3.6 150 20:38 07.12.2019
3037 Clouds 31 1014 66 10000 3.6 150 20:20 07.12.2019
3038 Clouds 31 1014 66 10000 3.6 150 20:20 07.12.2019
3039 Clouds 31 1014 62 10000 3.1 180 19:58 07.12.2019
3040 Clouds 31 1014 62 10000 3.1 180 19:39 07.12.2019
3041 Clouds 31 1014 62 10000 3.1 180 19:21 07.12.2019
3042 Clouds 30 1016 66 10000 2.6 160 18:58 07.12.2019
3043 Clouds 31 1016 66 10000 2.6 160 18:40 07.12.2019
3044 Clouds 31 1016 66 10000 2.6 160 18:40 07.12.2019
3045 Clouds 30 1016 66 10000 2.6 160 18:18 07.12.2019
3046 Clouds 31 1017 70 10000 2.6 80 17:56 07.12.2019
3047 Clouds 31 1017 70 10000 2.6 80 17:37 07.12.2019
3048 Clouds 31 1017 70 10000 2.6 80 17:19 07.12.2019
3049 Clouds 30 1018 74 10000 2.6 40 16:56 07.12.2019
3050 Clouds 29 1018 74 10000 2.6 40 16:36 07.12.2019
3051 Clouds 29 1018 74 10000 2.6 40 16:36 07.12.2019
3052 Clouds 29 1018 74 10000 2.6 40 16:18 07.12.2019
3053 Clouds 29 1018 74 10000 2.6 40 16:18 07.12.2019
3054 Clouds 28 1018 83 10000 3.1 360 15:41 07.12.2019
3055 Clouds 28 1018 83 10000 3.1 360 15:23 07.12.2019
3056 Clouds 28 1018 83 10000 3.1 360 15:23 07.12.2019
3057 Clouds 26 1018 94 10000 2.42 35 14:56 07.12.2019
3058 Clouds 26 1018 94 10000 2.42 35 14:38 07.12.2019
3059 Clouds 26 1018 94 10000 1.99 340 14:18 07.12.2019
3060 Clouds 24 1017 100 10000 1.99 340 13:40 07.12.2019
3061 Clouds 24 1017 100 10000 2.04 340 13:20 07.12.2019
3062 Mist 24 1016 94 6000 2.04 340 12:55 07.12.2019
3063 Mist 24 1016 94 6000 2.04 340 12:37 07.12.2019
3064 Mist 24 1016 94 6000 2.04 340 12:18 07.12.2019
3065 Clouds 25 1015 94 10000 2.04 340 11:42 07.12.2019
3066 Clouds 25 1015 94 10000 2.04 340 11:23 07.12.2019
3067 Clouds 24 1015 94 10000 2.1 20 10:58 07.12.2019
3068 Clouds 24 1015 94 10000 2.1 20 10:37 07.12.2019
3069 Clouds 25 1015 94 10000 2.1 20 10:18 07.12.2019
3070 Clouds 24 1015 94 10000 2.1 350 09:40 07.12.2019
3071 Clouds 24 1015 94 10000 2.1 350 09:21 07.12.2019
3072 Clouds 24 1015 94 10000 2.1 350 09:21 07.12.2019
3073 Clouds 25 1015 94 10000 2.1 20 08:46 07.12.2019
3074 Clouds 25 1015 94 10000 2.1 20 08:25 07.12.2019
3075 Clouds 25 1016 94 10000 2.1 20 07:54 07.12.2019
3076 Clouds 25 1016 94 10000 2.1 20 07:30 07.12.2019
3077 Clouds 24 1016 94 10000 2.1 30 06:53 07.12.2019
3078 Clouds 25 1016 94 10000 2.1 30 06:28 07.12.2019
3079 Clouds 25 1016 94 10000 2.1 20 05:50 07.12.2019
3080 Thunderstorm 25 1017 94 10000 2.1 30 04:49 07.12.2019
3081 Thunderstorm 26 1017 88 10000 2.6 40 03:52 07.12.2019
3082 Thunderstorm 26 1016 88 10000 2.1 60 02:47 07.12.2019
3083 Thunderstorm 26 1016 88 10000 2.1 60 02:18 07.12.2019
3084 Thunderstorm 26 1016 88 10000 3.1 30 01:25 07.12.2019
3085 Thunderstorm 26 1015 88 8000 2.27 27 00:42 07.12.2019
3086 Thunderstorm 27 1015 88 8000 2.27 27 00:18 07.12.2019
3087 Clouds 27 1014 83 10000 2.27 27 23:44 06.12.2019
3088 Clouds 28 1014 83 10000 2.27 27 23:23 06.12.2019
3089 Clouds 29 1014 74 10000 3.1 180 22:57 06.12.2019
3090 Clouds 29 1014 74 10000 3.1 180 22:36 06.12.2019
3091 Clouds 29 1014 74 10000 3.1 180 22:18 06.12.2019
3092 Clouds 29 1015 74 10000 2.1 110 21:41 06.12.2019
3093 Clouds 29 1015 74 10000 2.1 110 21:21 06.12.2019
3094 Clouds 29 1015 74 10000 3.1 90 20:59 06.12.2019
3095 Clouds 30 1015 74 10000 3.1 90 20:41 06.12.2019
3096 Clouds 30 1015 74 10000 3.1 90 20:20 06.12.2019
3097 Clouds 30 1016 70 10000 2.1 140 19:43 06.12.2019
3098 Clouds 30 1016 70 10000 2.1 140 19:24 06.12.2019
3099 Clouds 32 1015 62 10000 2.1 70 18:59 06.12.2019
3100 Clouds 32 1015 62 10000 2.1 70 18:40 06.12.2019
3101 Clouds 32 1015 62 10000 2.1 70 18:21 06.12.2019
3102 Clouds 31 1017 66 10000 3.1 50 17:58 06.12.2019
3103 Clouds 31 1017 66 10000 3.1 50 17:40 06.12.2019
3104 Clouds 31 1017 66 10000 3.1 50 17:22 06.12.2019
3105 Clouds 30 1018 74 10000 2.1 40 16:58 06.12.2019
3106 Clouds 30 1018 74 10000 2.1 40 16:38 06.12.2019
3107 Clouds 30 1018 74 10000 2.1 40 16:19 06.12.2019
3108 Clouds 28 1018 78 10000 2.1 40 15:41 06.12.2019
3109 Clouds 28 1018 78 10000 2.1 40 15:22 06.12.2019
3110 Clouds 27 1016 88 10000 2.6 26 14:58 06.12.2019
3111 Clouds 27 1016 88 10000 2.6 26 14:40 06.12.2019
3112 Clouds 26 1016 88 10000 2.53 345 14:20 06.12.2019
3113 Clouds 23 1016 94 10000 2.53 345 13:46 06.12.2019
3114 Clouds 24 1016 94 10000 2.53 345 13:27 06.12.2019
3115 Clouds 24 1016 100 10000 2.1 360 12:58 06.12.2019
3116 Clouds 24 1016 100 10000 2.1 360 12:39 06.12.2019
3117 Clouds 24 1016 100 10000 2.1 360 12:21 06.12.2019
3118 Clouds 24 1015 94 10000 1.5 10 11:42 06.12.2019
3119 Clouds 24 1015 94 10000 1.5 10 11:23 06.12.2019
3120 Clouds 23 1014 94 10000 2.6 20 10:56 06.12.2019
3121 Clouds 24 1014 94 10000 2.6 20 10:38 06.12.2019
3122 Clouds 23 1014 94 10000 2.6 20 10:20 06.12.2019
3123 Clear 24 1015 90 0 1.98 340 09:56 06.12.2019
3124 Clear 24 1015 90 0 1.98 340 09:36 06.12.2019
3125 Thunderstorm 23 1015 94 10000 2.1 50 09:18 06.12.2019
3126 Thunderstorm 23 1015 94 10000 2.1 50 08:42 06.12.2019
3127 Thunderstorm 24 1015 94 10000 2.1 50 08:24 06.12.2019
3128 Thunderstorm 24 1016 94 10000 2.1 50 07:42 06.12.2019
3129 Thunderstorm 24 1016 94 10000 2.1 50 07:22 06.12.2019
3130 Thunderstorm 24 1017 88 10000 2.1 30 06:48 06.12.2019
3131 Thunderstorm 25 1017 88 10000 2.1 30 06:25 06.12.2019
3132 Clouds 24 1017 94 10000 2.1 40 05:48 06.12.2019
3133 Clouds 25 1015 88 10000 2.15 348 02:51 06.12.2019
3134 Clouds 26 1015 88 10000 0.65 291 01:45 06.12.2019
3135 Clouds 27 1014 83 10000 0.48 326 00:51 06.12.2019
3136 Clouds 27 1014 83 10000 0.48 326 00:23 06.12.2019
3137 Clouds 28 1013 78 10000 2.6 160 23:51 05.12.2019
3138 Clouds 28 1013 78 10000 2.6 160 23:21 05.12.2019
3139 Clouds 28 1012 74 10000 3.1 160 22:58 05.12.2019
3140 Clouds 28 1012 74 10000 3.1 160 22:39 05.12.2019
3141 Clouds 29 1012 74 10000 3.1 160 22:19 05.12.2019
3142 Clouds 29 1013 66 10000 4.1 180 21:56 05.12.2019
3143 Clouds 29 1013 66 10000 4.1 180 21:37 05.12.2019
3144 Clouds 29 1013 66 10000 4.1 180 21:19 05.12.2019
3145 Clouds 31 1014 62 10000 5.1 180 20:56 05.12.2019
3146 Clouds 31 1014 62 10000 5.1 180 20:56 05.12.2019
3147 Clouds 31 1014 62 10000 5.1 180 20:37 05.12.2019
3148 Clouds 31 1014 62 10000 5.1 180 20:18 05.12.2019
3149 Clouds 31 1014 63 10000 4.1 180 19:40 05.12.2019
3150 Clouds 31 1014 63 10000 4.1 180 19:22 05.12.2019
3151 Clouds 31 1014 63 10000 4.1 180 18:58 05.12.2019
3152 Clouds 31 1015 66 10000 5.1 180 18:38 05.12.2019
3153 Clouds 30 1015 66 10000 5.1 180 18:20 05.12.2019
3154 Clouds 30 1015 66 10000 5.1 180 18:20 05.12.2019
3155 Clouds 30 1016 74 10000 4.1 160 17:41 05.12.2019
3156 Clouds 30 1016 74 10000 4.1 160 17:20 05.12.2019
3157 Clouds 30 1016 74 10000 4.1 160 16:59 05.12.2019
3158 Clouds 29 1016 79 10000 1.42 82 16:40 05.12.2019
3159 Clouds 29 1016 79 10000 1.42 82 16:21 05.12.2019
3160 Clouds 29 1016 83 10000 1.42 82 15:58 05.12.2019
3161 Clouds 29 1016 83 10000 1.42 82 15:39 05.12.2019
3162 Clouds 29 1016 83 10000 1.42 82 15:20 05.12.2019
3163 Clouds 25 1015 94 10000 1.42 82 14:56 05.12.2019
3164 Clouds 25 1015 94 10000 1.42 82 14:38 05.12.2019
3165 Clouds 25 1015 94 10000 1.56 328 14:19 05.12.2019
3166 Clouds 23 1015 100 10000 1.56 328 13:57 05.12.2019
3167 Clouds 23 1015 100 10000 1.56 328 13:39 05.12.2019
3168 Clouds 23 1015 100 10000 1.49 329 13:20 05.12.2019
3169 Clouds 24 1014 100 10000 1.49 329 12:58 05.12.2019
3170 Clouds 24 1014 100 10000 1.49 329 12:39 05.12.2019
3171 Clouds 24 1014 100 10000 1.49 329 12:20 05.12.2019
3172 Clouds 24 1014 100 10000 2.1 60 11:40 05.12.2019
3173 Clouds 23 1014 100 10000 2.1 60 11:22 05.12.2019
3174 Clouds 24 1013 94 10000 2.1 50 10:58 05.12.2019
3175 Clouds 24 1013 94 10000 2.1 50 10:40 05.12.2019
3176 Clouds 24 1013 94 10000 2.1 50 10:19 05.12.2019
3177 Clouds 24 1013 94 10000 2.1 30 09:55 05.12.2019
3178 Clouds 24 1013 94 10000 2.1 30 09:37 05.12.2019
3179 Clouds 24 1013 94 10000 2.1 30 09:18 05.12.2019
3180 Clouds 21 1014 100 10000 1.64 332 08:39 05.12.2019
3181 Clouds 21 1014 100 10000 1.45 307 08:21 05.12.2019
3182 Clouds 21 1014 100 10000 1.45 307 08:21 05.12.2019
3183 Clouds 23 1014 100 10000 1.67 316 07:59 05.12.2019
3184 Clouds 24 1013 94 10000 1.67 316 07:39 05.12.2019
3185 Clouds 24 1013 94 10000 1.67 316 07:20 05.12.2019
3186 Clouds 24 1014 94 10000 1.67 316 06:46 05.12.2019
3187 Clouds 24 1014 94 10000 1.67 316 06:23 05.12.2019
3188 Clouds 25 1014 88 10000 1.67 316 05:49 05.12.2019
3189 Clouds 25 1014 88 10000 1.67 316 05:24 05.12.2019
3190 Clouds 25 1015 88 10000 1.12 278 04:33 05.12.2019
3191 Clouds 25 1015 88 10000 2.1 20 03:31 05.12.2019
3192 Clouds 25 1015 88 10000 2.1 20 03:31 05.12.2019
3193 Clouds 26 1015 88 10000 2.1 20 02:40 05.12.2019
3194 Clouds 26 1015 88 10000 2.1 20 02:21 05.12.2019
3195 Thunderstorm 26 1014 88 10000 1.24 213 01:49 05.12.2019
3196 Thunderstorm 26 1014 88 10000 1.24 213 01:21 05.12.2019
3197 Thunderstorm 26 1013 88 10000 1.41 231 00:38 05.12.2019
3198 Thunderstorm 26 1013 88 10000 1.41 231 00:19 05.12.2019
3199 Clouds 27 1014 78 10000 4.1 160 23:45 04.12.2019
3200 Clouds 27 1014 78 10000 4.1 160 23:22 04.12.2019
3201 Clouds 27 1014 78 10000 4.1 160 23:22 04.12.2019
3202 Clouds 28 1013 74 10000 5.1 160 22:57 04.12.2019
3203 Clouds 28 1013 74 10000 5.1 160 22:37 04.12.2019
3204 Clouds 28 1013 74 10000 5.1 160 22:19 04.12.2019
3205 Clouds 29 1012 70 10000 5.1 180 21:56 04.12.2019
3206 Clouds 29 1012 70 10000 5.1 180 21:37 04.12.2019
3207 Clouds 29 1012 70 10000 5.1 180 21:18 04.12.2019
3208 Clouds 29 1013 74 10000 4.1 180 20:56 04.12.2019
3209 Clouds 29 1013 74 10000 4.1 180 20:38 04.12.2019
3210 Clouds 29 1013 74 10000 4.1 180 20:19 04.12.2019
3211 Clouds 29 1013 66 10000 6.2 180 19:41 04.12.2019
3212 Clouds 29 1013 66 10000 6.2 180 19:22 04.12.2019
3213 Clouds 29 1013 66 10000 6.2 180 18:59 04.12.2019
3214 Clouds 29 1014 74 10000 5.1 180 18:41 04.12.2019
3215 Clouds 29 1014 74 10000 5.1 180 18:22 04.12.2019
3216 Clouds 29 1015 74 10000 5.1 160 17:58 04.12.2019
3217 Clouds 29 1015 74 10000 5.1 160 17:38 04.12.2019
3218 Clouds 29 1015 74 10000 5.1 160 17:18 04.12.2019
3219 Clouds 28 1015 83 10000 5.1 160 16:41 04.12.2019
3220 Clouds 28 1015 83 10000 5.1 160 16:21 04.12.2019
3221 Clouds 27 1015 83 10000 5.1 160 15:59 04.12.2019
3222 Clouds 26 1015 83 10000 5.1 180 15:41 04.12.2019
3223 Clouds 26 1015 83 10000 5.1 180 15:21 04.12.2019
3224 Clouds 26 1015 83 10000 5.1 180 14:59 04.12.2019
3225 Clouds 24 1014 88 10000 1.61 117 14:41 04.12.2019
3226 Clouds 25 1014 88 10000 1.59 343 14:21 04.12.2019
3227 Rain 23 1013 94 8000 1.59 343 13:56 04.12.2019
3228 Rain 24 1013 94 8000 1.59 343 13:36 04.12.2019
3229 Rain 24 1013 94 8000 1.69 339 13:18 04.12.2019
3230 Rain 24 1013 94 8000 1.69 339 12:41 04.12.2019
3231 -273 0 0 0 0 0 12:23 04.12.2019
3232 Rain 23 1013 100 8000 1.69 339 11:44 04.12.2019
3233 Rain 23 1013 100 8000 1.69 339 11:26 04.12.2019
3234 Rain 22 1013 100 7000 4.1 110 10:58 04.12.2019
3235 Rain 22 1013 100 7000 4.1 110 10:40 04.12.2019
3236 Rain 22 1013 100 7000 4.1 110 10:21 04.12.2019
3237 Clouds 23 1012 94 10000 2.1 30 09:44 04.12.2019
3238 Clouds 25 1012 94 10000 2.1 30 09:24 04.12.2019
3239 Clouds 25 1012 94 10000 2.1 30 09:24 04.12.2019
3240 Clouds 24 1012 94 10000 2.1 40 08:44 04.12.2019
3241 Clouds 24 1012 94 10000 2.1 40 08:26 04.12.2019
3242 Clouds 24 1012 94 10000 2.1 40 07:59 04.12.2019
3243 Clouds 24 1013 94 10000 2.1 50 07:40 04.12.2019
3244 Clouds 24 1013 94 10000 2.1 50 07:22 04.12.2019
3245 Clouds 24 1013 94 10000 2.1 40 06:32 04.12.2019
3246 Clouds 24 1013 94 10000 2.1 40 05:46 04.12.2019
3247 Clouds 24 1014 94 10000 2.1 60 04:39 04.12.2019
3248 Clouds 25 1014 88 10000 2.1 50 03:51 04.12.2019
3249 Clouds 26 1013 83 10000 0.15 62 01:53 04.12.2019
3250 Clouds 27 1014 78 10000 0.19 301 00:48 04.12.2019
3251 Clouds 27 1014 78 10000 0.19 301 00:22 04.12.2019
3252 Clouds 27 1014 78 10000 0.19 301 00:22 04.12.2019
3253 Clouds 28 1013 78 10000 0.19 301 23:45 03.12.2019
3254 Clouds 28 1013 78 10000 2.46 175 23:20 03.12.2019
3255 Clouds 28 1013 78 10000 2.46 175 22:59 03.12.2019
3256 Clouds 29 1012 66 10000 5.1 180 22:39 03.12.2019
3257 Clouds 29 1012 66 10000 5.1 180 22:18 03.12.2019
3258 Clouds 30 1012 66 10000 5.1 180 21:57 03.12.2019
3259 Clouds 30 1012 66 10000 5.1 180 21:37 03.12.2019
3260 Clouds 30 1012 66 10000 5.1 180 21:18 03.12.2019
3261 Clouds 31 1012 59 10000 5.1 180 20:41 03.12.2019
3262 Clouds 30 1012 59 10000 5.1 180 20:20 03.12.2019
3263 Clouds 30 1012 59 10000 5.1 180 20:20 03.12.2019
3264 Clouds 31 1013 59 10000 5.1 180 19:57 03.12.2019
3265 Clouds 30 1013 59 10000 5.1 180 19:38 03.12.2019
3266 Clouds 30 1013 62 10000 6.2 180 19:20 03.12.2019
3267 Clouds 30 1013 62 10000 6.2 180 18:59 03.12.2019
3268 Clouds 30 1013 62 10000 6.2 180 18:41 03.12.2019
3269 Clouds 30 1013 62 10000 6.2 180 18:21 03.12.2019
3270 Clouds 29 1016 66 10000 6.2 180 17:58 03.12.2019
3271 Clouds 29 1016 66 10000 6.2 180 17:38 03.12.2019
3272 Clouds 29 1016 66 10000 6.2 180 17:18 03.12.2019
3273 Clouds 29 1016 66 10000 6.2 180 17:18 03.12.2019
3274 Clouds 29 1017 78 10000 3.1 270 16:58 03.12.2019
3275 Clouds 28 1017 78 10000 3.1 270 16:39 03.12.2019
3276 Clouds 28 1017 78 10000 3.1 270 16:20 03.12.2019
3277 Clouds 28 1017 78 10000 3.1 270 16:20 03.12.2019
3278 Rain 27 1016 83 8000 1.57 155 15:57 03.12.2019
3279 Rain 26 1016 83 8000 1.57 155 15:38 03.12.2019
3280 Rain 26 1016 83 8000 1.57 155 15:19 03.12.2019
3281 Rain 25 1016 88 8000 1.57 155 14:44 03.12.2019
3282 Rain 25 1016 88 8000 1.55 337 14:20 03.12.2019
3283 Clouds 24 1014 94 10000 1.55 337 13:58 03.12.2019
3284 Rain 24 1014 94 10000 1.55 337 13:37 03.12.2019
3285 Rain 24 1014 94 10000 1.67 343 13:19 03.12.2019
3286 Thunderstorm 24 1014 100 8000 1.67 343 12:42 03.12.2019
3287 Thunderstorm 24 1014 100 8000 1.67 343 12:19 03.12.2019
3288 Thunderstorm 24 1014 100 8000 1.67 343 11:59 03.12.2019
3289 Thunderstorm 24 1013 100 8000 2.1 100 11:39 03.12.2019
3290 Thunderstorm 23 1013 100 8000 2.1 100 11:21 03.12.2019
3291 Thunderstorm 23 1013 100 8000 2.1 100 10:59 03.12.2019
3292 Thunderstorm 24 1013 100 8000 2.1 100 10:41 03.12.2019
3293 Clouds 23 1013 94 10000 1.61 334 10:21 03.12.2019
3294 Clouds 23 1013 94 10000 1.61 334 09:56 03.12.2019
3295 Clouds 25 1013 94 10000 1.61 334 09:38 03.12.2019
3296 Clouds 25 1013 94 10000 1.61 334 09:19 03.12.2019
3297 Clouds 24 1014 94 10000 2.1 10 08:41 03.12.2019
3298 Clouds 24 1014 94 10000 2.1 10 08:22 03.12.2019
3299 Clouds 24 1013 94 10000 2.1 40 07:54 03.12.2019
3300 Clouds 23 1013 94 10000 2.1 40 07:31 03.12.2019
3301 Clouds 24 1013 94 10000 2.1 40 06:59 03.12.2019
3302 Clouds 23 1014 100 10000 2.1 40 06:23 03.12.2019
3303 Clouds 24 1014 94 10000 1.6 326 05:58 03.12.2019
3304 Clouds 24 1014 94 10000 1.39 297 04:49 03.12.2019
3305 Clouds 25 1014 88 10000 1.39 297 03:38 03.12.2019
3306 Clouds 25 1014 88 10000 1.39 297 03:18 03.12.2019
3307 Clouds 25 1014 94 10000 1.39 297 02:45 03.12.2019
3308 Clear 24 1015 86 0 1.39 297 02:25 03.12.2019
3309 Clear 24 1014 84 0 0.42 213 01:42 03.12.2019
3310 Clear 24 1015 84 0 0.5 219 01:23 03.12.2019
3311 Clear 24 1015 84 0 0.5 219 00:44 03.12.2019
3312 Clear 24 1015 84 0 0.5 219 00:44 03.12.2019
3313 Clouds 29 1014 74 10000 0.5 219 00:26 03.12.2019
3314 Clouds 29 1014 74 10000 0.5 219 23:59 02.12.2019
3315 Clouds 29 1014 74 10000 0.5 219 23:41 02.12.2019
3316 Clouds 29 1014 74 10000 3.11 162 23:19 02.12.2019
3317 Clouds 29 1014 74 10000 3.11 162 23:19 02.12.2019
3318 Clouds 30 1013 70 10000 4.1 180 22:40 02.12.2019
3319 Clouds 30 1013 70 10000 4.1 180 22:21 02.12.2019
3320 Clouds 31 1013 62 10000 5.1 180 21:57 02.12.2019
3321 Clouds 31 1013 62 10000 5.1 180 21:36 02.12.2019
3322 Clouds 31 1013 62 10000 5.1 180 21:18 02.12.2019
3323 Clouds 31 1013 66 10000 4.1 140 20:55 02.12.2019
3324 Clouds 31 1013 66 10000 4.1 140 20:37 02.12.2019
3325 Clouds 31 1013 66 10000 4.1 140 20:19 02.12.2019
3326 Clouds 31 1013 62 10000 7.7 150 19:42 02.12.2019
3327 Clouds 31 1013 62 10000 7.7 150 19:21 02.12.2019
3328 Clouds 31 1013 62 10000 7.7 150 19:21 02.12.2019
3329 Clouds 31 1014 62 10000 3.6 180 18:57 02.12.2019
3330 Clouds 31 1014 62 10000 3.6 180 18:57 02.12.2019
3331 Clouds 31 1014 62 10000 3.6 180 18:57 02.12.2019
3332 Clouds 31 1014 62 10000 3.6 180 18:38 02.12.2019
3333 Clouds 31 1014 62 10000 3.6 180 18:18 02.12.2019
3334 Clouds 31 1015 66 10000 2.6 150 17:57 02.12.2019
3335 Clouds 30 1015 66 10000 2.6 150 17:38 02.12.2019
3336 Clouds 31 1015 66 10000 2.6 150 17:19 02.12.2019
3337 Clouds 30 1016 70 10000 1.61 98 16:40 02.12.2019
3338 Clouds 30 1016 70 10000 1.61 98 16:19 02.12.2019
3339 Clouds 27 1016 78 10000 1.61 98 15:58 02.12.2019
3340 Clouds 27 1016 78 10000 1.61 98 15:39 02.12.2019
3341 Clouds 27 1016 78 10000 1.61 98 15:21 02.12.2019
3342 Clouds 25 1017 94 10000 1.61 98 14:56 02.12.2019
3343 Clouds 25 1017 94 10000 1.61 98 14:37 02.12.2019
3344 Clouds 25 1017 94 10000 2.08 329 14:19 02.12.2019
3345 Clouds 22 1016 100 10000 2.08 329 13:55 02.12.2019
3346 Clouds 22 1016 100 10000 2.08 329 13:55 02.12.2019
3347 Clouds 22 1016 100 10000 2.08 329 13:37 02.12.2019
3348 Clouds 22 1016 100 10000 2.13 330 13:18 02.12.2019
3349 Clouds 22 1014 94 10000 1.5 0 12:42 02.12.2019
3350 Clouds 22 1014 94 10000 1.5 0 12:21 02.12.2019
3351 Clouds 23 1014 94 10000 1.5 0 11:57 02.12.2019
3352 Clouds 23 1014 94 10000 1.5 0 11:38 02.12.2019
3353 Clouds 23 1014 94 10000 1.5 0 11:19 02.12.2019
3354 Clouds 23 1014 94 10000 2.1 20 10:57 02.12.2019
3355 Clouds 23 1014 94 10000 2.1 20 10:57 02.12.2019
3356 Clouds 23 1014 94 10000 2.1 20 10:39 02.12.2019
3357 Clouds 23 1014 94 10000 2.1 20 10:21 02.12.2019
3358 Clouds 23 1014 94 10000 2.1 20 10:21 02.12.2019
3359 Clouds 23 1014 94 10000 2.1 10 09:55 02.12.2019
3360 Clouds 23 1014 94 10000 2.1 10 09:37 02.12.2019
3361 Clouds 23 1014 94 10000 2.1 10 09:18 02.12.2019
3362 Clouds 23 1014 94 10000 2.1 20 08:41 02.12.2019
3363 Clouds 23 1014 94 10000 2.1 20 08:23 02.12.2019
3364 Clouds 23 1014 94 10000 2.1 20 07:59 02.12.2019
3365 Clouds 23 1014 94 10000 2.1 30 07:37 02.12.2019
3366 Clouds 23 1014 94 10000 2.1 30 07:18 02.12.2019
3367 Clouds 24 1015 88 10000 2.1 30 06:39 02.12.2019
3368 Clouds 24 1015 94 10000 2.1 40 05:43 02.12.2019
3369 Clouds 24 1015 94 10000 2.1 40 04:59 02.12.2019
3370 Clouds 25 1015 88 10000 2.1 60 03:19 02.12.2019
3371 Clouds 26 1015 83 10000 2.1 50 02:45 02.12.2019
3372 Clouds 27 1014 78 10000 2.1 30 01:45 02.12.2019
3373 Clouds 27 1012 88 10000 2.1 360 01:18 02.12.2019
3374 Clouds 27 1012 88 10000 2.1 360 00:33 02.12.2019
3375 Clouds 28 1012 74 10000 2.1 360 23:57 01.12.2019
3376 Clouds 28 1012 74 10000 2.1 360 23:57 01.12.2019
3377 Clouds 28 1012 74 10000 2.1 360 23:39 01.12.2019
3378 Clouds 28 1012 74 10000 2.1 360 23:20 01.12.2019
3379 Clouds 29 1012 69 10000 3.1 360 22:56 01.12.2019
3380 Clouds 29 1012 69 10000 3.1 360 22:38 01.12.2019
3381 Clouds 29 1012 69 10000 3.1 360 22:18 01.12.2019
3382 Clouds 30 1013 66 10000 2.1 360 21:56 01.12.2019
3383 Clouds 30 1013 66 10000 2.1 360 21:38 01.12.2019
3384 Clouds 30 1013 66 10000 2.1 360 21:19 01.12.2019
3385 Clouds 31 1014 62 10000 5.1 40 20:56 01.12.2019
3386 Clouds 31 1014 62 10000 5.1 40 20:37 01.12.2019
3387 Clouds 31 1014 62 10000 5.1 40 20:37 01.12.2019
3388 Clouds 31 1014 62 10000 5.1 40 20:19 01.12.2019
3389 Clouds 31 1015 58 10000 3.1 40 19:55 01.12.2019
3390 Clouds 31 1015 58 10000 3.1 40 19:37 01.12.2019
3391 Clouds 31 1015 58 10000 3.1 40 19:19 01.12.2019
3392 Clouds 30 1015 62 10000 3.1 40 18:55 01.12.2019
3393 Clouds 30 1015 62 10000 3.1 40 18:37 01.12.2019
3394 Clouds 30 1015 62 10000 3.1 40 18:18 01.12.2019
3395 Clouds 30 1015 62 10000 3.1 40 18:18 01.12.2019
3396 Clouds 30 1015 62 10000 3.1 90 17:55 01.12.2019
3397 Clouds 30 1015 62 10000 3.1 90 17:37 01.12.2019
3398 Clouds 30 1015 62 10000 3.1 90 17:19 01.12.2019
3399 Clouds 29 1016 66 10000 5.7 360 16:43 01.12.2019
3400 Clouds 29 1016 66 10000 5.7 360 16:23 01.12.2019
3401 Clouds 27 1016 74 10000 4.1 350 15:53 01.12.2019
3402 Clouds 27 1016 74 10000 4.1 350 15:33 01.12.2019
3403 Clouds 25 1015 78 10000 4.01 20 14:58 01.12.2019
3404 Clouds 25 1015 78 10000 4.01 20 14:58 01.12.2019
3405 Clouds 25 1015 78 10000 4.01 20 14:58 01.12.2019
3406 Clouds 24 1015 78 10000 4.01 20 14:37 01.12.2019
3407 Clouds 24 1015 78 10000 2.78 352 14:19 01.12.2019
3408 Clouds 23 1014 88 10000 2.1 30 13:40 01.12.2019
3409 Clouds 22 1014 88 10000 2.1 30 13:21 01.12.2019
3410 Clouds 21 1014 100 10000 2.1 360 12:47 01.12.2019
3411 Clouds 21 1014 100 10000 2.1 360 12:19 01.12.2019
3412 Clouds 21 1013 94 10000 1.5 360 11:44 01.12.2019
3413 Clouds 21 1013 94 10000 1.5 360 11:24 01.12.2019
3414 Clouds 22 1013 94 10000 2.1 360 10:55 01.12.2019
3415 Clouds 22 1013 94 10000 2.1 360 10:37 01.12.2019
3416 Clouds 22 1013 94 10000 2.1 360 10:18 01.12.2019
3417 Clouds 22 1013 88 10000 2.1 360 09:40 01.12.2019
3418 Clouds 22 1013 88 10000 2.1 360 09:21 01.12.2019
3419 Clouds 23 1013 94 10000 2.1 360 08:48 01.12.2019
3420 Clouds 23 1013 94 10000 2.1 360 08:21 01.12.2019
3421 Clouds 23 1013 94 10000 3.22 348 07:52 01.12.2019
3422 Clouds 23 1013 94 10000 3.22 348 07:31 01.12.2019
3423 Clouds 23 1013 88 10000 1.5 0 06:57 01.12.2019
3424 Clouds 23 1013 88 10000 1.5 0 06:35 01.12.2019
3425 Clouds 23 1014 88 10000 3.22 348 05:49 01.12.2019
3426 Clouds 23 1014 94 10000 3.34 353 04:52 01.12.2019
3427 Clouds 24 1013 83 10000 2.1 360 03:31 01.12.2019
3428 Clouds 25 1013 78 10000 2.1 20 02:37 01.12.2019
3429 Clouds 25 1013 78 10000 2.1 20 02:18 01.12.2019
3430 Clouds 25 1013 78 10000 4.1 40 01:52 01.12.2019
3431 Clouds 25 1012 88 10000 4.1 360 01:25 01.12.2019
3432 Clouds 25 1012 88 10000 4.1 360 00:42 01.12.2019
3433 Clouds 25 1012 88 10000 4.1 360 00:24 01.12.2019
3434 Clouds 27 1012 78 10000 5.1 360 23:43 30.11.2019
3435 Clouds 27 1012 78 10000 5.1 360 23:24 30.11.2019
3436 Clouds 28 1011 74 10000 6.2 360 22:56 30.11.2019
3437 Clouds 28 1011 74 10000 6.2 360 22:38 30.11.2019
3438 Clouds 28 1011 74 10000 6.2 360 22:19 30.11.2019
3439 Clouds 28 1011 74 10000 6.2 360 22:19 30.11.2019
3440 Clouds 29 1011 74 10000 5.1 360 21:43 30.11.2019
3441 Clouds 29 1011 74 10000 5.1 360 21:24 30.11.2019
3442 Clouds 29 1011 70 10000 6.2 30 20:56 30.11.2019
3443 Clouds 29 1011 70 10000 6.2 30 20:38 30.11.2019
3444 Clouds 29 1011 70 10000 6.2 30 20:38 30.11.2019
3445 Clouds 29 1011 70 10000 6.2 30 20:19 30.11.2019
3446 Clouds 29 1011 70 10000 6.2 30 20:19 30.11.2019
3447 Clouds 30 1011 58 10000 6.2 30 19:55 30.11.2019
3448 Clouds 29 1011 58 10000 6.2 30 19:37 30.11.2019
3449 Clouds 29 1011 58 10000 6.2 30 19:19 30.11.2019
3450 Clouds 29 1012 74 10000 5.1 360 18:56 30.11.2019
3451 Clouds 29 1012 74 10000 5.1 360 18:37 30.11.2019
3452 Clouds 29 1012 74 10000 5.1 360 18:19 30.11.2019
3453 Clouds 29 1013 78 10000 4.1 360 17:57 30.11.2019
3454 Clouds 28 1013 78 10000 4.1 360 17:38 30.11.2019
3455 Clouds 28 1013 78 10000 4.1 360 17:19 30.11.2019
3456 Clouds 28 1013 78 10000 5.1 360 16:56 30.11.2019
3457 Clouds 28 1013 78 10000 5.1 360 16:37 30.11.2019
3458 Clouds 27 1013 78 10000 5.1 360 16:18 30.11.2019
3459 Clouds 26 1013 83 10000 5.1 360 15:42 30.11.2019
3460 Clouds 26 1013 83 10000 5.1 360 15:42 30.11.2019
3461 Clouds 26 1013 83 10000 5.1 360 15:19 30.11.2019
3462 Clouds 24 1012 88 10000 5.1 360 14:57 30.11.2019
3463 Clouds 24 1012 88 10000 5.1 360 14:38 30.11.2019
3464 Clouds 24 1012 88 10000 5.1 360 14:19 30.11.2019
3465 Clouds 23 1012 94 10000 4.1 360 13:57 30.11.2019
3466 Clouds 22 1012 94 10000 4.1 360 13:37 30.11.2019
3467 Clouds 22 1012 94 10000 4.1 360 13:37 30.11.2019
3468 Clouds 22 1012 94 10000 4.1 360 13:19 30.11.2019
3469 Clouds 21 1012 88 10000 2.6 30 12:45 30.11.2019
3470 Clouds 21 1012 88 10000 2.6 30 12:27 30.11.2019
3471 Clouds 22 1011 83 10000 2.1 30 11:55 30.11.2019
3472 Clouds 22 1011 83 10000 2.1 30 11:36 30.11.2019
3473 Clouds 22 1011 83 10000 2.1 30 11:18 30.11.2019
3474 Clouds 22 1011 88 10000 2.6 360 10:42 30.11.2019
3475 Clouds 22 1011 88 10000 2.6 360 10:21 30.11.2019
3476 Clouds 23 1011 83 10000 2.1 20 09:49 30.11.2019
3477 Clouds 23 1011 83 10000 2.1 20 09:29 30.11.2019
3478 Clouds 22 1011 88 10000 1.5 20 08:55 30.11.2019
3479 Clouds 22 1011 88 10000 1.5 20 08:37 30.11.2019
3480 Clouds 22 1011 88 10000 1.5 20 08:18 30.11.2019
3481 Clouds 22 1011 88 10000 2.6 360 07:42 30.11.2019
3482 Clouds 22 1011 88 10000 2.6 360 07:22 30.11.2019
3483 Clouds 22 1011 88 10000 2.73 349 06:45 30.11.2019
3484 Clouds 22 1011 88 10000 2.73 349 06:26 30.11.2019
3485 Clouds 23 1012 83 10000 2.6 360 03:56 30.11.2019
3486 Clouds 23 1012 83 10000 2.6 360 03:37 30.11.2019
3487 Clouds 24 1012 78 10000 2.6 30 02:25 30.11.2019
3488 Clouds 25 1012 73 10000 2.1 10 01:50 30.11.2019
3489 Clouds 26 1012 73 10000 2.1 10 01:24 30.11.2019
3490 Clouds 26 1011 78 10000 4.56 12 00:38 30.11.2019
3491 Clouds 26 1011 78 10000 4.56 12 00:20 30.11.2019
3492 Clouds 27 1011 74 10000 3.1 360 23:44 29.11.2019
3493 Clouds 28 1011 74 10000 3.1 360 23:23 29.11.2019
3494 Clouds 28 1011 74 10000 3.1 360 23:23 29.11.2019
3495 Clouds 29 1010 66 10000 4.1 360 22:48 29.11.2019
3496 Clouds 29 1010 66 10000 4.1 360 22:27 29.11.2019
3497 Clouds 30 1010 62 10000 6.2 360 21:56 29.11.2019
3498 Clouds 30 1010 62 10000 6.2 360 21:38 29.11.2019
3499 Clouds 31 1010 62 10000 6.2 360 21:19 29.11.2019
3500 Clouds 30 1012 62 10000 7.2 360 20:54 29.11.2019
3501 Clouds 30 1012 62 10000 7.2 360 20:36 29.11.2019
3502 Clouds 30 1012 62 10000 7.2 360 20:18 29.11.2019
3503 Clouds 31 1012 55 10000 6.2 360 19:41 29.11.2019
3504 Clouds 31 1012 55 10000 6.2 360 19:21 29.11.2019
3505 Clouds 31 1012 55 10000 6.2 360 18:59 29.11.2019
3506 Clouds 31 1013 62 10000 5.1 360 18:41 29.11.2019
3507 Clouds 31 1013 62 10000 5.1 360 18:22 29.11.2019
3508 Clouds 31 1014 62 10000 6.2 360 17:54 29.11.2019
3509 Clouds 30 1014 62 10000 6.2 360 17:36 29.11.2019
3510 Clouds 29 1014 66 10000 6.2 360 17:18 29.11.2019
3511 Clouds 29 1014 66 10000 6.2 360 16:42 29.11.2019
3512 Clouds 29 1014 66 10000 6.2 360 16:21 29.11.2019
3513 Clouds 28 1014 78 10000 6.2 360 15:43 29.11.2019
3514 Clouds 28 1014 78 10000 6.2 360 15:24 29.11.2019
3515 Clouds 28 1014 78 10000 6.2 360 14:59 29.11.2019
3516 Clouds 24 1013 88 10000 3.1 40 14:40 29.11.2019
3517 Clouds 24 1013 88 10000 3.1 40 14:21 29.11.2019
3518 Clouds 23 1012 94 10000 2.99 339 13:55 29.11.2019
3519 Clouds 23 1012 94 10000 2.99 339 13:37 29.11.2019
3520 Clouds 22 1012 94 10000 2.96 334 13:19 29.11.2019
3521 Clouds 22 1013 94 10000 2.1 20 12:41 29.11.2019
3522 Clouds 22 1013 94 10000 2.1 20 12:23 29.11.2019
3523 Clouds 22 1012 94 10000 2.6 360 11:55 29.11.2019
3524 Clouds 22 1012 94 10000 2.6 360 11:37 29.11.2019
3525 Clouds 23 1012 94 10000 2.6 360 11:18 29.11.2019
3526 Clouds 22 1012 94 10000 2.75 335 10:57 29.11.2019
3527 Clouds 22 1012 94 10000 2.75 335 10:38 29.11.2019
3528 Clouds 22 1012 94 10000 2.75 335 10:19 29.11.2019
3529 Clouds 22 1012 100 10000 2.1 20 09:57 29.11.2019
3530 Clouds 23 1012 100 10000 2.1 20 09:38 29.11.2019
3531 Clouds 23 1012 100 10000 2.1 20 09:19 29.11.2019
3532 Clouds 23 1012 94 10000 2.1 360 08:54 29.11.2019
3533 Clouds 23 1012 94 10000 2.1 360 08:36 29.11.2019
3534 Clouds 23 1012 94 10000 2.1 360 08:18 29.11.2019
3535 Clouds 24 1012 88 10000 2.1 360 07:40 29.11.2019
3536 Clouds 24 1013 88 10000 2.1 360 07:22 29.11.2019
3537 Clouds 24 1013 88 10000 2.1 360 06:46 29.11.2019
3538 Clouds 24 1014 88 10000 2.1 360 05:48 29.11.2019
3539 Clouds 24 1014 88 10000 2.1 360 05:26 29.11.2019
3540 Clouds 25 1014 88 10000 2.1 20 04:35 29.11.2019
3541 Clouds 25 1014 88 10000 2.1 20 03:23 29.11.2019
3542 Clouds 26 1014 83 10000 2.1 30 02:32 29.11.2019
3543 Clouds 27 1013 78 10000 2.1 50 01:57 29.11.2019
3544 Clouds 27 1013 78 10000 2.1 50 01:57 29.11.2019
3545 Clouds 27 1014 83 10000 3.92 356 01:27 29.11.2019
3546 Clouds 27 1014 83 10000 3.92 356 00:45 29.11.2019
3547 Clouds 27 1014 83 10000 3.92 356 00:21 29.11.2019
3548 Clouds 28 1013 70 10000 3.1 30 23:57 28.11.2019
3549 Clouds 29 1013 70 10000 3.1 30 23:38 28.11.2019
3550 Clouds 29 1013 70 10000 3.1 30 23:20 28.11.2019
3551 Clouds 30 1013 66 10000 5.1 30 22:40 28.11.2019
3552 Clouds 30 1013 66 10000 5.1 30 22:21 28.11.2019
3553 Clouds 30 1013 66 10000 5.1 30 22:21 28.11.2019
3554 Clouds 30 1013 66 10000 5.1 30 21:59 28.11.2019
3555 Clouds 31 1013 62 10000 5.1 360 21:41 28.11.2019
3556 Clouds 30 1013 62 10000 5.1 360 21:21 28.11.2019
3557 Clouds 31 1013 59 10000 7.2 360 20:58 28.11.2019
3558 Clouds 32 1013 59 10000 7.2 360 20:39 28.11.2019
3559 Clouds 31 1013 59 10000 7.2 360 20:21 28.11.2019
3560 Clouds 32 1014 55 10000 6.7 360 19:56 28.11.2019
3561 Clouds 32 1014 55 10000 6.7 360 19:37 28.11.2019
3562 Clouds 32 1014 55 10000 6.7 360 19:19 28.11.2019
3563 Clouds 31 1015 59 10000 5.1 20 18:56 28.11.2019
3564 Clouds 31 1015 59 10000 5.1 20 18:38 28.11.2019
3565 Clouds 31 1015 59 10000 5.1 20 18:18 28.11.2019
3566 Clouds 31 1016 62 10000 5.1 360 17:43 28.11.2019
3567 Clouds 30 1016 62 10000 5.1 360 17:25 28.11.2019
3568 Clouds 30 1017 62 10000 5.1 360 16:59 28.11.2019
3569 Clouds 30 1017 62 10000 5.1 360 16:40 28.11.2019
3570 Clouds 30 1017 62 10000 5.1 360 16:19 28.11.2019
3571 Clouds 29 1016 74 10000 5.1 360 15:57 28.11.2019
3572 Clouds 29 1016 74 10000 5.1 360 15:57 28.11.2019
3573 Clouds 29 1016 74 10000 5.1 360 15:38 28.11.2019
3574 Clouds 29 1016 74 10000 5.1 360 15:38 28.11.2019
3575 Clouds 29 1016 74 10000 5.1 360 15:19 28.11.2019
3576 Clouds 27 1017 78 10000 3.54 20 14:57 28.11.2019
3577 Clouds 27 1017 78 10000 3.54 20 14:38 28.11.2019
3578 Clouds 27 1017 78 10000 3.29 348 14:19 28.11.2019
3579 Clouds 25 1015 88 10000 3.29 348 13:42 28.11.2019
3580 Clouds 24 1015 88 10000 3.35 347 13:23 28.11.2019
3581 Clouds 23 1015 100 10000 2.1 360 12:55 28.11.2019
3582 Clouds 23 1015 100 10000 2.1 360 12:55 28.11.2019
3583 Clouds 23 1015 100 10000 2.1 360 12:36 28.11.2019
3584 Clouds 23 1015 100 10000 2.1 360 12:18 28.11.2019
3585 Clouds 23 1015 94 10000 2.1 360 11:54 28.11.2019
3586 Clouds 23 1015 94 10000 2.1 360 11:36 28.11.2019
3587 Clouds 23 1015 94 10000 2.1 360 11:18 28.11.2019
3588 Clouds 23 1015 94 10000 2.1 360 10:41 28.11.2019
3589 Clouds 23 1015 94 10000 2.1 360 10:20 28.11.2019
3590 Clouds 23 1014 94 10000 2.1 10 09:42 28.11.2019
3591 Clouds 23 1014 94 10000 2.1 10 09:24 28.11.2019
3592 Clouds 24 1014 94 10000 2.1 10 08:59 28.11.2019
3593 Clouds 23 1015 94 10000 2.1 10 08:40 28.11.2019
3594 Clouds 23 1015 94 10000 2.1 10 08:21 28.11.2019
3595 Clouds 24 1015 88 10000 2.1 360 07:43 28.11.2019
3596 Clouds 24 1015 88 10000 2.1 360 07:25 28.11.2019
3597 Clouds 24 1016 88 10000 2.1 360 06:57 28.11.2019
3598 Clouds 24 1016 88 10000 2.1 360 06:36 28.11.2019
3599 Clouds 25 1016 94 10000 2.1 360 05:53 28.11.2019
3600 Clouds 25 1016 94 10000 2.1 360 05:33 28.11.2019
3601 Clouds 25 1016 88 10000 2.1 360 03:43 28.11.2019
3602 Clouds 26 1016 83 10000 2.1 40 02:18 28.11.2019
3603 Clouds 27 1015 83 10000 2.6 30 00:52 28.11.2019
3604 Clouds 28 1015 83 10000 2.6 30 00:26 28.11.2019
3605 Clouds 28 1015 83 10000 2.6 30 23:59 27.11.2019
3606 Clouds 29 1015 79 10000 3.1 30 23:38 27.11.2019
3607 Clouds 29 1015 79 10000 3.1 30 23:19 27.11.2019
3608 Clouds 31 1014 70 10000 5.1 30 22:54 27.11.2019
3609 Clouds 31 1014 70 10000 5.1 30 22:36 27.11.2019
3610 Clouds 31 1014 70 10000 5.1 30 22:18 27.11.2019
3611 Clouds 32 1014 66 10000 5.1 30 21:55 27.11.2019
3612 Clouds 32 1014 66 10000 5.1 30 21:36 27.11.2019
3613 Clouds 32 1014 66 10000 5.1 30 21:18 27.11.2019
3614 Clouds 32 1014 66 10000 5.1 30 21:18 27.11.2019
3615 Clouds 32 1014 66 10000 5.1 30 20:55 27.11.2019
3616 Clouds 32 1014 66 10000 5.1 30 20:36 27.11.2019
3617 Clouds 32 1014 66 10000 5.1 30 20:18 27.11.2019
3618 Clouds 33 1015 63 10000 4.1 60 19:54 27.11.2019
3619 Clouds 33 1015 63 10000 4.1 60 19:54 27.11.2019
3620 Clouds 33 1015 63 10000 4.1 60 19:36 27.11.2019
3621 Clouds 33 1015 63 10000 4.1 60 19:18 27.11.2019
3622 Clouds 33 1015 63 10000 4.1 60 19:18 27.11.2019
3623 Clouds 32 1016 62 10000 6.2 360 18:38 27.11.2019
3624 Clouds 32 1016 62 10000 6.2 360 18:19 27.11.2019
3625 Clouds 32 1016 62 10000 6.2 360 18:19 27.11.2019
3626 Clouds 32 1017 66 10000 4.1 10 17:58 27.11.2019
3627 Clouds 31 1017 66 10000 4.1 10 17:40 27.11.2019
3628 Clouds 31 1017 66 10000 4.1 10 17:40 27.11.2019
3629 Clouds 31 1017 66 10000 4.1 10 17:21 27.11.2019
3630 Clouds 31 1018 66 10000 7.2 360 16:57 27.11.2019
3631 Clouds 31 1018 66 10000 7.2 360 16:38 27.11.2019
3632 Clouds 31 1018 66 10000 7.2 360 16:20 27.11.2019
3633 Clouds 29 1018 74 10000 3.1 10 15:57 27.11.2019
3634 Clouds 29 1018 74 10000 3.1 10 15:38 27.11.2019
3635 Clouds 29 1018 74 10000 3.1 10 15:20 27.11.2019
3636 Clouds 28 1017 83 10000 3.1 30 14:57 27.11.2019
3637 Clouds 28 1017 83 10000 3.1 30 14:39 27.11.2019
3638 Clouds 28 1017 83 10000 3.1 30 14:21 27.11.2019
3639 Clouds 26 1017 88 10000 3.52 351 13:57 27.11.2019
3640 Clouds 26 1017 88 10000 3.52 351 13:38 27.11.2019
3641 Clouds 26 1017 88 10000 3.52 351 13:38 27.11.2019
3642 Clouds 26 1017 88 10000 3.57 349 13:19 27.11.2019
3643 Clouds 24 1016 88 10000 1.5 10 12:55 27.11.2019
3644 Clouds 24 1016 88 10000 1.5 10 12:37 27.11.2019
3645 Clouds 24 1016 88 10000 1.5 10 12:18 27.11.2019
3646 Clouds 24 1015 94 10000 1.5 360 11:38 27.11.2019
3647 Clouds 24 1015 94 10000 1.5 360 11:19 27.11.2019
3648 Clouds 24 1014 88 10000 1.5 360 10:55 27.11.2019
3649 Clouds 25 1014 88 10000 1.5 360 10:37 27.11.2019
3650 Clouds 25 1014 88 10000 1.5 360 10:19 27.11.2019
3651 Clouds 24 1014 88 10000 2.1 360 09:43 27.11.2019
3652 Clouds 25 1014 88 10000 2.1 360 09:24 27.11.2019
3653 Clouds 24 1015 88 10000 2.1 10 08:43 27.11.2019
3654 Clouds 25 1015 88 10000 2.1 10 08:25 27.11.2019
3655 Clouds 25 1015 88 10000 2.1 360 07:59 27.11.2019
3656 Clouds 25 1015 88 10000 2.1 360 07:40 27.11.2019
3657 Clouds 25 1015 88 10000 2.1 360 07:20 27.11.2019
3658 Clouds 25 1015 83 10000 2.1 50 06:45 27.11.2019
3659 Clouds 25 1015 83 10000 2.1 50 06:25 27.11.2019
3660 Clouds 26 1015 83 10000 2.1 30 05:26 27.11.2019
3661 Clouds 25 1015 88 10000 2.1 40 04:56 27.11.2019
3662 Clouds 26 1015 88 10000 2.1 40 04:36 27.11.2019
3663 Clouds 26 1015 83 10000 2.1 30 03:48 27.11.2019
3664 Clouds 26 1015 83 10000 2.1 30 03:21 27.11.2019
3665 Clouds 26 1014 83 10000 2.1 30 02:54 27.11.2019
3666 Clouds 27 1013 83 10000 2.1 30 01:34 27.11.2019
3667 Clouds 28 1012 78 10000 3.34 16 00:42 27.11.2019
3668 Clouds 28 1012 78 10000 3.34 16 00:24 27.11.2019
3669 Clouds 29 1012 78 10000 3.1 130 23:44 26.11.2019
3670 Clouds 29 1012 78 10000 3.1 130 23:25 26.11.2019
3671 Clouds 30 1012 70 10000 2.1 120 22:55 26.11.2019
3672 Clouds 30 1012 70 10000 2.1 120 22:37 26.11.2019
3673 Clouds 30 1012 70 10000 2.1 120 22:18 26.11.2019
3674 Clouds 31 1012 70 10000 2.1 40 21:40 26.11.2019
3675 Clouds 31 1012 70 10000 2.1 40 21:21 26.11.2019
3676 Clouds 32 1013 66 10000 3.1 70 20:58 26.11.2019
3677 Clouds 32 1013 66 10000 3.1 70 20:58 26.11.2019
3678 Clouds 32 1013 66 10000 3.1 70 20:39 26.11.2019
3679 Clouds 32 1013 66 10000 3.1 70 20:19 26.11.2019
3680 Clouds 32 1014 66 10000 3.1 70 19:56 26.11.2019
3681 Clouds 32 1014 66 10000 3.1 70 19:38 26.11.2019
3682 Clouds 32 1014 66 10000 3.1 70 19:20 26.11.2019
3683 Clouds 31 1015 66 10000 4.1 10 18:58 26.11.2019
3684 Clouds 31 1015 66 10000 4.1 10 18:39 26.11.2019
3685 Clouds 31 1015 66 10000 4.1 10 18:21 26.11.2019
3686 Clouds 31 1015 66 10000 3.1 350 17:59 26.11.2019
3687 Clouds 31 1015 66 10000 3.1 350 17:40 26.11.2019
3688 Clouds 31 1015 66 10000 3.1 350 17:22 26.11.2019
3689 Clouds 30 1016 70 10000 3.1 350 16:57 26.11.2019
3690 Clouds 30 1016 70 10000 3.1 350 16:38 26.11.2019
3691 Clouds 30 1016 70 10000 3.1 350 16:19 26.11.2019
3692 Clouds 29 1016 70 10000 3.1 350 15:59 26.11.2019
3693 Clouds 28 1015 78 10000 3.1 40 15:59 26.11.2019
3694 Clouds 28 1015 78 10000 3.1 40 15:38 26.11.2019
3695 Clouds 28 1015 78 10000 3.1 40 15:38 26.11.2019
3696 Clouds 28 1015 78 10000 3.1 40 15:20 26.11.2019
3697 Clouds 26 1014 88 10000 3.25 29 14:51 26.11.2019
3698 Clouds 26 1014 88 10000 3.25 29 14:26 26.11.2019
3699 Clouds 24 1013 94 10000 2.46 349 13:57 26.11.2019
3700 Clouds 23 1013 94 10000 2.46 349 13:38 26.11.2019
3701 Clouds 23 1013 94 10000 2.4 350 13:19 26.11.2019
3702 Clouds 23 1013 94 10000 2.4 350 13:19 26.11.2019
3703 Clouds 23 1013 100 10000 2.1 20 12:39 26.11.2019
3704 Clouds 23 1013 100 10000 2.1 20 12:21 26.11.2019
3705 Clouds 23 1012 94 10000 2.1 360 11:58 26.11.2019
3706 Clouds 23 1012 94 10000 2.1 360 11:39 26.11.2019
3707 Clouds 23 1012 94 10000 2.1 360 11:39 26.11.2019
3708 Clouds 23 1012 94 10000 2.1 360 11:20 26.11.2019
3709 Clouds 23 1012 94 10000 1.5 0 10:58 26.11.2019
3710 Clouds 23 1012 94 10000 1.5 0 10:40 26.11.2019
3711 Clouds 23 1012 94 10000 1.5 0 10:21 26.11.2019
3712 Clouds 23 1012 100 10000 1.5 0 09:57 26.11.2019
3713 Clouds 23 1012 100 10000 1.5 0 09:37 26.11.2019
3714 Clouds 23 1012 100 10000 1.5 0 09:18 26.11.2019
3715 Clouds 24 1012 94 10000 1.5 0 08:43 26.11.2019
3716 Clouds 24 1012 94 10000 1.5 0 08:43 26.11.2019
3717 Clouds 25 1012 94 10000 1.5 0 08:24 26.11.2019
3718 Clouds 24 1013 94 10000 2.1 20 07:46 26.11.2019
3719 Clouds 24 1013 94 10000 2.1 20 07:27 26.11.2019
3720 Clouds 24 1013 100 10000 2.1 40 06:55 26.11.2019
3721 Clouds 24 1013 100 10000 2.1 40 06:33 26.11.2019
3722 Clouds 24 1014 94 10000 2.1 60 05:52 26.11.2019
3723 Clouds 24 1013 94 10000 2.1 50 03:59 26.11.2019
3724 Clouds 25 1013 88 10000 2.1 90 02:49 26.11.2019
3725 Clouds 26 1012 83 10000 2.1 90 01:33 26.11.2019
3726 Clouds 27 1011 83 10000 1.53 317 00:51 26.11.2019
3727 Clouds 27 1011 83 10000 1.53 317 00:26 26.11.2019
3728 Clouds 28 1010 74 10000 2.1 120 23:41 25.11.2019
3729 Clouds 28 1010 74 10000 2.1 120 23:21 25.11.2019
3730 Clouds 29 1010 66 10000 4.1 120 22:59 25.11.2019
3731 Clouds 30 1010 66 10000 4.1 120 22:38 25.11.2019
3732 Clouds 30 1010 66 10000 4.1 120 22:18 25.11.2019
3733 Clouds 30 1011 66 10000 5.1 120 21:58 25.11.2019
3734 Clouds 30 1011 66 10000 5.1 120 21:39 25.11.2019
3735 Clouds 30 1011 66 10000 5.1 120 21:21 25.11.2019
3736 Clouds 30 1011 74 10000 5.1 160 20:57 25.11.2019
3737 Clouds 30 1011 74 10000 5.1 160 20:39 25.11.2019
3738 Clouds 30 1011 74 10000 5.1 160 20:19 25.11.2019
3739 Clouds 31 1012 66 10000 2.1 90 19:56 25.11.2019
3740 Clouds 31 1012 66 10000 2.1 90 19:37 25.11.2019
3741 Clouds 31 1012 66 10000 2.1 90 19:18 25.11.2019
3742 Clouds 31 1013 74 10000 4.1 90 18:56 25.11.2019
3743 Clouds 31 1013 74 10000 4.1 90 18:38 25.11.2019
3744 Clouds 31 1013 74 10000 4.1 90 18:19 25.11.2019
3745 Clouds 30 1014 74 10000 4.1 120 17:57 25.11.2019
3746 Clouds 31 1014 74 10000 4.1 120 17:37 25.11.2019
3747 Clouds 30 1014 74 10000 4.1 120 17:19 25.11.2019
3748 Clouds 29 1014 83 10000 2.1 30 16:55 25.11.2019
3749 Clouds 29 1014 83 10000 2.1 30 16:37 25.11.2019
3750 Clouds 28 1014 83 10000 2.1 30 16:18 25.11.2019
3751 Clouds 28 1014 83 10000 2.1 30 15:41 25.11.2019
3752 Clouds 27 1014 83 10000 2.1 30 15:21 25.11.2019
3753 Clouds 27 1014 83 10000 2.1 30 15:21 25.11.2019
3754 Clouds 26 1014 78 10000 3.1 50 14:58 25.11.2019
3755 Clouds 26 1014 78 10000 3.1 50 14:40 25.11.2019
3756 Clouds 23 1014 78 10000 3.1 50 14:21 25.11.2019
3757 Clouds 22 1014 93 10000 1.53 340 13:41 25.11.2019
3758 Clouds 21 1014 93 10000 1.63 339 13:21 25.11.2019
3759 Clouds 22 1013 100 10000 2.1 50 12:59 25.11.2019
3760 Clouds 21 1013 100 10000 2.1 50 12:40 25.11.2019
3761 Clouds 21 1013 100 10000 2.1 50 12:21 25.11.2019
3762 Clouds 20 1012 100 10000 2.1 40 11:58 25.11.2019
3763 Clouds 21 1012 100 10000 2.1 40 11:39 25.11.2019
3764 Clouds 21 1012 100 10000 2.1 40 11:20 25.11.2019
3765 Clouds 22 1012 100 10000 2.1 40 10:46 25.11.2019
3766 Clouds 22 1012 100 10000 2.1 40 10:27 25.11.2019
3767 Clouds 22 1011 94 10000 2.1 40 09:58 25.11.2019
3768 Clouds 22 1011 94 10000 2.1 40 09:40 25.11.2019
3769 Clouds 22 1011 94 10000 2.1 40 09:22 25.11.2019
3770 Clouds 22 1011 94 10000 2.1 50 08:41 25.11.2019
3771 Clouds 22 1011 94 10000 2.1 50 08:22 25.11.2019
3772 Clouds 22 1012 94 10000 2.1 50 07:44 25.11.2019
3773 Clouds 23 1012 94 10000 2.1 50 07:24 25.11.2019
3774 Clouds 23 1012 94 10000 2.1 60 06:50 25.11.2019
3775 Clouds 23 1012 94 10000 2.1 60 06:21 25.11.2019
3776 Clouds 24 1012 88 10000 2.6 90 05:40 25.11.2019
3777 Clouds 24 1013 88 10000 2.1 80 04:52 25.11.2019
3778 Clouds 25 1013 88 10000 2.1 60 03:24 25.11.2019
3779 Clouds 25 1013 88 10000 2.1 60 02:28 25.11.2019
3780 Clouds 27 1012 88 10000 0.88 299 01:41 25.11.2019
3781 Clouds 27 1012 88 10000 0.55 350 01:22 25.11.2019
3782 Clouds 27 1012 78 10000 0.55 350 00:24 25.11.2019
3783 Clouds 28 1011 78 10000 0.55 350 23:59 24.11.2019
3784 Clouds 28 1011 78 10000 0.55 350 23:59 24.11.2019
3785 Clouds 28 1011 78 10000 0.55 350 23:41 24.11.2019
3786 Clouds 28 1011 78 10000 2.17 142 23:19 24.11.2019
3787 Clouds 28 1011 69 10000 3.1 160 22:56 24.11.2019
3788 Clouds 28 1011 69 10000 3.1 160 22:37 24.11.2019
3789 Clouds 29 1011 69 10000 3.1 160 22:18 24.11.2019
3790 Clouds 29 1011 69 10000 3.1 160 22:18 24.11.2019
3791 Clouds 29 1011 66 10000 3.1 100 21:42 24.11.2019
3792 Clouds 30 1011 66 10000 3.1 100 21:22 24.11.2019
3793 Clouds 30 1012 62 10000 3.1 90 20:59 24.11.2019
3794 Clouds 30 1012 62 10000 3.1 90 20:40 24.11.2019
3795 Clouds 30 1012 62 10000 3.1 90 20:20 24.11.2019
3796 Clouds 31 1013 59 10000 3.1 40 19:58 24.11.2019
3797 Clouds 31 1013 59 10000 3.1 40 19:40 24.11.2019
3798 Clouds 31 1013 59 10000 3.1 40 19:21 24.11.2019
3799 Clouds 31 1013 62 10000 3.1 70 19:00 24.11.2019
3800 Clouds 31 1013 62 10000 3.1 70 18:38 24.11.2019
3801 Clouds 31 1013 62 10000 3.1 70 18:20 24.11.2019
3802 Clouds 30 1014 70 10000 3.1 70 17:59 24.11.2019
3803 Clouds 30 1014 70 10000 3.1 70 17:41 24.11.2019
3804 Clouds 30 1014 70 10000 3.1 70 17:22 24.11.2019
3805 Clouds 29 1015 79 10000 2.6 360 16:58 24.11.2019
3806 Clouds 29 1015 79 10000 2.6 360 16:39 24.11.2019
3807 Clouds 30 1015 79 10000 2.6 360 16:21 24.11.2019
3808 Clouds 27 1014 83 10000 2.3 41 15:55 24.11.2019
3809 Clouds 26 1014 83 10000 2.3 41 15:37 24.11.2019
3810 Clouds 26 1014 83 10000 2.3 41 15:18 24.11.2019
3811 Clouds 25 1014 88 10000 2.3 41 14:39 24.11.2019
3812 Clouds 25 1014 88 10000 2.28 335 14:19 24.11.2019
3813 Clouds 23 1013 94 10000 2.28 335 13:58 24.11.2019
3814 Clouds 22 1013 94 10000 2.28 335 13:37 24.11.2019
3815 Clouds 22 1013 94 10000 2.3 338 13:19 24.11.2019
3816 Clouds 22 1013 94 10000 2.1 360 12:55 24.11.2019
3817 Clouds 22 1013 94 10000 2.1 360 12:37 24.11.2019
3818 Clouds 22 1013 94 10000 2.1 360 12:18 24.11.2019
3819 Clouds 22 1013 94 10000 2.6 360 11:38 24.11.2019
3820 Clouds 22 1013 94 10000 2.6 360 11:19 24.11.2019
3821 Clouds 22 1012 100 10000 2.6 20 10:48 24.11.2019
3822 Clouds 22 1012 100 10000 2.6 20 10:30 24.11.2019
3823 Clouds 22 1012 100 10000 2.6 20 09:59 24.11.2019
3824 Clouds 23 1012 94 10000 2.1 20 09:38 24.11.2019
3825 Clouds 23 1012 94 10000 2.1 20 09:19 24.11.2019
3826 Clouds 23 1012 88 10000 2.1 10 08:56 24.11.2019
3827 Clouds 23 1012 88 10000 2.1 10 08:37 24.11.2019
3828 Clouds 23 1012 88 10000 2.1 10 08:18 24.11.2019
3829 Clouds 23 1013 94 10000 2.33 338 07:47 24.11.2019
3830 Clouds 23 1013 94 10000 2.33 338 07:20 24.11.2019
3831 Rain 24 1014 88 10000 2.33 338 06:26 24.11.2019
3832 Clouds 24 1015 88 10000 2.8 344 04:54 24.11.2019
3833 Clouds 24 1015 88 10000 2.8 344 04:35 24.11.2019
3834 Clouds 25 1014 94 10000 2.1 50 02:32 24.11.2019
3835 Clouds 25 1014 83 10000 2.85 9 01:41 24.11.2019
3836 Clouds 26 1014 83 10000 3.18 24 01:22 24.11.2019
3837 Clouds 26 1014 83 10000 3.18 24 01:22 24.11.2019
3838 Clouds 26 1013 78 10000 3.18 24 00:48 24.11.2019
3839 Clouds 26 1013 78 10000 3.18 24 00:24 24.11.2019
3840 Clouds 26 1013 78 10000 3.18 24 00:24 24.11.2019
3841 Clouds 28 1013 65 10000 3.1 30 23:54 23.11.2019
3842 Clouds 28 1013 65 10000 3.1 30 23:36 23.11.2019
3843 Clouds 28 1013 65 10000 3.1 30 23:18 23.11.2019
3844 Clouds 28 1012 62 10000 6.2 360 22:54 23.11.2019
3845 Clouds 28 1012 62 10000 6.2 360 22:36 23.11.2019
3846 Clouds 28 1012 62 10000 6.2 360 22:18 23.11.2019
3847 Clouds 29 1012 62 10000 5.1 360 21:42 23.11.2019
3848 Clouds 29 1012 62 10000 5.1 360 21:22 23.11.2019
3849 Clouds 29 1013 58 10000 6.2 40 20:59 23.11.2019
3850 Clouds 29 1013 58 10000 6.2 40 20:37 23.11.2019
3851 Clouds 29 1013 58 10000 6.2 40 20:18 23.11.2019
3852 Clouds 30 1013 62 10000 5.1 20 19:56 23.11.2019
3853 Clouds 30 1013 62 10000 5.1 20 19:37 23.11.2019
3854 Clouds 30 1013 62 10000 5.1 20 19:37 23.11.2019
3855 Clouds 30 1013 62 10000 5.1 20 19:18 23.11.2019
3856 Clouds 30 1014 62 10000 4.1 30 18:40 23.11.2019
3857 Clouds 30 1014 62 10000 4.1 30 18:40 23.11.2019
3858 Clouds 30 1014 62 10000 4.1 30 18:21 23.11.2019
3859 Clouds 29 1015 66 10000 5.1 30 17:58 23.11.2019
3860 Clouds 29 1015 66 10000 5.1 30 17:40 23.11.2019
3861 Clouds 29 1015 66 10000 5.1 30 17:20 23.11.2019
3862 Clouds 29 1016 66 10000 5.1 360 16:56 23.11.2019
3863 Clouds 29 1016 66 10000 5.1 360 16:37 23.11.2019
3864 Clouds 29 1016 66 10000 5.1 360 16:37 23.11.2019
3865 Clouds 29 1016 66 10000 5.1 360 16:19 23.11.2019
3866 Clouds 28 1016 78 10000 4.1 360 15:56 23.11.2019
3867 Clouds 28 1016 78 10000 4.1 360 15:38 23.11.2019
3868 Clouds 28 1016 78 10000 4.1 360 15:18 23.11.2019
3869 Clouds 26 1014 83 10000 4.25 18 14:43 23.11.2019
3870 Clouds 25 1014 83 10000 3.03 345 14:22 23.11.2019
3871 Clouds 24 1013 88 10000 3.03 345 13:59 23.11.2019
3872 Clouds 24 1013 88 10000 3.03 345 13:40 23.11.2019
3873 Clouds 23 1013 88 10000 2.92 343 13:19 23.11.2019
3874 Clouds 22 1013 88 10000 2.1 360 12:44 23.11.2019
3875 Clouds 22 1013 88 10000 2.1 360 12:24 23.11.2019
3876 Clouds 22 1013 88 10000 2.1 360 12:24 23.11.2019
3877 Clouds 23 1013 83 10000 2.1 350 11:58 23.11.2019
3878 Clouds 23 1013 83 10000 2.1 350 11:40 23.11.2019
3879 Clouds 23 1013 83 10000 2.1 350 11:18 23.11.2019
3880 Clouds 23 1013 78 10000 2.1 350 10:43 23.11.2019
3881 Clouds 23 1013 78 10000 2.1 350 10:21 23.11.2019
3882 Clouds 23 1013 78 10000 2.1 350 09:41 23.11.2019
3883 Clouds 23 1013 78 10000 2.1 350 09:19 23.11.2019
3884 Clouds 23 1013 83 10000 2.1 10 08:42 23.11.2019
3885 Clouds 23 1013 83 10000 2.1 10 08:19 23.11.2019
3886 Clouds 23 1013 94 10000 2.1 360 07:52 23.11.2019
3887 Clouds 23 1013 94 10000 2.1 360 07:34 23.11.2019
3888 Clouds 24 1014 88 10000 2.1 350 06:43 23.11.2019
3889 Clouds 24 1014 88 10000 2.1 350 06:19 23.11.2019
3890 Clouds 24 1014 94 10000 2.1 350 05:46 23.11.2019
3891 Clouds 24 1014 94 10000 2.1 350 05:27 23.11.2019
3892 Clouds 25 1014 83 10000 2.1 20 04:44 23.11.2019
3893 Clouds 25 1014 83 10000 2.1 20 04:26 23.11.2019
3894 Clouds 25 1014 83 10000 2.1 30 02:39 23.11.2019
3895 Clouds 25 1013 83 10000 2.1 20 01:42 23.11.2019
3896 Clouds 27 1013 78 10000 3.92 6 00:57 23.11.2019
3897 Clouds 27 1013 78 10000 3.92 6 00:38 23.11.2019
3898 Clouds 27 1013 78 10000 3.92 6 00:18 23.11.2019
3899 Clouds 27 1013 78 10000 3.92 6 00:18 23.11.2019
3900 Clouds 27 1013 74 10000 4.1 10 23:39 22.11.2019
3901 Clouds 27 1013 74 10000 4.1 10 23:20 22.11.2019
3902 Clouds 28 1012 62 10000 3.1 30 22:57 22.11.2019
3903 Clouds 28 1012 62 10000 3.1 30 22:38 22.11.2019
3904 Clouds 28 1012 62 10000 3.1 30 22:20 22.11.2019
3905 Clouds 29 1013 58 10000 4.1 10 21:58 22.11.2019
3906 Clouds 29 1013 58 10000 4.1 10 21:38 22.11.2019
3907 Clouds 29 1013 58 10000 4.1 10 21:19 22.11.2019
3908 Clouds 30 1012 58 10000 4.1 60 20:42 22.11.2019
3909 Clouds 30 1012 58 10000 4.1 60 20:22 22.11.2019
3910 Clouds 30 1012 55 10000 7.7 60 19:55 22.11.2019
3911 Clouds 30 1012 55 10000 7.7 60 19:37 22.11.2019
3912 Clouds 30 1012 55 10000 7.7 60 19:18 22.11.2019
3913 Clouds 30 1014 58 10000 6.7 10 18:39 22.11.2019
3914 Clouds 30 1014 58 10000 6.7 10 18:21 22.11.2019
3915 Clouds 30 1014 58 10000 6.7 10 18:21 22.11.2019
3916 Clouds 29 1014 62 10000 5.1 360 17:55 22.11.2019
3917 Clouds 29 1014 62 10000 5.1 360 17:37 22.11.2019
3918 Clouds 29 1014 62 10000 5.1 360 17:19 22.11.2019
3919 Clouds 28 1015 65 10000 6.2 360 16:40 22.11.2019
3920 Clouds 28 1015 65 10000 6.2 360 16:22 22.11.2019
3921 Clouds 28 1015 69 10000 5.1 20 15:41 22.11.2019
3922 Clouds 28 1015 69 10000 5.1 20 15:23 22.11.2019
3923 Clouds 26 1014 78 10000 7.7 360 14:56 22.11.2019
3924 Clouds 26 1014 78 10000 7.7 360 14:37 22.11.2019
3925 Clouds 26 1014 78 10000 7.7 360 14:19 22.11.2019
3926 -273 0 0 0 0 0 13:55 22.11.2019
3927 Clouds 24 1014 88 10000 3.92 356 13:36 22.11.2019
3928 Clouds 24 1014 88 10000 3.83 355 13:18 22.11.2019
3929 Clouds 24 1014 88 10000 3.83 355 13:18 22.11.2019
3930 Clouds 23 1013 94 10000 1.5 360 12:40 22.11.2019
3931 Clouds 23 1013 94 10000 1.5 360 12:20 22.11.2019
3932 Clouds 23 1012 94 10000 2.1 350 11:59 22.11.2019
3933 Clouds 23 1012 94 10000 2.1 350 11:38 22.11.2019
3934 Clouds 23 1012 94 10000 2.1 350 11:20 22.11.2019
3935 Clouds 23 1012 100 10000 2.6 360 10:58 22.11.2019
3936 Clouds 23 1012 100 10000 2.6 360 10:39 22.11.2019
3937 Clouds 23 1012 100 10000 2.6 360 10:21 22.11.2019
3938 Clouds 23 1012 100 10000 2.1 340 09:55 22.11.2019
3939 Clouds 23 1012 100 10000 2.1 340 09:37 22.11.2019
3940 Clouds 23 1012 100 10000 2.1 340 09:18 22.11.2019
3941 Clouds 23 1012 100 10000 2.1 340 08:44 22.11.2019
3942 Clouds 23 1012 100 10000 2.1 340 08:24 22.11.2019
3943 Clouds 23 1012 90 0 1.34 19 07:45 22.11.2019
3944 Clouds 24 1013 100 10000 3.1 350 07:22 22.11.2019
3945 Clouds 24 1013 100 10000 3.1 350 06:49 22.11.2019
3946 Clouds 24 1013 100 10000 3.1 350 06:29 22.11.2019
3947 Clouds 24 1014 89 0 2.24 28 05:45 22.11.2019
3948 Clouds 24 1013 94 10000 2.1 40 04:19 22.11.2019
3949 Clouds 24 1013 100 10000 2.6 20 02:48 22.11.2019
3950 Clouds 24 1013 100 10000 2.6 20 02:29 22.11.2019
3951 Rain 24 1013 100 8000 3.1 20 01:45 22.11.2019
3952 Rain 24 1013 100 8000 3.1 20 01:19 22.11.2019
3953 Clouds 24 1012 83 10000 4.64 358 00:49 22.11.2019
3954 Clouds 25 1012 83 10000 4.64 358 00:23 22.11.2019
3955 Rain 25 1011 78 8000 4.1 30 23:44 21.11.2019
3956 Rain 25 1011 78 8000 4.1 30 23:44 21.11.2019
3957 Rain 25 1011 78 8000 4.1 30 23:26 21.11.2019
3958 Rain 26 1011 78 8000 5.1 30 22:58 21.11.2019
3959 Rain 26 1011 78 8000 5.1 30 22:39 21.11.2019
3960 Rain 26 1011 78 8000 5.1 30 22:39 21.11.2019
3961 Rain 27 1011 78 8000 5.1 30 22:20 21.11.2019
3962 Clouds 28 1011 78 10000 5.1 360 21:56 21.11.2019
3963 Clouds 28 1011 78 10000 5.1 360 21:37 21.11.2019
3964 Clouds 28 1011 78 10000 5.1 360 21:37 21.11.2019
3965 Clouds 28 1012 74 10000 5.1 270 21:19 21.11.2019
3966 Clouds 28 1012 74 10000 5.1 270 20:57 21.11.2019
3967 Clouds 28 1012 74 10000 5.1 270 20:38 21.11.2019
3968 Clouds 28 1012 74 10000 5.1 270 20:19 21.11.2019
3969 Clouds 28 1012 74 10000 4.1 360 19:58 21.11.2019
3970 Clouds 28 1012 74 10000 4.1 360 19:58 21.11.2019
3971 Clouds 28 1012 74 10000 4.1 360 19:58 21.11.2019
3972 Clouds 28 1012 74 10000 4.1 360 19:38 21.11.2019
3973 Clouds 27 1012 74 10000 4.1 360 19:20 21.11.2019
3974 Rain 27 1013 74 8000 5.1 360 18:55 21.11.2019
3975 Rain 27 1013 74 8000 5.1 360 18:37 21.11.2019
3976 Rain 27 1013 74 8000 5.1 360 18:18 21.11.2019
3977 Rain 26 1014 78 8000 5.1 360 17:41 21.11.2019
3978 Rain 26 1014 78 8000 5.1 360 17:22 21.11.2019
3979 Rain 26 1014 78 8000 5.1 360 16:59 21.11.2019
3980 Rain 26 1014 78 8000 5.1 360 16:40 21.11.2019
3981 Rain 26 1014 78 8000 5.1 360 16:21 21.11.2019
3982 Clouds 27 1013 83 10000 4.1 360 15:56 21.11.2019
3983 Clouds 27 1013 83 10000 4.1 360 15:37 21.11.2019
3984 Clouds 27 1013 83 10000 4.1 360 15:19 21.11.2019
3985 Rain 25 1014 100 7000 2.6 333 14:39 21.11.2019
3986 Rain 25 1013 83 8000 3.2 344 14:21 21.11.2019
3987 Rain 25 1013 83 8000 3.2 344 13:59 21.11.2019
3988 Clouds 25 1013 94 10000 3.1 350 13:38 21.11.2019
3989 Clouds 25 1013 94 10000 3.1 350 13:19 21.11.2019
3990 Clouds 25 1013 94 10000 3.1 350 13:19 21.11.2019
3991 Clouds 24 1012 100 10000 1.5 0 12:43 21.11.2019
3992 -273 0 0 0 0 0 12:25 21.11.2019
3993 Clouds 24 1012 94 10000 2.1 350 11:59 21.11.2019
3994 Clouds 24 1012 94 10000 2.1 350 11:40 21.11.2019
3995 Clouds 24 1012 94 10000 2.1 350 11:21 21.11.2019
3996 Clouds 24 1012 94 10000 2.1 350 11:21 21.11.2019
3997 Clouds 24 1011 100 10000 3.06 345 10:55 21.11.2019
3998 Clouds 24 1011 100 10000 3.06 345 10:37 21.11.2019
3999 Clouds 24 1011 100 10000 3.06 345 10:37 21.11.2019
4000 Clouds 24 1011 100 10000 3.06 345 10:19 21.11.2019
4001 Clouds 24 1011 100 10000 1.5 340 09:43 21.11.2019
4002 Clouds 24 1011 100 10000 1.5 340 09:23 21.11.2019
4003 Thunderstorm 24 1011 100 10000 2.1 350 08:55 21.11.2019
4004 Thunderstorm 24 1011 100 10000 2.1 350 08:37 21.11.2019
4005 Thunderstorm 24 1011 100 10000 2.1 350 08:18 21.11.2019
4006 Thunderstorm 24 1011 100 10000 2.1 20 07:39 21.11.2019
4007 Thunderstorm 24 1011 100 10000 2.1 20 07:18 21.11.2019
4008 Thunderstorm 25 1012 94 10000 2.1 50 06:45 21.11.2019
4009 Thunderstorm 25 1012 94 10000 2.1 50 06:24 21.11.2019
4010 Thunderstorm 25 1013 94 10000 2.1 40 05:27 21.11.2019
4011 Thunderstorm 25 1013 100 10000 1.5 0 03:25 21.11.2019
4012 Thunderstorm 25 1013 100 8000 2.28 343 02:35 21.11.2019
4013 Thunderstorm 27 1012 83 10000 6.2 30 01:52 21.11.2019
4014 Thunderstorm 27 1012 83 10000 6.2 30 01:23 21.11.2019
4015 Clouds 28 1012 83 10000 2.31 5 00:47 21.11.2019
4016 Clouds 28 1012 83 10000 2.31 5 00:20 21.11.2019
4017 Clouds 28 1012 83 10000 2.31 5 00:20 21.11.2019
4018 Clouds 28 1011 78 10000 3.1 160 23:51 20.11.2019
4019 Clouds 28 1011 78 10000 3.1 160 23:23 20.11.2019
4020 Clouds 30 1011 74 10000 5.1 180 22:58 20.11.2019
4021 Clouds 30 1011 74 10000 5.1 180 22:40 20.11.2019
4022 Clouds 30 1011 74 10000 5.1 180 22:20 20.11.2019
4023 Clouds 31 1011 66 10000 5.1 180 21:59 20.11.2019
4024 Clouds 31 1011 66 10000 5.1 180 21:40 20.11.2019
4025 Clouds 31 1011 66 10000 5.1 180 21:22 20.11.2019
4026 Clouds 32 1012 62 10000 4.1 360 20:58 20.11.2019
4027 Clouds 32 1012 62 10000 4.1 360 20:40 20.11.2019
4028 Clouds 32 1012 62 10000 4.1 360 20:21 20.11.2019
4029 Clouds 32 1011 65 0 1.34 214 19:58 20.11.2019
4030 Clouds 32 1011 65 0 1.34 214 19:58 20.11.2019
4031 Clouds 32 1011 66 0 1.34 179 19:37 20.11.2019
4032 Clouds 31 1013 66 10000 3.1 30 19:19 20.11.2019
4033 Clouds 31 1013 66 10000 3.1 30 18:59 20.11.2019
4034 Clouds 31 1013 66 10000 3.1 30 18:40 20.11.2019
4035 Clouds 31 1013 66 10000 3.1 30 18:21 20.11.2019
4036 Clouds 31 1014 66 10000 1.85 142 17:57 20.11.2019
4037 Clouds 31 1014 66 10000 1.85 142 17:39 20.11.2019
4038 Clouds 31 1014 66 10000 0.91 58 17:20 20.11.2019
4039 Clouds 31 1014 74 10000 0.91 58 16:57 20.11.2019
4040 Clouds 31 1014 74 10000 0.91 58 16:39 20.11.2019
4041 Clouds 30 1014 74 10000 0.91 58 16:18 20.11.2019
4042 Clouds 29 1013 83 10000 0.91 58 15:55 20.11.2019
4043 Clouds 29 1013 83 10000 0.91 58 15:36 20.11.2019
4044 Clouds 29 1013 83 10000 0.91 58 15:18 20.11.2019
4045 Clouds 27 1013 94 10000 0.91 58 14:40 20.11.2019
4046 Clouds 27 1013 94 10000 1.71 327 14:22 20.11.2019
4047 Clouds 25 1013 100 10000 1.71 327 13:58 20.11.2019
4048 Clouds 25 1013 100 10000 1.71 327 13:39 20.11.2019
4049 Clouds 25 1013 100 10000 1.71 327 13:20 20.11.2019
4050 -273 0 0 0 0 0 12:55 20.11.2019
4051 Clouds 24 1012 94 10000 2.1 20 12:36 20.11.2019
4052 Clouds 24 1012 94 10000 2.1 20 12:18 20.11.2019
4053 Clouds 23 1012 94 10000 2.6 40 11:41 20.11.2019
4054 Clouds 24 1012 94 10000 2.6 40 11:22 20.11.2019
4055 Clouds 24 1012 100 10000 1.5 0 10:56 20.11.2019
4056 Clouds 24 1012 100 10000 1.5 0 10:37 20.11.2019
4057 Clouds 24 1012 100 10000 1.5 0 10:19 20.11.2019
4058 Clouds 24 1011 100 10000 1.5 0 09:43 20.11.2019
4059 Clouds 24 1011 100 10000 1.5 0 09:22 20.11.2019
4060 Clouds 24 1012 100 10000 1.5 0 08:56 20.11.2019
4061 Clouds 24 1012 100 10000 1.5 0 08:38 20.11.2019
4062 Clouds 24 1012 100 10000 1.5 0 08:20 20.11.2019
4063 Clouds 24 1012 94 10000 2.1 60 07:45 20.11.2019
4064 Clouds 25 1012 94 10000 2.1 60 07:25 20.11.2019
4065 Clouds 24 1013 94 10000 2.1 70 06:49 20.11.2019
4066 Clouds 25 1013 94 10000 2.1 70 06:22 20.11.2019
4067 Clouds 25 1013 94 10000 2.1 70 05:26 20.11.2019
4068 Clouds 25 1013 88 10000 2.1 60 03:36 20.11.2019
4069 Clouds 27 1013 88 10000 1.02 222 02:21 20.11.2019
4070 Clouds 27 1012 88 10000 2.1 140 01:33 20.11.2019
4071 Clouds 27 1012 78 10000 2.1 170 00:41 20.11.2019
4072 Clouds 28 1012 70 10000 3.1 180 23:54 19.11.2019
4073 Clouds 29 1012 70 10000 3.1 180 23:26 19.11.2019
4074 Clouds 29 1011 66 10000 4.1 180 22:58 19.11.2019
4075 Clouds 30 1011 66 10000 4.1 180 22:39 19.11.2019
4076 Clouds 30 1011 66 10000 4.1 180 22:19 19.11.2019
4077 Clouds 31 1011 66 10000 5.1 180 21:56 19.11.2019
4078 Clouds 30 1011 66 10000 5.1 180 21:37 19.11.2019
4079 Clouds 30 1011 66 10000 5.1 180 21:19 19.11.2019
4080 Clouds 30 1011 66 10000 5.1 180 21:19 19.11.2019
4081 Clouds 31 1011 62 10000 5.1 180 20:56 19.11.2019
4082 Clouds 31 1011 62 10000 5.1 180 20:37 19.11.2019
4083 Clouds 31 1011 62 10000 5.1 180 20:18 19.11.2019
4084 Clouds 31 1012 66 10000 3.31 149 19:55 19.11.2019
4085 Clouds 31 1012 66 10000 3.31 149 19:37 19.11.2019
4086 Clouds 31 1012 66 10000 3.31 149 19:18 19.11.2019
4087 Clouds 31 1012 66 10000 5.1 180 18:54 19.11.2019
4088 Clouds 31 1012 66 10000 5.1 180 18:36 19.11.2019
4089 Clouds 31 1012 66 10000 5.1 180 18:18 19.11.2019
4090 -273 0 0 0 0 0 17:54 19.11.2019
4091 Clouds 30 1013 74 10000 3.1 210 17:36 19.11.2019
4092 Clouds 31 1013 74 10000 3.1 210 17:18 19.11.2019
4093 Clouds 30 1014 83 10000 1.07 67 16:41 19.11.2019
4094 Clouds 30 1014 83 10000 1.07 67 16:21 19.11.2019
4095 Clouds 30 1014 83 10000 1.07 67 16:21 19.11.2019
4096 Clouds 30 1014 83 10000 1.07 67 16:21 19.11.2019
4097 Clouds 29 1013 78 10000 1.07 67 15:47 19.11.2019
4098 Clouds 28 1013 78 10000 1.07 67 15:27 19.11.2019
4099 Clouds 26 1013 83 10000 1.07 67 14:58 19.11.2019
4100 Clouds 26 1013 83 10000 1.07 67 14:39 19.11.2019
4101 Clouds 26 1013 83 10000 1.53 337 14:21 19.11.2019
4102 Clouds 24 1013 94 10000 1.53 337 13:57 19.11.2019
4103 Clouds 24 1013 94 10000 1.53 337 13:38 19.11.2019
4104 Clouds 24 1013 94 10000 1.51 340 13:18 19.11.2019
4105 Clouds 23 1011 100 10000 3.1 20 12:40 19.11.2019
4106 Clouds 23 1011 100 10000 3.1 20 12:21 19.11.2019
4107 Clouds 23 1011 100 10000 3.1 360 11:56 19.11.2019
4108 Clouds 23 1011 100 10000 3.1 360 11:37 19.11.2019
4109 Clouds 23 1011 100 10000 3.1 360 11:37 19.11.2019
4110 Clouds 23 1011 100 10000 3.1 360 11:19 19.11.2019
4111 Clouds 23 1010 100 10000 2.1 60 10:44 19.11.2019
4112 Clouds 23 1010 100 10000 2.1 60 10:21 19.11.2019
4113 Clouds 23 1009 94 10000 2.1 30 09:45 19.11.2019
4114 Clouds 24 1009 94 10000 2.1 30 09:22 19.11.2019
4115 Clouds 24 1009 94 10000 2.1 50 08:59 19.11.2019
4116 Clouds 24 1009 94 10000 2.1 50 08:40 19.11.2019
4117 Clouds 24 1009 94 10000 2.1 50 08:22 19.11.2019
4118 Clouds 24 1011 88 10000 2.1 30 07:56 19.11.2019
4119 Clouds 24 1011 88 10000 2.1 30 07:37 19.11.2019
4120 Clouds 24 1011 88 10000 2.1 30 07:18 19.11.2019
4121 Clouds 24 1010 94 10000 2.1 40 06:44 19.11.2019
4122 Clouds 25 1010 94 10000 2.1 40 06:24 19.11.2019
4123 Clouds 25 1011 94 10000 2.1 40 05:19 19.11.2019
4124 Clouds 26 1011 88 10000 2.1 40 03:41 19.11.2019
4125 Clouds 25 1011 88 10000 2.1 40 03:20 19.11.2019
4126 Clouds 26 1011 88 10000 2.1 50 02:50 19.11.2019
4127 Clouds 27 1011 88 10000 2.1 140 01:49 19.11.2019
4128 Clouds 27 1010 88 10000 0.88 266 00:49 19.11.2019
4129 Clouds 27 1010 88 10000 0.88 266 00:20 19.11.2019
4130 Clouds 28 1010 66 10000 0.88 266 23:40 18.11.2019
4131 Clouds 28 1010 66 10000 2.35 170 23:20 18.11.2019
4132 Clouds 30 1009 58 10000 2.6 160 22:47 18.11.2019
4133 Clouds 30 1009 58 10000 2.6 160 22:24 18.11.2019
4134 Clouds 31 1009 55 10000 3.6 150 21:59 18.11.2019
4135 Clouds 31 1009 55 10000 3.6 150 21:40 18.11.2019
4136 Clouds 31 1009 55 10000 3.6 150 21:21 18.11.2019
4137 Clouds 31 1009 55 10000 5.1 180 20:59 18.11.2019
4138 Clouds 31 1009 55 10000 5.1 180 20:59 18.11.2019
4139 Clouds 31 1009 55 10000 5.1 180 20:41 18.11.2019
4140 Clouds 31 1009 55 10000 5.1 180 20:19 18.11.2019
4141 Clouds 32 1009 55 10000 2.6 150 19:57 18.11.2019
4142 Clouds 32 1009 55 10000 2.6 150 19:38 18.11.2019
4143 Clouds 32 1009 55 10000 2.6 150 19:38 18.11.2019
4144 Clouds 32 1009 55 10000 2.6 150 19:38 18.11.2019
4145 Clouds 32 1009 55 10000 2.6 150 19:20 18.11.2019
4146 Clouds 31 1010 62 10000 3.1 150 18:56 18.11.2019
4147 Clouds 31 1010 62 10000 3.1 150 18:38 18.11.2019
4148 Clouds 31 1010 62 10000 3.1 150 18:19 18.11.2019
4149 Clouds 31 1011 70 10000 2.6 180 17:56 18.11.2019
4150 Clouds 31 1011 70 10000 2.6 180 17:37 18.11.2019
4151 Clouds 31 1011 70 10000 2.6 180 17:18 18.11.2019
4152 Clouds 30 1012 74 10000 1.71 141 16:42 18.11.2019
4153 Clouds 30 1012 74 10000 1.71 141 16:24 18.11.2019
4154 Clouds 29 1012 79 10000 1.71 141 15:58 18.11.2019
4155 Clouds 29 1012 79 10000 1.71 141 15:39 18.11.2019
4156 Clouds 28 1012 79 10000 1.71 141 15:20 18.11.2019
4157 Clouds 26 1011 83 10000 1.71 141 14:44 18.11.2019
4158 Clouds 26 1011 83 10000 1.71 141 14:24 18.11.2019
4159 Clouds 26 1011 83 10000 1.71 141 14:24 18.11.2019
4160 Clouds 26 1011 83 10000 1.25 316 13:59 18.11.2019
4161 Clouds 26 1011 83 10000 1.25 316 13:59 18.11.2019
4162 Clouds 24 1010 100 10000 1.25 316 13:41 18.11.2019
4163 Clouds 24 1010 100 10000 1.03 321 13:23 18.11.2019
4164 Clouds 23 1009 94 10000 2.1 80 12:40 18.11.2019
4165 Clouds 23 1009 94 10000 2.1 80 12:20 18.11.2019
4166 Clouds 23 1008 94 10000 2.6 40 11:56 18.11.2019
4167 Clouds 23 1008 94 10000 2.6 40 11:37 18.11.2019
4168 Clouds 23 1008 94 10000 2.6 40 11:19 18.11.2019
4169 Clouds 23 1008 94 10000 2.1 70 10:42 18.11.2019
4170 Clouds 23 1008 94 10000 2.1 70 10:23 18.11.2019
4171 Clear 24 1009 90 0 1.37 318 09:57 18.11.2019
4172 Clear 24 1009 91 0 1.37 318 09:38 18.11.2019
4173 Clouds 23 1008 94 10000 2.1 90 09:19 18.11.2019
4174 Clouds 23 1008 94 10000 2.1 90 09:19 18.11.2019
4175 Clouds 23 1008 94 10000 2.1 90 08:47 18.11.2019
4176 Clouds 24 1008 94 10000 2.1 90 08:24 18.11.2019
4177 Clouds 24 1009 94 10000 2.1 50 07:55 18.11.2019
4178 Clouds 24 1009 94 10000 2.1 50 07:37 18.11.2019
4179 Clouds 24 1009 94 10000 2.1 50 07:19 18.11.2019
4180 Clouds 24 1009 94 10000 2.1 60 06:41 18.11.2019
4181 Clouds 24 1009 94 10000 2.1 60 06:21 18.11.2019
4182 Clouds 26 1010 88 10000 2.1 60 05:26 18.11.2019
4183 Clouds 25 1009 88 10000 2.1 140 03:40 18.11.2019
4184 Clouds 27 1009 78 10000 2.1 230 01:39 18.11.2019
4185 Clouds 26 1008 83 10000 0.94 230 00:53 18.11.2019
4186 Clouds 28 1008 78 10000 3.1 120 23:59 17.11.2019
4187 Clouds 28 1008 78 10000 3.1 120 23:40 17.11.2019
4188 Clouds 28 1008 78 10000 3.1 120 23:21 17.11.2019
4189 Clouds 29 1008 70 10000 3.1 120 22:57 17.11.2019
4190 Clouds 29 1008 70 10000 3.1 120 22:38 17.11.2019
4191 Clouds 29 1008 70 10000 3.1 120 22:20 17.11.2019
4192 Clouds 29 1008 66 10000 5.1 120 21:42 17.11.2019
4193 Clouds 30 1008 66 10000 5.1 120 21:20 17.11.2019
4194 Clouds 30 1008 66 10000 5.1 90 20:58 17.11.2019
4195 Clouds 30 1008 66 10000 5.1 90 20:39 17.11.2019
4196 Clouds 30 1008 66 10000 5.1 90 20:20 17.11.2019
4197 Clouds 31 1009 62 10000 5.1 180 19:57 17.11.2019
4198 Clouds 31 1009 62 10000 5.1 180 19:39 17.11.2019
4199 Clouds 30 1009 62 10000 5.1 180 19:20 17.11.2019
4200 Clouds 31 1009 66 10000 5.1 180 18:56 17.11.2019
4201 Clouds 31 1009 66 10000 5.1 180 18:38 17.11.2019
4202 Clouds 31 1009 66 10000 5.1 180 18:19 17.11.2019
4203 Clouds 30 1010 66 10000 5.1 120 17:58 17.11.2019
4204 Clouds 30 1010 66 10000 5.1 120 17:39 17.11.2019
4205 Clouds 30 1010 66 10000 5.1 120 17:20 17.11.2019
4206 Clouds 30 1011 74 10000 2.1 90 16:59 17.11.2019
4207 Clouds 30 1011 74 10000 2.1 90 16:40 17.11.2019
4208 Clouds 30 1011 74 10000 2.1 90 16:21 17.11.2019
4209 Clouds 28 1011 83 10000 2.1 90 15:56 17.11.2019
4210 Clouds 28 1011 83 10000 2.1 90 15:38 17.11.2019
4211 Clouds 28 1011 83 10000 2.1 90 15:18 17.11.2019
4212 Clouds 28 1011 83 10000 2.1 90 15:18 17.11.2019
4213 Clouds 27 1010 88 10000 2.1 50 14:56 17.11.2019
4214 Clouds 27 1010 88 10000 2.1 50 14:37 17.11.2019
4215 Clouds 27 1010 88 10000 2.1 50 14:19 17.11.2019
4216 Clouds 25 1010 94 10000 2.1 70 13:56 17.11.2019
4217 Clouds 25 1010 94 10000 2.1 70 13:56 17.11.2019
4218 Clouds 25 1010 94 10000 2.1 70 13:38 17.11.2019
4219 Clouds 24 1010 94 10000 2.1 70 13:19 17.11.2019
4220 Clouds 23 1009 100 10000 2.1 50 12:44 17.11.2019
4221 Clouds 23 1009 100 10000 2.1 50 12:22 17.11.2019
4222 Clouds 24 1009 94 10000 2.1 50 11:57 17.11.2019
4223 Clouds 24 1009 94 10000 2.1 50 11:39 17.11.2019
4224 Clouds 23 1009 94 10000 2.1 50 11:20 17.11.2019
4225 Clouds 23 1008 94 10000 2.1 50 10:44 17.11.2019
4226 Clouds 24 1008 94 10000 2.1 50 10:23 17.11.2019
4227 Clouds 24 1008 94 10000 2.1 40 09:57 17.11.2019
4228 Clouds 24 1008 94 10000 2.1 40 09:39 17.11.2019
4229 Clouds 24 1008 94 10000 2.1 40 09:21 17.11.2019
4230 Clouds 24 1009 94 10000 2.1 50 08:40 17.11.2019
4231 Clouds 24 1009 94 10000 2.1 50 08:20 17.11.2019
4232 Clouds 24 1009 94 10000 2.1 20 07:48 17.11.2019
4233 Clouds 24 1009 94 10000 2.1 20 07:48 17.11.2019
4234 Clouds 24 1009 94 10000 2.1 20 07:28 17.11.2019
4235 Clouds 24 1010 88 10000 2.1 50 06:59 17.11.2019
4236 Clouds 25 1010 88 10000 2.1 50 06:33 17.11.2019
4237 Clouds 25 1010 88 10000 2.1 60 05:54 17.11.2019
4238 Clouds 26 1010 83 10000 2.1 40 04:24 17.11.2019
4239 Clouds 26 1010 83 10000 2.1 30 03:47 17.11.2019
4240 Clouds 26 1010 83 10000 2.1 30 03:29 17.11.2019
4241 Clouds 27 1010 83 10000 2.1 140 02:28 17.11.2019
4242 Clouds 28 1009 78 10000 2.1 140 01:37 17.11.2019
4243 Clouds 28 1009 78 10000 1.73 54 00:54 17.11.2019
4244 Clouds 28 1009 78 10000 1.73 54 00:22 17.11.2019
4245 Clouds 28 1010 78 10000 1.73 54 23:46 16.11.2019
4246 Clouds 28 1010 78 10000 1.5 128 23:20 16.11.2019
4247 Clouds 29 1010 74 10000 3.1 40 22:59 16.11.2019
4248 Clouds 29 1010 74 10000 3.1 40 22:40 16.11.2019
4249 Clouds 30 1010 74 10000 3.1 40 22:19 16.11.2019
4250 Clouds 31 1010 66 10000 3.1 60 21:42 16.11.2019
4251 Clouds 31 1010 66 10000 3.1 60 21:24 16.11.2019
4252 Clouds 31 1010 66 10000 3.1 60 20:59 16.11.2019
4253 Clouds 31 1010 66 10000 4.1 90 20:41 16.11.2019
4254 Clouds 31 1010 66 10000 4.1 90 20:20 16.11.2019
4255 Clouds 31 1011 62 10000 4.1 70 19:57 16.11.2019
4256 Clouds 31 1011 62 10000 4.1 70 19:39 16.11.2019
4257 Clouds 31 1011 62 10000 4.1 70 19:20 16.11.2019
4258 Clouds 31 1011 66 10000 3.1 70 18:45 16.11.2019
4259 Clouds 31 1011 66 10000 3.1 70 18:27 16.11.2019
4260 Clouds 30 1012 66 10000 2.27 72 17:56 16.11.2019
4261 Clouds 30 1012 66 10000 2.27 72 17:38 16.11.2019
4262 Clouds 30 1012 66 10000 2.3 52 17:19 16.11.2019
4263 Clouds 30 1013 66 10000 3.1 90 16:47 16.11.2019
4264 Clouds 30 1013 66 10000 3.1 90 16:29 16.11.2019
4265 Clouds 28 1012 78 10000 2.3 52 15:58 16.11.2019
4266 Clouds 28 1012 78 10000 2.3 52 15:39 16.11.2019
4267 Clouds 28 1012 78 10000 2.3 52 15:20 16.11.2019
4268 Clouds 28 1012 78 10000 2.3 52 15:20 16.11.2019
4269 Clouds 27 1012 88 10000 2.3 52 14:42 16.11.2019
4270 Clouds 26 1012 88 10000 2.12 335 14:22 16.11.2019
4271 Clouds 25 1011 94 10000 2.12 335 13:58 16.11.2019
4272 Clouds 25 1011 94 10000 2.12 335 13:39 16.11.2019
4273 Clouds 24 1011 94 10000 2.17 337 13:20 16.11.2019
4274 Clouds 24 1011 94 10000 2.17 337 13:20 16.11.2019
4275 Clouds 24 1011 94 10000 2.17 337 12:59 16.11.2019
4276 Clouds 24 1011 100 10000 2.1 10 12:41 16.11.2019
4277 Clouds 24 1011 100 10000 2.1 10 12:20 16.11.2019
4278 Clouds 24 1011 100 10000 2.1 10 12:20 16.11.2019
4279 Clouds 24 1010 94 10000 2.1 350 11:47 16.11.2019
4280 Clouds 24 1010 94 10000 2.1 350 11:28 16.11.2019
4281 Clouds 24 1010 94 10000 2.1 10 10:59 16.11.2019
4282 Clouds 24 1010 94 10000 2.1 10 10:41 16.11.2019
4283 Clouds 24 1010 94 10000 2.1 10 10:22 16.11.2019
4284 Clouds 24 1011 94 10000 2.1 340 09:56 16.11.2019
4285 Clouds 24 1011 94 10000 2.1 340 09:56 16.11.2019
4286 Clouds 24 1011 94 10000 2.1 340 09:36 16.11.2019
4287 Clouds 24 1011 94 10000 2.1 340 09:18 16.11.2019
4288 Clouds 24 1011 100 10000 2.13 331 08:40 16.11.2019
4289 Clouds 24 1011 100 10000 2.25 337 08:20 16.11.2019
4290 Clouds 24 1012 100 10000 2.25 337 07:43 16.11.2019
4291 Clouds 24 1012 100 10000 2.25 337 07:43 16.11.2019
4292 Clouds 24 1012 100 10000 2.25 337 07:22 16.11.2019
4293 Clouds 24 1012 100 10000 2.25 337 06:56 16.11.2019
4294 Clouds 25 1012 100 10000 2.25 337 06:35 16.11.2019
4295 Clouds 25 1013 94 10000 2.25 337 05:59 16.11.2019
4296 Clouds 25 1013 94 10000 2.1 357 04:21 16.11.2019
4297 Clouds 25 1013 94 10000 2.1 357 04:21 16.11.2019
4298 Clouds 25 1013 94 10000 2.6 40 03:26 16.11.2019
4299 Clouds 26 1012 88 10000 2.6 30 02:35 16.11.2019
4300 Clouds 26 1012 88 10000 2.1 340 01:32 16.11.2019
4301 Rain 27 1012 83 8000 2.82 37 00:47 16.11.2019
4302 Rain 27 1012 83 8000 2.82 37 00:47 16.11.2019
4303 Rain 27 1012 83 8000 2.82 37 00:27 16.11.2019
4304 Rain 28 1012 74 8000 2.82 37 23:44 15.11.2019
4305 Rain 27 1012 74 8000 2.82 37 23:23 15.11.2019
4306 Clouds 28 1011 66 10000 3.1 40 22:59 15.11.2019
4307 Clouds 29 1011 66 10000 3.1 40 22:39 15.11.2019
4308 Clouds 29 1011 66 10000 3.1 40 22:19 15.11.2019
4309 Clouds 31 1011 59 10000 3.1 60 21:55 15.11.2019
4310 Clouds 30 1011 59 10000 3.1 60 21:36 15.11.2019
4311 Clouds 30 1011 59 10000 3.1 60 21:18 15.11.2019
4312 Clouds 31 1012 62 10000 3.1 90 20:56 15.11.2019
4313 Clouds 31 1012 62 10000 3.1 90 20:37 15.11.2019
4314 Clouds 31 1012 62 10000 3.1 90 20:19 15.11.2019
4315 Clouds 32 1013 62 10000 5.1 60 19:56 15.11.2019
4316 Clouds 32 1013 62 10000 5.1 60 19:37 15.11.2019
4317 Clouds 31 1013 62 10000 5.1 60 19:18 15.11.2019
4318 Clouds 31 1013 66 10000 3.1 80 18:42 15.11.2019
4319 Clouds 31 1013 66 10000 3.1 80 18:24 15.11.2019
4320 Clouds 30 1015 66 10000 2.6 70 17:57 15.11.2019
4321 Clouds 30 1015 66 10000 2.6 70 17:39 15.11.2019
4322 Clouds 30 1015 66 10000 2.6 70 17:20 15.11.2019
4323 Clouds 29 1015 66 10000 3.1 40 16:40 15.11.2019
4324 Clouds 29 1015 66 10000 3.1 40 16:22 15.11.2019
4325 Clouds 29 1015 66 10000 3.1 40 16:00 15.11.2019
4326 Clouds 29 1015 66 10000 3.1 40 16:00 15.11.2019
4327 Clouds 29 1015 66 10000 3.1 40 16:00 15.11.2019
4328 Clouds 28 1015 83 10000 2.6 40 15:37 15.11.2019
4329 Clouds 27 1015 83 10000 2.6 40 15:18 15.11.2019
4330 Clouds 26 1015 78 10000 2.86 41 14:55 15.11.2019
4331 Clouds 26 1015 78 10000 2.86 41 14:37 15.11.2019
4332 Clouds 26 1015 78 10000 2.86 41 14:37 15.11.2019
4333 Clouds 26 1015 78 10000 2.7 346 14:18 15.11.2019
4334 Clouds 24 1014 94 10000 2.7 346 13:55 15.11.2019
4335 Clouds 24 1014 94 10000 2.7 346 13:55 15.11.2019
4336 Clouds 24 1014 94 10000 2.7 346 13:36 15.11.2019
4337 Clouds 23 1014 94 10000 2.72 343 13:18 15.11.2019
4338 Clouds 24 1014 94 10000 2.1 20 12:56 15.11.2019
4339 Clouds 23 1014 94 10000 2.1 20 12:37 15.11.2019
4340 Clouds 23 1014 94 10000 2.1 20 12:18 15.11.2019
4341 Clouds 23 1013 94 10000 2.1 360 11:40 15.11.2019
4342 Clouds 23 1013 94 10000 2.1 360 11:21 15.11.2019
4343 Clouds 23 1013 94 10000 2.1 10 10:59 15.11.2019
4344 Clouds 23 1013 94 10000 2.1 10 10:39 15.11.2019
4345 Clouds 23 1013 94 10000 2.1 10 10:20 15.11.2019
4346 Clouds 23 1013 94 10000 1.5 0 09:41 15.11.2019
4347 Clouds 24 1013 94 10000 1.5 0 09:20 15.11.2019
4348 Clouds 24 1013 94 10000 1.5 0 08:57 15.11.2019
4349 Clouds 24 1013 94 10000 1.5 0 08:57 15.11.2019
4350 Clouds 24 1013 94 10000 1.5 0 08:39 15.11.2019
4351 Clouds 24 1013 94 10000 1.5 0 08:18 15.11.2019
4352 Clouds 24 1014 100 10000 2.38 345 07:42 15.11.2019
4353 Clouds 24 1014 100 10000 2.38 345 07:22 15.11.2019
4354 Clouds 25 1014 94 10000 1.5 360 06:36 15.11.2019
4355 Clouds 25 1014 94 10000 1.5 360 06:36 15.11.2019
4356 Clouds 24 1014 94 10000 1.5 20 05:52 15.11.2019
4357 Clouds 25 1014 94 10000 1.5 20 05:31 15.11.2019
4358 Clouds 25 1014 94 10000 2.54 343 04:45 15.11.2019
4359 Clouds 25 1015 94 10000 2.54 343 03:38 15.11.2019
4360 Clouds 26 1014 94 10000 2.1 20 02:32 15.11.2019
4361 Clouds 26 1014 94 10000 2.1 30 01:51 15.11.2019
4362 Clouds 27 1014 94 10000 2.1 30 01:32 15.11.2019
4363 Rain 26 1014 88 8000 2.6 30 00:40 15.11.2019
4364 Rain 27 1014 88 8000 2.6 30 00:20 15.11.2019
4365 Clouds 27 1014 88 10000 2.52 10 23:45 14.11.2019
4366 Clouds 27 1014 88 10000 2.52 10 23:25 14.11.2019
4367 Rain 28 1014 83 8000 2.43 62 22:41 14.11.2019
4368 Rain 28 1014 83 8000 2.43 62 22:22 14.11.2019
4369 Rain 28 1013 74 7000 7.2 90 21:58 14.11.2019
4370 Rain 29 1013 74 7000 7.2 90 21:40 14.11.2019
4371 Rain 30 1013 74 7000 7.2 90 21:21 14.11.2019
4372 Clouds 31 1013 66 10000 3.6 30 20:54 14.11.2019
4373 Clouds 31 1013 66 10000 3.6 30 20:36 14.11.2019
4374 Clouds 32 1013 66 10000 3.6 30 20:18 14.11.2019
4375 Clouds 32 1014 63 10000 2.6 60 19:54 14.11.2019
4376 Clouds 32 1014 63 10000 2.6 60 19:36 14.11.2019
4377 Clouds 32 1014 63 10000 2.6 60 19:18 14.11.2019
4378 Clouds 31 1014 66 10000 4.1 120 18:41 14.11.2019
4379 Clouds 30 1015 62 10000 2.6 30 18:22 14.11.2019
4380 Clouds 30 1015 62 10000 2.6 30 17:57 14.11.2019
4381 Clouds 30 1015 62 10000 2.6 30 17:37 14.11.2019
4382 Clouds 30 1015 62 10000 2.6 30 17:19 14.11.2019
4383 Clouds 30 1016 70 10000 2.6 10 16:57 14.11.2019
4384 Clouds 30 1016 70 10000 2.6 10 16:37 14.11.2019
4385 Clouds 30 1016 70 10000 2.6 10 16:19 14.11.2019
4386 Clouds 28 1016 69 10000 2.1 340 15:56 14.11.2019
4387 Clouds 28 1016 69 10000 2.1 340 15:38 14.11.2019
4388 Clouds 28 1016 69 10000 2.1 340 15:38 14.11.2019
4389 Clouds 28 1016 69 10000 2.1 340 15:19 14.11.2019
4390 Clouds 26 1015 88 10000 2.47 34 14:44 14.11.2019
4391 Clouds 26 1015 88 10000 2.01 334 14:22 14.11.2019
4392 Clouds 24 1014 100 10000 2.01 334 13:57 14.11.2019
4393 Clouds 24 1014 100 10000 2.01 334 13:38 14.11.2019
4394 Clouds 24 1014 100 10000 2.01 334 13:19 14.11.2019
4395 Mist 23 1014 100 5000 2.1 10 12:56 14.11.2019
4396 Mist 23 1014 100 5000 2.1 10 12:37 14.11.2019
4397 Mist 23 1014 100 5000 2.1 10 12:18 14.11.2019
4398 Clouds 23 1013 100 10000 2.1 360 11:39 14.11.2019
4399 Clouds 23 1013 100 10000 2.1 360 11:20 14.11.2019
4400 Clouds 23 1013 100 10000 2.1 360 11:20 14.11.2019
4401 Clouds 23 1013 100 10000 2.1 360 11:20 14.11.2019
4402 Clouds 23 1012 94 10000 2.1 20 10:58 14.11.2019
4403 Clouds 23 1012 94 10000 2.1 20 10:40 14.11.2019
4404 Clouds 23 1012 94 10000 2.1 20 10:20 14.11.2019
4405 Clouds 23 1012 94 10000 2.1 40 09:56 14.11.2019
4406 Clouds 24 1013 87 0 2.04 340 09:38 14.11.2019
4407 Clouds 23 1012 94 10000 2.1 40 09:19 14.11.2019
4408 Clouds 23 1012 94 10000 2.1 40 08:47 14.11.2019
4409 Clouds 23 1012 94 10000 2.1 40 08:25 14.11.2019
4410 Clouds 24 1013 88 10000 2.1 60 07:56 14.11.2019
4411 Clouds 24 1013 88 10000 2.1 60 07:37 14.11.2019
4412 Clouds 24 1013 88 10000 2.1 60 07:19 14.11.2019
4413 Clouds 24 1014 94 10000 2.1 60 06:41 14.11.2019
4414 Clouds 24 1014 94 10000 2.1 60 06:18 14.11.2019
4415 Clouds 25 1014 88 10000 2.1 60 04:41 14.11.2019
4416 Clouds 25 1013 94 10000 2.1 60 04:19 14.11.2019
4417 Clouds 26 1013 88 10000 1.4 358 02:45 14.11.2019
4418 Clouds 26 1012 88 10000 0.22 54 01:44 14.11.2019
4419 Clouds 27 1011 83 10000 0.34 73 01:26 14.11.2019
4420 Clouds 27 1011 83 10000 0.34 73 00:49 14.11.2019
4421 Clouds 27 1011 83 10000 0.34 73 00:29 14.11.2019
4422 Clouds 28 1011 78 10000 2.6 180 23:41 13.11.2019
4423 Clouds 28 1011 78 10000 2.6 180 23:21 13.11.2019
4424 Clouds 29 1010 74 10000 3.1 180 22:56 13.11.2019
4425 Clouds 29 1010 74 10000 3.1 180 22:38 13.11.2019
4426 Clouds 30 1010 74 10000 3.1 180 22:20 13.11.2019
4427 Clouds 30 1011 66 10000 5.1 180 21:55 13.11.2019
4428 Clouds 30 1011 66 10000 5.1 180 21:37 13.11.2019
4429 Clouds 30 1011 66 10000 5.1 180 21:19 13.11.2019
4430 Clouds 30 1011 62 10000 5.1 180 20:56 13.11.2019
4431 Clouds 30 1011 62 10000 5.1 180 20:37 13.11.2019
4432 Clouds 30 1011 62 10000 5.1 180 20:37 13.11.2019
4433 Clouds 30 1011 62 10000 5.1 180 20:18 13.11.2019
4434 Clouds 30 1011 62 10000 5.1 160 19:44 13.11.2019
4435 Clouds 31 1011 62 10000 5.1 160 19:20 13.11.2019
4436 Clouds 30 1012 66 10000 4.1 160 18:57 13.11.2019
4437 Clouds 30 1012 66 10000 4.1 160 18:39 13.11.2019
4438 Clouds 30 1012 66 10000 4.1 160 18:21 13.11.2019
4439 Clouds 31 1013 66 10000 3.1 40 17:58 13.11.2019
4440 Clouds 31 1013 66 10000 3.1 40 17:40 13.11.2019
4441 Clouds 31 1013 66 10000 3.1 40 17:21 13.11.2019
4442 Clouds 30 1013 74 10000 1.38 98 16:58 13.11.2019
4443 Clouds 30 1013 74 10000 1.38 98 16:39 13.11.2019
4444 Clouds 30 1013 74 10000 1.38 98 16:39 13.11.2019
4445 Clouds 30 1013 74 10000 1.38 98 16:21 13.11.2019
4446 Clouds 29 1012 83 10000 1.63 85 15:58 13.11.2019
4447 Clouds 29 1012 83 10000 1.38 98 15:39 13.11.2019
4448 Clouds 29 1012 83 10000 1.38 98 15:20 13.11.2019
4449 Clouds 26 1012 88 10000 1.63 85 14:42 13.11.2019
4450 Clouds 26 1012 88 10000 1.38 340 14:22 13.11.2019
4451 Clouds 25 1011 94 10000 1.38 340 13:58 13.11.2019
4452 Clouds 24 1011 94 10000 1.62 342 13:36 13.11.2019
4453 Clouds 24 1011 94 10000 1.62 342 13:18 13.11.2019
4454 Clouds 24 1012 94 10000 2.1 360 12:43 13.11.2019
4455 Clouds 24 1012 94 10000 2.1 360 12:25 13.11.2019
4456 Clouds 24 1011 94 10000 1.62 342 11:59 13.11.2019
4457 Clouds 24 1011 94 10000 1.62 342 11:39 13.11.2019
4458 Clouds 24 1011 94 10000 1.52 333 11:19 13.11.2019
4459 Clouds 24 1011 94 10000 1.52 333 11:19 13.11.2019
4460 Clouds 24 1011 94 10000 1.52 333 11:19 13.11.2019
4461 Clouds 24 1011 94 10000 2.1 30 10:57 13.11.2019
4462 Clouds 24 1011 94 10000 2.1 30 10:39 13.11.2019
4463 Clouds 24 1011 94 10000 2.1 30 10:19 13.11.2019
4464 Rain 24 1011 100 8000 1.52 333 09:45 13.11.2019
4465 Rain 24 1011 100 8000 1.52 333 09:22 13.11.2019
4466 Rain 24 1011 100 8000 2.1 30 08:55 13.11.2019
4467 Rain 24 1011 100 8000 2.1 30 08:36 13.11.2019
4468 Rain 24 1011 100 8000 2.1 30 08:18 13.11.2019
4469 Rain 24 1012 100 8000 2.1 30 07:42 13.11.2019
4470 Rain 24 1012 100 8000 2.1 30 07:42 13.11.2019
4471 Rain 24 1012 100 8000 2.1 30 07:20 13.11.2019
4472 Rain 25 1012 94 8000 1.62 342 06:43 13.11.2019
4473 Rain 25 1012 94 8000 1.62 342 06:19 13.11.2019
4474 Rain 25 1012 94 8000 1.62 342 06:19 13.11.2019
4475 Rain 25 1012 94 8000 1.62 342 06:19 13.11.2019
4476 Rain 25 1012 94 8000 1.62 342 06:19 13.11.2019
4477 Rain 25 1012 94 8000 1.62 342 06:19 13.11.2019
4478 Clouds 24 1012 94 0 2.1 60 05:51 13.11.2019
4479 Clouds 24 1012 94 0 2.1 60 05:30 13.11.2019
4480 Clouds 25 1012 94 10000 2.1 80 04:20 13.11.2019
4481 Clouds 27 1011 88 10000 3.1 120 01:58 13.11.2019
4482 Clouds 27 1011 88 10000 3.1 120 01:40 13.11.2019
4483 Clouds 27 1011 83 10000 0.64 135 00:43 13.11.2019
4484 Clouds 28 1011 78 10000 0.64 135 23:59 12.11.2019
4485 Clouds 28 1011 78 10000 0.64 135 23:40 12.11.2019
4486 Clouds 28 1011 78 10000 0.64 135 23:40 12.11.2019
4487 Clouds 28 1011 78 10000 2.82 150 23:20 12.11.2019
4488 Clouds 29 1010 66 10000 5.1 160 22:43 12.11.2019
4489 Clouds 30 1010 66 10000 5.1 160 22:20 12.11.2019
4490 Clouds 31 1010 62 10000 5.1 120 21:58 12.11.2019
4491 Clouds 31 1010 62 10000 5.1 120 21:39 12.11.2019
4492 Clouds 31 1010 62 10000 5.1 120 21:21 12.11.2019
4493 Clouds 31 1011 62 10000 5.1 180 20:56 12.11.2019
4494 Clouds 31 1011 62 10000 5.1 180 20:37 12.11.2019
4495 Clouds 31 1011 62 10000 5.1 180 20:18 12.11.2019
4496 Clouds 31 1011 62 10000 5.1 180 20:18 12.11.2019
4497 Clouds 31 1012 62 10000 5.1 180 19:56 12.11.2019
4498 Clouds 31 1012 62 10000 5.1 180 19:38 12.11.2019
4499 Clouds 31 1012 62 10000 5.1 180 19:18 12.11.2019
4500 Clouds 31 1013 66 10000 3.1 120 18:55 12.11.2019
4501 Clouds 31 1013 66 10000 3.1 120 18:37 12.11.2019
4502 Clouds 31 1013 66 10000 3.1 120 18:37 12.11.2019
4503 Clouds 31 1013 66 10000 3.1 120 18:19 12.11.2019
4504 Clouds 31 1013 62 10000 3.1 120 17:55 12.11.2019
4505 Clouds 31 1013 62 10000 3.1 120 17:36 12.11.2019
4506 Clouds 31 1013 62 10000 3.1 120 17:36 12.11.2019
4507 Clouds 31 1013 62 10000 3.1 120 17:36 12.11.2019
4508 Clouds 31 1013 62 10000 3.1 120 17:36 12.11.2019
4509 Clouds 31 1013 62 10000 3.1 120 17:36 12.11.2019
4510 Clouds 31 1013 62 10000 3.1 120 17:18 12.11.2019
4511 Clouds 30 1014 66 10000 4.1 120 16:43 12.11.2019
4512 Clouds 30 1014 66 10000 4.1 120 16:24 12.11.2019
4513 Clouds 29 1013 78 10000 1.96 87 15:57 12.11.2019
4514 Clouds 29 1013 78 10000 1.96 87 15:37 12.11.2019
4515 Clouds 29 1013 78 10000 1.96 87 15:18 12.11.2019
4516 Clouds 27 1013 83 10000 1.96 87 14:42 12.11.2019
4517 Clouds 27 1013 83 10000 1.76 341 14:20 12.11.2019
4518 Clouds 25 1012 94 10000 1.76 341 13:58 12.11.2019
4519 Clouds 25 1012 94 10000 1.76 341 13:58 12.11.2019
4520 Clouds 25 1012 94 10000 1.76 341 13:39 12.11.2019
4521 Clouds 25 1012 94 10000 1.6 346 13:19 12.11.2019
4522 Clouds 24 1012 94 10000 2.1 20 12:59 12.11.2019
4523 Clouds 23 1012 94 10000 2.1 20 12:39 12.11.2019
4524 Clouds 23 1012 94 10000 2.1 20 12:39 12.11.2019
4525 Clouds 23 1012 94 10000 2.1 20 12:18 12.11.2019
4526 Clouds 23 1011 100 10000 1.5 10 11:43 12.11.2019
4527 Clouds 23 1011 100 10000 1.5 10 11:23 12.11.2019
4528 Clouds 23 1011 100 10000 1.5 20 10:57 12.11.2019
4529 Clouds 23 1011 100 10000 1.5 20 10:57 12.11.2019
4530 Clouds 23 1011 100 10000 1.5 20 10:39 12.11.2019
4531 Clouds 23 1011 100 10000 1.5 20 10:21 12.11.2019
4532 Clouds 24 1011 94 10000 1.5 360 09:57 12.11.2019
4533 Clouds 24 1011 94 10000 1.5 360 09:38 12.11.2019
4534 Clouds 24 1011 94 10000 1.5 360 09:18 12.11.2019
4535 Clouds 24 1011 94 10000 1.5 360 08:46 12.11.2019
4536 Clouds 24 1011 94 10000 2.1 30 08:27 12.11.2019
4537 Clouds 24 1011 94 10000 2.1 30 07:42 12.11.2019
4538 Clouds 24 1011 94 10000 2.1 30 07:23 12.11.2019
4539 Clouds 24 1012 85 0 0.45 42 06:48 12.11.2019
4540 Clouds 24 1013 94 10000 2.1 20 06:24 12.11.2019
4541 Clouds 24 1013 94 10000 2.1 20 05:52 12.11.2019
4542 Clouds 24 1013 94 10000 2.1 10 04:50 12.11.2019
4543 Clouds 25 1013 88 10000 2.6 30 03:53 12.11.2019
4544 Clouds 25 1013 88 10000 2.1 360 01:50 12.11.2019
4545 Clouds 26 1013 88 10000 2.1 360 01:23 12.11.2019
4546 Clouds 26 1013 94 10000 0.45 52 00:52 12.11.2019
4547 Clouds 26 1013 94 10000 0.45 52 00:32 12.11.2019
4548 Thunderstorm 27 1011 83 10000 0.45 52 23:49 11.11.2019
4549 Thunderstorm 27 1011 83 10000 0.45 52 23:25 11.11.2019
4550 Clouds 28 1011 78 10000 2.01 150 22:58 11.11.2019
4551 Clouds 28 1011 78 10000 2.01 150 22:38 11.11.2019
4552 Clouds 28 1011 78 10000 2.01 150 22:19 11.11.2019
4553 Clouds 29 1011 66 10000 5.1 180 21:57 11.11.2019
4554 Clouds 29 1011 66 10000 5.1 180 21:38 11.11.2019
4555 Clouds 29 1011 66 10000 5.1 180 21:20 11.11.2019
4556 Clouds 30 1012 66 10000 5.1 180 20:55 11.11.2019
4557 Clouds 30 1012 66 10000 5.1 180 20:36 11.11.2019
4558 Clouds 31 1012 66 10000 5.1 180 20:18 11.11.2019
4559 Clouds 31 1012 66 10000 5.1 180 20:18 11.11.2019
4560 Clouds 31 1012 70 10000 5.1 160 19:41 11.11.2019
4561 Clouds 31 1012 70 10000 5.1 160 19:41 11.11.2019
4562 Clouds 31 1012 70 10000 5.1 160 19:19 11.11.2019
4563 Clouds 31 1013 70 10000 5.1 140 18:57 11.11.2019
4564 Clouds 31 1013 70 10000 5.1 140 18:38 11.11.2019
4565 Clouds 31 1013 70 10000 5.1 140 18:19 11.11.2019
4566 Clouds 31 1014 66 10000 5.1 110 17:43 11.11.2019
4567 Clouds 31 1014 66 10000 5.1 110 17:24 11.11.2019
4568 Clouds 30 1014 70 10000 4.1 60 16:45 11.11.2019
4569 Clouds 30 1014 70 10000 4.1 60 16:24 11.11.2019
4570 Clouds 30 1014 70 10000 4.1 60 15:59 11.11.2019
4571 Clouds 29 1014 70 10000 3.1 360 15:41 11.11.2019
4572 Clouds 29 1014 70 10000 3.1 360 15:20 11.11.2019
4573 Clouds 27 1013 83 10000 1.82 92 14:45 11.11.2019
4574 Clouds 27 1013 83 10000 1.82 92 14:45 11.11.2019
4575 Clouds 26 1013 83 10000 1.82 92 14:26 11.11.2019
4576 Clouds 26 1013 83 10000 1.79 336 13:59 11.11.2019
4577 Clouds 24 1013 94 10000 1.79 336 13:38 11.11.2019
4578 Clouds 24 1013 94 10000 2 339 13:20 11.11.2019
4579 Clouds 24 1013 94 10000 2 339 12:58 11.11.2019
4580 Clouds 23 1012 94 10000 2.1 40 12:40 11.11.2019
4581 Clouds 23 1012 94 10000 2.1 40 12:21 11.11.2019
4582 Clouds 23 1012 94 10000 2.1 30 11:43 11.11.2019
4583 Clouds 23 1012 94 10000 2.1 30 11:22 11.11.2019
4584 Clouds 24 1012 94 10000 2.1 30 10:59 11.11.2019
4585 Thunderstorm 24 1011 94 10000 1.87 337 10:41 11.11.2019
4586 Thunderstorm 24 1011 94 10000 1.87 337 10:18 11.11.2019
4587 Thunderstorm 24 1011 88 10000 2.1 30 09:56 11.11.2019
4588 Thunderstorm 25 1011 88 10000 2.1 30 09:36 11.11.2019
4589 Thunderstorm 25 1011 88 10000 2.1 30 09:18 11.11.2019
4590 Thunderstorm 24 1012 88 10000 2.1 30 08:39 11.11.2019
4591 Thunderstorm 24 1012 88 10000 2.1 30 08:20 11.11.2019
4592 Clouds 24 1012 94 10000 2.1 40 07:56 11.11.2019
4593 Clouds 24 1012 94 10000 2.1 40 07:37 11.11.2019
4594 Clouds 24 1012 94 10000 2.1 40 07:37 11.11.2019
4595 Clouds 24 1012 94 10000 2.1 40 07:18 11.11.2019
4596 Clouds 24 1013 94 10000 2.1 30 06:44 11.11.2019
4597 Clouds 24 1013 94 10000 2.1 30 06:21 11.11.2019
4598 Clouds 24 1013 94 10000 2.1 30 05:50 11.11.2019
4599 Clouds 25 1013 88 10000 2.1 30 04:29 11.11.2019
4600 Clouds 25 1013 88 10000 2.1 50 03:23 11.11.2019
4601 Clouds 25 1012 94 10000 2.1 20 02:20 11.11.2019
4602 Clouds 26 1012 88 10000 2.6 40 01:53 11.11.2019
4603 Clouds 26 1012 88 10000 2.6 40 01:33 11.11.2019
4604 Thunderstorm 27 1012 83 10000 5.1 10 00:47 11.11.2019
4605 Thunderstorm 27 1012 83 10000 5.1 10 00:19 11.11.2019
4606 Clouds 28 1012 83 10000 3.1 120 23:39 10.11.2019
4607 Clouds 28 1012 83 10000 3.1 120 23:20 10.11.2019
4608 Clouds 29 1012 74 10000 2.1 150 22:57 10.11.2019
4609 Clouds 30 1012 74 10000 2.1 150 22:38 10.11.2019
4610 Clouds 30 1012 74 10000 2.1 150 22:38 10.11.2019
4611 Clouds 30 1012 74 10000 2.1 150 22:20 10.11.2019
4612 Clouds 30 1012 74 10000 2.1 150 21:57 10.11.2019
4613 Clouds 31 1011 70 10000 5.1 180 21:39 10.11.2019
4614 Clouds 32 1011 62 10000 5.1 150 21:21 10.11.2019
4615 Clouds 32 1011 62 10000 5.1 150 20:43 10.11.2019
4616 Clouds 32 1011 62 10000 5.1 150 20:23 10.11.2019
4617 Clouds 32 1012 59 10000 5.1 90 19:57 10.11.2019
4618 Clouds 32 1012 59 10000 5.1 90 19:38 10.11.2019
4619 Clouds 32 1012 59 10000 5.1 90 19:19 10.11.2019
4620 Clouds 32 1012 59 10000 5.1 90 19:19 10.11.2019
4621 Clouds 32 1012 59 10000 5.1 90 19:19 10.11.2019
4622 Clouds 31 1013 62 10000 2.84 146 18:58 10.11.2019
4623 Clouds 31 1013 62 10000 2.84 146 18:40 10.11.2019
4624 Clouds 31 1013 62 10000 2.84 146 18:20 10.11.2019
4625 Clouds 31 1014 66 10000 2.84 146 17:57 10.11.2019
4626 Clouds 31 1014 66 10000 2.84 146 17:39 10.11.2019
4627 Clouds 30 1014 66 10000 1.39 111 17:20 10.11.2019
4628 Clouds 29 1014 74 10000 2.1 50 16:58 10.11.2019
4629 Clouds 30 1014 74 10000 2.1 50 16:40 10.11.2019
4630 Clouds 30 1014 74 10000 2.1 50 16:21 10.11.2019
4631 Clouds 29 1015 74 10000 1.39 111 15:56 10.11.2019
4632 Clouds 29 1015 74 10000 1.39 111 15:37 10.11.2019
4633 Clouds 29 1015 74 10000 1.39 111 15:37 10.11.2019
4634 Clouds 28 1015 74 10000 1.39 111 15:18 10.11.2019
4635 Clouds 27 1014 83 10000 1.39 111 14:55 10.11.2019
4636 Clouds 27 1014 83 10000 1.39 111 14:36 10.11.2019
4637 Clouds 27 1014 83 10000 1.47 339 14:18 10.11.2019
4638 Clouds 25 1013 100 10000 1.47 339 13:42 10.11.2019
4639 Clouds 25 1013 100 10000 1.56 339 13:21 10.11.2019
4640 Clouds 23 1012 100 10000 2.1 40 12:55 10.11.2019
4641 Clouds 23 1012 100 10000 2.1 40 12:37 10.11.2019
4642 Clouds 23 1012 100 10000 2.1 40 12:18 10.11.2019
4643 Clouds 24 1012 94 10000 2.1 40 11:54 10.11.2019
4644 Clouds 24 1012 94 10000 2.1 40 11:54 10.11.2019
4645 Clouds 24 1012 94 10000 2.1 40 11:36 10.11.2019
4646 Clouds 24 1012 94 10000 2.1 40 11:18 10.11.2019
4647 Clouds 24 1011 100 10000 2.1 20 10:42 10.11.2019
4648 Clouds 24 1011 100 10000 2.1 20 10:20 10.11.2019
4649 Clouds 24 1011 100 10000 2.1 60 09:45 10.11.2019
4650 Clouds 24 1011 100 10000 2.1 60 09:27 10.11.2019
4651 Clouds 24 1011 100 10000 2.1 60 08:59 10.11.2019
4652 Clouds 24 1011 100 10000 2.1 60 08:38 10.11.2019
4653 Clouds 24 1011 100 10000 2.1 60 08:38 10.11.2019
4654 Clouds 24 1011 100 10000 2.1 60 08:19 10.11.2019
4655 Clouds 25 1012 100 10000 2.6 40 07:43 10.11.2019
4656 Clouds 25 1012 100 10000 2.6 40 07:25 10.11.2019
4657 Clouds 25 1012 100 10000 1.18 337 06:33 10.11.2019
4658 Clouds 25 1012 100 10000 1.18 337 06:33 10.11.2019
4659 Clouds 25 1012 100 10000 1.18 337 05:41 10.11.2019
4660 Clouds 25 1012 94 10000 0.92 327 03:22 10.11.2019
4661 Clouds 27 1011 88 10000 0.44 206 01:55 10.11.2019
4662 Clouds 27 1011 83 10000 0.82 165 01:19 10.11.2019
4663 Clouds 27 1011 83 10000 0.82 165 00:41 10.11.2019
4664 Clouds 28 1011 78 10000 4.1 180 23:58 09.11.2019
4665 Clouds 28 1011 78 10000 4.1 180 23:37 09.11.2019
4666 Clouds 28 1011 78 10000 4.1 180 23:18 09.11.2019
4667 Clouds 29 1010 66 10000 4.1 160 22:41 09.11.2019
4668 Clouds 30 1010 66 10000 4.1 160 22:21 09.11.2019
4669 Clouds 31 1010 66 10000 5.1 180 21:56 09.11.2019
4670 Clouds 31 1010 66 10000 5.1 180 21:56 09.11.2019
4671 Clouds 31 1010 66 10000 5.1 180 21:37 09.11.2019
4672 Clouds 31 1011 62 10000 5.1 180 21:19 09.11.2019
4673 Clouds 31 1011 62 10000 5.1 180 20:42 09.11.2019
4674 Clouds 32 1011 62 10000 5.1 180 20:22 09.11.2019
4675 Clouds 32 1011 62 10000 5.1 180 19:58 09.11.2019
4676 Clouds 31 1011 62 10000 5.1 120 19:39 09.11.2019
4677 Clouds 31 1011 62 10000 5.1 120 19:21 09.11.2019
4678 Clouds 31 1011 62 10000 5.1 120 19:21 09.11.2019
4679 Clouds 31 1012 62 10000 5.1 160 18:54 09.11.2019
4680 Clouds 31 1012 62 10000 5.1 160 18:36 09.11.2019
4681 Clouds 31 1012 62 10000 5.1 160 18:18 09.11.2019
4682 Clouds 31 1013 66 10000 4.1 90 17:41 09.11.2019
4683 Clouds 31 1013 66 10000 4.1 90 17:22 09.11.2019
4684 Clouds 30 1013 74 10000 1.89 119 16:43 09.11.2019
4685 Clouds 30 1013 74 10000 1.89 119 16:22 09.11.2019
4686 Clouds 30 1013 74 10000 1.89 119 15:59 09.11.2019
4687 Clouds 29 1013 78 10000 1.89 119 15:41 09.11.2019
4688 Clouds 29 1013 78 10000 1.89 119 15:23 09.11.2019
4689 Clouds 27 1013 83 10000 1.89 119 14:44 09.11.2019
4690 Clouds 27 1013 83 10000 1.25 332 14:22 09.11.2019
4691 Clouds 27 1013 83 10000 1.25 332 13:57 09.11.2019
4692 Clouds 25 1012 94 10000 1.25 332 13:39 09.11.2019
4693 Clouds 25 1012 94 10000 1.37 337 13:19 09.11.2019
4694 Clouds 24 1012 100 10000 1.37 337 12:55 09.11.2019
4695 Clouds 23 1012 100 10000 1.37 337 12:37 09.11.2019
4696 Clouds 23 1012 100 10000 1.37 337 12:37 09.11.2019
4697 Clouds 23 1012 100 10000 1.37 337 12:37 09.11.2019
4698 Clouds 23 1012 100 10000 1.37 337 12:18 09.11.2019
4699 Clouds 23 1011 100 10000 2.1 30 11:47 09.11.2019
4700 Clouds 23 1011 100 10000 2.1 30 11:20 09.11.2019
4701 Clouds 24 1011 94 10000 2.1 40 10:56 09.11.2019
4702 Clouds 24 1011 94 10000 2.1 40 10:37 09.11.2019
4703 Clouds 24 1011 94 10000 1.5 0 10:18 09.11.2019
4704 Clouds 25 1011 94 10000 1.5 0 09:42 09.11.2019
4705 Clouds 25 1011 94 10000 1.5 0 09:20 09.11.2019
4706 Clouds 24 1011 94 10000 1.57 339 08:45 09.11.2019
4707 Clouds 25 1011 94 10000 1.4 342 08:25 09.11.2019
4708 Clouds 24 1011 94 10000 2.1 30 07:55 09.11.2019
4709 Clouds 25 1011 94 10000 2.1 30 07:37 09.11.2019
4710 Clouds 25 1011 94 10000 2.1 30 07:19 09.11.2019
4711 Clear 25 1012 88 0 0.89 19 06:43 09.11.2019
4712 Clouds 25 1012 94 10000 1.4 342 06:25 09.11.2019
4713 Clouds 25 1012 94 10000 1.4 342 05:40 09.11.2019
4714 Clouds 25 1013 94 10000 1.59 342 04:29 09.11.2019
4715 Clouds 25 1012 94 10000 1.59 342 02:49 09.11.2019
4716 Clouds 27 1012 94 10000 1.59 342 02:26 09.11.2019
4717 Clouds 28 1011 88 10000 1 10 01:18 09.11.2019
4718 Clouds 28 1011 83 10000 1 10 00:40 09.11.2019
4719 Clouds 28 1011 83 10000 1 10 00:22 09.11.2019
4720 Clouds 29 1011 70 10000 2.6 150 23:40 08.11.2019
4721 Clouds 29 1011 70 10000 2.6 150 23:22 08.11.2019
4722 Clouds 30 1011 62 10000 5.1 150 22:58 08.11.2019
4723 Clouds 30 1011 62 10000 5.1 150 22:38 08.11.2019
4724 Clouds 30 1011 62 10000 5.1 150 22:20 08.11.2019
4725 Clouds 31 1010 55 10000 5.1 190 21:42 08.11.2019
4726 Clouds 31 1010 55 10000 5.1 190 21:23 08.11.2019
4727 Clouds 31 1010 55 10000 5.1 190 21:23 08.11.2019
4728 Clouds 31 1011 59 10000 5.1 180 20:57 08.11.2019
4729 Clouds 31 1011 59 10000 5.1 180 20:39 08.11.2019
4730 Clouds 31 1011 59 10000 5.1 180 20:19 08.11.2019
4731 Clouds 31 1012 62 10000 3.1 180 19:40 08.11.2019
4732 Clouds 31 1012 62 10000 3.1 180 19:19 08.11.2019
4733 Clouds 32 1012 62 10000 2.85 148 18:57 08.11.2019
4734 Clouds 32 1012 62 10000 2.85 148 18:39 08.11.2019
4735 Clouds 32 1012 62 10000 2.85 148 18:39 08.11.2019
4736 Clouds 32 1012 62 10000 2.85 148 18:39 08.11.2019
4737 Clouds 32 1012 62 10000 2.85 148 18:21 08.11.2019
4738 Clouds 31 1013 66 10000 2.1 60 17:57 08.11.2019
4739 Clouds 31 1013 66 10000 2.1 60 17:39 08.11.2019
4740 Clouds 31 1013 66 10000 2.1 60 17:20 08.11.2019
4741 Clouds 30 1014 70 10000 1.45 86 16:59 08.11.2019
4742 Clouds 31 1014 70 10000 1.45 86 16:40 08.11.2019
4743 Clouds 31 1014 70 10000 1.45 86 16:40 08.11.2019
4744 Clouds 31 1014 70 10000 1.45 86 16:22 08.11.2019
4745 Clouds 30 1014 70 10000 1.45 86 15:59 08.11.2019
4746 Clouds 29 1014 74 10000 1.45 86 15:41 08.11.2019
4747 Clouds 29 1014 74 10000 1.45 86 15:22 08.11.2019
4748 Clouds 27 1014 78 10000 1.45 86 14:57 08.11.2019
4749 Clouds 27 1014 78 10000 1.45 86 14:57 08.11.2019
4750 Clouds 27 1014 78 10000 1.45 86 14:38 08.11.2019
4751 Clouds 26 1014 78 10000 2.02 341 14:20 08.11.2019
4752 Clouds 25 1013 94 10000 2.02 341 13:58 08.11.2019
4753 Clouds 25 1013 94 10000 2.02 341 13:39 08.11.2019
4754 Clouds 25 1013 94 10000 1.91 342 13:20 08.11.2019
4755 Clouds 22 1012 100 10000 2.1 40 12:45 08.11.2019
4756 Clouds 22 1012 100 10000 2.1 40 12:27 08.11.2019
4757 Clouds 23 1012 94 10000 2.1 40 11:58 08.11.2019
4758 Clouds 23 1012 94 10000 2.1 40 11:40 08.11.2019
4759 Clouds 23 1012 94 10000 2.1 40 11:20 08.11.2019
4760 Clouds 23 1012 100 10000 2.6 30 10:57 08.11.2019
4761 Clouds 23 1012 100 10000 2.6 30 10:39 08.11.2019
4762 Clouds 23 1012 100 10000 2.6 30 10:21 08.11.2019
4763 Clouds 23 1012 100 10000 2.1 20 09:55 08.11.2019
4764 Clouds 23 1012 100 10000 2.1 20 09:36 08.11.2019
4765 Clouds 23 1012 100 10000 2.1 20 09:18 08.11.2019
4766 Clouds 24 1012 94 10000 2.1 10 08:41 08.11.2019
4767 Clouds 24 1013 94 10000 2.1 40 08:19 08.11.2019
4768 Clouds 24 1013 94 10000 2.1 40 07:41 08.11.2019
4769 Clouds 24 1013 94 10000 2.1 40 07:23 08.11.2019
4770 Clouds 24 1013 94 10000 2.1 40 06:43 08.11.2019
4771 Clouds 24 1013 94 10000 2.1 40 06:24 08.11.2019
4772 Clouds 24 1014 94 10000 1.82 350 05:56 08.11.2019
4773 Clouds 24 1014 94 10000 1.82 350 05:25 08.11.2019
4774 Clouds 24 1014 94 10000 2.1 40 03:58 08.11.2019
4775 Clouds 24 1014 94 10000 2.1 40 03:58 08.11.2019
4776 Clouds 24 1014 94 10000 2.1 40 03:58 08.11.2019
4777 Clouds 24 1014 94 10000 2.1 40 03:36 08.11.2019
4778 Clouds 25 1014 88 10000 2.1 40 02:52 08.11.2019
4779 Clouds 27 1013 83 10000 2.1 40 01:49 08.11.2019
4780 Clouds 26 1013 83 10000 2.1 40 01:30 08.11.2019
4781 Clouds 27 1014 83 10000 1.29 12 00:37 08.11.2019
4782 Clouds 27 1014 83 10000 1.29 12 00:18 08.11.2019
4783 Clouds 27 1013 78 10000 1.29 12 23:43 07.11.2019
4784 Clouds 27 1013 78 10000 1.29 12 23:24 07.11.2019
4785 Clouds 27 1013 83 10000 3.01 143 22:43 07.11.2019
4786 Clouds 27 1013 83 10000 3.01 143 22:22 07.11.2019
4787 Rain 28 1012 83 8000 2.6 360 21:58 07.11.2019
4788 Rain 28 1012 83 8000 2.6 360 21:38 07.11.2019
4789 Rain 29 1013 78 8000 2.6 90 21:20 07.11.2019
4790 Rain 29 1013 78 8000 2.6 90 20:58 07.11.2019
4791 Rain 29 1013 78 8000 2.6 90 20:40 07.11.2019
4792 Clouds 30 1013 79 10000 2.74 83 20:21 07.11.2019
4793 Clouds 30 1013 79 10000 2.74 83 19:56 07.11.2019
4794 Clouds 30 1013 79 10000 2.74 83 19:37 07.11.2019
4795 Clouds 30 1013 79 10000 2.74 83 19:18 07.11.2019
4796 Clouds 31 1014 74 10000 5.1 120 18:56 07.11.2019
4797 Clouds 31 1014 74 10000 5.1 120 18:37 07.11.2019
4798 Clouds 31 1014 74 10000 5.1 120 18:19 07.11.2019
4799 Clouds 30 1015 66 10000 5.1 90 17:40 07.11.2019
4800 Clouds 30 1015 66 10000 5.1 90 17:22 07.11.2019
4801 Clouds 29 1016 66 10000 5.1 40 16:59 07.11.2019
4802 Clouds 29 1016 66 10000 5.1 40 16:40 07.11.2019
4803 Clouds 29 1016 66 10000 5.1 40 16:40 07.11.2019
4804 Clouds 29 1016 66 10000 5.1 40 16:21 07.11.2019
4805 Clouds 28 1015 74 10000 4.1 360 15:59 07.11.2019
4806 Clouds 28 1015 74 10000 4.1 360 15:39 07.11.2019
4807 Clouds 28 1015 74 10000 4.1 360 15:19 07.11.2019
4808 Clouds 26 1014 83 10000 2.68 34 14:45 07.11.2019
4809 Clouds 26 1014 83 10000 2.68 34 14:27 07.11.2019
4810 Clouds 25 1013 100 10000 2.74 351 13:57 07.11.2019
4811 Clouds 25 1013 100 10000 2.74 351 13:39 07.11.2019
4812 Clouds 25 1013 100 10000 2.72 350 13:21 07.11.2019
4813 Clouds 25 1013 100 10000 2.72 350 13:21 07.11.2019
4814 Clouds 23 1014 94 10000 2.6 20 12:58 07.11.2019
4815 Clouds 23 1014 94 10000 2.6 20 12:58 07.11.2019
4816 Clouds 23 1014 94 10000 2.6 20 12:40 07.11.2019
4817 Clouds 23 1014 94 10000 2.6 20 12:22 07.11.2019
4818 Clouds 22 1013 100 10000 2.6 10 11:59 07.11.2019
4819 Clouds 22 1013 100 10000 2.6 10 11:40 07.11.2019
4820 Clouds 22 1013 100 10000 2.6 10 11:21 07.11.2019
4821 Clouds 23 1013 94 10000 2.1 20 10:41 07.11.2019
4822 Clouds 23 1013 94 10000 2.1 20 10:19 07.11.2019
4823 Clouds 23 1013 94 10000 2.6 30 09:44 07.11.2019
4824 Clouds 23 1013 94 10000 2.6 30 09:23 07.11.2019
4825 Clouds 23 1013 94 10000 2.6 30 09:23 07.11.2019
4826 Clouds 23 1013 94 10000 1.5 40 08:57 07.11.2019
4827 Clouds 23 1013 94 10000 1.5 40 08:38 07.11.2019
4828 Clouds 23 1013 94 10000 1.5 40 08:20 07.11.2019
4829 Clouds 23 1014 94 10000 2.74 342 07:44 07.11.2019
4830 Clouds 23 1014 94 10000 2.74 342 07:23 07.11.2019
4831 Clouds 23 1014 94 10000 2.74 342 07:22 07.11.2019
4832 Clouds 24 1015 94 10000 2.1 20 06:49 07.11.2019
4833 -273 0 0 0 0 0 06:29 07.11.2019
4834 Clouds 24 1015 94 10000 2.1 20 06:29 07.11.2019
4835 Clouds 25 1015 88 10000 2.74 342 05:57 07.11.2019
4836 Rain 23 1014 91 0 2.74 342 05:39 07.11.2019
4837 Clouds 25 1015 88 10000 2.1 20 05:20 07.11.2019
4838 Clouds 25 1015 88 10000 2.1 20 04:42 07.11.2019
4839 Clouds 26 1015 83 10000 2.6 50 02:59 07.11.2019
4840 Clouds 27 1014 83 10000 3.13 31 00:57 07.11.2019
4841 Clouds 27 1014 83 10000 3.13 31 00:22 07.11.2019
4842 -273 0 0 0 0 0 00:21 07.11.2019
4843 Clouds 28 1013 83 10000 3.13 31 23:48 06.11.2019
4844 Clouds 28 1013 83 10000 3.1 42 23:22 06.11.2019
4845 Rain 29 1013 78 8000 3.1 360 22:57 06.11.2019
4846 Rain 29 1013 78 8000 3.1 360 22:38 06.11.2019
4847 Rain 29 1013 78 8000 3.1 360 22:19 06.11.2019
4848 Rain 31 1013 66 8000 3.1 360 21:42 06.11.2019
4849 Rain 31 1013 66 8000 3.1 360 21:22 06.11.2019
4850 Rain 31 1014 62 8000 3.1 160 20:59 06.11.2019
4851 Rain 31 1014 62 8000 3.1 160 20:41 06.11.2019
4852 Rain 32 1014 62 8000 3.1 160 20:22 06.11.2019
4853 Clouds 32 1014 59 10000 4.1 40 19:59 06.11.2019
4854 Clouds 32 1014 59 10000 4.1 40 19:40 06.11.2019
4855 Clouds 32 1014 59 10000 4.1 40 19:21 06.11.2019
4856 Clouds 31 1015 66 10000 4.1 360 18:58 06.11.2019
4857 Clouds 30 1015 66 10000 4.1 360 18:39 06.11.2019
4858 Clouds 30 1015 66 10000 4.1 360 18:19 06.11.2019
4859 Clouds 31 1016 66 10000 5.1 360 17:57 06.11.2019
4860 Clouds 31 1016 66 10000 5.1 360 17:39 06.11.2019
4861 Clouds 31 1016 66 10000 5.1 360 17:21 06.11.2019
4862 Clouds 31 1016 74 10000 3.1 70 16:55 06.11.2019
4863 Clouds 31 1016 74 10000 3.1 70 16:37 06.11.2019
4864 Clouds 30 1016 74 10000 3.1 70 16:18 06.11.2019
4865 Clouds 30 1016 74 10000 3.1 70 16:18 06.11.2019
4866 Clouds 28 1016 83 10000 3.1 360 15:54 06.11.2019
4867 Clouds 28 1016 83 10000 3.1 360 15:36 06.11.2019
4868 Clouds 28 1016 83 10000 3.1 360 15:18 06.11.2019
4869 Clouds 27 1016 88 10000 2.93 57 14:55 06.11.2019
4870 Clouds 26 1016 88 10000 2.93 57 14:37 06.11.2019
4871 Clouds 26 1016 88 10000 2.94 352 14:18 06.11.2019
4872 Clouds 25 1015 94 10000 2.94 352 13:39 06.11.2019
4873 Clouds 25 1015 94 10000 2.94 352 13:39 06.11.2019
4874 Clouds 25 1015 94 10000 2.96 349 13:21 06.11.2019
4875 Clouds 24 1016 94 10000 2.1 20 12:58 06.11.2019
4876 Clouds 23 1016 94 10000 2.1 20 12:39 06.11.2019
4877 Clouds 23 1016 94 10000 2.1 20 12:20 06.11.2019
4878 Clouds 23 1016 94 10000 2.6 10 11:58 06.11.2019
4879 Clouds 23 1016 94 10000 2.6 10 11:37 06.11.2019
4880 Clouds 23 1016 94 10000 2.6 10 11:18 06.11.2019
4881 Clouds 23 1015 94 10000 2.6 10 10:56 06.11.2019
4882 Clouds 23 1015 94 10000 2.6 10 10:38 06.11.2019
4883 Clouds 23 1015 94 10000 2.6 10 10:19 06.11.2019
4884 Clouds 23 1015 94 10000 2.1 10 09:43 06.11.2019
4885 Clouds 23 1015 94 10000 2.1 10 09:43 06.11.2019
4886 Clouds 23 1015 94 10000 2.1 10 09:43 06.11.2019
4887 Clouds 23 1015 94 10000 2.1 10 09:21 06.11.2019
4888 Clouds 23 1015 94 10000 2.1 360 08:58 06.11.2019
4889 Clouds 23 1015 94 10000 2.1 360 08:38 06.11.2019
4890 Clouds 23 1015 94 10000 2.1 360 08:19 06.11.2019
4891 Clouds 23 1015 94 10000 2.1 20 07:55 06.11.2019
4892 Clouds 23 1015 94 10000 2.1 20 07:36 06.11.2019
4893 Clouds 23 1015 94 10000 2.1 20 07:36 06.11.2019
4894 Clouds 23 1015 94 10000 2.1 20 07:18 06.11.2019
4895 Clouds 23 1015 94 10000 2.1 20 06:40 06.11.2019
4896 Clouds 23 1015 94 10000 2.1 20 06:22 06.11.2019
4897 Clouds 24 1015 94 10000 2.1 30 03:52 06.11.2019
4898 Clouds 24 1015 94 10000 2.6 20 02:18 06.11.2019
4899 Rain 24 1013 94 8000 1.62 353 00:55 06.11.2019
4900 Rain 24 1013 94 8000 1.62 353 00:27 06.11.2019
4901 Rain 25 1013 94 8000 1.62 353 23:57 05.11.2019
4902 Rain 25 1013 94 8000 1.62 353 23:37 05.11.2019
4903 Rain 25 1013 94 8000 1.62 353 23:37 05.11.2019
4904 Rain 25 1013 94 8000 1.03 85 23:18 05.11.2019
4905 Clouds 26 1013 83 10000 1.03 85 22:42 05.11.2019
4906 Clouds 26 1013 83 10000 1.03 85 22:42 05.11.2019
4907 Clouds 26 1013 83 10000 1.03 85 22:19 05.11.2019
4908 Rain 27 1013 83 8000 1.03 85 21:57 05.11.2019
4909 Rain 27 1013 83 8000 1.03 85 21:39 05.11.2019
4910 Rain 27 1013 83 8000 1.03 85 21:20 05.11.2019
4911 Rain 28 1014 83 8000 5.1 360 20:56 05.11.2019
4912 Rain 28 1014 83 8000 5.1 360 20:38 05.11.2019
4913 Rain 28 1014 83 8000 5.1 360 20:38 05.11.2019
4914 Rain 28 1014 83 8000 5.1 360 20:20 05.11.2019
4915 Rain 29 1014 83 7000 5.1 270 19:54 05.11.2019
4916 Rain 29 1014 83 7000 5.1 270 19:54 05.11.2019
4917 Rain 29 1014 83 7000 5.1 270 19:36 05.11.2019
4918 Rain 29 1014 83 7000 5.1 270 19:18 05.11.2019
4919 Clouds 30 1015 66 10000 2.6 90 18:55 05.11.2019
4920 Clouds 30 1015 66 10000 2.6 90 18:37 05.11.2019
4921 Clouds 30 1015 66 10000 2.6 90 18:18 05.11.2019
4922 Clouds 30 1016 70 10000 5.1 30 17:39 05.11.2019
4923 Clouds 30 1016 70 10000 5.1 30 17:21 05.11.2019
4924 Clouds 30 1016 74 10000 5.1 90 16:59 05.11.2019
4925 Clouds 29 1016 74 10000 5.1 90 16:41 05.11.2019
4926 Clouds 30 1016 74 10000 5.1 90 16:20 05.11.2019
4927 Clouds 29 1016 74 10000 3.1 40 15:41 05.11.2019
4928 Clouds 29 1016 74 10000 3.1 40 15:20 05.11.2019
4929 Clouds 29 1016 74 10000 3.1 40 14:59 05.11.2019
4930 Clouds 27 1015 83 10000 4.1 360 14:41 05.11.2019
4931 Clouds 27 1015 83 10000 4.1 360 14:22 05.11.2019
4932 Clouds 25 1014 88 10000 3.1 280 13:58 05.11.2019
4933 Clouds 25 1014 88 10000 3.1 280 13:40 05.11.2019
4934 Clouds 25 1014 88 10000 3.1 280 13:22 05.11.2019
4935 Clouds 23 1014 94 10000 2.1 360 12:41 05.11.2019
4936 Clouds 23 1014 94 10000 2.1 360 12:22 05.11.2019
4937 Clouds 23 1013 94 10000 2.1 360 11:57 05.11.2019
4938 Clouds 23 1013 94 10000 2.1 360 11:38 05.11.2019
4939 Clouds 23 1013 94 10000 2.1 360 11:19 05.11.2019
4940 Clouds 23 1013 94 10000 2.1 20 10:48 05.11.2019
4941 Clouds 23 1013 94 10000 2.1 360 10:27 05.11.2019
4942 Clouds 24 1013 94 10000 2.1 360 09:59 05.11.2019
4943 Clouds 24 1013 94 10000 2.1 360 09:59 05.11.2019
4944 Clouds 24 1013 94 10000 2.1 360 09:41 05.11.2019
4945 Clouds 24 1013 94 10000 2.1 360 09:21 05.11.2019
4946 Clouds 24 1013 94 10000 2.1 360 08:57 05.11.2019
4947 Clouds 24 1013 94 10000 2.1 360 08:37 05.11.2019
4948 Clouds 24 1013 94 10000 2.1 360 08:19 05.11.2019
4949 Clouds 24 1013 94 10000 3.21 342 07:45 05.11.2019
4950 Clouds 25 1013 94 10000 3.21 342 07:26 05.11.2019
4951 Clouds 24 1014 94 10000 3.21 342 06:52 05.11.2019
4952 Clouds 25 1014 94 10000 3.21 342 06:30 05.11.2019
4953 Clouds 25 1014 88 10000 3.21 342 05:44 05.11.2019
4954 Clouds 25 1014 88 10000 3.1 351 05:20 05.11.2019
4955 Clouds 25 1014 88 10000 3.1 351 04:22 05.11.2019
4956 Clouds 25 1014 88 10000 2.1 30 03:29 05.11.2019
4957 Clouds 26 1014 88 10000 2.1 30 02:43 05.11.2019
4958 Clouds 26 1013 94 10000 2.1 40 01:53 05.11.2019
4959 Clouds 27 1013 74 10000 3.78 15 00:46 05.11.2019
4960 Clouds 27 1013 74 10000 3.78 15 00:26 05.11.2019
4961 Clouds 28 1012 74 10000 3.78 15 23:42 04.11.2019
4962 Clouds 28 1012 74 10000 4.24 35 23:19 04.11.2019
4963 Clouds 29 1011 66 10000 3.1 360 22:57 04.11.2019
4964 Clouds 29 1011 66 10000 3.1 360 22:39 04.11.2019
4965 Clouds 29 1011 66 10000 3.1 360 22:20 04.11.2019
4966 Clouds 30 1011 66 10000 2.6 60 21:55 04.11.2019
4967 Clouds 29 1011 66 10000 2.6 60 21:37 04.11.2019
4968 Clouds 30 1011 66 10000 2.6 60 21:18 04.11.2019
4969 Clouds 31 1012 62 10000 3.1 40 20:55 04.11.2019
4970 Clouds 31 1012 62 10000 3.1 40 20:36 04.11.2019
4971 Clouds 31 1012 62 10000 3.1 40 20:18 04.11.2019
4972 Clouds 31 1013 62 10000 3.8 16 19:42 04.11.2019
4973 Clouds 31 1013 62 10000 3.8 16 19:23 04.11.2019
4974 Clouds 31 1013 66 10000 3.8 16 18:59 04.11.2019
4975 Clouds 31 1013 66 10000 3.8 16 18:40 04.11.2019
4976 Clouds 31 1013 66 10000 3.8 16 18:21 04.11.2019
4977 Clouds 30 1014 66 10000 3.1 60 17:58 04.11.2019
4978 Clouds 30 1014 66 10000 3.1 60 17:36 04.11.2019
4979 Clouds 30 1014 66 10000 3.1 60 17:18 04.11.2019
4980 Clouds 29 1014 70 10000 5.1 360 16:43 04.11.2019
4981 Clouds 29 1014 70 10000 5.1 360 16:24 04.11.2019
4982 Clouds 28 1014 83 10000 3.1 360 15:58 04.11.2019
4983 Clouds 27 1014 83 10000 3.1 360 15:40 04.11.2019
4984 Clouds 27 1014 83 10000 3.1 360 15:21 04.11.2019
4985 Clouds 26 1013 88 10000 4.31 26 14:58 04.11.2019
4986 Clouds 26 1013 88 10000 4.31 26 14:39 04.11.2019
4987 Clouds 26 1013 88 10000 3.35 340 14:20 04.11.2019
4988 Clouds 25 1013 94 10000 3.35 340 13:57 04.11.2019
4989 Clouds 24 1013 94 10000 3.35 340 13:39 04.11.2019
4990 Clouds 24 1013 94 10000 3.32 343 13:20 04.11.2019
4991 Clouds 22 1013 100 10000 2.1 30 12:49 04.11.2019
4992 Clouds 22 1013 100 10000 2.1 30 12:49 04.11.2019
4993 Clouds 22 1013 100 10000 2.1 30 12:29 04.11.2019
4994 Clouds 22 1012 100 10000 2.1 10 11:59 04.11.2019
4995 Clouds 22 1012 100 10000 2.1 10 11:41 04.11.2019
4996 Clouds 22 1012 100 10000 2.1 10 11:22 04.11.2019
4997 Clouds 22 1012 94 10000 2.1 10 10:54 04.11.2019
4998 Clouds 22 1012 94 10000 2.1 10 10:36 04.11.2019
4999 Clouds 22 1012 94 10000 2.1 10 10:18 04.11.2019
5000 Clouds 23 1012 94 10000 2.1 10 09:40 04.11.2019
5001 Clouds 23 1012 94 10000 2.1 10 09:20 04.11.2019
5002 Clouds 23 1013 100 10000 2.1 10 08:43 04.11.2019
5003 Clouds 23 1013 100 10000 2.1 10 08:23 04.11.2019
5004 Clouds 23 1013 100 10000 2.1 360 07:59 04.11.2019
5005 Clouds 23 1013 100 10000 2.1 360 07:41 04.11.2019
5006 Clouds 23 1013 100 10000 2.1 360 07:19 04.11.2019
5007 Clouds 23 1013 100 10000 1.5 360 06:49 04.11.2019
5008 Clouds 23 1013 100 10000 1.5 360 06:18 04.11.2019
5009 Clouds 23 1013 100 10000 3.19 348 05:32 04.11.2019
5010 Clouds 24 1014 94 10000 3.06 349 04:34 04.11.2019
5011 Clouds 24 1014 94 10000 3.06 349 03:39 04.11.2019
5012 Clouds 24 1013 94 10000 3.28 6 01:37 04.11.2019
5013 Clouds 25 1013 94 10000 3.2 13 01:18 04.11.2019
5014 Clouds 25 1012 78 10000 3.2 13 00:22 04.11.2019
5015 Clouds 26 1011 74 10000 3.1 360 23:58 03.11.2019
5016 Clouds 26 1011 74 10000 3.1 360 23:38 03.11.2019
5017 Clouds 25 1011 74 10000 3.1 360 23:19 03.11.2019
5018 Clouds 26 1010 70 10000 4.1 360 22:56 03.11.2019
5019 Clouds 26 1010 70 10000 4.1 360 22:38 03.11.2019
5020 Clouds 26 1010 70 10000 4.1 360 22:19 03.11.2019
5021 Clouds 26 1011 70 10000 5.1 360 21:43 03.11.2019
5022 Clouds 26 1011 70 10000 5.1 360 21:43 03.11.2019
5023 Clouds 26 1011 70 10000 5.1 360 21:21 03.11.2019
5024 Clouds 27 1011 66 10000 5.1 360 20:58 03.11.2019
5025 Clouds 27 1011 66 10000 5.1 360 20:38 03.11.2019
5026 Clouds 27 1011 66 10000 5.1 360 20:38 03.11.2019
5027 Clouds 28 1011 66 10000 5.1 360 20:19 03.11.2019
5028 Clouds 31 1011 62 10000 4.1 40 19:57 03.11.2019
5029 Clouds 30 1011 62 10000 4.1 40 19:38 03.11.2019
5030 Clouds 30 1011 62 10000 4.1 40 19:20 03.11.2019
5031 Clouds 30 1012 62 10000 4.1 60 18:56 03.11.2019
5032 Clouds 30 1012 62 10000 4.1 60 18:37 03.11.2019
5033 Clouds 30 1012 62 10000 4.1 60 18:18 03.11.2019
5034 Clouds 30 1012 66 10000 5.1 360 17:42 03.11.2019
5035 Clouds 30 1012 66 10000 5.1 360 17:20 03.11.2019
5036 Clouds 29 1013 74 10000 4.1 360 16:59 03.11.2019
5037 Clouds 29 1013 74 10000 4.1 360 16:59 03.11.2019
5038 Clouds 29 1013 74 10000 4.1 360 16:40 03.11.2019
5039 Clouds 29 1013 74 10000 4.1 360 16:22 03.11.2019
5040 Clouds 28 1012 78 10000 4.1 360 15:58 03.11.2019
5041 Clouds 28 1012 78 10000 4.1 360 15:39 03.11.2019
5042 Clouds 28 1012 78 10000 4.1 360 15:21 03.11.2019
5043 Clouds 26 1012 88 10000 3.75 28 14:43 03.11.2019
5044 Clouds 25 1012 88 10000 3.25 344 14:20 03.11.2019
5045 Clouds 24 1011 94 10000 3.25 344 13:59 03.11.2019
5046 Clouds 24 1011 94 10000 3.25 344 13:40 03.11.2019
5047 Clouds 24 1011 94 10000 3.75 345 13:18 03.11.2019
5048 Clouds 23 1012 100 10000 2.1 20 12:54 03.11.2019
5049 Clouds 23 1012 100 10000 2.1 20 12:36 03.11.2019
5050 Clouds 22 1012 100 10000 2.1 20 12:18 03.11.2019
5051 Clouds 22 1012 100 10000 3.75 345 11:42 03.11.2019
5052 Clouds 22 1012 100 10000 3.31 346 11:21 03.11.2019
5053 Clouds 23 1011 94 10000 2.1 20 10:55 03.11.2019
5054 Clouds 23 1011 94 10000 2.1 20 10:37 03.11.2019
5055 Clouds 23 1011 94 10000 2.1 20 10:18 03.11.2019
5056 Clouds 23 1011 94 10000 2.1 20 10:18 03.11.2019
5057 Clouds 23 1011 94 10000 2.1 20 09:42 03.11.2019
5058 Clouds 23 1011 94 10000 2.1 20 09:24 03.11.2019
5059 Clouds 23 1011 94 10000 2.1 20 08:56 03.11.2019
5060 Clouds 23 1011 94 10000 2.1 20 08:56 03.11.2019
5061 Clouds 23 1011 94 10000 2.1 20 08:36 03.11.2019
5062 Clouds 23 1011 94 10000 2.1 20 08:18 03.11.2019
5063 Clouds 24 1012 94 10000 2.1 20 07:44 03.11.2019
5064 Clouds 24 1012 94 10000 2.1 20 07:20 03.11.2019
5065 Clouds 24 1012 94 10000 2.1 40 06:39 03.11.2019
5066 Clouds 24 1012 94 10000 2.1 20 05:52 03.11.2019
5067 Clouds 24 1012 94 10000 2.1 20 05:32 03.11.2019
5068 Clouds 24 1013 94 10000 2.1 30 04:51 03.11.2019
5069 Clouds 25 1013 94 10000 3.16 352 03:54 03.11.2019
5070 Clouds 24 1012 94 10000 3.16 352 02:47 03.11.2019
5071 Clouds 25 1012 94 10000 3.16 22 02:21 03.11.2019
5072 Rain 26 1012 88 0 3.16 22 01:49 03.11.2019
5073 Clouds 26 1012 83 10000 3.16 22 01:24 03.11.2019
5074 Clouds 26 1012 83 10000 3.16 15 00:57 03.11.2019
5075 Clouds 26 1012 83 10000 3.16 15 00:37 03.11.2019
5076 Clouds 26 1012 83 10000 3.16 15 00:18 03.11.2019
5077 Clouds 27 1012 70 10000 3.16 15 23:39 02.11.2019
5078 Clouds 27 1012 70 10000 2.9 45 23:20 02.11.2019
5079 Rain 28 1011 88 6000 5.1 120 22:56 02.11.2019
5080 Rain 28 1011 88 6000 5.1 120 22:38 02.11.2019
5081 Clouds 30 1012 66 10000 2.9 45 22:19 02.11.2019
5082 Clouds 30 1012 66 10000 2.9 45 22:19 02.11.2019
5083 Clouds 30 1011 70 10000 2.6 150 21:57 02.11.2019
5084 Clouds 30 1011 70 10000 2.6 150 21:38 02.11.2019
5085 Clouds 31 1011 70 10000 2.6 150 21:18 02.11.2019
5086 Clouds 31 1011 70 10000 2.6 150 21:18 02.11.2019
5087 Clouds 31 1011 70 10000 2.6 150 20:59 02.11.2019
5088 Clouds 31 1011 66 10000 5.1 30 20:40 02.11.2019
5089 Clouds 31 1011 66 10000 5.1 30 20:20 02.11.2019
5090 Clouds 31 1013 62 10000 3.29 54 19:57 02.11.2019
5091 Clouds 31 1013 62 10000 3.29 54 19:36 02.11.2019
5092 Clouds 31 1013 62 10000 3.29 54 19:18 02.11.2019
5093 Clouds 31 1013 62 10000 4.1 30 18:43 02.11.2019
5094 Clouds 31 1013 62 10000 4.1 30 18:24 02.11.2019
5095 Clouds 30 1014 66 10000 4.1 30 17:59 02.11.2019
5096 Clouds 30 1014 66 10000 4.1 30 17:40 02.11.2019
5097 Clouds 30 1014 66 10000 4.1 30 17:22 02.11.2019
5098 Clouds 30 1014 66 10000 4.1 30 17:22 02.11.2019
5099 Clouds 29 1015 70 10000 3.1 360 16:58 02.11.2019
5100 Clouds 29 1015 70 10000 3.1 360 16:38 02.11.2019
5101 Clouds 29 1015 70 10000 3.1 360 16:20 02.11.2019
5102 Clouds 29 1015 74 10000 4.1 360 15:42 02.11.2019
5103 Clouds 28 1015 74 10000 4.1 360 15:20 02.11.2019
5104 Clouds 26 1014 88 10000 5.1 360 14:56 02.11.2019
5105 Clouds 26 1014 88 10000 5.1 360 14:38 02.11.2019
5106 Clouds 26 1014 88 10000 5.1 360 14:20 02.11.2019
5107 Clouds 25 1014 94 10000 3.56 342 13:40 02.11.2019
5108 Clouds 24 1014 94 10000 3.45 346 13:20 02.11.2019
5109 Clouds 24 1012 94 10000 2.1 360 12:56 02.11.2019
5110 Clouds 23 1012 94 10000 2.1 360 12:37 02.11.2019
5111 Clouds 23 1012 94 10000 2.1 360 12:19 02.11.2019
5112 Clouds 23 1012 100 10000 2.6 360 11:42 02.11.2019
5113 Clouds 23 1012 100 10000 2.6 360 11:42 02.11.2019
5114 Clouds 23 1012 100 10000 2.6 360 11:23 02.11.2019
5115 Clouds 22 1012 100 10000 2.1 10 10:56 02.11.2019
5116 Clouds 22 1012 100 10000 2.1 10 10:38 02.11.2019
5117 Clouds 23 1012 100 10000 2.1 10 10:18 02.11.2019
5118 Clouds 22 1011 100 10000 2.1 10 09:40 02.11.2019
5119 Clouds 23 1011 100 10000 2.1 10 09:21 02.11.2019
5120 Clouds 23 1012 94 10000 2.1 350 08:50 02.11.2019
5121 Clouds 24 1012 94 10000 2.1 350 08:24 02.11.2019
5122 Clouds 23 1012 100 10000 1.5 350 07:52 02.11.2019
5123 Clouds 23 1012 100 10000 1.5 350 07:33 02.11.2019
5124 Clouds 24 1013 94 10000 2.1 350 06:59 02.11.2019
5125 Clouds 24 1013 94 10000 2.1 350 06:41 02.11.2019
5126 Clouds 24 1013 94 10000 2.1 350 06:20 02.11.2019
5127 Clouds 24 1013 94 10000 2.1 340 05:33 02.11.2019
5128 Clouds 24 1013 94 10000 2.1 350 04:23 02.11.2019
5129 Clouds 25 1013 94 10000 2.1 10 03:50 02.11.2019
5130 Clouds 25 1013 94 10000 2.6 20 02:49 02.11.2019
5131 Clouds 25 1013 94 10000 2.6 20 02:49 02.11.2019
5132 Clouds 25 1013 94 10000 2.1 20 01:57 02.11.2019
5133 Clouds 25 1013 94 10000 2.1 20 01:25 02.11.2019
5134 Clouds 26 1012 83 10000 3.53 1 00:54 02.11.2019
5135 Clouds 26 1012 83 10000 3.53 1 00:27 02.11.2019
5136 Clouds 26 1012 78 10000 2.1 360 23:49 01.11.2019
5137 Clouds 27 1012 78 10000 2.1 360 23:23 01.11.2019
5138 Rain 27 1012 100 7000 3.42 9 22:59 01.11.2019
5139 Rain 27 1012 100 7000 3.42 9 22:40 01.11.2019
5140 Clouds 28 1011 78 10000 3.1 360 22:20 01.11.2019
5141 Clouds 29 1012 79 10000 5.1 280 21:42 01.11.2019
5142 Clouds 29 1012 79 10000 5.1 280 21:24 01.11.2019
5143 Rain 29 1011 83 8000 3.42 9 20:58 01.11.2019
5144 Rain 30 1011 83 8000 3.42 9 20:40 01.11.2019
5145 Rain 30 1012 74 8000 3.1 360 20:20 01.11.2019
5146 Clouds 30 1012 74 8000 4.1 30 19:56 01.11.2019
5147 Clouds 30 1012 74 8000 4.1 30 19:38 01.11.2019
5148 Clouds 30 1012 74 8000 4.1 30 19:19 01.11.2019
5149 Clouds 31 1013 66 10000 3.1 30 18:39 01.11.2019
5150 Clouds 31 1013 66 10000 3.1 30 18:39 01.11.2019
5151 Clouds 31 1013 66 10000 3.1 30 18:21 01.11.2019
5152 Clouds 31 1014 70 10000 4.1 360 17:55 01.11.2019
5153 Clouds 31 1014 70 10000 4.1 360 17:37 01.11.2019
5154 Clouds 31 1014 70 10000 4.1 360 17:19 01.11.2019
5155 Clouds 31 1014 70 10000 4.1 360 17:19 01.11.2019
5156 Clouds 30 1015 74 10000 4.1 360 16:38 01.11.2019
5157 Clouds 30 1015 74 10000 4.1 360 16:38 01.11.2019
5158 Clouds 30 1015 74 10000 4.1 360 16:19 01.11.2019
5159 Clouds 28 1014 78 10000 3.1 30 15:54 01.11.2019
5160 Clouds 28 1014 78 10000 3.1 30 15:36 01.11.2019
5161 Clouds 28 1014 78 10000 3.1 30 15:18 01.11.2019
5162 Clouds 27 1014 88 10000 3.1 30 14:41 01.11.2019
5163 Clouds 26 1014 88 10000 3.1 30 14:23 01.11.2019
5164 Clouds 25 1013 100 10000 2.78 346 13:57 01.11.2019
5165 Clouds 25 1013 100 10000 2.78 346 13:37 01.11.2019
5166 Clouds 24 1013 100 10000 2.77 344 13:19 01.11.2019
5167 Clouds 24 1014 94 10000 2.1 350 12:43 01.11.2019
5168 Clouds 24 1014 94 10000 2.1 350 12:25 01.11.2019
5169 Clouds 23 1013 94 10000 2.1 360 11:55 01.11.2019
5170 Clouds 23 1013 94 10000 2.1 360 11:37 01.11.2019
5171 Clouds 23 1013 94 10000 2.1 360 11:18 01.11.2019
5172 Clouds 24 1013 100 10000 2.1 350 10:41 01.11.2019
5173 Clouds 24 1013 100 10000 2.1 350 10:21 01.11.2019
5174 Clouds 24 1013 100 10000 1.5 0 09:57 01.11.2019
5175 Clouds 24 1013 100 10000 1.5 0 09:57 01.11.2019
5176 Clouds 24 1013 100 10000 1.5 0 09:37 01.11.2019
5177 Clouds 24 1013 100 10000 1.5 0 09:19 01.11.2019
5178 Clouds 24 1013 100 10000 2.8 343 08:42 01.11.2019
5179 Clouds 24 1013 100 10000 2.8 341 08:21 01.11.2019
5180 Clouds 24 1013 94 10000 2.1 30 07:53 01.11.2019
5181 Clouds 24 1013 94 10000 2.1 30 07:26 01.11.2019
5182 Clouds 24 1013 94 10000 2.1 30 07:26 01.11.2019
5183 Clouds 24 1014 94 10000 2.1 20 06:57 01.11.2019
5184 Clouds 25 1014 94 10000 2.1 20 06:39 01.11.2019
5185 Clouds 25 1014 94 10000 2.1 20 06:21 01.11.2019
5186 Clouds 24 1014 94 10000 2.1 40 05:43 01.11.2019
5187 Clouds 25 1014 94 10000 2.1 30 03:34 01.11.2019
5188 Clouds 25 1014 94 10000 2.1 30 03:34 01.11.2019
5189 Clouds 26 1013 94 10000 3.14 18 01:56 01.11.2019
5190 Clouds 26 1013 83 10000 3.14 18 01:28 01.11.2019
5191 Clouds 26 1013 83 10000 3.27 12 00:21 01.11.2019
5192 Clouds 27 1012 78 10000 3.1 360 23:56 31.10.2019
5193 Clouds 28 1012 78 10000 3.1 360 23:38 31.10.2019
5194 Clouds 28 1012 78 10000 3.1 360 23:19 31.10.2019
5195 Clouds 29 1011 74 10000 4.1 360 22:42 31.10.2019
5196 Clouds 29 1011 74 10000 4.1 360 22:24 31.10.2019
5197 Clouds 30 1012 70 10000 4.1 360 21:58 31.10.2019
5198 Clouds 30 1012 70 10000 4.1 360 21:40 31.10.2019
5199 Clouds 30 1012 70 10000 4.1 360 21:19 31.10.2019
5200 Clouds 30 1012 74 10000 3.1 360 20:41 31.10.2019
5201 Clouds 30 1012 74 10000 3.1 360 20:23 31.10.2019
5202 Clouds 29 1012 88 10000 3.1 360 19:59 31.10.2019
5203 Clouds 29 1012 88 10000 3.1 360 19:38 31.10.2019
5204 Clouds 29 1012 88 10000 3.1 360 19:38 31.10.2019
5205 Clouds 29 1012 88 10000 3.1 360 19:20 31.10.2019
5206 Clouds 30 1013 62 10000 5.1 360 18:44 31.10.2019
5207 Clouds 29 1013 62 10000 5.1 360 18:26 31.10.2019
5208 Clouds 30 1013 66 10000 4.1 360 17:59 31.10.2019
5209 Clouds 30 1013 66 10000 4.1 360 17:41 31.10.2019
5210 Clouds 31 1013 66 10000 4.1 360 17:20 31.10.2019
5211 Clouds 29 1015 70 10000 3.1 60 16:55 31.10.2019
5212 Clouds 29 1015 70 10000 3.1 60 16:37 31.10.2019
5213 Clouds 29 1015 70 10000 3.1 60 16:18 31.10.2019
5214 Clouds 29 1013 78 10000 3.1 360 15:40 31.10.2019
5215 Clouds 29 1013 78 10000 3.1 360 15:22 31.10.2019
5216 Clouds 29 1013 78 10000 3.1 360 15:22 31.10.2019
5217 Clouds 27 1013 83 10000 3.1 360 14:59 31.10.2019
5218 Clouds 27 1013 83 10000 3.1 360 14:41 31.10.2019
5219 Clouds 27 1013 83 10000 3.1 360 14:22 31.10.2019
5220 Clouds 25 1012 94 10000 2.74 355 13:59 31.10.2019
5221 Clouds 25 1012 94 10000 2.74 355 13:39 31.10.2019
5222 Clouds 24 1012 94 10000 2.68 355 13:19 31.10.2019
5223 Clouds 23 1013 94 10000 2.1 360 12:55 31.10.2019
5224 Clouds 23 1013 94 10000 2.1 360 12:37 31.10.2019
5225 Clouds 23 1013 94 10000 2.1 360 12:18 31.10.2019
5226 Clouds 23 1013 94 10000 2.1 350 11:45 31.10.2019
5227 Clouds 23 1013 94 10000 2.1 350 11:20 31.10.2019
5228 Clouds 23 1012 94 10000 2.1 350 10:58 31.10.2019
5229 Clouds 23 1012 94 10000 2.1 350 10:39 31.10.2019
5230 Clouds 23 1012 94 10000 2.1 350 10:20 31.10.2019
5231 Clouds 24 1012 94 10000 2.1 350 09:46 31.10.2019
5232 Clouds 24 1012 94 10000 2.1 350 09:20 31.10.2019
5233 Clouds 24 1012 94 10000 2.1 350 09:20 31.10.2019
5234 Clouds 23 1012 94 10000 2.1 360 08:57 31.10.2019
5235 Clouds 23 1012 94 10000 2.1 360 08:39 31.10.2019
5236 Clouds 24 1012 94 10000 2.1 360 08:20 31.10.2019
5237 Clouds 24 1013 94 10000 2.66 341 07:45 31.10.2019
5238 Clouds 24 1013 94 10000 2.66 341 07:24 31.10.2019
5239 Clouds 24 1013 94 10000 2.66 341 06:52 31.10.2019
5240 Clouds 25 1013 94 10000 2.66 341 06:30 31.10.2019
5241 Clouds 25 1013 94 10000 2.84 345 05:19 31.10.2019
5242 Clouds 25 1013 94 10000 2.84 345 05:19 31.10.2019
5243 Clouds 26 1013 83 10000 2.1 50 02:49 31.10.2019
5244 Clouds 26 1013 83 10000 2.1 50 02:24 31.10.2019
5245 Clouds 24 1013 76 0 3.27 12 00:51 31.10.2019
5246 Clouds 29 1012 70 10000 3.27 12 00:25 31.10.2019
5247 Clouds 29 1012 70 10000 3.27 12 23:41 30.10.2019
5248 Clouds 29 1012 70 10000 3.83 37 23:22 30.10.2019
5249 Clouds 30 1012 66 10000 3.1 360 22:41 30.10.2019
5250 Clouds 30 1012 66 10000 3.1 360 22:19 30.10.2019
5251 Clouds 31 1011 53 0 1.79 96 21:55 30.10.2019
5252 Clouds 31 1011 53 0 1.34 42 21:37 30.10.2019
5253 Clouds 31 1011 53 0 1.34 42 21:37 30.10.2019
5254 Clouds 32 1012 62 10000 3.1 70 21:18 30.10.2019
5255 Clouds 32 1012 62 10000 3.1 70 20:57 30.10.2019
5256 Clouds 32 1012 62 10000 3.1 70 20:37 30.10.2019
5257 Clouds 32 1012 62 10000 3.1 70 20:19 30.10.2019
5258 Clouds 32 1013 62 10000 3.69 22 19:43 30.10.2019
5259 Clouds 32 1013 62 10000 3.69 22 19:24 30.10.2019
5260 Clouds 32 1013 62 10000 2.6 70 18:59 30.10.2019
5261 Clouds 32 1013 62 10000 2.6 70 18:38 30.10.2019
5262 Clouds 31 1013 62 10000 2.6 70 18:19 30.10.2019
5263 Clouds 31 1015 66 10000 3.1 70 17:56 30.10.2019
5264 Clouds 31 1015 66 10000 3.1 70 17:37 30.10.2019
5265 Clouds 30 1015 74 10000 4.1 40 17:18 30.10.2019
5266 Clouds 30 1015 74 10000 4.1 40 16:54 30.10.2019
5267 Clouds 30 1015 74 10000 4.1 40 16:36 30.10.2019
5268 Clouds 29 1015 74 10000 4.1 40 16:18 30.10.2019
5269 Clouds 28 1014 78 10000 4.1 360 15:40 30.10.2019
5270 Clouds 28 1014 78 10000 4.1 360 15:21 30.10.2019
5271 Clouds 27 1014 83 10000 4.36 18 14:59 30.10.2019
5272 Clouds 27 1014 83 10000 4.36 18 14:41 30.10.2019
5273 Clouds 27 1014 83 10000 3.57 348 14:22 30.10.2019
5274 Clouds 25 1013 94 10000 3.57 348 13:55 30.10.2019
5275 Clouds 25 1013 94 10000 3.5 345 13:37 30.10.2019
5276 Clouds 25 1013 94 10000 3.57 348 13:37 30.10.2019
5277 Clouds 25 1013 94 10000 3.5 345 13:18 30.10.2019
5278 Clouds 23 1013 100 10000 2.1 10 12:45 30.10.2019
5279 Clouds 23 1013 100 10000 2.1 10 12:27 30.10.2019
5280 Clouds 23 1012 94 10000 2.1 30 11:58 30.10.2019
5281 Clouds 23 1012 94 10000 2.1 30 11:40 30.10.2019
5282 Clouds 23 1012 94 10000 2.1 30 11:21 30.10.2019
5283 Clouds 23 1012 94 10000 2.1 360 10:43 30.10.2019
5284 Clouds 23 1012 94 10000 2.1 360 10:23 30.10.2019
5285 Clouds 23 1012 94 10000 2.6 360 09:42 30.10.2019
5286 Clouds 23 1012 94 10000 2.6 360 09:24 30.10.2019
5287 Clouds 23 1012 94 10000 3.1 30 08:57 30.10.2019
5288 Clouds 23 1012 94 10000 3.1 30 08:39 30.10.2019
5289 Clouds 23 1012 94 10000 3.1 30 08:20 30.10.2019
5290 Clouds 23 1012 94 10000 3.1 30 08:20 30.10.2019
5291 Clouds 24 1013 94 10000 2.1 360 07:45 30.10.2019
5292 Clouds 24 1013 94 10000 2.1 360 07:21 30.10.2019
5293 Clouds 24 1013 94 10000 2.1 10 06:42 30.10.2019
5294 Clouds 25 1013 94 10000 2.1 10 06:20 30.10.2019
5295 Clouds 25 1013 94 10000 2.1 10 05:41 30.10.2019
5296 Clouds 25 1013 88 10000 2.1 20 04:42 30.10.2019
5297 Clouds 25 1013 88 10000 2.1 10 03:43 30.10.2019
5298 Clouds 26 1013 83 10000 2.1 20 02:51 30.10.2019
5299 Clouds 26 1013 83 10000 2.1 20 01:55 30.10.2019
5300 Clouds 27 1012 83 10000 3.67 7 00:55 30.10.2019
5301 Clouds 27 1012 83 10000 3.67 7 00:28 30.10.2019
5302 Clouds 27 1012 78 10000 3.1 360 23:42 29.10.2019
5303 Clouds 28 1012 78 10000 3.1 360 23:22 29.10.2019
5304 Clouds 28 1012 74 10000 2.6 360 22:46 29.10.2019
5305 Clouds 28 1012 74 10000 2.6 360 22:20 29.10.2019
5306 Clouds 28 1012 74 10000 5.1 360 21:56 29.10.2019
5307 Clouds 28 1012 74 10000 5.1 360 21:38 29.10.2019
5308 Clouds 28 1012 74 10000 5.1 360 21:20 29.10.2019
5309 Clouds 28 1012 79 10000 5.1 360 20:54 29.10.2019
5310 Clouds 28 1012 79 10000 5.1 360 20:36 29.10.2019
5311 Clouds 29 1012 79 10000 5.1 360 20:18 29.10.2019
5312 Clouds 30 1013 83 10000 3.1 330 19:55 29.10.2019
5313 Clouds 30 1013 83 10000 3.1 330 19:36 29.10.2019
5314 Clouds 30 1013 83 10000 3.1 330 19:18 29.10.2019
5315 Rain 29 1014 94 8000 2.6 30 18:54 29.10.2019
5316 Rain 29 1014 94 8000 2.6 30 18:36 29.10.2019
5317 Rain 29 1014 94 8000 2.6 30 18:18 29.10.2019
5318 Rain 30 1014 74 8000 5.1 30 17:40 29.10.2019
5319 Rain 30 1014 74 8000 5.1 30 17:21 29.10.2019
5320 Clouds 29 1015 79 10000 3.1 330 16:58 29.10.2019
5321 Clouds 29 1015 79 10000 3.1 330 16:38 29.10.2019
5322 Clouds 29 1015 79 10000 3.1 330 16:19 29.10.2019
5323 Rain 28 1015 78 8000 5.1 360 15:54 29.10.2019
5324 Rain 28 1015 78 8000 5.1 360 15:36 29.10.2019
5325 Rain 28 1015 78 8000 5.1 360 15:18 29.10.2019
5326 Clouds 27 1014 88 10000 5.1 360 14:42 29.10.2019
5327 Clouds 27 1014 88 10000 5.1 360 14:42 29.10.2019
5328 Clouds 27 1014 88 10000 5.1 360 14:23 29.10.2019
5329 Clouds 26 1014 88 10000 2.75 341 13:58 29.10.2019
5330 Clouds 26 1014 88 10000 2.75 340 13:39 29.10.2019
5331 Clouds 26 1014 88 10000 2.75 340 13:21 29.10.2019
5332 Clouds 25 1013 100 10000 2.1 10 12:43 29.10.2019
5333 Clouds 25 1013 100 10000 2.1 10 12:25 29.10.2019
5334 Clouds 25 1013 94 10000 2.1 20 11:55 29.10.2019
5335 Clouds 25 1013 94 10000 2.1 20 11:37 29.10.2019
5336 Clouds 25 1013 94 10000 2.1 20 11:18 29.10.2019
5337 Clouds 25 1012 94 10000 2.1 20 10:56 29.10.2019
5338 Clouds 25 1012 94 10000 2.1 20 10:38 29.10.2019
5339 Clouds 25 1012 94 10000 2.1 20 10:19 29.10.2019
5340 Clouds 25 1012 94 10000 2.1 20 09:41 29.10.2019
5341 Clouds 25 1012 94 10000 2.1 20 09:23 29.10.2019
5342 Clouds 25 1013 94 10000 2.1 10 08:56 29.10.2019
5343 Clouds 25 1013 94 10000 2.1 10 08:37 29.10.2019
5344 Clouds 25 1013 94 10000 2.1 10 08:18 29.10.2019
5345 Clouds 25 1013 94 10000 2.77 349 07:47 29.10.2019
5346 Clouds 25 1013 94 10000 2.77 349 07:20 29.10.2019
5347 Clouds 25 1014 94 10000 2.1 20 06:52 29.10.2019
5348 Clouds 25 1014 94 10000 2.1 20 06:29 29.10.2019
5349 Clouds 26 1014 94 10000 2.77 349 05:53 29.10.2019
5350 Clouds 26 1014 94 10000 2.77 349 05:35 29.10.2019
5351 Clouds 26 1014 94 10000 2.68 350 04:34 29.10.2019
5352 Clouds 25 1014 94 10000 2.1 40 02:34 29.10.2019
5353 Clouds 26 1013 94 10000 2.78 6 01:55 29.10.2019
5354 Clouds 26 1013 94 10000 2.78 6 01:33 29.10.2019
5355 Clouds 25 1014 83 10000 3.05 7 00:52 29.10.2019
5356 Clouds 25 1014 83 10000 3.05 7 00:52 29.10.2019
5357 Rain 27 1013 83 8000 3.1 360 23:58 28.10.2019
5358 Rain 27 1013 83 8000 3.1 360 23:37 28.10.2019
5359 Rain 27 1013 83 8000 3.1 360 23:19 28.10.2019
5360 Rain 28 1013 79 8000 5.1 360 22:39 28.10.2019
5361 Rain 28 1013 79 8000 5.1 360 22:19 28.10.2019
5362 Rain 29 1014 74 8000 4.1 30 21:56 28.10.2019
5363 Rain 29 1014 74 8000 4.1 30 21:38 28.10.2019
5364 Rain 30 1014 74 8000 4.1 30 21:20 28.10.2019
5365 Clouds 30 1014 66 10000 5.1 360 20:57 28.10.2019
5366 Rain 29 1014 66 10000 5.1 360 20:38 28.10.2019
5367 Rain 29 1014 66 10000 5.1 360 20:20 28.10.2019
5368 Clouds 29 1015 70 10000 5.1 360 19:54 28.10.2019
5369 Clouds 29 1015 70 10000 5.1 360 19:36 28.10.2019
5370 Clouds 31 1015 70 10000 5.1 360 19:18 28.10.2019
5371 Clouds 31 1016 74 10000 4.1 280 18:42 28.10.2019
5372 Clouds 31 1016 74 10000 4.1 280 18:22 28.10.2019
5373 Clouds 31 1016 74 10000 4.1 30 17:57 28.10.2019
5374 Clouds 31 1016 74 10000 4.1 30 17:39 28.10.2019
5375 Clouds 31 1016 74 10000 4.1 30 17:20 28.10.2019
5376 Clouds 31 1015 70 10000 2.1 110 16:58 28.10.2019
5377 Clouds 30 1015 70 10000 2.1 110 16:40 28.10.2019
5378 Clouds 29 1015 70 10000 2.1 110 16:21 28.10.2019
5379 Clouds 29 1015 83 10000 3.33 31 15:58 28.10.2019
5380 Clouds 29 1015 83 10000 3.33 31 15:40 28.10.2019
5381 Clouds 28 1015 83 10000 3.33 31 15:21 28.10.2019
5382 Clouds 28 1015 88 10000 3.33 31 14:57 28.10.2019
5383 Clouds 27 1015 88 10000 3.33 31 14:39 28.10.2019
5384 Clouds 27 1015 88 10000 2.73 344 14:19 28.10.2019
5385 Clouds 26 1014 94 10000 2.73 344 13:56 28.10.2019
5386 Clouds 25 1014 94 10000 2.73 344 13:38 28.10.2019
5387 Clouds 25 1014 94 10000 2.73 345 13:18 28.10.2019
5388 Clouds 25 1014 94 10000 2.1 30 12:42 28.10.2019
5389 Clouds 25 1014 94 10000 2.1 30 12:20 28.10.2019
5390 Thunderstorm 25 1013 94 10000 2.1 10 11:40 28.10.2019
5391 Thunderstorm 25 1013 94 10000 2.1 10 11:22 28.10.2019
5392 Clouds 25 1013 94 10000 2.1 10 10:58 28.10.2019
5393 Clouds 25 1013 94 10000 2.1 10 10:39 28.10.2019
5394 Clouds 25 1013 94 10000 2.1 10 10:20 28.10.2019
5395 Clouds 24 1013 94 10000 2.1 330 09:57 28.10.2019
5396 Clouds 24 1013 94 10000 2.1 330 09:38 28.10.2019
5397 Clouds 25 1013 94 10000 2.1 330 09:19 28.10.2019
5398 Clouds 25 1013 94 10000 2.6 10 08:56 28.10.2019
5399 Clouds 25 1013 94 10000 2.6 10 08:37 28.10.2019
5400 Clouds 25 1013 94 10000 2.6 10 08:18 28.10.2019
5401 Clouds 25 1013 88 10000 2.1 10 07:55 28.10.2019
5402 Clouds 25 1013 88 10000 2.1 10 07:36 28.10.2019
5403 Clouds 25 1013 88 10000 2.1 10 07:18 28.10.2019
5404 Clouds 25 1014 88 10000 2.1 10 06:39 28.10.2019
5405 Clouds 25 1014 94 10000 2.1 30 05:33 28.10.2019
5406 Clouds 26 1014 88 10000 2.1 40 03:45 28.10.2019
5407 Clouds 26 1014 94 10000 2.1 40 02:46 28.10.2019
5408 Clouds 27 1013 83 10000 2.1 30 01:52 28.10.2019
5409 Rain 27 1013 94 8000 2.58 4 00:53 28.10.2019
5410 Rain 27 1013 94 8000 2.58 4 00:31 28.10.2019
5411 Rain 27 1012 88 8000 2.58 4 23:46 27.10.2019
5412 Rain 28 1012 88 8000 3.1 48 23:23 27.10.2019
5413 Clouds 28 1011 94 10000 3.1 90 22:57 27.10.2019
5414 Clouds 28 1011 94 10000 3.1 90 22:57 27.10.2019
5415 Clouds 28 1011 94 10000 3.1 90 22:39 27.10.2019
5416 Clouds 28 1011 94 10000 3.1 90 22:20 27.10.2019
5417 Clouds 29 1012 94 10000 3.1 48 21:57 27.10.2019
5418 Clouds 30 1012 94 10000 3.1 48 21:39 27.10.2019
5419 Clouds 30 1012 94 10000 3.1 48 21:20 27.10.2019
5420 Rain 31 1013 62 7000 2.6 40 20:54 27.10.2019
5421 Rain 31 1013 62 7000 2.6 40 20:36 27.10.2019
5422 Rain 31 1013 62 7000 2.6 40 20:36 27.10.2019
5423 Rain 30 1013 62 7000 2.6 40 20:18 27.10.2019
5424 Clouds 30 1013 59 10000 4.1 360 19:39 27.10.2019
5425 Clouds 32 1013 59 10000 4.1 360 19:20 27.10.2019
5426 Clouds 31 1013 62 10000 5.1 360 18:57 27.10.2019
5427 Clouds 31 1013 62 10000 5.1 360 18:39 27.10.2019
5428 Clouds 32 1013 62 10000 5.1 360 18:21 27.10.2019
5429 Clouds 32 1013 62 10000 5.1 360 18:21 27.10.2019
5430 Clouds 31 1014 66 10000 3.1 40 17:56 27.10.2019
5431 Clouds 31 1014 66 10000 3.1 40 17:37 27.10.2019
5432 Clouds 30 1014 66 10000 3.1 40 17:19 27.10.2019
5433 Clouds 30 1014 74 10000 3.1 60 16:55 27.10.2019
5434 Clouds 30 1014 74 10000 3.1 60 16:37 27.10.2019
5435 Clouds 30 1014 74 10000 3.1 60 16:19 27.10.2019
5436 Clouds 29 1014 78 10000 3.1 360 15:55 27.10.2019
5437 Clouds 29 1014 78 10000 3.1 360 15:37 27.10.2019
5438 Clouds 29 1014 78 10000 3.1 360 15:18 27.10.2019
5439 Clouds 27 1014 83 10000 3.3 28 14:41 27.10.2019
5440 Clouds 27 1014 83 10000 2.83 346 14:20 27.10.2019
5441 Clouds 25 1013 100 10000 2.83 346 13:56 27.10.2019
5442 Clouds 25 1013 100 10000 2.83 346 13:37 27.10.2019
5443 Clouds 25 1013 100 10000 2.69 348 13:19 27.10.2019
5444 Clouds 24 1014 100 10000 2.69 348 12:43 27.10.2019
5445 Clouds 24 1014 100 10000 2.69 348 12:24 27.10.2019
5446 Clouds 24 1013 100 10000 2.69 348 11:55 27.10.2019
5447 Clouds 24 1013 100 10000 2.69 348 11:37 27.10.2019
5448 Clouds 24 1013 100 10000 2.62 338 11:18 27.10.2019
5449 Clouds 24 1013 100 10000 2.62 338 10:42 27.10.2019
5450 Clouds 24 1013 100 10000 2.62 338 10:23 27.10.2019
5451 Clouds 24 1013 100 10000 2.1 20 09:44 27.10.2019
5452 Clouds 24 1013 100 10000 2.1 20 09:19 27.10.2019
5453 Clouds 24 1013 100 10000 2.1 20 09:19 27.10.2019
5454 Clouds 24 1013 100 10000 2.62 338 08:59 27.10.2019
5455 Clouds 24 1013 100 10000 2.45 338 08:38 27.10.2019
5456 Clouds 24 1013 100 10000 2.2 338 08:19 27.10.2019
5457 Clouds 24 1013 94 10000 2.1 10 07:48 27.10.2019
5458 Clouds 25 1013 94 10000 2.1 10 07:28 27.10.2019
5459 Clouds 24 1014 100 10000 2.1 30 06:56 27.10.2019
5460 Clouds 25 1014 100 10000 2.1 30 06:31 27.10.2019
5461 Clouds 24 1014 100 10000 2.1 30 05:58 27.10.2019
5462 Clouds 24 1014 100 10000 2.1 30 05:58 27.10.2019
5463 Clouds 24 1014 100 10000 2.1 30 05:36 27.10.2019
5464 Clouds 25 1015 94 10000 2.1 30 04:25 27.10.2019
5465 Clouds 25 1014 94 10000 2.74 22 02:42 27.10.2019
5466 Rain 26 1013 88 8000 2.52 21 01:28 27.10.2019
5467 Thunderstorm 26 1012 94 7000 2.52 21 00:56 27.10.2019
5468 Thunderstorm 26 1012 94 7000 2.52 21 00:37 27.10.2019
5469 Thunderstorm 26 1011 83 7000 2.78 54 23:59 26.10.2019
5470 Thunderstorm 27 1011 83 7000 2.78 54 23:40 26.10.2019
5471 Thunderstorm 27 1011 83 7000 2.78 54 23:21 26.10.2019
5472 Thunderstorm 28 1012 83 7000 2.78 54 22:58 26.10.2019
5473 Thunderstorm 28 1012 83 7000 2.78 54 22:58 26.10.2019
5474 Thunderstorm 29 1012 83 7000 2.78 54 22:39 26.10.2019
5475 Thunderstorm 29 1012 83 7000 2.78 54 22:19 26.10.2019
5476 Clouds 30 1012 66 10000 2.6 90 21:56 26.10.2019
5477 Clouds 30 1012 66 10000 2.6 90 21:38 26.10.2019
5478 Clouds 30 1012 66 10000 2.6 90 21:19 26.10.2019
5479 Clouds 31 1013 62 10000 2.71 97 20:43 26.10.2019
5480 Clouds 31 1013 62 10000 2.71 97 20:20 26.10.2019
5481 Clouds 31 1013 62 10000 2.71 97 20:20 26.10.2019
5482 Clouds 31 1014 62 10000 5.1 110 19:44 26.10.2019
5483 Clouds 32 1014 62 10000 5.1 110 19:21 26.10.2019
5484 Clouds 31 1014 66 10000 3.1 90 18:59 26.10.2019
5485 Clouds 31 1014 66 10000 3.1 90 18:40 26.10.2019
5486 Clouds 31 1014 66 10000 3.1 90 18:20 26.10.2019
5487 Clouds 31 1015 66 10000 3.1 40 17:59 26.10.2019
5488 Clouds 31 1015 66 10000 3.1 40 17:39 26.10.2019
5489 Clouds 31 1015 66 10000 3.1 40 17:20 26.10.2019
5490 Clouds 30 1015 74 10000 2.72 46 16:57 26.10.2019
5491 Clouds 30 1015 74 10000 2.72 46 16:38 26.10.2019
5492 Clouds 30 1015 74 10000 2.72 46 16:20 26.10.2019
5493 Clouds 28 1014 83 10000 2.72 46 15:40 26.10.2019
5494 Clouds 28 1014 83 10000 2.68 350 15:18 26.10.2019
5495 Clouds 28 1014 83 10000 2.68 350 15:18 26.10.2019
5496 Clouds 26 1013 94 10000 2.68 350 14:40 26.10.2019
5497 Clouds 26 1013 94 10000 2.54 348 14:20 26.10.2019
5498 Clouds 25 1015 87 0 2.54 348 13:59 26.10.2019
5499 Clouds 25 1015 87 0 2.54 348 13:39 26.10.2019
5500 Clouds 25 1013 94 10000 1.5 0 13:20 26.10.2019
5501 Clouds 25 1013 82 0 1.34 45 12:45 26.10.2019
5502 Clouds 25 1013 94 10000 2.6 360 12:21 26.10.2019
5503 Clouds 25 1013 94 10000 2.6 360 11:48 26.10.2019
5504 Clouds 25 1013 94 10000 2.6 360 11:26 26.10.2019
5505 Clouds 25 1013 94 10000 2.6 360 11:26 26.10.2019
5506 Clouds 24 1012 94 10000 2.6 20 10:47 26.10.2019
5507 Clouds 24 1012 94 10000 2.6 20 10:27 26.10.2019
5508 Clouds 24 1012 94 10000 2.6 20 10:27 26.10.2019
5509 Clouds 24 1013 94 10000 2.6 20 09:51 26.10.2019
5510 Clouds 24 1013 94 10000 2.6 20 09:30 26.10.2019
5511 Clouds 24 1013 94 10000 1.89 345 08:57 26.10.2019
5512 Clouds 24 1013 94 10000 1.89 345 08:39 26.10.2019
5513 Clouds 24 1013 94 10000 1.89 345 08:21 26.10.2019
5514 Clouds 25 1014 94 10000 1.89 345 07:43 26.10.2019
5515 Clouds 25 1014 94 10000 1.89 345 07:23 26.10.2019
5516 Clouds 25 1014 94 10000 1.89 345 06:41 26.10.2019
5517 Clouds 25 1015 94 10000 1.8 5 05:59 26.10.2019
5518 Clouds 25 1015 94 10000 1.8 5 05:19 26.10.2019
5519 Clouds 26 1014 88 10000 1.8 5 03:56 26.10.2019
5520 Clouds 26 1014 88 10000 1.98 356 02:37 26.10.2019
5521 Clouds 27 1014 88 10000 1.98 2 01:48 26.10.2019
5522 Clouds 28 1013 74 10000 2.6 80 00:58 26.10.2019
5523 Clouds 28 1013 74 10000 2.6 80 00:18 26.10.2019
5524 Clouds 29 1013 70 10000 3.1 120 23:40 25.10.2019
5525 Clouds 30 1013 70 10000 3.1 120 23:19 25.10.2019
5526 Rain 31 1013 73 0 1.79 106 22:40 25.10.2019
5527 Clouds 30 1012 74 10000 2.1 130 22:21 25.10.2019
5528 Rain 31 1012 74 0 1.79 105 21:57 25.10.2019
5529 Rain 30 1013 75 0 2.24 101 21:38 25.10.2019
5530 Rain 31 1013 75 0 1.34 116 21:19 25.10.2019
5531 Rain 31 1013 75 0 1.79 107 20:43 25.10.2019
5532 Rain 30 1013 75 0 1.34 94 20:20 25.10.2019
5533 Rain 30 1014 75 0 1.79 107 19:47 25.10.2019
5534 Clouds 31 1015 70 10000 2.6 60 19:29 25.10.2019
5535 Clouds 31 1015 70 10000 2.6 60 18:58 25.10.2019
5536 Clouds 31 1015 70 10000 2.6 60 18:40 25.10.2019
5537 Clouds 30 1015 70 10000 2.6 60 18:20 25.10.2019
5538 Clouds 30 1015 70 10000 2.6 90 17:40 25.10.2019
5539 Clouds 30 1015 70 10000 2.6 90 17:20 25.10.2019
5540 Clouds 29 1016 70 10000 2.1 30 16:47 25.10.2019
5541 Clouds 29 1016 70 10000 2.1 30 16:23 25.10.2019
5542 Clouds 27 1015 83 10000 1.9 59 15:57 25.10.2019
5543 Clouds 27 1015 83 10000 1.9 59 15:39 25.10.2019
5544 Clouds 27 1015 83 10000 2.34 341 15:21 25.10.2019
5545 Clouds 25 1015 94 10000 2.34 341 14:43 25.10.2019
5546 Clouds 25 1015 94 10000 2.34 341 14:43 25.10.2019
5547 Clouds 25 1015 94 10000 2.29 343 14:23 25.10.2019
5548 Clouds 25 1015 94 10000 2.29 343 14:23 25.10.2019
5549 Clouds 24 1013 100 10000 2.1 40 13:59 25.10.2019
5550 Clouds 24 1013 100 10000 2.1 40 13:39 25.10.2019
5551 Clouds 24 1013 100 10000 2.1 40 13:21 25.10.2019
5552 Clouds 24 1013 94 10000 2.1 30 12:55 25.10.2019
5553 Clouds 24 1013 94 10000 2.1 30 12:55 25.10.2019
5554 Clouds 24 1013 94 10000 2.1 30 12:36 25.10.2019
5555 Clouds 24 1013 94 10000 2.1 30 12:18 25.10.2019
5556 Clouds 24 1013 94 10000 2.1 30 11:39 25.10.2019
5557 Clouds 24 1013 94 10000 2.1 30 11:39 25.10.2019
5558 Clouds 24 1013 94 10000 2.1 30 11:20 25.10.2019
5559 Clouds 24 1012 94 10000 2.1 360 10:41 25.10.2019
5560 Clouds 24 1012 94 10000 2.1 360 10:23 25.10.2019
5561 Clouds 24 1012 94 10000 2.6 20 09:59 25.10.2019
5562 Clouds 24 1012 94 10000 2.6 20 09:39 25.10.2019
5563 Clouds 24 1012 94 10000 2.6 20 09:20 25.10.2019
5564 Clouds 24 1013 88 10000 2.1 30 08:51 25.10.2019
5565 Clouds 24 1013 88 10000 2.1 30 08:51 25.10.2019
5566 Clouds 24 1013 88 10000 2.1 30 08:33 25.10.2019
5567 Clouds 24 1014 88 10000 3.6 10 07:57 25.10.2019
5568 Clouds 24 1014 88 10000 3.6 10 07:35 25.10.2019
5569 Clouds 25 1014 83 10000 2.6 350 06:53 25.10.2019
5570 Clouds 25 1014 83 10000 2.6 350 06:31 25.10.2019
5571 Clouds 25 1014 83 10000 2.6 350 05:40 25.10.2019
5572 Clouds 25 1015 83 10000 2.55 343 04:54 25.10.2019
5573 Clouds 25 1013 83 10000 3.1 30 03:45 25.10.2019
5574 Rain 24 1013 94 8000 2.37 331 01:55 25.10.2019
5575 Rain 24 1013 94 8000 2.37 331 01:35 25.10.2019
5576 Rain 25 1012 94 8000 2.23 49 00:22 25.10.2019
5577 Clouds 26 1012 88 7000 2.23 49 23:41 24.10.2019
5578 Clouds 26 1012 88 7000 2.23 49 23:23 24.10.2019
5579 Rain 26 1012 83 7000 3.1 40 22:56 24.10.2019
5580 Rain 26 1012 83 7000 3.1 40 22:37 24.10.2019
5581 Rain 26 1012 83 7000 3.1 40 22:18 24.10.2019
5582 Thunderstorm 26 1013 88 8000 6.2 360 21:56 24.10.2019
5583 Thunderstorm 26 1013 88 8000 6.2 360 21:56 24.10.2019
5584 Thunderstorm 26 1013 88 8000 6.2 360 21:38 24.10.2019
5585 Thunderstorm 26 1013 88 8000 6.2 360 21:19 24.10.2019
5586 Thunderstorm 26 1013 88 5000 6.2 360 20:56 24.10.2019
5587 Thunderstorm 26 1013 88 5000 6.2 360 20:38 24.10.2019
5588 Thunderstorm 26 1013 88 5000 6.2 360 20:19 24.10.2019
5589 Clouds 28 1014 70 8000 5.1 360 19:44 24.10.2019
5590 Clouds 28 1014 70 8000 5.1 360 19:24 24.10.2019
5591 Rain 29 1015 66 8000 3.1 360 18:59 24.10.2019
5592 Rain 29 1015 66 8000 3.1 360 18:40 24.10.2019
5593 Rain 29 1015 66 8000 3.1 360 18:21 24.10.2019
5594 Rain 29 1014 78 8000 2.1 90 17:59 24.10.2019
5595 Rain 29 1014 78 8000 2.1 90 17:39 24.10.2019
5596 Rain 28 1014 74 8000 5.1 360 17:19 24.10.2019
5597 Clouds 28 1014 83 10000 5.1 280 16:55 24.10.2019
5598 Clouds 28 1014 83 10000 5.1 280 16:37 24.10.2019
5599 Clouds 27 1014 83 10000 5.1 280 16:18 24.10.2019
5600 Clouds 26 1013 88 10000 4.1 280 15:54 24.10.2019
5601 Clouds 26 1013 88 10000 4.1 280 15:36 24.10.2019
5602 Clouds 26 1013 88 10000 4.1 280 15:18 24.10.2019
5603 Clouds 25 1013 94 10000 3.31 337 14:44 24.10.2019
5604 Clouds 25 1013 94 10000 3.31 337 14:26 24.10.2019
5605 Thunderstorm 24 1013 94 10000 2.1 20 13:59 24.10.2019
5606 Thunderstorm 24 1013 94 10000 2.1 20 13:37 24.10.2019
5607 Thunderstorm 24 1013 94 10000 2.1 20 13:18 24.10.2019
5608 Thunderstorm 23 1012 94 10000 2.1 10 12:56 24.10.2019
5609 Thunderstorm 23 1012 94 10000 2.1 10 12:37 24.10.2019
5610 Thunderstorm 23 1012 94 10000 2.1 10 12:18 24.10.2019
5611 Thunderstorm 23 1011 94 10000 3.1 360 11:54 24.10.2019
5612 Thunderstorm 23 1011 94 10000 3.1 360 11:36 24.10.2019
5613 Thunderstorm 23 1011 94 10000 3.1 360 11:18 24.10.2019
5614 Thunderstorm 23 1011 100 10000 2.1 10 10:42 24.10.2019
5615 Thunderstorm 23 1011 100 10000 2.1 10 10:23 24.10.2019
5616 Thunderstorm 23 1011 100 10000 2.1 10 10:23 24.10.2019
5617 Thunderstorm 23 1011 100 10000 2.1 120 09:39 24.10.2019
5618 Thunderstorm 23 1011 100 10000 2.1 120 09:19 24.10.2019
5619 Thunderstorm 23 1012 100 10000 2.1 20 08:58 24.10.2019
5620 Thunderstorm 23 1012 100 10000 2.1 20 08:38 24.10.2019
5621 Thunderstorm 23 1012 100 10000 2.1 20 08:19 24.10.2019
5622 Thunderstorm 23 1013 100 10000 2.1 20 07:47 24.10.2019
5623 Thunderstorm 23 1013 100 10000 2.1 20 07:23 24.10.2019
5624 Thunderstorm 24 1014 94 10000 2.1 20 06:50 24.10.2019
5625 Thunderstorm 24 1014 94 10000 2.1 20 06:32 24.10.2019
5626 Thunderstorm 24 1014 94 10000 2.1 20 06:32 24.10.2019
5627 Thunderstorm 23 1014 94 10000 2.1 360 05:53 24.10.2019
5628 Thunderstorm 24 1014 94 10000 2.1 360 05:30 24.10.2019
5629 Thunderstorm 24 1014 94 10000 2.1 20 03:51 24.10.2019
5630 Thunderstorm 24 1014 94 10000 2.1 20 03:26 24.10.2019
5631 Thunderstorm 23 1013 94 10000 2.1 20 02:29 24.10.2019
5632 Clouds 23 1013 94 10000 2.95 337 01:57 24.10.2019
5633 Clouds 23 1013 94 10000 2.95 337 01:30 24.10.2019
5634 Clouds 23 1012 88 10000 2.95 337 00:47 24.10.2019
5635 Clouds 23 1012 88 10000 4.86 5 00:23 24.10.2019
5636 Clouds 24 1011 94 10000 4.86 5 23:44 23.10.2019
5637 Clouds 23 1011 94 10000 4.86 5 23:24 23.10.2019
5638 Clouds 23 1011 94 10000 4.1 360 22:57 23.10.2019
5639 Clouds 23 1011 94 10000 4.1 360 22:38 23.10.2019
5640 Clouds 23 1011 94 10000 4.1 360 22:19 23.10.2019
5641 Thunderstorm 23 1012 88 10000 4.1 360 21:58 23.10.2019
5642 Thunderstorm 23 1012 88 10000 4.1 360 21:38 23.10.2019
5643 Thunderstorm 24 1012 88 10000 4.1 360 21:20 23.10.2019
5644 Thunderstorm 25 1012 88 10000 3.1 360 20:58 23.10.2019
5645 Thunderstorm 24 1012 88 10000 3.1 360 20:39 23.10.2019
5646 Thunderstorm 24 1012 88 10000 3.1 360 20:39 23.10.2019
5647 Thunderstorm 24 1012 88 10000 3.1 360 20:20 23.10.2019
5648 Thunderstorm 27 1013 94 10000 4.1 270 19:57 23.10.2019
5649 Thunderstorm 27 1013 94 10000 4.1 270 19:38 23.10.2019
5650 Thunderstorm 27 1013 94 10000 4.1 270 19:18 23.10.2019
5651 Thunderstorm 28 1014 88 8000 4.1 360 18:55 23.10.2019
5652 Thunderstorm 28 1014 88 8000 4.1 360 18:55 23.10.2019
5653 Thunderstorm 28 1014 88 8000 4.1 360 18:36 23.10.2019
5654 Thunderstorm 28 1014 88 8000 4.1 360 18:36 23.10.2019
5655 Thunderstorm 28 1014 88 8000 4.1 360 18:18 23.10.2019
5656 Clouds 30 1014 74 10000 3.1 360 17:43 23.10.2019
5657 Clouds 30 1014 74 10000 3.1 360 17:20 23.10.2019
5658 Clouds 29 1014 74 10000 4.1 360 16:56 23.10.2019
5659 Clouds 29 1014 74 10000 4.1 360 16:37 23.10.2019
5660 Clouds 29 1014 74 10000 4.1 360 16:19 23.10.2019
5661 Clouds 28 1013 83 10000 3.34 30 15:41 23.10.2019
5662 Clouds 28 1013 83 10000 3.37 352 15:22 23.10.2019
5663 Clouds 26 1013 94 10000 3.37 352 14:58 23.10.2019
5664 Clouds 26 1013 94 10000 3.29 355 14:38 23.10.2019
5665 Clouds 26 1013 94 10000 3.29 355 14:19 23.10.2019
5666 Thunderstorm 25 1013 94 10000 2.1 10 13:57 23.10.2019
5667 Thunderstorm 25 1013 94 10000 2.1 10 13:38 23.10.2019
5668 Thunderstorm 25 1013 94 10000 2.1 10 13:20 23.10.2019
5669 Thunderstorm 24 1012 94 10000 1.5 360 12:54 23.10.2019
5670 Thunderstorm 24 1012 94 10000 1.5 360 12:54 23.10.2019
5671 Thunderstorm 24 1012 94 10000 1.5 360 12:54 23.10.2019
5672 Thunderstorm 25 1012 94 10000 1.5 360 12:36 23.10.2019
5673 Thunderstorm 25 1012 94 10000 1.5 360 12:18 23.10.2019
5674 Thunderstorm 24 1011 94 10000 1.5 360 11:54 23.10.2019
5675 Thunderstorm 24 1011 94 10000 1.5 360 11:36 23.10.2019
5676 Thunderstorm 24 1011 94 10000 1.5 360 11:36 23.10.2019
5677 Thunderstorm 24 1011 94 10000 1.5 360 11:18 23.10.2019
5678 Thunderstorm 25 1011 88 10000 1.5 10 10:42 23.10.2019
5679 Thunderstorm 25 1011 88 10000 1.5 10 10:23 23.10.2019
5680 Thunderstorm 25 1011 88 10000 2.1 10 09:41 23.10.2019
5681 Thunderstorm 25 1011 88 10000 2.1 10 09:23 23.10.2019
5682 Thunderstorm 25 1011 88 10000 2.1 10 09:23 23.10.2019
5683 Thunderstorm 25 1012 94 10000 2.1 10 08:59 23.10.2019
5684 Thunderstorm 25 1012 94 10000 2.1 10 08:41 23.10.2019
5685 Thunderstorm 25 1012 94 10000 2.1 10 08:22 23.10.2019
5686 Thunderstorm 25 1012 88 10000 2.1 10 07:45 23.10.2019
5687 Thunderstorm 25 1012 88 10000 2.1 10 07:21 23.10.2019
5688 Clouds 26 1013 88 10000 2.1 20 06:46 23.10.2019
5689 Clouds 26 1013 88 10000 2.1 20 06:20 23.10.2019
5690 Clouds 26 1013 88 10000 2.1 30 05:24 23.10.2019
5691 Clouds 26 1013 88 10000 2.1 10 04:34 23.10.2019
5692 Clouds 26 1012 88 10000 2.1 20 02:45 23.10.2019
5693 Clouds 26 1013 94 10000 3.11 5 02:25 23.10.2019
5694 Clouds 27 1013 94 10000 3.11 5 01:25 23.10.2019
5695 Thunderstorm 28 1013 94 8000 3.11 5 00:35 23.10.2019
5696 Thunderstorm 28 1013 94 8000 3.11 5 00:35 23.10.2019
5697 Thunderstorm 28 1012 88 8000 3.26 31 23:57 22.10.2019
5698 Thunderstorm 28 1012 88 8000 3.26 31 23:38 22.10.2019
5699 Thunderstorm 28 1012 88 8000 3.26 31 23:18 22.10.2019
5700 Thunderstorm 29 1012 70 8000 4.1 150 22:54 22.10.2019
5701 Thunderstorm 29 1012 70 8000 4.1 150 22:36 22.10.2019
5702 Thunderstorm 29 1012 70 8000 4.1 150 22:18 22.10.2019
5703 Thunderstorm 30 1012 70 10000 5.1 330 21:55 22.10.2019
5704 Thunderstorm 30 1012 70 10000 5.1 330 21:36 22.10.2019
5705 Thunderstorm 30 1012 70 10000 5.1 330 21:18 22.10.2019
5706 Clouds 30 1012 74 10000 2.6 120 20:42 22.10.2019
5707 Clouds 31 1012 74 10000 2.6 120 20:23 22.10.2019
5708 Thunderstorm 31 1014 70 8000 5.1 30 19:59 22.10.2019
5709 Thunderstorm 30 1014 70 8000 5.1 30 19:41 22.10.2019
5710 Thunderstorm 31 1014 70 8000 5.1 30 19:23 22.10.2019
5711 Rain 30 1013 70 8000 2.1 50 18:57 22.10.2019
5712 Clouds 31 1013 70 8000 2.1 50 18:39 22.10.2019
5713 Clouds 31 1015 62 10000 5.1 360 18:20 22.10.2019
5714 Clouds 31 1015 62 10000 4.1 60 17:56 22.10.2019
5715 Clouds 31 1015 62 10000 4.1 60 17:37 22.10.2019
5716 Clouds 31 1015 62 10000 4.1 60 17:18 22.10.2019
5717 Clouds 30 1015 70 10000 7.7 30 16:56 22.10.2019
5718 Clouds 30 1015 70 10000 7.7 30 16:37 22.10.2019
5719 Clouds 29 1015 70 10000 7.7 30 16:18 22.10.2019
5720 Clouds 29 1015 78 10000 5.1 360 15:42 22.10.2019
5721 Clouds 28 1015 78 10000 5.1 360 15:20 22.10.2019
5722 Clouds 27 1015 100 10000 3.51 345 14:50 22.10.2019
5723 Clouds 26 1015 100 10000 3.68 347 14:22 22.10.2019
5724 Clouds 26 1014 100 10000 2.1 360 13:59 22.10.2019
5725 Clouds 26 1014 100 10000 2.1 360 13:41 22.10.2019
5726 Clouds 25 1014 100 10000 2.1 360 13:18 22.10.2019
5727 Clouds 25 1014 94 10000 2.1 360 12:55 22.10.2019
5728 Clouds 25 1014 94 10000 2.1 360 12:37 22.10.2019
5729 Clouds 25 1014 94 10000 2.1 360 12:37 22.10.2019
5730 Clouds 25 1014 94 10000 2.1 360 12:19 22.10.2019
5731 Clouds 25 1013 100 10000 2.1 360 11:40 22.10.2019
5732 Clouds 25 1013 100 10000 2.1 360 11:22 22.10.2019
5733 Clouds 25 1013 94 10000 2.1 360 10:59 22.10.2019
5734 Clouds 25 1013 94 10000 2.1 360 10:38 22.10.2019
5735 Clouds 25 1013 94 10000 2.1 360 10:19 22.10.2019
5736 Clouds 25 1013 94 10000 2.1 360 10:19 22.10.2019
5737 Clouds 25 1013 94 10000 2.6 10 09:57 22.10.2019
5738 Clouds 25 1013 94 10000 2.6 10 09:57 22.10.2019
5739 Clouds 25 1013 94 10000 2.6 10 09:38 22.10.2019
5740 Clouds 25 1013 94 10000 2.6 10 09:20 22.10.2019
5741 Clouds 26 1014 94 10000 2.6 360 08:43 22.10.2019
5742 Clouds 26 1014 94 10000 2.6 360 08:22 22.10.2019
5743 Clouds 26 1015 94 10000 1.5 0 07:55 22.10.2019
5744 Clouds 26 1015 94 10000 1.5 0 07:55 22.10.2019
5745 Clouds 26 1015 94 10000 1.5 0 07:37 22.10.2019
5746 Clouds 26 1015 94 10000 2.1 10 07:18 22.10.2019
5747 Clouds 26 1015 94 10000 2.1 10 06:36 22.10.2019
5748 Clouds 26 1015 94 10000 2.1 10 06:18 22.10.2019
5749 Clouds 26 1015 100 10000 2.1 10 05:27 22.10.2019
5750 Clouds 25 1014 100 10000 2.1 40 03:38 22.10.2019
5751 Clouds 26 1014 94 10000 3.1 50 02:29 22.10.2019
5752 Thunderstorm 26 1013 88 10000 3.53 14 01:32 22.10.2019
5753 Rain 26 1013 83 8000 3.53 14 00:59 22.10.2019
5754 Rain 26 1013 83 8000 3.53 14 00:41 22.10.2019
5755 Rain 27 1013 83 8000 2.68 52 00:21 22.10.2019
5756 Rain 28 1012 78 7000 3.1 110 23:57 21.10.2019
5757 Rain 28 1012 78 7000 3.1 110 23:37 21.10.2019
5758 Rain 28 1012 78 7000 3.1 110 23:19 21.10.2019
5759 Clouds 27 1013 66 10000 2.6 170 22:57 21.10.2019
5760 Clouds 28 1013 66 10000 2.6 170 22:38 21.10.2019
5761 Clouds 29 1013 66 10000 2.6 170 22:19 21.10.2019
5762 Rain 30 1013 74 0 1.79 95 21:55 21.10.2019
5763 Rain 30 1013 74 0 1.79 95 21:55 21.10.2019
5764 Rain 30 1012 78 0 2.68 113 21:37 21.10.2019
5765 Clouds 30 1013 66 10000 5.1 40 21:19 21.10.2019
5766 Clouds 31 1013 66 10000 5.1 40 20:55 21.10.2019
5767 Clouds 31 1013 66 10000 5.1 40 20:37 21.10.2019
5768 Clouds 32 1013 66 10000 5.1 40 20:18 21.10.2019
5769 Clouds 32 1014 62 10000 3.1 40 19:41 21.10.2019
5770 Clouds 32 1014 62 10000 3.1 40 19:22 21.10.2019
5771 Clouds 32 1015 70 10000 5.1 60 18:57 21.10.2019
5772 Clouds 32 1015 70 10000 5.1 60 18:38 21.10.2019
5773 Clouds 31 1015 70 10000 5.1 60 18:19 21.10.2019
5774 Clouds 31 1015 74 10000 4.1 60 17:57 21.10.2019
5775 Clouds 31 1015 74 10000 4.1 60 17:38 21.10.2019
5776 Clouds 31 1015 74 10000 4.1 60 17:19 21.10.2019
5777 Clouds 30 1015 79 10000 3.1 60 16:57 21.10.2019
5778 Clouds 30 1015 79 10000 3.1 60 16:39 21.10.2019
5779 Clouds 30 1015 79 10000 3.1 60 16:20 21.10.2019
5780 Clouds 28 1014 83 10000 3 45 15:47 21.10.2019
5781 Clouds 28 1014 83 10000 3 45 15:25 21.10.2019
5782 Clouds 26 1014 94 10000 2.45 349 14:58 21.10.2019
5783 Clouds 26 1014 94 10000 2.5 346 14:39 21.10.2019
5784 Clouds 26 1014 94 10000 2.5 346 14:20 21.10.2019
5785 Clouds 26 1014 94 10000 2.1 30 13:57 21.10.2019
5786 Clouds 26 1014 94 10000 2.1 30 13:38 21.10.2019
5787 Clouds 25 1014 94 10000 2.1 30 13:19 21.10.2019
5788 Clouds 25 1013 100 10000 2.1 20 12:41 21.10.2019
5789 Clouds 25 1013 100 10000 2.1 20 12:22 21.10.2019
5790 Clouds 25 1013 100 10000 2.1 30 11:57 21.10.2019
5791 Clouds 25 1013 100 10000 2.1 30 11:57 21.10.2019
5792 Clouds 25 1013 100 10000 2.1 30 11:38 21.10.2019
5793 Clouds 25 1013 100 10000 2.1 30 11:20 21.10.2019
5794 Clouds 26 1013 94 10000 2.42 350.829 10:56 21.10.2019
5795 Clouds 26 1013 94 10000 2.42 350.829 10:56 21.10.2019
5796 Clouds 26 1013 94 10000 2.42 350.829 10:38 21.10.2019
5797 Clouds 26 1013 94 10000 2.42 350.829 10:19 21.10.2019
5798 Clouds 25 1014 94 10000 2.1 20 09:44 21.10.2019
5799 Clouds 25 1014 94 10000 2.1 20 09:26 21.10.2019
5800 Clouds 25 1014 94 10000 2.1 30 08:56 21.10.2019
5801 Clouds 25 1014 94 10000 2.1 30 08:37 21.10.2019
5802 Clouds 25 1014 94 10000 2.1 30 08:18 21.10.2019
5803 Clouds 25 1015 94 10000 2.1 40 07:39 21.10.2019
5804 Clouds 26 1015 94 10000 2.1 40 07:20 21.10.2019
5805 Clouds 26 1015 94 10000 2.1 40 06:54 21.10.2019
5806 Clouds 26 1015 94 10000 2.1 40 06:36 21.10.2019
5807 Clouds 26 1015 88 10000 2.1 50 05:55 21.10.2019
5808 Clouds 26 1015 88 10000 2.1 20 04:45 21.10.2019
5809 Clouds 27 1015 83 10000 1.83 337.057 03:26 21.10.2019
5810 Clouds 27 1014 83 10000 5.1 180 02:23 21.10.2019
5811 Clouds 27 1014 83 10000 5.1 180 02:23 21.10.2019
5812 Clouds 28 1014 83 10000 5.1 180 01:57 21.10.2019
5813 Clouds 28 1014 83 10000 5.1 180 01:23 21.10.2019
5814 Rain 29 1013 66 8000 4.1 180 00:47 21.10.2019
5815 Rain 30 1013 66 8000 4.1 180 00:25 21.10.2019
5816 Rain 30 1014 71 0 0.89 159 23:42 20.10.2019
5817 Clouds 32 1013 52 10000 5.1 90 23:22 20.10.2019
5818 Clouds 32 1013 52 10000 5.1 90 22:56 20.10.2019
5819 Clouds 32 1013 52 10000 5.1 90 22:37 20.10.2019
5820 Clouds 32 1013 52 10000 5.1 90 22:18 20.10.2019
5821 Clouds 32 1014 52 10000 5.1 160 21:57 20.10.2019
5822 Clouds 32 1014 52 10000 5.1 160 21:38 20.10.2019
5823 Clouds 32 1014 52 10000 5.1 160 21:20 20.10.2019
5824 Clouds 32 1015 55 10000 5.1 180 20:41 20.10.2019
5825 Clouds 32 1015 55 10000 5.1 180 20:19 20.10.2019
5826 Clear 32 1014 70 0 1.34 147 19:56 20.10.2019
5827 Clear 32 1015 70 0 1.34 143 19:38 20.10.2019
5828 Clouds 31 1016 66 10000 4.1 90 19:20 20.10.2019
5829 Clouds 31 1016 66 10000 4.1 90 18:55 20.10.2019
5830 Clouds 31 1016 66 10000 4.1 90 18:55 20.10.2019
5831 Clouds 31 1016 66 10000 4.1 90 18:36 20.10.2019
5832 Clouds 31 1016 66 10000 4.1 90 18:18 20.10.2019
5833 Clouds 30 1015 74 10000 3.1 120 17:42 20.10.2019
5834 Clouds 30 1015 74 10000 3.1 120 17:23 20.10.2019
5835 Clouds 30 1015 78 10000 3.1 30 16:57 20.10.2019
5836 Clouds 30 1015 78 10000 3.1 30 16:39 20.10.2019
5837 Clouds 30 1015 78 10000 3.1 30 16:21 20.10.2019
5838 Clouds 30 1015 78 10000 3.1 30 16:21 20.10.2019
5839 Clouds 28 1015 83 10000 2.85 33.061 15:55 20.10.2019
5840 Clouds 28 1015 83 10000 2.85 33.061 15:37 20.10.2019
5841 Clouds 27 1015 83 10000 2.33 338.308 15:18 20.10.2019
5842 Clouds 26 1014 88 10000 2.33 338.308 14:55 20.10.2019
5843 Clouds 26 1014 88 10000 2.33 338.308 14:37 20.10.2019
5844 Clouds 26 1014 88 10000 2.33 338.308 14:18 20.10.2019
5845 Clouds 25 1014 94 10000 2.1 30 13:54 20.10.2019
5846 Clouds 25 1014 94 10000 2.1 30 13:36 20.10.2019
5847 Clouds 25 1014 94 10000 2.1 30 13:18 20.10.2019
5848 Clouds 24 1014 100 10000 2.1 30 12:54 20.10.2019
5849 Clouds 25 1014 100 10000 2.1 30 12:36 20.10.2019
5850 Clouds 24 1014 100 10000 2.1 30 12:18 20.10.2019
5851 Clouds 25 1013 94 10000 2.1 40 11:40 20.10.2019
5852 Clouds 25 1013 94 10000 2.1 40 11:22 20.10.2019
5853 Clouds 25 1013 94 10000 2.1 30 10:58 20.10.2019
5854 Clouds 25 1013 94 10000 2.1 30 10:39 20.10.2019
5855 Clouds 25 1013 94 10000 2.1 30 10:39 20.10.2019
5856 Clouds 25 1013 94 10000 2.1 30 10:20 20.10.2019
5857 Clouds 25 1014 100 10000 2.1 40 09:55 20.10.2019
5858 Clouds 25 1014 100 10000 2.1 40 09:37 20.10.2019
5859 Clouds 25 1014 100 10000 2.1 40 09:18 20.10.2019
5860 Clouds 25 1014 100 10000 2.1 40 08:39 20.10.2019
5861 Clouds 25 1014 100 10000 2.1 40 08:20 20.10.2019
5862 Clouds 25 1014 94 10000 2.1 60 07:47 20.10.2019
5863 Clouds 25 1014 94 10000 2.1 60 07:26 20.10.2019
5864 Clouds 26 1015 94 10000 2.6 60 06:30 20.10.2019
5865 Clouds 26 1015 88 10000 2.1 40 04:29 20.10.2019
5866 Clouds 26 1015 88 10000 2.1 110 03:50 20.10.2019
5867 Clouds 27 1015 88 10000 2.1 110 03:22 20.10.2019
5868 Clouds 28 1014 83 10000 2.1 100 02:48 20.10.2019
5869 Clouds 27 1014 83 10000 2.1 100 02:22 20.10.2019
5870 Thunderstorm 27 1012 94 10000 1.29 67.62 01:47 20.10.2019
5871 Thunderstorm 27 1012 94 10000 0.87 94.955 01:20 20.10.2019
5872 Clouds 28 1012 94 10000 2.6 360 00:48 20.10.2019
5873 Clouds 28 1012 94 10000 2.6 360 00:20 20.10.2019
5874 Clouds 28 1011 94 10000 3.1 360 23:44 19.10.2019
5875 Clouds 28 1011 94 10000 3.1 360 23:24 19.10.2019
5876 Thunderstorm 29 1011 94 8000 4.1 40 22:59 19.10.2019
5877 Thunderstorm 29 1011 94 8000 4.1 40 22:40 19.10.2019
5878 Thunderstorm 29 1011 94 8000 4.1 40 22:20 19.10.2019
5879 Clouds 30 1012 74 10000 4.1 160 21:54 19.10.2019
5880 Clouds 30 1012 74 10000 4.1 160 21:36 19.10.2019
5881 Clouds 31 1012 74 10000 4.1 160 21:18 19.10.2019
5882 Clouds 32 1012 74 10000 2.36 81.701 20:41 19.10.2019
5883 Clouds 32 1012 74 10000 2.36 81.701 20:20 19.10.2019
5884 Clouds 32 1013 59 10000 2.6 100 19:42 19.10.2019
5885 Clouds 32 1013 59 10000 2.6 100 19:24 19.10.2019
5886 Clouds 31 1014 62 10000 2.6 90 18:55 19.10.2019
5887 Clouds 32 1014 62 10000 2.6 90 18:37 19.10.2019
5888 Clouds 32 1014 62 10000 2.6 90 18:18 19.10.2019
5889 Clouds 31 1014 66 10000 3.1 360 17:41 19.10.2019
5890 Clouds 31 1014 66 10000 3.1 360 17:21 19.10.2019
5891 Clouds 29 1013 74 10000 2.6 40 16:55 19.10.2019
5892 Clouds 29 1013 74 10000 2.6 40 16:37 19.10.2019
5893 Clouds 29 1013 74 10000 2.6 40 16:18 19.10.2019
5894 Clouds 29 1013 74 10000 2.6 40 16:18 19.10.2019
5895 Clouds 27 1013 83 10000 2.84 48.442 15:40 19.10.2019
5896 Clouds 28 1013 83 10000 2.91 339.373 15:22 19.10.2019
5897 Clouds 25 1012 94 10000 2.91 339.373 14:39 19.10.2019
5898 Clouds 25 1012 94 10000 2.91 339.373 14:20 19.10.2019
5899 Clouds 24 1013 94 10000 2.1 10 13:57 19.10.2019
5900 Clouds 24 1013 94 10000 2.1 10 13:39 19.10.2019
5901 Clouds 24 1013 94 10000 2.1 10 13:19 19.10.2019
5902 Clouds 24 1012 94 10000 2.1 10 12:55 19.10.2019
5903 Clouds 24 1012 94 10000 2.1 10 12:36 19.10.2019
5904 Clouds 24 1012 94 10000 2.1 10 12:18 19.10.2019
5905 Clouds 24 1012 94 10000 2.1 10 11:41 19.10.2019
5906 Clouds 24 1012 94 10000 2.1 10 11:22 19.10.2019
5907 Clouds 24 1012 88 10000 2.1 360 10:55 19.10.2019
5908 Clouds 24 1012 88 10000 2.1 360 10:37 19.10.2019
5909 Clouds 25 1012 88 10000 2.1 360 10:19 19.10.2019
5910 Clouds 24 1013 94 10000 2.1 10 09:42 19.10.2019
5911 Clouds 24 1013 94 10000 2.1 10 09:23 19.10.2019
5912 Clouds 24 1013 94 10000 2.1 10 08:58 19.10.2019
5913 Clouds 24 1013 94 10000 2.1 10 08:58 19.10.2019
5914 Clouds 24 1014 94 10000 2.1 40 08:39 19.10.2019
5915 Clouds 24 1014 94 10000 2.1 40 08:20 19.10.2019
5916 Clouds 25 1014 94 10000 2.1 40 07:44 19.10.2019
5917 Clouds 25 1014 94 10000 2.1 40 07:24 19.10.2019
5918 Clouds 25 1014 94 10000 2.1 40 06:46 19.10.2019
5919 Clouds 25 1014 94 10000 2.1 40 05:56 19.10.2019
5920 Clouds 26 1014 88 10000 1.97 1.925 05:28 19.10.2019
5921 Clouds 27 1014 88 10000 2.1 20 03:59 19.10.2019
5922 Clouds 28 1013 88 10000 2.1 30 02:40 19.10.2019
5923 Clouds 28 1012 78 10000 0.62 16.227 01:51 19.10.2019
5924 Clouds 28 1012 78 10000 1.28 46.08 01:19 19.10.2019
5925 Clouds 30 1011 62 10000 2.6 120 00:45 19.10.2019
5926 Clouds 30 1011 62 10000 2.6 120 00:23 19.10.2019
5927 Clouds 31 1011 62 10000 3.1 180 23:41 18.10.2019
5928 Clouds 31 1011 62 10000 3.1 180 23:23 18.10.2019
5929 Clouds 32 1011 59 10000 4.1 180 22:55 18.10.2019
5930 Clouds 32 1011 59 10000 4.1 180 22:37 18.10.2019
5931 Clouds 32 1011 59 10000 4.1 180 22:19 18.10.2019
5932 Clouds 32 1010 66 10000 3.6 80 21:56 18.10.2019
5933 Clouds 32 1010 66 10000 3.6 80 21:38 18.10.2019
5934 Clouds 32 1010 66 10000 3.6 80 21:19 18.10.2019
5935 Clouds 32 1013 59 10000 5.1 180 20:54 18.10.2019
5936 Clouds 32 1013 59 10000 5.1 180 20:36 18.10.2019
5937 Clouds 32 1013 59 10000 5.1 180 20:18 18.10.2019
5938 Clouds 32 1013 59 10000 2.5 113.99 19:54 18.10.2019
5939 Clouds 32 1013 59 10000 2.5 113.99 19:54 18.10.2019
5940 Clouds 32 1013 59 10000 2.5 113.99 19:36 18.10.2019
5941 Clouds 32 1013 59 10000 2.5 113.99 19:18 18.10.2019
5942 Clouds 32 1014 62 10000 2.6 70 18:42 18.10.2019
5943 Clouds 32 1014 62 10000 2.6 70 18:23 18.10.2019
5944 Clouds 31 1015 62 10000 3.1 90 17:57 18.10.2019
5945 Clouds 31 1015 62 10000 3.1 90 17:38 18.10.2019
5946 Clouds 31 1015 62 10000 3.1 90 17:20 18.10.2019
5947 Clouds 30 1014 74 10000 2.44 73.063 16:44 18.10.2019
5948 Clouds 30 1014 74 10000 2.44 73.063 16:22 18.10.2019
5949 Clouds 28 1014 83 10000 2.44 73.063 15:59 18.10.2019
5950 Clouds 28 1014 83 10000 2.44 73.063 15:39 18.10.2019
5951 Clouds 28 1014 83 10000 1.69 351.942 15:20 18.10.2019
5952 Clouds 26 1013 94 10000 1.69 351.942 14:57 18.10.2019
5953 Clouds 26 1013 94 10000 1.69 351.942 14:38 18.10.2019
5954 Clouds 25 1013 94 10000 1.69 351.942 14:20 18.10.2019
5955 Clouds 26 1013 94 10000 1.5 20 13:57 18.10.2019
5956 Clouds 25 1013 94 10000 1.5 20 13:39 18.10.2019
5957 Clouds 25 1013 94 10000 1.5 20 13:20 18.10.2019
5958 Clouds 25 1013 94 10000 1.5 20 12:55 18.10.2019
5959 Clouds 25 1013 94 10000 1.5 20 12:37 18.10.2019
5960 Clouds 25 1013 94 10000 1.5 20 12:19 18.10.2019
5961 Clouds 25 1013 94 10000 1.5 10 11:42 18.10.2019
5962 Clouds 25 1013 94 10000 1.5 10 11:21 18.10.2019
5963 Clouds 25 1013 94 10000 1.5 10 11:21 18.10.2019
5964 Clouds 25 1014 94 10000 3.1 40 10:59 18.10.2019
5965 Clouds 25 1014 94 10000 3.1 40 10:41 18.10.2019
5966 Clouds 25 1014 94 10000 3.1 40 10:22 18.10.2019
5967 Clouds 26 1014 94 10000 3.1 40 09:58 18.10.2019
5968 Clouds 26 1014 94 10000 3.1 40 09:39 18.10.2019
5969 Clouds 26 1014 94 10000 3.1 40 09:19 18.10.2019
5970 Clouds 26 1014 94 10000 3.1 40 08:45 18.10.2019
5971 Clouds 26 1014 94 10000 3.1 40 08:25 18.10.2019
5972 -273 0 0 0 0 0 07:57 18.10.2019
5973 Clouds 26 1014 88 10000 3.1 60 07:39 18.10.2019
5974 Clouds 26 1014 88 10000 3.1 60 06:56 18.10.2019
5975 Clouds 26 1014 88 10000 3.1 60 06:37 18.10.2019
5976 Clouds 27 1014 88 10000 3.1 60 06:19 18.10.2019
5977 Clouds 27 1014 88 10000 3.6 90 05:53 18.10.2019
5978 Clouds 27 1014 88 10000 3.6 90 05:20 18.10.2019
5979 Clouds 28 1013 83 10000 2.6 110 03:41 18.10.2019
5980 Clouds 28 1013 78 10000 2.6 110 02:56 18.10.2019
5981 Clouds 29 1013 78 10000 2.6 110 02:32 18.10.2019
5982 Clouds 30 1012 70 10000 2.6 150 01:42 18.10.2019
5983 Clouds 29 1012 70 10000 2.6 150 01:23 18.10.2019
5984 Clouds 30 1012 59 10000 3.1 160 00:43 18.10.2019
5985 Clouds 30 1012 59 10000 3.1 160 00:20 18.10.2019
5986 Clouds 31 1012 52 10000 3.6 160 23:40 17.10.2019
5987 Clouds 31 1012 52 10000 3.6 160 23:21 17.10.2019
5988 Clouds 31 1012 59 10000 3.6 150 22:57 17.10.2019
5989 Clouds 32 1012 59 10000 3.6 150 22:39 17.10.2019
5990 Clouds 32 1012 59 10000 3.6 150 22:39 17.10.2019
5991 Clouds 31 1012 59 10000 3.6 150 22:19 17.10.2019
5992 Clouds 32 1012 59 10000 2.41 167.208 21:57 17.10.2019
5993 Clouds 32 1012 59 10000 2.41 167.208 21:39 17.10.2019
5994 Clouds 32 1012 59 10000 2.54 141.995 21:20 17.10.2019
5995 Clouds 32 1012 59 10000 3.6 190 20:58 17.10.2019
5996 Clouds 32 1012 59 10000 3.6 190 20:39 17.10.2019
5997 Clouds 32 1012 59 10000 3.6 190 20:19 17.10.2019
5998 Clouds 32 1014 56 10000 3.1 150 19:59 17.10.2019
5999 Clouds 32 1014 56 10000 3.1 150 19:39 17.10.2019
6000 Clouds 32 1014 56 10000 3.1 150 19:19 17.10.2019
6001 Clouds 32 1014 56 10000 3.1 150 19:19 17.10.2019
6002 Clouds 31 1013 62 10000 2.6 120 18:58 17.10.2019
6003 Clouds 31 1013 62 10000 2.6 120 18:38 17.10.2019
6004 Clouds 31 1013 62 10000 2.6 120 18:19 17.10.2019
6005 Clouds 31 1015 62 10000 3.1 150 17:42 17.10.2019
6006 Clouds 31 1015 62 10000 3.1 150 17:23 17.10.2019
6007 Clouds 30 1015 62 10000 2.061 127 16:57 17.10.2019
6008 -273 0 0 0 0 0 16:38 17.10.2019
6009 Clouds 30 1015 62 10000 2.061 127 16:18 17.10.2019
6010 Clouds 28 1015 74 10000 2.061 127 15:55 17.10.2019
6011 Clouds 28 1015 74 10000 2.061 127 15:37 17.10.2019
6012 Clouds 28 1015 74 10000 1.168 350 15:19 17.10.2019
6013 Clouds 26 1014 94 10000 1.254 346 14:42 17.10.2019
6014 Clouds 25 1014 94 10000 1.254 346 14:23 17.10.2019
6015 Clouds 25 1014 100 10000 2.1 30 13:56 17.10.2019
6016 Clouds 25 1014 100 10000 2.1 30 13:38 17.10.2019
6017 Clouds 25 1014 100 10000 2.1 30 13:18 17.10.2019
6018 Clouds 25 1013 100 10000 2.6 40 12:41 17.10.2019
6019 Clouds 25 1013 100 10000 2.6 40 12:21 17.10.2019
6020 Clouds 25 1013 100 10000 2.1 50 11:59 17.10.2019
6021 Clouds 25 1013 100 10000 2.1 50 11:40 17.10.2019
6022 Clouds 25 1013 100 10000 2.1 50 11:19 17.10.2019
6023 Clouds 24 1013 100 10000 2.1 40 10:55 17.10.2019
6024 Clouds 24 1013 100 10000 2.1 40 10:36 17.10.2019
6025 Clouds 25 1013 100 10000 2.1 40 10:18 17.10.2019
6026 Clouds 25 1013 100 10000 2.1 40 10:18 17.10.2019
6027 Clouds 25 1013 94 10000 2.1 60 09:42 17.10.2019
6028 Clouds 25 1013 94 10000 2.1 60 09:22 17.10.2019
6029 Clouds 25 1014 94 10000 2.1 50 08:58 17.10.2019
6030 Clouds 25 1014 94 10000 2.1 50 08:58 17.10.2019
6031 Clouds 25 1014 94 10000 2.1 50 08:39 17.10.2019
6032 Clouds 25 1014 94 10000 2.1 50 08:21 17.10.2019
6033 Rain 26 1014 94 10000 2.1 50 07:55 17.10.2019
6034 Rain 26 1014 94 10000 2.1 50 07:54 17.10.2019
6035 Rain 26 1014 94 10000 2.1 50 07:36 17.10.2019
6036 Clouds 25 1014 94 10000 2.1 50 07:18 17.10.2019
6037 Clouds 26 1014 94 10000 2.1 60 06:39 17.10.2019
6038 Clouds 26 1014 94 10000 2.1 60 06:20 17.10.2019
6039 Clouds 26 1014 94 10000 2.1 60 05:49 17.10.2019
6040 Clouds 26 1014 94 10000 2.1 60 05:30 17.10.2019
6041 Clouds 26 1014 94 10000 2.1 60 04:51 17.10.2019
6042 Clouds 26 1013 94 10000 2.1 50 03:54 17.10.2019
6043 Clouds 28 1013 94 10000 0.285 280 02:36 17.10.2019
6044 Clouds 29 1012 70 10000 3.1 160 00:56 17.10.2019
6045 Clouds 29 1012 70 10000 3.1 160 00:38 17.10.2019
6046 Clouds 29 1012 70 10000 3.1 160 00:18 17.10.2019
6047 Clouds 31 1012 62 10000 5.1 180 23:42 16.10.2019
6048 Clouds 31 1012 62 10000 5.1 180 23:20 16.10.2019
6049 Clouds 32 1013 59 10000 4.1 160 22:55 16.10.2019
6050 Clouds 32 1013 59 10000 4.1 160 22:36 16.10.2019
6051 Clouds 32 1013 59 10000 4.1 160 22:18 16.10.2019
6052 Clouds 32 1013 55 10000 5.1 180 21:56 16.10.2019
6053 Clouds 32 1013 55 10000 5.1 180 21:37 16.10.2019
6054 Clouds 32 1013 55 10000 5.1 180 21:18 16.10.2019
6055 Clouds 32 1014 59 10000 4.1 90 20:56 16.10.2019
6056 Clouds 32 1014 59 10000 4.1 90 20:56 16.10.2019
6057 Clouds 32 1014 59 10000 4.1 90 20:56 16.10.2019
6058 Clouds 32 1014 59 10000 4.1 90 20:38 16.10.2019
6059 Clouds 32 1014 59 10000 4.1 90 20:20 16.10.2019
6060 Clouds 32 1014 62 10000 3.1 60 19:56 16.10.2019
6061 Clouds 32 1014 62 10000 3.1 60 19:38 16.10.2019
6062 Clouds 32 1014 62 10000 3.1 60 19:19 16.10.2019
6063 Clouds 32 1015 62 10000 3.1 120 18:39 16.10.2019
6064 Clouds 32 1015 62 10000 3.1 120 18:19 16.10.2019
6065 Clouds 31 1016 70 10000 2.142 81 17:56 16.10.2019
6066 Clouds 31 1016 70 10000 2.142 81 17:38 16.10.2019
6067 Clouds 31 1016 70 10000 2.142 81 17:19 16.10.2019
6068 Clouds 30 1015 78 10000 3.1 90 16:58 16.10.2019
6069 Clouds 30 1015 78 10000 3.1 90 16:38 16.10.2019
6070 Clouds 30 1015 78 10000 3.1 90 16:20 16.10.2019
6071 Clouds 28 1015 83 10000 2.142 81 15:55 16.10.2019
6072 Clouds 28 1015 83 10000 2.142 81 15:54 16.10.2019
6073 -273 0 0 0 0 0 15:54 16.10.2019
6074 Clouds 28 1015 83 10000 2.142 81 15:54 16.10.2019
6075 Clouds 29 1015 83 10000 2.142 81 15:36 16.10.2019
6076 Clouds 27 1015 94 10000 1.534 341 15:18 16.10.2019
6077 Clouds 27 1015 94 10000 1.534 341 15:18 16.10.2019
6078 Clouds 27 1015 94 10000 1.534 341 14:55 16.10.2019
6079 Clouds 27 1015 94 10000 1.483 341 14:36 16.10.2019
6080 Clouds 26 1015 94 10000 1.483 341 14:18 16.10.2019
6081 Clouds 26 1013 94 10000 2.6 40 13:42 16.10.2019
6082 Clouds 25 1013 94 10000 2.6 40 13:23 16.10.2019
6083 Clouds 25 1013 100 10000 2.6 30 12:44 16.10.2019
6084 Clouds 24 1013 100 10000 2.6 30 12:20 16.10.2019
6085 Clouds 24 1013 94 10000 2.1 10 11:59 16.10.2019
6086 Clouds 24 1013 94 10000 2.1 10 11:41 16.10.2019
6087 Clouds 23 1013 94 10000 2.1 10 11:18 16.10.2019
6088 Clouds 24 1013 100 10000 2.1 10 10:37 16.10.2019
6089 Clouds 25 1013 100 10000 2.1 10 10:19 16.10.2019
6090 Clouds 25 1013 100 10000 1.5 0 09:41 16.10.2019
6091 Clear 26 1013 81 0 1.34 345 09:22 16.10.2019
6092 Clear 26 1013 80 0 0.89 14 08:58 16.10.2019
6093 Clear 26 1013 80 0 0.89 9 08:40 16.10.2019
6094 Clear 27 1013 79 0 0.89 23 08:21 16.10.2019
6095 Clear 27 1014 80 0 0.89 18 07:45 16.10.2019
6096 Clouds 26 1014 94 10000 2.1 40 07:24 16.10.2019
6097 Clouds 26 1014 94 10000 2.1 40 06:56 16.10.2019
6098 Clouds 26 1014 94 10000 2.1 40 06:56 16.10.2019
6099 Clouds 26 1014 94 10000 2.1 40 06:35 16.10.2019
6100 Clouds 26 1014 88 10000 2.1 60 05:23 16.10.2019
6101 Clouds 27 1013 88 10000 0.66 9 02:57 16.10.2019
6102 Clouds 29 1013 70 10000 0.825 21 01:39 16.10.2019
6103 Clouds 29 1013 70 10000 0.825 21 01:18 16.10.2019
6104 Clouds 30 1013 66 10000 3.1 150 00:45 16.10.2019
6105 Clouds 31 1012 62 10000 3.6 150 23:59 15.10.2019
6106 Clouds 31 1012 62 10000 3.6 150 23:39 15.10.2019
6107 Clouds 31 1012 62 10000 3.6 150 23:21 15.10.2019
6108 Clouds 31 1012 62 10000 3.6 150 23:21 15.10.2019
6109 Clouds 32 1012 55 10000 5.1 160 22:55 15.10.2019
6110 Clouds 32 1012 55 10000 5.1 160 22:37 15.10.2019
6111 Clouds 32 1012 55 10000 5.1 160 22:19 15.10.2019
6112 Clouds 32 1013 59 10000 5.1 170 21:55 15.10.2019
6113 Clouds 32 1013 59 10000 5.1 170 21:37 15.10.2019
6114 Clouds 32 1013 59 10000 5.1 170 21:19 15.10.2019
6115 Clouds 32 1013 59 10000 5.1 170 21:19 15.10.2019
6116 Clouds 32 1013 63 10000 3.1 140 20:56 15.10.2019
6117 Clouds 32 1013 63 10000 3.1 140 20:37 15.10.2019
6118 Clouds 32 1013 63 10000 3.1 140 20:19 15.10.2019
6119 Clouds 32 1014 63 10000 2.47 97 19:55 15.10.2019
6120 Clouds 32 1014 63 10000 2.47 97 19:55 15.10.2019
6121 Clouds 32 1014 63 10000 2.47 97 19:55 15.10.2019
6122 Clouds 32 1014 63 10000 2.47 97 19:37 15.10.2019
6123 Clouds 32 1014 63 10000 2.47 97 19:37 15.10.2019
6124 Clouds 33 1014 63 10000 2.47 97 19:18 15.10.2019
6125 Clouds 32 1015 66 10000 2.47 97 18:44 15.10.2019
6126 Clouds 32 1015 66 10000 2.47 97 18:25 15.10.2019
6127 Clouds 32 1016 70 10000 2.551 49 17:55 15.10.2019
6128 Clouds 32 1016 70 10000 2.551 49 17:55 15.10.2019
6129 Clouds 32 1016 70 10000 2.551 49 17:37 15.10.2019
6130 Clouds 31 1016 70 10000 2.551 49 17:19 15.10.2019
6131 Clouds 31 1016 70 10000 2.551 49 17:19 15.10.2019
6132 Clouds 31 1016 66 10000 2.551 49 16:45 15.10.2019
6133 Clouds 30 1016 66 10000 2.551 49 16:22 15.10.2019
6134 Clouds 29 1016 83 10000 2.551 49 15:58 15.10.2019
6135 Clouds 28 1016 83 10000 2.551 49 15:39 15.10.2019
6136 Clouds 28 1016 83 10000 1.313 331 15:19 15.10.2019
6137 Clouds 27 1015 94 10000 1.313 331 14:56 15.10.2019
6138 Clouds 27 1015 94 10000 1.408 339 14:37 15.10.2019
6139 Clouds 27 1015 94 10000 1.408 339 14:37 15.10.2019
6140 Clouds 26 1015 94 10000 1.408 339 14:18 15.10.2019
6141 Clouds 26 1014 100 10000 2.1 30 13:43 15.10.2019
6142 Clouds 25 1014 100 10000 2.1 30 13:20 15.10.2019
6143 Clouds 25 1014 100 10000 2.1 20 12:56 15.10.2019
6144 Clouds 25 1014 100 10000 2.1 20 12:56 15.10.2019
6145 Clouds 25 1014 100 10000 2.1 20 12:38 15.10.2019
6146 Clouds 24 1014 100 10000 2.1 20 12:19 15.10.2019
6147 Clouds 24 1014 100 10000 2.1 20 12:19 15.10.2019
6148 Clouds 24 1014 100 10000 2.1 360 11:43 15.10.2019
6149 Clouds 24 1014 100 10000 2.1 360 11:20 15.10.2019
6150 Clouds 25 1014 94 10000 2.1 360 10:56 15.10.2019
6151 Clouds 25 1014 94 10000 2.1 360 10:56 15.10.2019
6152 Clouds 25 1014 94 10000 2.1 360 10:37 15.10.2019
6153 Clouds 25 1014 94 10000 2.1 360 10:18 15.10.2019
6154 Clouds 25 1013 94 10000 2.1 30 09:41 15.10.2019
6155 Clouds 25 1013 94 10000 2.1 30 09:21 15.10.2019
6156 Clouds 25 1013 94 10000 2.1 30 09:21 15.10.2019
6157 Clouds 25 1013 94 10000 2.1 30 09:21 15.10.2019
6158 Clouds 26 1015 94 10000 2.1 40 08:58 15.10.2019
6159 Clouds 26 1015 94 10000 2.1 40 08:58 15.10.2019
6160 Clouds 25 1015 94 10000 2.1 40 08:40 15.10.2019
6161 Clouds 26 1015 94 10000 2.1 40 08:20 15.10.2019
6162 Clouds 26 1015 94 10000 2.1 50 07:44 15.10.2019
6163 Clouds 26 1015 94 10000 2.1 50 07:23 15.10.2019
6164 Clouds 26 1015 94 10000 2.6 10 06:58 15.10.2019
6165 Clouds 26 1015 94 10000 2.6 10 06:39 15.10.2019
6166 Clouds 26 1015 88 10000 2.6 70 05:56 15.10.2019
6167 Clouds 26 1015 88 10000 2.6 70 05:37 15.10.2019
6168 Clouds 26 1015 88 10000 2.6 60 04:49 15.10.2019
6169 Clouds 26 1015 88 10000 2.6 60 04:19 15.10.2019
6170 Clouds 27 1014 88 10000 2.1 70 03:35 15.10.2019
6171 Thunderstorm 28 1012 83 10000 1.89 2.361 01:57 15.10.2019
6172 Thunderstorm 28 1012 83 10000 1.89 2.361 01:39 15.10.2019
6173 Clouds 28 1012 78 10000 2.27 23.205 00:59 15.10.2019
6174 Clouds 28 1012 78 10000 2.27 23.205 00:59 15.10.2019
6175 Clouds 28 1012 78 10000 2.4 134.239 00:25 15.10.2019
6176 Thunderstorm 29 1011 66 10000 4.1 160 23:59 14.10.2019
6177 Thunderstorm 30 1011 66 10000 4.1 160 23:37 14.10.2019
6178 Thunderstorm 30 1011 66 10000 4.1 160 23:37 14.10.2019
6179 Thunderstorm 30 1011 66 10000 4.1 160 23:18 14.10.2019
6180 Clouds 32 1012 66 10000 5.1 180 22:39 14.10.2019
6181 Clouds 32 1012 66 10000 5.1 180 22:21 14.10.2019
6182 Clouds 32 1012 62 10000 6.2 180 21:58 14.10.2019
6183 Clouds 32 1012 62 10000 6.2 180 21:39 14.10.2019
6184 Clouds 32 1012 62 10000 6.2 180 21:21 14.10.2019
6185 Clouds 32 1012 62 10000 5.1 160 20:57 14.10.2019
6186 Clouds 32 1012 62 10000 5.1 160 20:38 14.10.2019
6187 Clouds 32 1012 62 10000 5.1 160 20:38 14.10.2019
6188 Clouds 32 1012 62 10000 5.1 160 20:19 14.10.2019
6189 Clouds 32 1013 62 10000 5.1 130 19:44 14.10.2019
6190 Clouds 32 1013 62 10000 5.1 130 19:26 14.10.2019
6191 Clouds 32 1014 62 10000 5.1 120 18:59 14.10.2019
6192 Clouds 32 1014 62 10000 5.1 120 18:40 14.10.2019
6193 Clouds 31 1014 62 10000 5.1 120 18:21 14.10.2019
6194 Clouds 31 1014 66 10000 3.1 40 17:59 14.10.2019
6195 Clouds 31 1014 66 10000 3.1 40 17:41 14.10.2019
6196 Clouds 31 1014 66 10000 3.1 40 17:22 14.10.2019
6197 Clouds 30 1015 74 10000 2.09 56.621 16:45 14.10.2019
6198 Clouds 29 1015 74 10000 2.09 56.621 16:22 14.10.2019
6199 Clouds 27 1013 83 10000 2.09 56.621 15:59 14.10.2019
6200 Clouds 28 1013 83 10000 2.09 56.621 15:38 14.10.2019
6201 Clouds 28 1013 83 10000 1.83 353.894 15:20 14.10.2019
6202 Clouds 27 1013 94 10000 1.83 353.894 14:43 14.10.2019
6203 Clouds 27 1013 94 10000 1.83 353.894 14:24 14.10.2019
6204 Clouds 26 1013 94 10000 2.1 20 13:57 14.10.2019
6205 Clouds 26 1013 94 10000 2.1 20 13:39 14.10.2019
6206 Clouds 25 1013 94 10000 2.1 20 13:20 14.10.2019
6207 Clouds 25 1013 100 10000 1.72 356.226 12:41 14.10.2019
6208 Clouds 25 1013 100 10000 1.55 341.272 12:20 14.10.2019
6209 Clouds 25 1013 94 10000 1.55 341.272 11:48 14.10.2019
6210 Clouds 25 1013 94 10000 1.55 341.272 11:27 14.10.2019
6211 Clouds 25 1013 94 10000 1.55 341.272 10:59 14.10.2019
6212 Clouds 25 1013 94 10000 1.55 341.272 10:41 14.10.2019
6213 Clouds 25 1013 94 10000 1.55 341.272 10:21 14.10.2019
6214 Clouds 25 1013 94 10000 1.55 341.272 10:21 14.10.2019
6215 Clouds 25 1013 94 10000 2.1 30 09:57 14.10.2019
6216 Clouds 25 1013 94 10000 2.1 30 09:38 14.10.2019
6217 Clouds 25 1013 94 10000 2.1 30 09:19 14.10.2019
6218 Clouds 25 1013 94 10000 1.54 353.268 08:46 14.10.2019
6219 Clouds 25 1013 94 10000 1.54 353.268 08:23 14.10.2019
6220 Clouds 26 1014 94 10000 2.1 50 07:44 14.10.2019
6221 Clouds 26 1014 94 10000 2.1 50 07:19 14.10.2019
6222 Clouds 26 1014 94 10000 2.1 40 06:54 14.10.2019
6223 Clouds 26 1014 94 10000 2.1 40 06:27 14.10.2019
6224 Clouds 26 1014 94 10000 2.1 40 05:50 14.10.2019
6225 Clouds 26 1013 88 10000 2.1 50 04:49 14.10.2019
6226 Clouds 27 1013 88 10000 2.1 50 03:28 14.10.2019
6227 Thunderstorm 27 1013 88 10000 0.35 40.547 02:56 14.10.2019
6228 Thunderstorm 28 1012 83 10000 1 55.832 01:25 14.10.2019
6229 Clouds 29 1011 78 10000 3.1 180 00:59 14.10.2019
6230 Clouds 29 1011 78 10000 3.1 180 00:21 14.10.2019
6231 Clouds 29 1011 78 10000 3.1 180 00:21 14.10.2019
6232 Clouds 29 1011 78 10000 3.1 180 00:21 14.10.2019
6233 Clouds 30 1011 66 10000 5.1 180 23:45 13.10.2019
6234 Clouds 31 1011 66 10000 5.1 180 23:21 13.10.2019
6235 Clouds 31 1011 62 10000 5.1 180 22:59 13.10.2019
6236 Clouds 31 1011 62 10000 5.1 180 22:41 13.10.2019
6237 Clouds 31 1011 62 10000 5.1 180 22:21 13.10.2019
6238 Clouds 32 1012 59 10000 4.1 160 21:58 13.10.2019
6239 Clouds 32 1012 59 10000 4.1 160 21:38 13.10.2019
6240 Clouds 32 1012 59 10000 4.1 160 21:19 13.10.2019
6241 Clouds 32 1012 52 10000 4.1 180 20:58 13.10.2019
6242 Clouds 32 1012 52 10000 4.1 180 20:39 13.10.2019
6243 Clouds 32 1012 52 10000 4.1 180 20:21 13.10.2019
6244 Clouds 32 1013 62 10000 5.1 180 19:59 13.10.2019
6245 Clouds 32 1013 62 10000 5.1 180 19:39 13.10.2019
6246 Clouds 32 1013 62 10000 5.1 180 19:39 13.10.2019
6247 Clouds 32 1013 62 10000 5.1 180 19:21 13.10.2019
6248 Clouds 32 1013 66 10000 4.1 130 18:57 13.10.2019
6249 Clouds 32 1013 66 10000 4.1 130 18:55 13.10.2019
6250 Clouds 32 1013 66 10000 4.1 130 18:36 13.10.2019
6251 Clouds 31 1013 66 10000 4.1 130 18:18 13.10.2019
6252 Clouds 31 1014 66 10000 3.1 130 17:43 13.10.2019
6253 Clouds 31 1014 66 10000 3.1 130 17:25 13.10.2019
6254 Clouds 30 1013 79 10000 2.6 90 16:58 13.10.2019
6255 Clouds 30 1013 79 10000 2.6 90 16:40 13.10.2019
6256 Clouds 30 1013 79 10000 2.6 90 16:18 13.10.2019
6257 Clouds 27 1012 83 10000 1.93 85.99 15:55 13.10.2019
6258 Clouds 27 1012 83 10000 1.93 85.99 15:36 13.10.2019
6259 Clouds 27 1012 83 10000 1.09 355.21 15:18 13.10.2019
6260 Clouds 25 1014 88 10000 2.1 10 14:40 13.10.2019
6261 Clouds 25 1014 88 10000 2.1 10 14:22 13.10.2019
6262 Clouds 23 1013 94 10000 1.09 355.21 14:00 13.10.2019
6263 Clouds 23 1013 94 10000 1.09 355.21 13:39 13.10.2019
6264 Clouds 23 1013 94 10000 1.16 350.505 13:21 13.10.2019
6265 Clouds 22 1012 94 10000 2.1 40 12:57 13.10.2019
6266 Clouds 22 1012 94 10000 2.1 40 12:38 13.10.2019
6267 Clouds 22 1012 94 10000 2.1 40 12:38 13.10.2019
6268 Clouds 22 1012 94 10000 2.1 40 12:19 13.10.2019
6269 Clouds 23 1011 94 10000 2.1 40 11:58 13.10.2019
6270 Clouds 23 1011 94 10000 2.1 40 11:38 13.10.2019
6271 Clouds 23 1011 94 10000 2.1 40 11:19 13.10.2019
6272 Clouds 25 1011 94 10000 2.1 40 10:42 13.10.2019
6273 Clouds 24 1011 94 10000 2.1 40 10:23 13.10.2019
6274 Clouds 24 1012 94 10000 1.5 30 09:57 13.10.2019
6275 Clouds 24 1012 94 10000 1.5 30 09:38 13.10.2019
6276 Clouds 24 1012 94 10000 1.5 30 09:19 13.10.2019
6277 Rain 25 1012 88 0 0.45 63 08:43 13.10.2019
6278 Clouds 24 1013 94 10000 2.6 30 08:22 13.10.2019
6279 Clouds 24 1013 94 10000 2.6 30 07:47 13.10.2019
6280 Clouds 24 1013 94 10000 2.6 30 07:28 13.10.2019
6281 Rain 26 1013 85 0 0.45 70 06:48 13.10.2019
6282 Clouds 25 1013 94 10000 2.6 60 05:57 13.10.2019
6283 Clouds 25 1013 94 10000 2.1 60 04:52 13.10.2019
6284 Clouds 25 1013 94 10000 2.1 60 04:33 13.10.2019
6285 Clouds 25 1012 88 10000 1.5 50 02:47 13.10.2019
6286 Clouds 26 1012 88 10000 1.5 50 02:18 13.10.2019
6287 Clouds 26 1011 83 10000 1.41 349.644 01:31 13.10.2019
6288 Clouds 26 1011 83 10000 1.41 349.644 01:31 13.10.2019
6289 Clouds 28 1010 74 10000 3.1 120 00:50 13.10.2019
6290 Clouds 30 1010 74 10000 3.1 120 00:22 13.10.2019
6291 Rain 30 1010 66 8000 4.1 30 23:57 12.10.2019
6292 Rain 30 1010 66 8000 4.1 30 23:39 12.10.2019
6293 Rain 30 1010 66 8000 4.1 30 23:20 12.10.2019
6294 Rain 31 1010 62 8000 3.1 40 22:57 12.10.2019
6295 Rain 31 1010 62 8000 3.1 40 22:38 12.10.2019
6296 Rain 31 1010 62 8000 3.1 40 22:20 12.10.2019
6297 Rain 31 1011 62 10000 5.1 180 21:55 12.10.2019
6298 Rain 31 1011 62 10000 5.1 180 21:37 12.10.2019
6299 Rain 31 1011 62 10000 5.1 180 21:18 12.10.2019
6300 Clouds 32 1011 59 10000 5.1 180 20:40 12.10.2019
6301 Clouds 32 1011 59 10000 5.1 180 20:22 12.10.2019
6302 Clouds 32 1012 62 10000 2.7 120.411 19:39 12.10.2019
6303 Clouds 32 1012 62 10000 2.7 120.411 19:20 12.10.2019
6304 Clouds 31 1012 66 10000 3.1 90 18:57 12.10.2019
6305 Clouds 31 1012 66 10000 3.1 90 18:39 12.10.2019
6306 Clouds 31 1012 66 10000 3.1 90 18:21 12.10.2019
6307 Clouds 31 1013 66 10000 2.1 30 17:43 12.10.2019
6308 Clouds 31 1013 66 10000 2.1 30 17:19 12.10.2019
6309 Clouds 30 1013 78 10000 2.05 90.42 16:54 12.10.2019
6310 Clouds 30 1013 78 10000 2.05 90.42 16:54 12.10.2019
6311 Clouds 29 1013 78 10000 2.05 90.42 16:36 12.10.2019
6312 Clouds 29 1013 78 10000 2.05 90.42 16:36 12.10.2019
6313 Clouds 29 1013 78 10000 2.05 90.42 16:18 12.10.2019
6314 Clouds 28 1012 83 10000 2.05 90.42 15:43 12.10.2019
6315 Clouds 28 1012 83 10000 1.88 359.42 15:23 12.10.2019
6316 Clouds 26 1012 94 10000 1.88 359.42 14:43 12.10.2019
6317 Clouds 25 1012 94 10000 1.88 359.42 14:22 12.10.2019
6318 Clouds 25 1012 100 10000 2.1 30 13:57 12.10.2019
6319 Clouds 25 1012 100 10000 2.1 30 13:38 12.10.2019
6320 Clouds 25 1012 100 10000 2.1 30 13:20 12.10.2019
6321 Clouds 24 1011 100 10000 2.1 40 12:39 12.10.2019
6322 Clouds 24 1011 100 10000 2.1 40 12:21 12.10.2019
6323 Clouds 25 1011 94 10000 1.81 342.508 11:58 12.10.2019
6324 Clouds 24 1011 94 10000 1.81 342.508 11:39 12.10.2019
6325 Clouds 25 1011 94 10000 1.81 342.508 11:19 12.10.2019
6326 Clouds 25 1011 94 10000 2.1 20 10:41 12.10.2019
6327 Clouds 25 1011 94 10000 2.1 20 10:23 12.10.2019
6328 Clouds 24 1011 94 10000 2.1 30 09:58 12.10.2019
6329 Clouds 25 1011 94 10000 2.1 30 09:39 12.10.2019
6330 Clouds 25 1011 94 10000 2.1 30 09:21 12.10.2019
6331 Clouds 25 1012 94 10000 2.1 20 08:57 12.10.2019
6332 Clouds 25 1012 94 10000 2.1 20 08:57 12.10.2019
6333 Clouds 25 1012 94 10000 2.1 20 08:57 12.10.2019
6334 Clouds 25 1012 94 10000 2.1 20 08:37 12.10.2019
6335 Clouds 25 1012 94 10000 2.1 20 08:18 12.10.2019
6336 Clouds 25 1012 94 10000 2.1 30 07:33 12.10.2019
6337 Clouds 26 1012 88 10000 2.1 20 06:50 12.10.2019
6338 Clouds 26 1013 88 10000 2.1 60 05:46 12.10.2019
6339 Clouds 26 1012 88 10000 2.1 30 04:52 12.10.2019
6340 Clouds 26 1011 94 10000 2.1 50 03:58 12.10.2019
6341 Thunderstorm 27 1011 94 10000 2.6 40 02:57 12.10.2019
6342 Thunderstorm 27 1010 83 10000 1.18 177.963 01:36 12.10.2019
6343 Thunderstorm 27 1010 83 10000 1.18 177.963 01:36 12.10.2019
6344 Clouds 28 1010 78 10000 2.6 180 00:59 12.10.2019
6345 Clouds 28 1010 78 10000 2.6 180 00:39 12.10.2019
6346 Clouds 30 1009 66 10000 4.1 180 23:57 11.10.2019
6347 Clouds 30 1009 66 10000 4.1 180 23:38 11.10.2019
6348 Clouds 30 1009 66 10000 4.1 180 23:19 11.10.2019
6349 Clouds 31 1010 66 10000 5.1 180 22:40 11.10.2019
6350 Clouds 31 1010 66 10000 5.1 180 22:21 11.10.2019
6351 Clouds 31 1010 62 10000 5.1 180 21:56 11.10.2019
6352 Clouds 31 1010 62 10000 5.1 180 21:38 11.10.2019
6353 Clouds 31 1010 62 10000 5.1 180 21:19 11.10.2019
6354 Clouds 31 1010 74 10000 4.1 180 20:43 11.10.2019
6355 Clouds 31 1010 74 10000 4.1 180 20:25 11.10.2019
6356 Clouds 31 1011 62 10000 4.1 360 19:56 11.10.2019
6357 Clouds 31 1011 62 10000 4.1 360 19:38 11.10.2019
6358 Clouds 31 1011 62 10000 4.1 360 19:18 11.10.2019
6359 Clouds 31 1011 66 10000 3.1 90 18:57 11.10.2019
6360 Clouds 31 1011 66 10000 3.1 90 18:37 11.10.2019
6361 Clouds 31 1011 66 10000 3.1 90 18:19 11.10.2019
6362 Clouds 30 1012 74 10000 2.6 90 17:58 11.10.2019
6363 Clouds 30 1012 74 10000 2.6 90 17:37 11.10.2019
6364 Clouds 30 1012 74 10000 2.6 90 17:18 11.10.2019
6365 Clouds 29 1011 78 10000 3.1 360 16:54 11.10.2019
6366 Clouds 29 1011 78 10000 3.1 360 16:54 11.10.2019
6367 Clouds 29 1011 78 10000 3.1 360 16:36 11.10.2019
6368 Clouds 29 1011 78 10000 3.1 360 16:18 11.10.2019
6369 Clouds 28 1011 94 10000 1.67 59.543 15:39 11.10.2019
6370 Clouds 28 1011 94 10000 1.67 338.492 15:19 11.10.2019
6371 Clouds 25 1010 100 10000 1.67 338.492 14:49 11.10.2019
6372 Clouds 24 1010 100 10000 1.67 338.492 14:30 11.10.2019
6373 Clouds 25 1010 100 10000 2.1 10 13:58 11.10.2019
6374 Clouds 25 1010 100 10000 2.1 10 13:40 11.10.2019
6375 Clouds 24 1010 100 10000 2.1 10 13:21 11.10.2019
6376 Clouds 24 1010 100 10000 1.5 0 12:56 11.10.2019
6377 Clouds 24 1010 100 10000 1.5 0 12:38 11.10.2019
6378 Clouds 24 1010 100 10000 1.5 0 12:19 11.10.2019
6379 Clouds 25 1010 94 10000 1.5 0 11:41 11.10.2019
6380 Clouds 25 1010 94 10000 1.5 0 11:41 11.10.2019
6381 Clouds 25 1010 94 10000 1.5 0 11:22 11.10.2019
6382 Clouds 25 1010 94 10000 1.5 0 11:22 11.10.2019
6383 Clouds 24 1010 94 10000 2.6 10 10:59 11.10.2019
6384 Clouds 24 1010 94 10000 2.6 10 10:41 11.10.2019
6385 Clouds 25 1010 94 10000 2.6 10 10:22 11.10.2019
6386 Clouds 25 1011 94 10000 1.5 0 09:56 11.10.2019
6387 Clouds 24 1011 94 10000 1.5 0 09:37 11.10.2019
6388 Clouds 24 1011 94 10000 1.5 0 09:19 11.10.2019
6389 Clouds 25 1011 94 10000 2.1 40 08:55 11.10.2019
6390 Clouds 25 1011 94 10000 2.1 40 08:36 11.10.2019
6391 Clouds 25 1011 94 10000 2.1 40 08:18 11.10.2019
6392 Clouds 25 1012 88 10000 2.1 60 07:44 11.10.2019
6393 Clouds 25 1012 88 10000 2.1 60 07:25 11.10.2019
6394 Clouds 26 1012 88 10000 2.1 60 06:48 11.10.2019
6395 Clouds 26 1012 88 10000 2.1 60 06:23 11.10.2019
6396 Clouds 26 1012 88 10000 2.1 60 05:39 11.10.2019
6397 Clouds 26 1011 88 10000 2.1 70 04:59 11.10.2019
6398 Clouds 26 1011 88 10000 2.1 70 04:24 11.10.2019
6399 Clouds 27 1010 83 10000 2.1 110 02:32 11.10.2019
6400 Clouds 29 1010 78 10000 3.1 180 00:50 11.10.2019
6401 Clouds 29 1010 78 10000 3.1 180 00:29 11.10.2019
6402 Clouds 30 1010 74 10000 4.1 180 23:44 10.10.2019
6403 Clouds 31 1010 74 10000 4.1 180 23:22 10.10.2019
6404 Clouds 31 1010 70 10000 4.1 140 22:58 10.10.2019
6405 Clouds 31 1010 70 10000 4.1 140 22:39 10.10.2019
6406 Clouds 31 1010 70 10000 4.1 140 22:21 10.10.2019
6407 Clouds 32 1011 66 10000 3.03 135.71 21:58 10.10.2019
6408 Clouds 32 1011 66 10000 3.03 135.71 21:39 10.10.2019
6409 Clouds 32 1011 66 10000 2.67 121.294 21:21 10.10.2019
6410 Clouds 32 1011 66 10000 5.1 360 20:43 10.10.2019
6411 Clouds 32 1011 66 10000 5.1 360 20:22 10.10.2019
6412 Clouds 31 1012 66 10000 2.49 114.353 19:59 10.10.2019
6413 Clouds 32 1012 66 10000 2.49 114.353 19:41 10.10.2019
6414 Clouds 32 1012 66 10000 2.49 114.353 19:41 10.10.2019
6415 Clouds 32 1012 66 10000 2.49 114.353 19:20 10.10.2019
6416 Clouds 31 1013 66 10000 4.1 10 18:57 10.10.2019
6417 Clouds 31 1013 66 10000 4.1 10 18:39 10.10.2019
6418 Clouds 31 1013 66 10000 4.1 10 18:20 10.10.2019
6419 Clouds 30 1013 66 10000 2.6 40 17:54 10.10.2019
6420 Clouds 30 1013 66 10000 2.6 40 17:36 10.10.2019
6421 Clouds 30 1013 66 10000 2.6 40 17:36 10.10.2019
6422 Clouds 30 1013 66 10000 2.6 40 17:18 10.10.2019
6423 Clouds 30 1013 66 10000 2.6 40 17:18 10.10.2019
6424 Clouds 30 1013 66 10000 2.6 40 17:18 10.10.2019
6425 Clouds 29 1013 74 10000 3.1 40 16:41 10.10.2019
6426 Clouds 29 1013 74 10000 3.1 40 16:22 10.10.2019
6427 Clouds 28 1012 83 10000 2.3 49.585 15:44 10.10.2019
6428 Clouds 27 1012 83 10000 2.3 49.585 15:25 10.10.2019
6429 Clouds 26 1012 94 10000 2.46 345.574 14:59 10.10.2019
6430 Clouds 26 1012 94 10000 2.46 345.574 14:38 10.10.2019
6431 Clouds 25 1012 94 10000 2.46 345.574 14:19 10.10.2019
6432 Clouds 26 1012 94 10000 2.1 20 13:59 10.10.2019
6433 Clouds 25 1012 94 10000 2.1 20 13:41 10.10.2019
6434 Clouds 25 1012 94 10000 2.1 20 13:20 10.10.2019
6435 Clouds 25 1012 94 10000 2.1 360 12:56 10.10.2019
6436 Clouds 25 1012 94 10000 2.1 360 12:56 10.10.2019
6437 Clouds 25 1012 94 10000 2.1 360 12:38 10.10.2019
6438 Clouds 25 1012 94 10000 2.1 360 12:19 10.10.2019
6439 Clouds 25 1012 94 10000 2.1 360 11:55 10.10.2019
6440 Clouds 25 1012 94 10000 2.1 360 11:36 10.10.2019
6441 Clouds 25 1012 94 10000 2.1 360 11:18 10.10.2019
6442 Clouds 25 1012 94 10000 2.33 338.501 10:44 10.10.2019
6443 Clouds 25 1012 94 10000 2.33 338.501 10:25 10.10.2019
6444 Clouds 25 1012 94 10000 2.1 20 09:56 10.10.2019
6445 Clouds 25 1012 94 10000 2.1 20 09:37 10.10.2019
6446 Clouds 25 1012 94 10000 2.1 20 09:19 10.10.2019
6447 Clouds 26 1012 94 10000 2.1 20 08:41 10.10.2019
6448 Clouds 26 1012 94 10000 2.1 20 08:23 10.10.2019
6449 Clouds 25 1012 94 10000 2.1 20 07:58 10.10.2019
6450 Clouds 25 1012 94 10000 2.1 20 07:38 10.10.2019
6451 Clouds 25 1012 94 10000 2.1 20 07:19 10.10.2019
6452 Clouds 26 1013 94 10000 2.1 20 06:45 10.10.2019
6453 Clouds 26 1013 94 10000 2.1 30 05:57 10.10.2019
6454 Clouds 26 1013 94 10000 2.1 30 05:23 10.10.2019
6455 Clouds 26 1013 88 10000 2.1 30 04:37 10.10.2019
6456 Clouds 28 1012 83 10000 2.1 70 02:54 10.10.2019
6457 Clouds 29 1012 78 10000 1.97 17.406 01:42 10.10.2019
6458 Clouds 29 1012 78 10000 2.09 26.932 01:23 10.10.2019
6459 Thunderstorm 30 1011 66 10000 2.09 26.932 00:45 10.10.2019
6460 Thunderstorm 30 1011 66 10000 2.4 78.114 00:19 10.10.2019
6461 Clouds 31 1011 66 10000 5.1 180 23:39 09.10.2019
6462 Clouds 31 1011 66 10000 5.1 180 23:19 09.10.2019
6463 Clouds 32 1011 59 10000 5.1 180 22:42 09.10.2019
6464 Clouds 32 1011 59 10000 5.1 180 22:24 09.10.2019
6465 Clouds 32 1012 59 10000 5.1 180 21:59 09.10.2019
6466 Clouds 32 1012 59 10000 5.1 180 21:39 09.10.2019
6467 Clouds 33 1012 59 10000 5.1 180 21:20 09.10.2019
6468 Clouds 32 1012 59 10000 3.1 40 20:56 09.10.2019
6469 Clouds 32 1012 59 10000 3.1 40 20:37 09.10.2019
6470 Clouds 32 1012 59 10000 3.1 40 20:18 09.10.2019
6471 Clouds 32 1013 59 10000 5.1 70 19:45 09.10.2019
6472 Clouds 33 1013 59 10000 5.1 70 19:23 09.10.2019
6473 Clouds 32 1014 59 10000 2.6 70 18:57 09.10.2019
6474 Clouds 33 1014 59 10000 2.6 70 18:37 09.10.2019
6475 Clouds 32 1014 59 10000 2.6 70 18:18 09.10.2019
6476 Clouds 32 1014 62 10000 2.37 64.616 17:54 09.10.2019
6477 Clouds 32 1014 62 10000 2.37 64.616 17:36 09.10.2019
6478 Clouds 31 1014 62 10000 2.37 64.616 17:18 09.10.2019
6479 Clouds 30 1014 74 10000 2.37 64.616 16:40 09.10.2019
6480 Clouds 30 1014 74 10000 2.37 64.616 16:22 09.10.2019
6481 Clouds 28 1013 78 10000 2.37 64.616 15:58 09.10.2019
6482 Clouds 28 1013 78 10000 2.37 64.616 15:39 09.10.2019
6483 Clouds 28 1013 78 10000 2.21 337.04 15:20 09.10.2019
6484 Clouds 26 1013 94 10000 2.21 337.04 14:56 09.10.2019
6485 Clouds 26 1013 94 10000 2.21 337.04 14:37 09.10.2019
6486 Clouds 25 1013 94 10000 2.21 337.04 14:18 09.10.2019
6487 Clouds 25 1013 94 10000 2.1 10 13:39 09.10.2019
6488 Clouds 25 1013 94 10000 2.1 10 13:21 09.10.2019
6489 Clouds 25 1012 94 10000 2.1 20 12:58 09.10.2019
6490 Clouds 25 1012 94 10000 2.1 20 12:40 09.10.2019
6491 Clouds 25 1012 94 10000 2.1 20 12:21 09.10.2019
6492 Clouds 25 1012 94 10000 2.1 40 11:55 09.10.2019
6493 Clouds 25 1012 94 10000 2.1 40 11:36 09.10.2019
6494 Clouds 25 1012 94 10000 2.1 40 11:18 09.10.2019
6495 Clouds 25 1012 94 10000 2.1 10 10:43 09.10.2019
6496 Clouds 25 1012 94 10000 2.1 10 10:20 09.10.2019
6497 Clouds 25 1013 94 10000 2.1 30 09:57 09.10.2019
6498 Clouds 25 1013 94 10000 2.1 30 09:38 09.10.2019
6499 Clouds 25 1013 94 10000 2.1 30 09:38 09.10.2019
6500 Clouds 25 1013 94 10000 2.1 30 09:38 09.10.2019
6501 Clouds 25 1013 94 10000 2.1 30 09:18 09.10.2019
6502 -273 0 0 0 0 0 08:39 09.10.2019
6503 Clouds 25 1013 94 10000 2.1 20 08:21 09.10.2019
6504 Rain 26 1013 82 0 0.89 355 07:48 09.10.2019
6505 Rain 26 1014 88 0 0.45 59 07:27 09.10.2019
6506 Rain 26 1014 88 0 0.45 59 07:27 09.10.2019
6507 Clouds 25 1013 88 10000 2.1 30 06:59 09.10.2019
6508 Clouds 25 1013 88 10000 2.1 30 06:41 09.10.2019
6509 Clouds 26 1014 94 10000 2.1 20 05:53 09.10.2019
6510 Clouds 26 1014 94 10000 2.1 20 05:19 09.10.2019
6511 Clouds 27 1013 88 10000 2.1 20 03:54 09.10.2019
6512 Clouds 27 1013 88 10000 2.1 40 02:42 09.10.2019
6513 Clouds 28 1013 94 10000 2.6 60 01:39 09.10.2019
6514 Clouds 28 1013 94 10000 2.6 60 01:19 09.10.2019
6515 Rain 29 1012 79 7000 2.6 150 00:56 09.10.2019
6516 Rain 29 1012 79 7000 2.6 150 00:37 09.10.2019
6517 Rain 29 1012 79 7000 2.6 150 00:19 09.10.2019
6518 Rain 30 1012 74 8000 3.1 150 23:39 08.10.2019
6519 Rain 30 1012 74 8000 3.1 150 23:39 08.10.2019
6520 Rain 30 1012 74 8000 3.1 150 23:18 08.10.2019
6521 Clouds 31 1012 74 10000 5.1 150 22:55 08.10.2019
6522 Clouds 30 1012 74 10000 5.1 150 22:37 08.10.2019
6523 Clouds 31 1012 74 10000 5.1 150 22:18 08.10.2019
6524 Clouds 32 1011 63 10000 4.1 210 21:56 08.10.2019
6525 Clouds 32 1011 63 10000 4.1 210 21:37 08.10.2019
6526 Rain 32 1011 63 10000 4.1 210 21:18 08.10.2019
6527 Rain 30 1013 83 8000 3.06 104.558 20:55 08.10.2019
6528 Rain 31 1013 83 8000 3.16 100.99 20:37 08.10.2019
6529 Rain 31 1013 83 8000 3.16 100.99 20:18 08.10.2019
6530 Clouds 32 1013 63 10000 2.6 70 19:54 08.10.2019
6531 Clouds 33 1013 63 10000 2.6 70 19:36 08.10.2019
6532 Clouds 33 1013 63 10000 2.6 70 19:36 08.10.2019
6533 Clouds 32 1013 63 10000 2.6 70 19:18 08.10.2019
6534 Clouds 32 1014 66 10000 4.1 120 18:41 08.10.2019
6535 Clouds 32 1014 66 10000 4.1 120 18:23 08.10.2019
6536 Clouds 32 1015 66 10000 2.5 46.493 17:57 08.10.2019
6537 Clouds 32 1015 66 10000 2.5 46.493 17:39 08.10.2019
6538 Clouds 32 1015 66 10000 2.5 46.493 17:18 08.10.2019
6539 Clouds 31 1015 70 10000 2.6 60 16:55 08.10.2019
6540 Clouds 30 1015 70 10000 2.6 60 16:37 08.10.2019
6541 Clouds 30 1015 70 10000 2.6 60 16:18 08.10.2019
6542 Clouds 29 1014 79 10000 2.5 46.493 15:38 08.10.2019
6543 Clouds 29 1014 79 10000 2.66 350.251 15:20 08.10.2019
6544 Clouds 27 1014 94 10000 2.66 350.251 14:55 08.10.2019
6545 Clouds 27 1014 94 10000 2.66 350.251 14:37 08.10.2019
6546 Clouds 26 1014 94 10000 2.66 350.251 14:19 08.10.2019
6547 Clouds 26 1013 94 10000 2.1 20 13:54 08.10.2019
6548 Clouds 26 1013 94 10000 2.1 20 13:54 08.10.2019
6549 Clouds 26 1013 94 10000 2.1 20 13:36 08.10.2019
6550 Clouds 26 1013 94 10000 2.1 20 13:18 08.10.2019
6551 Clouds 25 1013 100 10000 1.5 10 12:40 08.10.2019
6552 Clouds 24 1013 100 10000 1.5 10 12:20 08.10.2019
6553 Clouds 24 1012 94 10000 1.5 360 11:57 08.10.2019
6554 Clouds 24 1012 94 10000 1.5 360 11:38 08.10.2019
6555 Clouds 24 1012 94 10000 1.5 360 11:20 08.10.2019
6556 Clouds 25 1012 94 10000 1.5 360 10:42 08.10.2019
6557 Clouds 25 1012 94 10000 1.5 360 10:22 08.10.2019
6558 Clouds 25 1012 94 10000 1.5 360 09:58 08.10.2019
6559 Clouds 25 1012 94 10000 1.5 360 09:40 08.10.2019
6560 Clouds 25 1012 94 10000 1.5 360 09:40 08.10.2019
6561 Clouds 27 1013 80 0 0.89 344 09:21 08.10.2019
6562 Clouds 26 1013 80 0 1.34 347 08:45 08.10.2019
6563 Clouds 26 1013 81 0 1.34 355 08:25 08.10.2019
6564 Clouds 26 1013 87 0 2.01 339.664 07:47 08.10.2019
6565 Clouds 26 1013 80 0 1.34 1 07:23 08.10.2019
6566 Clouds 26 1014 87 0 2.01 339.664 06:57 08.10.2019
6567 Clouds 27 1014 79 0 1.34 22 06:35 08.10.2019
6568 Clouds 27 1014 80 0 1.34 22 05:57 08.10.2019
6569 Clouds 27 1014 80 0 1.34 22 05:57 08.10.2019
6570 Clouds 27 1014 79 0 1.34 24 05:38 08.10.2019
6571 Clouds 27 1014 79 0 1.34 24 05:38 08.10.2019
6572 Clouds 26 1014 94 10000 2.1 50 04:42 08.10.2019
6573 Clouds 27 1012 88 10000 1.74 355.543 03:30 08.10.2019
6574 Clouds 27 1012 88 10000 0.51 358.434 02:40 08.10.2019
6575 Clouds 27 1013 83 10000 0.51 358.434 01:49 08.10.2019
6576 Clouds 27 1013 83 10000 0.88 52.961 01:31 08.10.2019
6577 Rain 28 1012 78 8000 0.88 52.961 00:55 08.10.2019
6578 Rain 28 1012 78 8000 2.22 130.795 00:22 08.10.2019
6579 Rain 30 1012 66 8000 5.1 30 23:43 07.10.2019
6580 Rain 30 1012 66 8000 5.1 30 23:21 07.10.2019
6581 Rain 30 1012 62 8000 4.1 30 22:58 07.10.2019
6582 Rain 31 1012 62 8000 4.1 30 22:40 07.10.2019
6583 Rain 31 1012 62 8000 4.1 30 22:21 07.10.2019
6584 Rain 32 1013 59 8000 5.1 90 21:58 07.10.2019
6585 Rain 32 1013 59 8000 5.1 90 21:39 07.10.2019
6586 Rain 32 1013 59 8000 5.1 90 21:20 07.10.2019
6587 Rain 32 1013 59 8000 5.1 90 21:20 07.10.2019
6588 Clouds 32 1013 52 10000 5.1 180 20:58 07.10.2019
6589 Clouds 32 1013 52 10000 5.1 180 20:39 07.10.2019
6590 Clouds 33 1013 52 10000 5.1 180 20:20 07.10.2019
6591 Clouds 31 1014 66 10000 2.1 90 19:58 07.10.2019
6592 Clouds 31 1014 66 10000 2.1 90 19:40 07.10.2019
6593 Clouds 31 1014 66 10000 2.1 90 19:19 07.10.2019
6594 Clouds 32 1014 66 10000 3.1 90 18:58 07.10.2019
6595 Clouds 31 1014 66 10000 3.1 90 18:38 07.10.2019
6596 Clouds 32 1014 66 10000 3.1 90 18:18 07.10.2019
6597 Clouds 31 1014 74 10000 1.78 89.614 17:43 07.10.2019
6598 Clouds 31 1014 74 10000 1.78 89.614 17:22 07.10.2019
6599 Clouds 30 1015 78 10000 2.1 30 16:58 07.10.2019
6600 Clouds 29 1015 78 10000 2.1 30 16:39 07.10.2019
6601 Clouds 29 1015 78 10000 2.1 30 16:39 07.10.2019
6602 Clouds 29 1015 78 10000 2.1 30 16:20 07.10.2019
6603 Clouds 27 1015 83 10000 2.1 30 15:45 07.10.2019
6604 Clouds 28 1015 83 10000 2.1 30 15:26 07.10.2019
6605 Clouds 27 1014 94 10000 2.1 20 14:55 07.10.2019
6606 Clouds 27 1014 94 10000 2.1 20 14:37 07.10.2019
6607 Clouds 27 1014 94 10000 2.1 20 14:19 07.10.2019
6608 Clouds 26 1014 94 10000 2.1 30 13:41 07.10.2019
6609 Clouds 25 1014 94 10000 2.1 30 13:20 07.10.2019
6610 Clouds 25 1013 94 10000 2.6 20 12:55 07.10.2019
6611 Clouds 25 1013 94 10000 2.6 20 12:37 07.10.2019
6612 Clouds 25 1013 94 10000 2.6 20 12:19 07.10.2019
6613 Clouds 25 1013 94 10000 2.6 20 11:57 07.10.2019
6614 Clouds 25 1013 94 10000 2.6 20 11:37 07.10.2019
6615 Clouds 25 1013 94 10000 2.6 20 11:18 07.10.2019
6616 -273 0 0 0 0 0 10:41 07.10.2019
6617 Clouds 25 1013 100 10000 2.6 30 10:41 07.10.2019
6618 Clouds 26 1013 100 10000 2.6 30 10:20 07.10.2019
6619 Clouds 26 1013 94 10000 2.1 30 09:42 07.10.2019
6620 Clouds 26 1013 94 10000 2.1 30 09:23 07.10.2019
6621 Clouds 26 1013 94 10000 2.1 40 08:57 07.10.2019
6622 Clouds 26 1013 94 10000 2.1 40 08:57 07.10.2019
6623 Clouds 26 1013 94 10000 2.1 40 08:38 07.10.2019
6624 Clouds 26 1013 94 10000 2.1 40 08:19 07.10.2019
6625 Clouds 26 1014 94 10000 2.1 40 07:41 07.10.2019
6626 Clouds 26 1014 94 10000 2.1 40 07:22 07.10.2019
6627 Clouds 26 1014 88 10000 2.1 50 06:54 07.10.2019
6628 Clouds 26 1014 88 10000 2.1 50 06:34 07.10.2019
6629 Clouds 27 1014 88 10000 2.1 60 05:47 07.10.2019
6630 Clouds 27 1014 88 10000 2.1 60 05:22 07.10.2019
6631 Clouds 26 1014 94 10000 2.1 60 04:25 07.10.2019
6632 Clouds 27 1013 88 10000 2.1 70 03:44 07.10.2019
6633 Clouds 27 1013 88 10000 2.1 70 03:44 07.10.2019
6634 Clouds 28 1013 88 10000 2.1 70 03:20 07.10.2019
6635 Clouds 28 1012 78 10000 3.1 180 02:21 07.10.2019
6636 Clouds 28 1012 78 10000 3.1 180 01:50 07.10.2019
6637 Clouds 28 1012 78 10000 3.1 180 01:21 07.10.2019
6638 Clouds 29 1012 74 10000 4.1 180 00:39 07.10.2019
6639 Clouds 29 1012 74 10000 4.1 180 00:20 07.10.2019
6640 Thunderstorm 30 1012 66 10000 4.1 180 23:42 06.10.2019
6641 Thunderstorm 30 1012 66 10000 4.1 180 23:42 06.10.2019
6642 Thunderstorm 30 1012 66 10000 4.1 180 23:21 06.10.2019
6643 Thunderstorm 30 1012 66 10000 5.1 180 22:59 06.10.2019
6644 Thunderstorm 31 1012 66 10000 5.1 180 22:41 06.10.2019
6645 Thunderstorm 31 1012 66 10000 5.1 180 22:22 06.10.2019
6646 Clouds 31 1013 62 10000 5.1 180 21:57 06.10.2019
6647 Clouds 31 1013 62 10000 5.1 180